<?xml version="1.0" encoding="UTF-8" standalone="no" ?>
<gpx xmlns="http://www.topografix.com/GPX/1/1" xmlns:xsi="http://www.w3.org/2001/XMLSchema-instance" xsi:schemaLocation="http://www.topografix.com/GPX/1/1 http://www.topografix.com/GPX/1/1/gpx.xsd" version="1.1" creator="VisuGPX - https://www.visugpx.com">
  <metadata>
    <name>LOZERIENNE 26-05-2019</name>
  </metadata>
  <trk>
    <name><![CDATA[LOZERIENNE 26-05-2019]]></name>
    <trkseg>
      <trkpt lat="44.49027" lon="3.73894">
        <ele>1062.5999755859</ele>
        <time>2019-05-26T07:05:39Z</time>
      </trkpt>
      <trkpt lat="44.49022" lon="3.73915">
        <ele>1063</ele>
        <time>2019-05-26T07:05:45Z</time>
      </trkpt>
      <trkpt lat="44.49014" lon="3.73946">
        <ele>1063.8000488281</ele>
        <time>2019-05-26T07:05:52Z</time>
      </trkpt>
      <trkpt lat="44.49006" lon="3.73947">
        <ele>1064</ele>
        <time>2019-05-26T07:05:54Z</time>
      </trkpt>
      <trkpt lat="44.49002" lon="3.73945">
        <ele>1064</ele>
        <time>2019-05-26T07:05:55Z</time>
      </trkpt>
      <trkpt lat="44.48976" lon="3.7394">
        <ele>1064.4000244141</ele>
        <time>2019-05-26T07:06:00Z</time>
      </trkpt>
      <trkpt lat="44.48942" lon="3.73934">
        <ele>1064.5999755859</ele>
        <time>2019-05-26T07:06:06Z</time>
      </trkpt>
      <trkpt lat="44.48936" lon="3.73932">
        <ele>1064.8000488281</ele>
        <time>2019-05-26T07:06:07Z</time>
      </trkpt>
      <trkpt lat="44.48926" lon="3.73924">
        <ele>1064.8000488281</ele>
        <time>2019-05-26T07:06:09Z</time>
      </trkpt>
      <trkpt lat="44.48922" lon="3.73918">
        <ele>1064.8000488281</ele>
        <time>2019-05-26T07:06:10Z</time>
      </trkpt>
      <trkpt lat="44.48915" lon="3.73905">
        <ele>1065</ele>
        <time>2019-05-26T07:06:12Z</time>
      </trkpt>
      <trkpt lat="44.48912" lon="3.7389">
        <ele>1065</ele>
        <time>2019-05-26T07:06:14Z</time>
      </trkpt>
      <trkpt lat="44.48905" lon="3.73855">
        <ele>1065.4000244141</ele>
        <time>2019-05-26T07:06:20Z</time>
      </trkpt>
      <trkpt lat="44.48895" lon="3.73829">
        <ele>1066</ele>
        <time>2019-05-26T07:06:26Z</time>
      </trkpt>
      <trkpt lat="44.48883" lon="3.7382">
        <ele>1066.1999511719</ele>
        <time>2019-05-26T07:06:31Z</time>
      </trkpt>
      <trkpt lat="44.48869" lon="3.73813">
        <ele>1066.5999755859</ele>
        <time>2019-05-26T07:06:37Z</time>
      </trkpt>
      <trkpt lat="44.48851" lon="3.73798">
        <ele>1067.4000244141</ele>
        <time>2019-05-26T07:06:47Z</time>
      </trkpt>
      <trkpt lat="44.48837" lon="3.73785">
        <ele>1068.5999755859</ele>
        <time>2019-05-26T07:06:55Z</time>
      </trkpt>
      <trkpt lat="44.48824" lon="3.73768">
        <ele>1069.8000488281</ele>
        <time>2019-05-26T07:07:04Z</time>
      </trkpt>
      <trkpt lat="44.48811" lon="3.73749">
        <ele>1071.4000244141</ele>
        <time>2019-05-26T07:07:14Z</time>
      </trkpt>
      <trkpt lat="44.48798" lon="3.73731">
        <ele>1073.4000244141</ele>
        <time>2019-05-26T07:07:24Z</time>
      </trkpt>
      <trkpt lat="44.4879" lon="3.73718">
        <ele>1074.5999755859</ele>
        <time>2019-05-26T07:07:31Z</time>
      </trkpt>
      <trkpt lat="44.48782" lon="3.73706">
        <ele>1075.8000488281</ele>
        <time>2019-05-26T07:07:37Z</time>
      </trkpt>
      <trkpt lat="44.48769" lon="3.73688">
        <ele>1077.4000244141</ele>
        <time>2019-05-26T07:07:46Z</time>
      </trkpt>
      <trkpt lat="44.48755" lon="3.73678">
        <ele>1078.8000488281</ele>
        <time>2019-05-26T07:07:54Z</time>
      </trkpt>
      <trkpt lat="44.48736" lon="3.73662">
        <ele>1080.8000488281</ele>
        <time>2019-05-26T07:08:05Z</time>
      </trkpt>
      <trkpt lat="44.48721" lon="3.73658">
        <ele>1082.1999511719</ele>
        <time>2019-05-26T07:08:13Z</time>
      </trkpt>
      <trkpt lat="44.48705" lon="3.73657">
        <ele>1084.1999511719</ele>
        <time>2019-05-26T07:08:22Z</time>
      </trkpt>
      <trkpt lat="44.48691" lon="3.73659">
        <ele>1085.5999755859</ele>
        <time>2019-05-26T07:08:30Z</time>
      </trkpt>
      <trkpt lat="44.48677" lon="3.73667">
        <ele>1087.1999511719</ele>
        <time>2019-05-26T07:08:38Z</time>
      </trkpt>
      <trkpt lat="44.48662" lon="3.73678">
        <ele>1089.4000244141</ele>
        <time>2019-05-26T07:08:48Z</time>
      </trkpt>
      <trkpt lat="44.48648" lon="3.73693">
        <ele>1091.4000244141</ele>
        <time>2019-05-26T07:08:58Z</time>
      </trkpt>
      <trkpt lat="44.48633" lon="3.73708">
        <ele>1093.1999511719</ele>
        <time>2019-05-26T07:09:09Z</time>
      </trkpt>
      <trkpt lat="44.48621" lon="3.73726">
        <ele>1095</ele>
        <time>2019-05-26T07:09:19Z</time>
      </trkpt>
      <trkpt lat="44.48619" lon="3.73738">
        <ele>1096</ele>
        <time>2019-05-26T07:09:25Z</time>
      </trkpt>
      <trkpt lat="44.4862" lon="3.7374">
        <ele>1096.1999511719</ele>
        <time>2019-05-26T07:09:26Z</time>
      </trkpt>
      <trkpt lat="44.48625" lon="3.73755">
        <ele>1097.5999755859</ele>
        <time>2019-05-26T07:09:34Z</time>
      </trkpt>
      <trkpt lat="44.48622" lon="3.73769">
        <ele>1099.1999511719</ele>
        <time>2019-05-26T07:09:42Z</time>
      </trkpt>
      <trkpt lat="44.4862" lon="3.73771">
        <ele>1099.5999755859</ele>
        <time>2019-05-26T07:09:44Z</time>
      </trkpt>
      <trkpt lat="44.48616" lon="3.73776">
        <ele>1100.1999511719</ele>
        <time>2019-05-26T07:09:47Z</time>
      </trkpt>
      <trkpt lat="44.48614" lon="3.73778">
        <ele>1100.5999755859</ele>
        <time>2019-05-26T07:09:49Z</time>
      </trkpt>
      <trkpt lat="44.48608" lon="3.73783">
        <ele>1101.5999755859</ele>
        <time>2019-05-26T07:09:54Z</time>
      </trkpt>
      <trkpt lat="44.48594" lon="3.73792">
        <ele>1103.4000244141</ele>
        <time>2019-05-26T07:10:04Z</time>
      </trkpt>
      <trkpt lat="44.48582" lon="3.73798">
        <ele>1105.1999511719</ele>
        <time>2019-05-26T07:10:12Z</time>
      </trkpt>
      <trkpt lat="44.48572" lon="3.73806">
        <ele>1106.4000244141</ele>
        <time>2019-05-26T07:10:20Z</time>
      </trkpt>
      <trkpt lat="44.48561" lon="3.73814">
        <ele>1108</ele>
        <time>2019-05-26T07:10:27Z</time>
      </trkpt>
      <trkpt lat="44.48547" lon="3.73826">
        <ele>1109</ele>
        <time>2019-05-26T07:10:33Z</time>
      </trkpt>
      <trkpt lat="44.48532" lon="3.73843">
        <ele>1110.1999511719</ele>
        <time>2019-05-26T07:10:40Z</time>
      </trkpt>
      <trkpt lat="44.48515" lon="3.73859">
        <ele>1111.1999511719</ele>
        <time>2019-05-26T07:10:47Z</time>
      </trkpt>
      <trkpt lat="44.48497" lon="3.73876">
        <ele>1112.4000244141</ele>
        <time>2019-05-26T07:10:55Z</time>
      </trkpt>
      <trkpt lat="44.4848" lon="3.73892">
        <ele>1113.8000488281</ele>
        <time>2019-05-26T07:11:03Z</time>
      </trkpt>
      <trkpt lat="44.48467" lon="3.73904">
        <ele>1114.8000488281</ele>
        <time>2019-05-26T07:11:09Z</time>
      </trkpt>
      <trkpt lat="44.4845" lon="3.73919">
        <ele>1116</ele>
        <time>2019-05-26T07:11:17Z</time>
      </trkpt>
      <trkpt lat="44.48435" lon="3.73934">
        <ele>1117</ele>
        <time>2019-05-26T07:11:24Z</time>
      </trkpt>
      <trkpt lat="44.4842" lon="3.7395">
        <ele>1118</ele>
        <time>2019-05-26T07:11:31Z</time>
      </trkpt>
      <trkpt lat="44.48405" lon="3.73967">
        <ele>1119</ele>
        <time>2019-05-26T07:11:38Z</time>
      </trkpt>
      <trkpt lat="44.48388" lon="3.73986">
        <ele>1120</ele>
        <time>2019-05-26T07:11:46Z</time>
      </trkpt>
      <trkpt lat="44.48375" lon="3.74">
        <ele>1121</ele>
        <time>2019-05-26T07:11:54Z</time>
      </trkpt>
      <trkpt lat="44.48361" lon="3.74013">
        <ele>1122</ele>
        <time>2019-05-26T07:12:02Z</time>
      </trkpt>
      <trkpt lat="44.48352" lon="3.74021">
        <ele>1122.8000488281</ele>
        <time>2019-05-26T07:12:08Z</time>
      </trkpt>
      <trkpt lat="44.48342" lon="3.74022">
        <ele>1123.5999755859</ele>
        <time>2019-05-26T07:12:14Z</time>
      </trkpt>
      <trkpt lat="44.48333" lon="3.74019">
        <ele>1124.5999755859</ele>
        <time>2019-05-26T07:12:20Z</time>
      </trkpt>
      <trkpt lat="44.48331" lon="3.74015">
        <ele>1124.8000488281</ele>
        <time>2019-05-26T07:12:22Z</time>
      </trkpt>
      <trkpt lat="44.4833" lon="3.7401">
        <ele>1125.1999511719</ele>
        <time>2019-05-26T07:12:24Z</time>
      </trkpt>
      <trkpt lat="44.48325" lon="3.74002">
        <ele>1126.1999511719</ele>
        <time>2019-05-26T07:12:29Z</time>
      </trkpt>
      <trkpt lat="44.48324" lon="3.73998">
        <ele>1126.5999755859</ele>
        <time>2019-05-26T07:12:31Z</time>
      </trkpt>
      <trkpt lat="44.48321" lon="3.73991">
        <ele>1127.4000244141</ele>
        <time>2019-05-26T07:12:35Z</time>
      </trkpt>
      <trkpt lat="44.48318" lon="3.73987">
        <ele>1128</ele>
        <time>2019-05-26T07:12:38Z</time>
      </trkpt>
      <trkpt lat="44.48317" lon="3.73981">
        <ele>1128.4000244141</ele>
        <time>2019-05-26T07:12:41Z</time>
      </trkpt>
      <trkpt lat="44.48314" lon="3.73971">
        <ele>1129.5999755859</ele>
        <time>2019-05-26T07:12:47Z</time>
      </trkpt>
      <trkpt lat="44.48309" lon="3.73963">
        <ele>1131.1999511719</ele>
        <time>2019-05-26T07:12:53Z</time>
      </trkpt>
      <trkpt lat="44.48303" lon="3.7395">
        <ele>1132.8000488281</ele>
        <time>2019-05-26T07:13:01Z</time>
      </trkpt>
      <trkpt lat="44.483" lon="3.73944">
        <ele>1133.4000244141</ele>
        <time>2019-05-26T07:13:05Z</time>
      </trkpt>
      <trkpt lat="44.48298" lon="3.7394">
        <ele>1133.8000488281</ele>
        <time>2019-05-26T07:13:07Z</time>
      </trkpt>
      <trkpt lat="44.48296" lon="3.73935">
        <ele>1134.4000244141</ele>
        <time>2019-05-26T07:13:10Z</time>
      </trkpt>
      <trkpt lat="44.48295" lon="3.7393">
        <ele>1134.8000488281</ele>
        <time>2019-05-26T07:13:13Z</time>
      </trkpt>
      <trkpt lat="44.48289" lon="3.73917">
        <ele>1136</ele>
        <time>2019-05-26T07:13:21Z</time>
      </trkpt>
      <trkpt lat="44.48282" lon="3.73907">
        <ele>1137.4000244141</ele>
        <time>2019-05-26T07:13:29Z</time>
      </trkpt>
      <trkpt lat="44.48281" lon="3.73905">
        <ele>1137.5999755859</ele>
        <time>2019-05-26T07:13:30Z</time>
      </trkpt>
      <trkpt lat="44.48277" lon="3.739">
        <ele>1138.4000244141</ele>
        <time>2019-05-26T07:13:34Z</time>
      </trkpt>
      <trkpt lat="44.48271" lon="3.73896">
        <ele>1139.1999511719</ele>
        <time>2019-05-26T07:13:39Z</time>
      </trkpt>
      <trkpt lat="44.48269" lon="3.73894">
        <ele>1139.4000244141</ele>
        <time>2019-05-26T07:13:40Z</time>
      </trkpt>
      <trkpt lat="44.48258" lon="3.73893">
        <ele>1140.5999755859</ele>
        <time>2019-05-26T07:13:47Z</time>
      </trkpt>
      <trkpt lat="44.48246" lon="3.73893">
        <ele>1141.8000488281</ele>
        <time>2019-05-26T07:13:54Z</time>
      </trkpt>
      <trkpt lat="44.48233" lon="3.73895">
        <ele>1143.1999511719</ele>
        <time>2019-05-26T07:14:02Z</time>
      </trkpt>
      <trkpt lat="44.4822" lon="3.739">
        <ele>1144.4000244141</ele>
        <time>2019-05-26T07:14:09Z</time>
      </trkpt>
      <trkpt lat="44.48206" lon="3.73906">
        <ele>1145.5999755859</ele>
        <time>2019-05-26T07:14:18Z</time>
      </trkpt>
      <trkpt lat="44.48196" lon="3.73912">
        <ele>1146.8000488281</ele>
        <time>2019-05-26T07:14:26Z</time>
      </trkpt>
      <trkpt lat="44.48184" lon="3.73921">
        <ele>1148.1999511719</ele>
        <time>2019-05-26T07:14:35Z</time>
      </trkpt>
      <trkpt lat="44.48173" lon="3.7393">
        <ele>1149.4000244141</ele>
        <time>2019-05-26T07:14:44Z</time>
      </trkpt>
      <trkpt lat="44.48165" lon="3.73938">
        <ele>1150.5999755859</ele>
        <time>2019-05-26T07:14:51Z</time>
      </trkpt>
      <trkpt lat="44.4816" lon="3.73941">
        <ele>1151.1999511719</ele>
        <time>2019-05-26T07:14:54Z</time>
      </trkpt>
      <trkpt lat="44.48157" lon="3.73943">
        <ele>1151.5999755859</ele>
        <time>2019-05-26T07:14:56Z</time>
      </trkpt>
      <trkpt lat="44.48146" lon="3.73948">
        <ele>1152.5999755859</ele>
        <time>2019-05-26T07:15:02Z</time>
      </trkpt>
      <trkpt lat="44.48138" lon="3.73952">
        <ele>1153.4000244141</ele>
        <time>2019-05-26T07:15:07Z</time>
      </trkpt>
      <trkpt lat="44.48128" lon="3.73955">
        <ele>1154.4000244141</ele>
        <time>2019-05-26T07:15:13Z</time>
      </trkpt>
      <trkpt lat="44.4812" lon="3.73959">
        <ele>1155.5999755859</ele>
        <time>2019-05-26T07:15:19Z</time>
      </trkpt>
      <trkpt lat="44.4811" lon="3.73962">
        <ele>1156.5999755859</ele>
        <time>2019-05-26T07:15:26Z</time>
      </trkpt>
      <trkpt lat="44.48105" lon="3.73963">
        <ele>1157.4000244141</ele>
        <time>2019-05-26T07:15:29Z</time>
      </trkpt>
      <trkpt lat="44.48101" lon="3.73963">
        <ele>1157.8000488281</ele>
        <time>2019-05-26T07:15:31Z</time>
      </trkpt>
      <trkpt lat="44.481" lon="3.73964">
        <ele>1158</ele>
        <time>2019-05-26T07:15:32Z</time>
      </trkpt>
      <trkpt lat="44.48093" lon="3.73965">
        <ele>1158.5999755859</ele>
        <time>2019-05-26T07:15:36Z</time>
      </trkpt>
      <trkpt lat="44.48081" lon="3.73967">
        <ele>1159.8000488281</ele>
        <time>2019-05-26T07:15:43Z</time>
      </trkpt>
      <trkpt lat="44.48068" lon="3.73971">
        <ele>1161</ele>
        <time>2019-05-26T07:15:51Z</time>
      </trkpt>
      <trkpt lat="44.48058" lon="3.73976">
        <ele>1162</ele>
        <time>2019-05-26T07:15:58Z</time>
      </trkpt>
      <trkpt lat="44.48044" lon="3.73985">
        <ele>1163.1999511719</ele>
        <time>2019-05-26T07:16:07Z</time>
      </trkpt>
      <trkpt lat="44.4803" lon="3.73992">
        <ele>1164.1999511719</ele>
        <time>2019-05-26T07:16:13Z</time>
      </trkpt>
      <trkpt lat="44.48014" lon="3.73997">
        <ele>1165.4000244141</ele>
        <time>2019-05-26T07:16:20Z</time>
      </trkpt>
      <trkpt lat="44.47997" lon="3.74007">
        <ele>1166.4000244141</ele>
        <time>2019-05-26T07:16:28Z</time>
      </trkpt>
      <trkpt lat="44.47981" lon="3.74016">
        <ele>1167.5999755859</ele>
        <time>2019-05-26T07:16:36Z</time>
      </trkpt>
      <trkpt lat="44.4797" lon="3.74023">
        <ele>1168.1999511719</ele>
        <time>2019-05-26T07:16:41Z</time>
      </trkpt>
      <trkpt lat="44.47956" lon="3.74032">
        <ele>1169.5999755859</ele>
        <time>2019-05-26T07:16:48Z</time>
      </trkpt>
      <trkpt lat="44.4794" lon="3.7404">
        <ele>1171.1999511719</ele>
        <time>2019-05-26T07:16:56Z</time>
      </trkpt>
      <trkpt lat="44.47922" lon="3.74045">
        <ele>1173.1999511719</ele>
        <time>2019-05-26T07:17:04Z</time>
      </trkpt>
      <trkpt lat="44.47905" lon="3.74047">
        <ele>1175</ele>
        <time>2019-05-26T07:17:11Z</time>
      </trkpt>
      <trkpt lat="44.47885" lon="3.74051">
        <ele>1177.1999511719</ele>
        <time>2019-05-26T07:17:19Z</time>
      </trkpt>
      <trkpt lat="44.47866" lon="3.74051">
        <ele>1178.4000244141</ele>
        <time>2019-05-26T07:17:26Z</time>
      </trkpt>
      <trkpt lat="44.47844" lon="3.74049">
        <ele>1179</ele>
        <time>2019-05-26T07:17:34Z</time>
      </trkpt>
      <trkpt lat="44.47819" lon="3.7405">
        <ele>1179.8000488281</ele>
        <time>2019-05-26T07:17:41Z</time>
      </trkpt>
      <trkpt lat="44.4781" lon="3.74049">
        <ele>1180</ele>
        <time>2019-05-26T07:17:43Z</time>
      </trkpt>
      <trkpt lat="44.47797" lon="3.74047">
        <ele>1180.4000244141</ele>
        <time>2019-05-26T07:17:46Z</time>
      </trkpt>
      <trkpt lat="44.47764" lon="3.74044">
        <ele>1181</ele>
        <time>2019-05-26T07:17:53Z</time>
      </trkpt>
      <trkpt lat="44.47732" lon="3.7403">
        <ele>1181.4000244141</ele>
        <time>2019-05-26T07:18:00Z</time>
      </trkpt>
      <trkpt lat="44.47701" lon="3.74017">
        <ele>1181.8000488281</ele>
        <time>2019-05-26T07:18:07Z</time>
      </trkpt>
      <trkpt lat="44.47696" lon="3.74015">
        <ele>1181.8000488281</ele>
        <time>2019-05-26T07:18:08Z</time>
      </trkpt>
      <trkpt lat="44.47677" lon="3.74012">
        <ele>1182</ele>
        <time>2019-05-26T07:18:12Z</time>
      </trkpt>
      <trkpt lat="44.4766" lon="3.74007">
        <ele>1182.4000244141</ele>
        <time>2019-05-26T07:18:16Z</time>
      </trkpt>
      <trkpt lat="44.47652" lon="3.74004">
        <ele>1182.5999755859</ele>
        <time>2019-05-26T07:18:18Z</time>
      </trkpt>
      <trkpt lat="44.47628" lon="3.74002">
        <ele>1183.1999511719</ele>
        <time>2019-05-26T07:18:25Z</time>
      </trkpt>
      <trkpt lat="44.47608" lon="3.73997">
        <ele>1183.8000488281</ele>
        <time>2019-05-26T07:18:32Z</time>
      </trkpt>
      <trkpt lat="44.47594" lon="3.73995">
        <ele>1184.5999755859</ele>
        <time>2019-05-26T07:18:38Z</time>
      </trkpt>
      <trkpt lat="44.47575" lon="3.7399">
        <ele>1185.5999755859</ele>
        <time>2019-05-26T07:18:46Z</time>
      </trkpt>
      <trkpt lat="44.47563" lon="3.73989">
        <ele>1186.1999511719</ele>
        <time>2019-05-26T07:18:51Z</time>
      </trkpt>
      <trkpt lat="44.47544" lon="3.7398">
        <ele>1187.1999511719</ele>
        <time>2019-05-26T07:19:00Z</time>
      </trkpt>
      <trkpt lat="44.47526" lon="3.73965">
        <ele>1188.1999511719</ele>
        <time>2019-05-26T07:19:08Z</time>
      </trkpt>
      <trkpt lat="44.47511" lon="3.73946">
        <ele>1189.1999511719</ele>
        <time>2019-05-26T07:19:16Z</time>
      </trkpt>
      <trkpt lat="44.47494" lon="3.73923">
        <ele>1189.8000488281</ele>
        <time>2019-05-26T07:19:22Z</time>
      </trkpt>
      <trkpt lat="44.47473" lon="3.73892">
        <ele>1190.1999511719</ele>
        <time>2019-05-26T07:19:28Z</time>
      </trkpt>
      <trkpt lat="44.47447" lon="3.73864">
        <ele>1190.4000244141</ele>
        <time>2019-05-26T07:19:34Z</time>
      </trkpt>
      <trkpt lat="44.47443" lon="3.7386">
        <ele>1190.4000244141</ele>
        <time>2019-05-26T07:19:35Z</time>
      </trkpt>
      <trkpt lat="44.47433" lon="3.73855">
        <ele>1190.5999755859</ele>
        <time>2019-05-26T07:19:37Z</time>
      </trkpt>
      <trkpt lat="44.47417" lon="3.73851">
        <ele>1190.8000488281</ele>
        <time>2019-05-26T07:19:40Z</time>
      </trkpt>
      <trkpt lat="44.47412" lon="3.7385">
        <ele>1190.8000488281</ele>
        <time>2019-05-26T07:19:41Z</time>
      </trkpt>
      <trkpt lat="44.4739" lon="3.73845">
        <ele>1191</ele>
        <time>2019-05-26T07:19:45Z</time>
      </trkpt>
      <trkpt lat="44.4738" lon="3.73841">
        <ele>1191.1999511719</ele>
        <time>2019-05-26T07:19:47Z</time>
      </trkpt>
      <trkpt lat="44.47363" lon="3.73836">
        <ele>1191.5999755859</ele>
        <time>2019-05-26T07:19:52Z</time>
      </trkpt>
      <trkpt lat="44.47349" lon="3.73833">
        <ele>1192.1999511719</ele>
        <time>2019-05-26T07:19:59Z</time>
      </trkpt>
      <trkpt lat="44.47332" lon="3.73834">
        <ele>1192.8000488281</ele>
        <time>2019-05-26T07:20:08Z</time>
      </trkpt>
      <trkpt lat="44.47319" lon="3.73836">
        <ele>1193.8000488281</ele>
        <time>2019-05-26T07:20:16Z</time>
      </trkpt>
      <trkpt lat="44.47308" lon="3.73837">
        <ele>1194.8000488281</ele>
        <time>2019-05-26T07:20:23Z</time>
      </trkpt>
      <trkpt lat="44.47297" lon="3.73836">
        <ele>1196.1999511719</ele>
        <time>2019-05-26T07:20:31Z</time>
      </trkpt>
      <trkpt lat="44.47288" lon="3.73835">
        <ele>1197.8000488281</ele>
        <time>2019-05-26T07:20:38Z</time>
      </trkpt>
      <trkpt lat="44.47283" lon="3.73833">
        <ele>1198.5999755859</ele>
        <time>2019-05-26T07:20:42Z</time>
      </trkpt>
      <trkpt lat="44.47281" lon="3.73832">
        <ele>1199</ele>
        <time>2019-05-26T07:20:44Z</time>
      </trkpt>
      <trkpt lat="44.47274" lon="3.73831">
        <ele>1200.8000488281</ele>
        <time>2019-05-26T07:20:50Z</time>
      </trkpt>
      <trkpt lat="44.47272" lon="3.73831">
        <ele>1201.4000244141</ele>
        <time>2019-05-26T07:20:52Z</time>
      </trkpt>
      <trkpt lat="44.4723" lon="3.73813">
        <ele>1211.4000244141</ele>
        <time>2019-05-26T07:21:34Z</time>
      </trkpt>
      <trkpt lat="44.47225" lon="3.73813">
        <ele>1212.4000244141</ele>
        <time>2019-05-26T07:21:38Z</time>
      </trkpt>
      <trkpt lat="44.47214" lon="3.73815">
        <ele>1214.8000488281</ele>
        <time>2019-05-26T07:21:47Z</time>
      </trkpt>
      <trkpt lat="44.47203" lon="3.73817">
        <ele>1217</ele>
        <time>2019-05-26T07:21:55Z</time>
      </trkpt>
      <trkpt lat="44.47193" lon="3.73819">
        <ele>1219</ele>
        <time>2019-05-26T07:22:02Z</time>
      </trkpt>
      <trkpt lat="44.47182" lon="3.7382">
        <ele>1220.8000488281</ele>
        <time>2019-05-26T07:22:09Z</time>
      </trkpt>
      <trkpt lat="44.47169" lon="3.73824">
        <ele>1222.8000488281</ele>
        <time>2019-05-26T07:22:18Z</time>
      </trkpt>
      <trkpt lat="44.47159" lon="3.73827">
        <ele>1225</ele>
        <time>2019-05-26T07:22:25Z</time>
      </trkpt>
      <trkpt lat="44.47148" lon="3.73831">
        <ele>1226.1999511719</ele>
        <time>2019-05-26T07:22:31Z</time>
      </trkpt>
      <trkpt lat="44.47139" lon="3.73836">
        <ele>1227.1999511719</ele>
        <time>2019-05-26T07:22:38Z</time>
      </trkpt>
      <trkpt lat="44.47137" lon="3.73838">
        <ele>1227.4000244141</ele>
        <time>2019-05-26T07:22:40Z</time>
      </trkpt>
      <trkpt lat="44.47134" lon="3.73841">
        <ele>1227.8000488281</ele>
        <time>2019-05-26T07:22:43Z</time>
      </trkpt>
      <trkpt lat="44.47125" lon="3.73846">
        <ele>1228.4000244141</ele>
        <time>2019-05-26T07:22:49Z</time>
      </trkpt>
      <trkpt lat="44.47121" lon="3.73848">
        <ele>1228.5999755859</ele>
        <time>2019-05-26T07:22:52Z</time>
      </trkpt>
      <trkpt lat="44.47116" lon="3.7385">
        <ele>1229.1999511719</ele>
        <time>2019-05-26T07:22:56Z</time>
      </trkpt>
      <trkpt lat="44.47104" lon="3.73855">
        <ele>1230</ele>
        <time>2019-05-26T07:23:04Z</time>
      </trkpt>
      <trkpt lat="44.47095" lon="3.73863">
        <ele>1230.8000488281</ele>
        <time>2019-05-26T07:23:12Z</time>
      </trkpt>
      <trkpt lat="44.47091" lon="3.73874">
        <ele>1231</ele>
        <time>2019-05-26T07:23:18Z</time>
      </trkpt>
      <trkpt lat="44.4709" lon="3.73878">
        <ele>1231</ele>
        <time>2019-05-26T07:23:20Z</time>
      </trkpt>
      <trkpt lat="44.47087" lon="3.73885">
        <ele>1231</ele>
        <time>2019-05-26T07:23:24Z</time>
      </trkpt>
      <trkpt lat="44.47085" lon="3.73892">
        <ele>1231.1999511719</ele>
        <time>2019-05-26T07:23:28Z</time>
      </trkpt>
      <trkpt lat="44.4708" lon="3.73903">
        <ele>1231.4000244141</ele>
        <time>2019-05-26T07:23:34Z</time>
      </trkpt>
      <trkpt lat="44.47079" lon="3.73905">
        <ele>1231.4000244141</ele>
        <time>2019-05-26T07:23:35Z</time>
      </trkpt>
      <trkpt lat="44.47078" lon="3.73908">
        <ele>1231.5999755859</ele>
        <time>2019-05-26T07:23:37Z</time>
      </trkpt>
      <trkpt lat="44.47076" lon="3.73912">
        <ele>1231.4000244141</ele>
        <time>2019-05-26T07:23:40Z</time>
      </trkpt>
      <trkpt lat="44.4707" lon="3.73923">
        <ele>1231.4000244141</ele>
        <time>2019-05-26T07:23:46Z</time>
      </trkpt>
      <trkpt lat="44.47063" lon="3.73937">
        <ele>1231.4000244141</ele>
        <time>2019-05-26T07:23:53Z</time>
      </trkpt>
      <trkpt lat="44.47054" lon="3.7395">
        <ele>1232</ele>
        <time>2019-05-26T07:23:58Z</time>
      </trkpt>
      <trkpt lat="44.47051" lon="3.73953">
        <ele>1232</ele>
        <time>2019-05-26T07:24:00Z</time>
      </trkpt>
      <trkpt lat="44.47048" lon="3.73956">
        <ele>1232</ele>
        <time>2019-05-26T07:24:02Z</time>
      </trkpt>
      <trkpt lat="44.47046" lon="3.73959">
        <ele>1232.1999511719</ele>
        <time>2019-05-26T07:24:03Z</time>
      </trkpt>
      <trkpt lat="44.47037" lon="3.73973">
        <ele>1232.1999511719</ele>
        <time>2019-05-26T07:24:09Z</time>
      </trkpt>
      <trkpt lat="44.47033" lon="3.73981">
        <ele>1232.4000244141</ele>
        <time>2019-05-26T07:24:13Z</time>
      </trkpt>
      <trkpt lat="44.47032" lon="3.73983">
        <ele>1232.4000244141</ele>
        <time>2019-05-26T07:24:16Z</time>
      </trkpt>
      <trkpt lat="44.47022" lon="3.73996">
        <ele>1232.4000244141</ele>
        <time>2019-05-26T07:24:21Z</time>
      </trkpt>
      <trkpt lat="44.4702" lon="3.73999">
        <ele>1232.5999755859</ele>
        <time>2019-05-26T07:24:22Z</time>
      </trkpt>
      <trkpt lat="44.47012" lon="3.74008">
        <ele>1232.5999755859</ele>
        <time>2019-05-26T07:24:25Z</time>
      </trkpt>
      <trkpt lat="44.47004" lon="3.74017">
        <ele>1232.8000488281</ele>
        <time>2019-05-26T07:24:28Z</time>
      </trkpt>
      <trkpt lat="44.47001" lon="3.74019">
        <ele>1232.8000488281</ele>
        <time>2019-05-26T07:24:29Z</time>
      </trkpt>
      <trkpt lat="44.46987" lon="3.74032">
        <ele>1233.5999755859</ele>
        <time>2019-05-26T07:24:35Z</time>
      </trkpt>
      <trkpt lat="44.46979" lon="3.74038">
        <ele>1234</ele>
        <time>2019-05-26T07:24:39Z</time>
      </trkpt>
      <trkpt lat="44.46972" lon="3.74045">
        <ele>1234.4000244141</ele>
        <time>2019-05-26T07:24:44Z</time>
      </trkpt>
      <trkpt lat="44.46962" lon="3.74052">
        <ele>1234.8000488281</ele>
        <time>2019-05-26T07:24:49Z</time>
      </trkpt>
      <trkpt lat="44.4695" lon="3.74067">
        <ele>1235.5999755859</ele>
        <time>2019-05-26T07:24:55Z</time>
      </trkpt>
      <trkpt lat="44.46943" lon="3.74077">
        <ele>1236</ele>
        <time>2019-05-26T07:24:59Z</time>
      </trkpt>
      <trkpt lat="44.46932" lon="3.74092">
        <ele>1237.1999511719</ele>
        <time>2019-05-26T07:25:05Z</time>
      </trkpt>
      <trkpt lat="44.46925" lon="3.74101">
        <ele>1238</ele>
        <time>2019-05-26T07:25:09Z</time>
      </trkpt>
      <trkpt lat="44.46917" lon="3.7411">
        <ele>1238.5999755859</ele>
        <time>2019-05-26T07:25:13Z</time>
      </trkpt>
      <trkpt lat="44.46915" lon="3.74113">
        <ele>1238.8000488281</ele>
        <time>2019-05-26T07:25:14Z</time>
      </trkpt>
      <trkpt lat="44.46905" lon="3.74127">
        <ele>1239.8000488281</ele>
        <time>2019-05-26T07:25:19Z</time>
      </trkpt>
      <trkpt lat="44.4689" lon="3.74143">
        <ele>1241.8000488281</ele>
        <time>2019-05-26T07:25:26Z</time>
      </trkpt>
      <trkpt lat="44.46884" lon="3.74149">
        <ele>1242.5999755859</ele>
        <time>2019-05-26T07:25:30Z</time>
      </trkpt>
      <trkpt lat="44.46879" lon="3.74158">
        <ele>1243.4000244141</ele>
        <time>2019-05-26T07:25:35Z</time>
      </trkpt>
      <trkpt lat="44.46876" lon="3.74165">
        <ele>1243.8000488281</ele>
        <time>2019-05-26T07:25:38Z</time>
      </trkpt>
      <trkpt lat="44.46875" lon="3.74166">
        <ele>1243.8000488281</ele>
        <time>2019-05-26T07:25:39Z</time>
      </trkpt>
      <trkpt lat="44.46873" lon="3.74173">
        <ele>1244</ele>
        <time>2019-05-26T07:25:42Z</time>
      </trkpt>
      <trkpt lat="44.46868" lon="3.74183">
        <ele>1244.5999755859</ele>
        <time>2019-05-26T07:25:46Z</time>
      </trkpt>
      <trkpt lat="44.46863" lon="3.74195">
        <ele>1245.5999755859</ele>
        <time>2019-05-26T07:25:51Z</time>
      </trkpt>
      <trkpt lat="44.46858" lon="3.74209">
        <ele>1247</ele>
        <time>2019-05-26T07:25:54Z</time>
      </trkpt>
      <trkpt lat="44.46847" lon="3.74249">
        <ele>1251.4000244141</ele>
        <time>2019-05-26T07:26:09Z</time>
      </trkpt>
      <trkpt lat="44.46847" lon="3.74252">
        <ele>1252</ele>
        <time>2019-05-26T07:26:11Z</time>
      </trkpt>
      <trkpt lat="44.46846" lon="3.7426">
        <ele>1252.8000488281</ele>
        <time>2019-05-26T07:26:14Z</time>
      </trkpt>
      <trkpt lat="44.46846" lon="3.74278">
        <ele>1254</ele>
        <time>2019-05-26T07:26:20Z</time>
      </trkpt>
      <trkpt lat="44.46848" lon="3.74294">
        <ele>1254.8000488281</ele>
        <time>2019-05-26T07:26:25Z</time>
      </trkpt>
      <trkpt lat="44.4685" lon="3.743">
        <ele>1255.1999511719</ele>
        <time>2019-05-26T07:26:27Z</time>
      </trkpt>
      <trkpt lat="44.4685" lon="3.74304">
        <ele>1255.4000244141</ele>
        <time>2019-05-26T07:26:28Z</time>
      </trkpt>
      <trkpt lat="44.46852" lon="3.74323">
        <ele>1256.1999511719</ele>
        <time>2019-05-26T07:26:33Z</time>
      </trkpt>
      <trkpt lat="44.46854" lon="3.74343">
        <ele>1257</ele>
        <time>2019-05-26T07:26:38Z</time>
      </trkpt>
      <trkpt lat="44.46857" lon="3.74364">
        <ele>1257.4000244141</ele>
        <time>2019-05-26T07:26:44Z</time>
      </trkpt>
      <trkpt lat="44.4686" lon="3.74386">
        <ele>1258.4000244141</ele>
        <time>2019-05-26T07:26:50Z</time>
      </trkpt>
      <trkpt lat="44.4686" lon="3.7439">
        <ele>1258.5999755859</ele>
        <time>2019-05-26T07:26:51Z</time>
      </trkpt>
      <trkpt lat="44.46863" lon="3.74406">
        <ele>1259</ele>
        <time>2019-05-26T07:26:56Z</time>
      </trkpt>
      <trkpt lat="44.46861" lon="3.74419">
        <ele>1260</ele>
        <time>2019-05-26T07:27:01Z</time>
      </trkpt>
      <trkpt lat="44.4686" lon="3.74423">
        <ele>1260.1999511719</ele>
        <time>2019-05-26T07:27:03Z</time>
      </trkpt>
      <trkpt lat="44.46859" lon="3.74429">
        <ele>1260.8000488281</ele>
        <time>2019-05-26T07:27:05Z</time>
      </trkpt>
      <trkpt lat="44.46858" lon="3.74435">
        <ele>1261</ele>
        <time>2019-05-26T07:27:07Z</time>
      </trkpt>
      <trkpt lat="44.46853" lon="3.74452">
        <ele>1262.4000244141</ele>
        <time>2019-05-26T07:27:14Z</time>
      </trkpt>
      <trkpt lat="44.46847" lon="3.74465">
        <ele>1263.8000488281</ele>
        <time>2019-05-26T07:27:20Z</time>
      </trkpt>
      <trkpt lat="44.46842" lon="3.74474">
        <ele>1265</ele>
        <time>2019-05-26T07:27:26Z</time>
      </trkpt>
      <trkpt lat="44.46832" lon="3.74488">
        <ele>1267.1999511719</ele>
        <time>2019-05-26T07:27:35Z</time>
      </trkpt>
      <trkpt lat="44.46824" lon="3.74497">
        <ele>1269</ele>
        <time>2019-05-26T07:27:42Z</time>
      </trkpt>
      <trkpt lat="44.46818" lon="3.74507">
        <ele>1270.8000488281</ele>
        <time>2019-05-26T07:27:48Z</time>
      </trkpt>
      <trkpt lat="44.46812" lon="3.74516">
        <ele>1272.5999755859</ele>
        <time>2019-05-26T07:27:55Z</time>
      </trkpt>
      <trkpt lat="44.46805" lon="3.74524">
        <ele>1274</ele>
        <time>2019-05-26T07:28:01Z</time>
      </trkpt>
      <trkpt lat="44.468" lon="3.7453">
        <ele>1275.1999511719</ele>
        <time>2019-05-26T07:28:06Z</time>
      </trkpt>
      <trkpt lat="44.46798" lon="3.74533">
        <ele>1275.8000488281</ele>
        <time>2019-05-26T07:28:08Z</time>
      </trkpt>
      <trkpt lat="44.46792" lon="3.74538">
        <ele>1277.1999511719</ele>
        <time>2019-05-26T07:28:13Z</time>
      </trkpt>
      <trkpt lat="44.46759" lon="3.74565">
        <ele>1283.8000488281</ele>
        <time>2019-05-26T07:28:42Z</time>
      </trkpt>
      <trkpt lat="44.46753" lon="3.74571">
        <ele>1285.5999755859</ele>
        <time>2019-05-26T07:28:48Z</time>
      </trkpt>
      <trkpt lat="44.4669" lon="3.74628">
        <ele>1298.8000488281</ele>
        <time>2019-05-26T07:29:51Z</time>
      </trkpt>
      <trkpt lat="44.46685" lon="3.74632">
        <ele>1299.5999755859</ele>
        <time>2019-05-26T07:29:55Z</time>
      </trkpt>
      <trkpt lat="44.46684" lon="3.74632">
        <ele>1299.8000488281</ele>
        <time>2019-05-26T07:29:56Z</time>
      </trkpt>
      <trkpt lat="44.4664" lon="3.74654">
        <ele>1307.5999755859</ele>
        <time>2019-05-26T07:30:32Z</time>
      </trkpt>
      <trkpt lat="44.46634" lon="3.74656">
        <ele>1308.5999755859</ele>
        <time>2019-05-26T07:30:36Z</time>
      </trkpt>
      <trkpt lat="44.46626" lon="3.74657">
        <ele>1310.1999511719</ele>
        <time>2019-05-26T07:30:42Z</time>
      </trkpt>
      <trkpt lat="44.46625" lon="3.74657">
        <ele>1310.4000244141</ele>
        <time>2019-05-26T07:30:43Z</time>
      </trkpt>
      <trkpt lat="44.46618" lon="3.74659">
        <ele>1311.8000488281</ele>
        <time>2019-05-26T07:30:48Z</time>
      </trkpt>
      <trkpt lat="44.46613" lon="3.7466">
        <ele>1312.8000488281</ele>
        <time>2019-05-26T07:30:52Z</time>
      </trkpt>
      <trkpt lat="44.46612" lon="3.7466">
        <ele>1313.1999511719</ele>
        <time>2019-05-26T07:30:53Z</time>
      </trkpt>
      <trkpt lat="44.46609" lon="3.74662">
        <ele>1314</ele>
        <time>2019-05-26T07:30:56Z</time>
      </trkpt>
      <trkpt lat="44.46606" lon="3.74663">
        <ele>1314.5999755859</ele>
        <time>2019-05-26T07:30:58Z</time>
      </trkpt>
      <trkpt lat="44.46605" lon="3.74663">
        <ele>1314.8000488281</ele>
        <time>2019-05-26T07:30:59Z</time>
      </trkpt>
      <trkpt lat="44.46603" lon="3.74664">
        <ele>1315.5999755859</ele>
        <time>2019-05-26T07:31:01Z</time>
      </trkpt>
      <trkpt lat="44.46597" lon="3.74667">
        <ele>1316.8000488281</ele>
        <time>2019-05-26T07:31:05Z</time>
      </trkpt>
      <trkpt lat="44.46587" lon="3.74668">
        <ele>1319</ele>
        <time>2019-05-26T07:31:13Z</time>
      </trkpt>
      <trkpt lat="44.46585" lon="3.74668">
        <ele>1319.8000488281</ele>
        <time>2019-05-26T07:31:15Z</time>
      </trkpt>
      <trkpt lat="44.4657" lon="3.74682">
        <ele>1324.5999755859</ele>
        <time>2019-05-26T07:31:35Z</time>
      </trkpt>
      <trkpt lat="44.46568" lon="3.74684">
        <ele>1325</ele>
        <time>2019-05-26T07:31:36Z</time>
      </trkpt>
      <trkpt lat="44.46566" lon="3.74688">
        <ele>1325.4000244141</ele>
        <time>2019-05-26T07:31:38Z</time>
      </trkpt>
      <trkpt lat="44.46563" lon="3.7469">
        <ele>1325.8000488281</ele>
        <time>2019-05-26T07:31:40Z</time>
      </trkpt>
      <trkpt lat="44.4656" lon="3.74692">
        <ele>1326.4000244141</ele>
        <time>2019-05-26T07:31:42Z</time>
      </trkpt>
      <trkpt lat="44.46552" lon="3.74706">
        <ele>1327.1999511719</ele>
        <time>2019-05-26T07:31:49Z</time>
      </trkpt>
      <trkpt lat="44.4655" lon="3.74709">
        <ele>1327.1999511719</ele>
        <time>2019-05-26T07:31:50Z</time>
      </trkpt>
      <trkpt lat="44.46549" lon="3.7471">
        <ele>1327.4000244141</ele>
        <time>2019-05-26T07:31:51Z</time>
      </trkpt>
      <trkpt lat="44.46543" lon="3.74717">
        <ele>1328</ele>
        <time>2019-05-26T07:31:55Z</time>
      </trkpt>
      <trkpt lat="44.46531" lon="3.74726">
        <ele>1329</ele>
        <time>2019-05-26T07:32:02Z</time>
      </trkpt>
      <trkpt lat="44.4653" lon="3.74728">
        <ele>1329.1999511719</ele>
        <time>2019-05-26T07:32:03Z</time>
      </trkpt>
      <trkpt lat="44.46522" lon="3.74733">
        <ele>1329.5999755859</ele>
        <time>2019-05-26T07:32:07Z</time>
      </trkpt>
      <trkpt lat="44.46513" lon="3.74738">
        <ele>1330</ele>
        <time>2019-05-26T07:32:13Z</time>
      </trkpt>
      <trkpt lat="44.46509" lon="3.74739">
        <ele>1330.1999511719</ele>
        <time>2019-05-26T07:32:17Z</time>
      </trkpt>
      <trkpt lat="44.46488" lon="3.74759">
        <ele>1331.4000244141</ele>
        <time>2019-05-26T07:32:36Z</time>
      </trkpt>
      <trkpt lat="44.46487" lon="3.7476">
        <ele>1331.5999755859</ele>
        <time>2019-05-26T07:32:37Z</time>
      </trkpt>
      <trkpt lat="44.46486" lon="3.74761">
        <ele>1331.5999755859</ele>
        <time>2019-05-26T07:32:38Z</time>
      </trkpt>
      <trkpt lat="44.46422" lon="3.74812">
        <ele>1344.1999511719</ele>
        <time>2019-05-26T07:33:40Z</time>
      </trkpt>
      <trkpt lat="44.4642" lon="3.74814">
        <ele>1344.5999755859</ele>
        <time>2019-05-26T07:33:42Z</time>
      </trkpt>
      <trkpt lat="44.46332" lon="3.74836">
        <ele>1365.5999755859</ele>
        <time>2019-05-26T07:35:16Z</time>
      </trkpt>
      <trkpt lat="44.46327" lon="3.74838">
        <ele>1366.4000244141</ele>
        <time>2019-05-26T07:35:20Z</time>
      </trkpt>
      <trkpt lat="44.46325" lon="3.74838">
        <ele>1366.8000488281</ele>
        <time>2019-05-26T07:35:21Z</time>
      </trkpt>
      <trkpt lat="44.46315" lon="3.74836">
        <ele>1368.5999755859</ele>
        <time>2019-05-26T07:35:29Z</time>
      </trkpt>
      <trkpt lat="44.46308" lon="3.74834">
        <ele>1369.8000488281</ele>
        <time>2019-05-26T07:35:35Z</time>
      </trkpt>
      <trkpt lat="44.46283" lon="3.74819">
        <ele>1374.4000244141</ele>
        <time>2019-05-26T07:35:59Z</time>
      </trkpt>
      <trkpt lat="44.46281" lon="3.74819">
        <ele>1374.5999755859</ele>
        <time>2019-05-26T07:36:00Z</time>
      </trkpt>
      <trkpt lat="44.4627" lon="3.74819">
        <ele>1375.5999755859</ele>
        <time>2019-05-26T07:36:07Z</time>
      </trkpt>
      <trkpt lat="44.46258" lon="3.74817">
        <ele>1376.8000488281</ele>
        <time>2019-05-26T07:36:15Z</time>
      </trkpt>
      <trkpt lat="44.46248" lon="3.74814">
        <ele>1378</ele>
        <time>2019-05-26T07:36:22Z</time>
      </trkpt>
      <trkpt lat="44.46238" lon="3.74812">
        <ele>1379.1999511719</ele>
        <time>2019-05-26T07:36:29Z</time>
      </trkpt>
      <trkpt lat="44.46225" lon="3.74806">
        <ele>1380.5999755859</ele>
        <time>2019-05-26T07:36:37Z</time>
      </trkpt>
      <trkpt lat="44.46212" lon="3.74803">
        <ele>1382.1999511719</ele>
        <time>2019-05-26T07:36:45Z</time>
      </trkpt>
      <trkpt lat="44.46201" lon="3.748">
        <ele>1383.1999511719</ele>
        <time>2019-05-26T07:36:51Z</time>
      </trkpt>
      <trkpt lat="44.46191" lon="3.74797">
        <ele>1384.4000244141</ele>
        <time>2019-05-26T07:36:57Z</time>
      </trkpt>
      <trkpt lat="44.46187" lon="3.74796">
        <ele>1384.5999755859</ele>
        <time>2019-05-26T07:36:59Z</time>
      </trkpt>
      <trkpt lat="44.46174" lon="3.74794">
        <ele>1386.1999511719</ele>
        <time>2019-05-26T07:37:06Z</time>
      </trkpt>
      <trkpt lat="44.46171" lon="3.74793">
        <ele>1386.4000244141</ele>
        <time>2019-05-26T07:37:08Z</time>
      </trkpt>
      <trkpt lat="44.46166" lon="3.74793">
        <ele>1387</ele>
        <time>2019-05-26T07:37:11Z</time>
      </trkpt>
      <trkpt lat="44.46155" lon="3.74791">
        <ele>1387.8000488281</ele>
        <time>2019-05-26T07:37:17Z</time>
      </trkpt>
      <trkpt lat="44.46141" lon="3.74792">
        <ele>1389.1999511719</ele>
        <time>2019-05-26T07:37:25Z</time>
      </trkpt>
      <trkpt lat="44.46128" lon="3.74796">
        <ele>1390.8000488281</ele>
        <time>2019-05-26T07:37:33Z</time>
      </trkpt>
      <trkpt lat="44.46115" lon="3.74802">
        <ele>1392.1999511719</ele>
        <time>2019-05-26T07:37:40Z</time>
      </trkpt>
      <trkpt lat="44.46102" lon="3.74804">
        <ele>1393.4000244141</ele>
        <time>2019-05-26T07:37:46Z</time>
      </trkpt>
      <trkpt lat="44.46089" lon="3.74805">
        <ele>1394.4000244141</ele>
        <time>2019-05-26T07:37:53Z</time>
      </trkpt>
      <trkpt lat="44.46074" lon="3.74808">
        <ele>1395.4000244141</ele>
        <time>2019-05-26T07:38:00Z</time>
      </trkpt>
      <trkpt lat="44.46061" lon="3.74812">
        <ele>1396.4000244141</ele>
        <time>2019-05-26T07:38:06Z</time>
      </trkpt>
      <trkpt lat="44.46037" lon="3.7482">
        <ele>1398</ele>
        <time>2019-05-26T07:38:16Z</time>
      </trkpt>
      <trkpt lat="44.46018" lon="3.74827">
        <ele>1399</ele>
        <time>2019-05-26T07:38:22Z</time>
      </trkpt>
      <trkpt lat="44.45997" lon="3.74837">
        <ele>1399.8000488281</ele>
        <time>2019-05-26T07:38:28Z</time>
      </trkpt>
      <trkpt lat="44.45973" lon="3.74842">
        <ele>1400.4000244141</ele>
        <time>2019-05-26T07:38:35Z</time>
      </trkpt>
      <trkpt lat="44.45949" lon="3.74843">
        <ele>1401</ele>
        <time>2019-05-26T07:38:41Z</time>
      </trkpt>
      <trkpt lat="44.45944" lon="3.74843">
        <ele>1401.1999511719</ele>
        <time>2019-05-26T07:38:42Z</time>
      </trkpt>
      <trkpt lat="44.45918" lon="3.74852">
        <ele>1401.4000244141</ele>
        <time>2019-05-26T07:38:47Z</time>
      </trkpt>
      <trkpt lat="44.45874" lon="3.74868">
        <ele>1401.5999755859</ele>
        <time>2019-05-26T07:38:54Z</time>
      </trkpt>
      <trkpt lat="44.45827" lon="3.74885">
        <ele>1401.8000488281</ele>
        <time>2019-05-26T07:39:01Z</time>
      </trkpt>
      <trkpt lat="44.45798" lon="3.74897">
        <ele>1401.8000488281</ele>
        <time>2019-05-26T07:39:05Z</time>
      </trkpt>
      <trkpt lat="44.45791" lon="3.74901">
        <ele>1401.8000488281</ele>
        <time>2019-05-26T07:39:06Z</time>
      </trkpt>
      <trkpt lat="44.45737" lon="3.7493">
        <ele>1401.5999755859</ele>
        <time>2019-05-26T07:39:13Z</time>
      </trkpt>
      <trkpt lat="44.457" lon="3.74949">
        <ele>1401.5999755859</ele>
        <time>2019-05-26T07:39:18Z</time>
      </trkpt>
      <trkpt lat="44.45693" lon="3.74952">
        <ele>1401.5999755859</ele>
        <time>2019-05-26T07:39:19Z</time>
      </trkpt>
      <trkpt lat="44.45686" lon="3.74953">
        <ele>1401.5999755859</ele>
        <time>2019-05-26T07:39:20Z</time>
      </trkpt>
      <trkpt lat="44.45671" lon="3.74951">
        <ele>1401.4000244141</ele>
        <time>2019-05-26T07:39:22Z</time>
      </trkpt>
      <trkpt lat="44.45617" lon="3.74943">
        <ele>1401.4000244141</ele>
        <time>2019-05-26T07:39:30Z</time>
      </trkpt>
      <trkpt lat="44.45583" lon="3.7494">
        <ele>1401.5999755859</ele>
        <time>2019-05-26T07:39:36Z</time>
      </trkpt>
      <trkpt lat="44.45577" lon="3.74941">
        <ele>1401.5999755859</ele>
        <time>2019-05-26T07:39:37Z</time>
      </trkpt>
      <trkpt lat="44.45572" lon="3.74941">
        <ele>1401.5999755859</ele>
        <time>2019-05-26T07:39:38Z</time>
      </trkpt>
      <trkpt lat="44.45548" lon="3.74936">
        <ele>1401.8000488281</ele>
        <time>2019-05-26T07:39:43Z</time>
      </trkpt>
      <trkpt lat="44.45524" lon="3.7493">
        <ele>1402.1999511719</ele>
        <time>2019-05-26T07:39:49Z</time>
      </trkpt>
      <trkpt lat="44.45504" lon="3.7493">
        <ele>1402.4000244141</ele>
        <time>2019-05-26T07:39:55Z</time>
      </trkpt>
      <trkpt lat="44.45482" lon="3.74929">
        <ele>1403</ele>
        <time>2019-05-26T07:40:02Z</time>
      </trkpt>
      <trkpt lat="44.45464" lon="3.74927">
        <ele>1403.5999755859</ele>
        <time>2019-05-26T07:40:09Z</time>
      </trkpt>
      <trkpt lat="44.45445" lon="3.74926">
        <ele>1404</ele>
        <time>2019-05-26T07:40:16Z</time>
      </trkpt>
      <trkpt lat="44.45427" lon="3.7493">
        <ele>1404.5999755859</ele>
        <time>2019-05-26T07:40:23Z</time>
      </trkpt>
      <trkpt lat="44.45406" lon="3.74928">
        <ele>1405.1999511719</ele>
        <time>2019-05-26T07:40:31Z</time>
      </trkpt>
      <trkpt lat="44.45391" lon="3.74923">
        <ele>1405.8000488281</ele>
        <time>2019-05-26T07:40:37Z</time>
      </trkpt>
      <trkpt lat="44.4537" lon="3.74915">
        <ele>1406.8000488281</ele>
        <time>2019-05-26T07:40:45Z</time>
      </trkpt>
      <trkpt lat="44.45354" lon="3.74904">
        <ele>1407.4000244141</ele>
        <time>2019-05-26T07:40:52Z</time>
      </trkpt>
      <trkpt lat="44.45334" lon="3.74894">
        <ele>1408.4000244141</ele>
        <time>2019-05-26T07:41:00Z</time>
      </trkpt>
      <trkpt lat="44.45321" lon="3.74888">
        <ele>1409</ele>
        <time>2019-05-26T07:41:05Z</time>
      </trkpt>
      <trkpt lat="44.45309" lon="3.74883">
        <ele>1409.5999755859</ele>
        <time>2019-05-26T07:41:09Z</time>
      </trkpt>
      <trkpt lat="44.45294" lon="3.74872">
        <ele>1410</ele>
        <time>2019-05-26T07:41:14Z</time>
      </trkpt>
      <trkpt lat="44.45291" lon="3.74869">
        <ele>1410.1999511719</ele>
        <time>2019-05-26T07:41:15Z</time>
      </trkpt>
      <trkpt lat="44.45281" lon="3.74855">
        <ele>1410.4000244141</ele>
        <time>2019-05-26T07:41:19Z</time>
      </trkpt>
      <trkpt lat="44.45278" lon="3.7485">
        <ele>1410.8000488281</ele>
        <time>2019-05-26T07:41:23Z</time>
      </trkpt>
      <trkpt lat="44.45275" lon="3.74839">
        <ele>1416.5999755859</ele>
        <time>2019-05-26T07:49:27Z</time>
      </trkpt>
      <trkpt lat="44.45275" lon="3.74839">
        <ele>1416.5999755859</ele>
        <time>2019-05-26T07:49:28Z</time>
      </trkpt>
      <trkpt lat="44.45266" lon="3.74836">
        <ele>1417</ele>
        <time>2019-05-26T07:49:47Z</time>
      </trkpt>
      <trkpt lat="44.4526" lon="3.74839">
        <ele>1416.8000488281</ele>
        <time>2019-05-26T07:49:49Z</time>
      </trkpt>
      <trkpt lat="44.45248" lon="3.74838">
        <ele>1416.8000488281</ele>
        <time>2019-05-26T07:49:53Z</time>
      </trkpt>
      <trkpt lat="44.45232" lon="3.74824">
        <ele>1416.8000488281</ele>
        <time>2019-05-26T07:49:58Z</time>
      </trkpt>
      <trkpt lat="44.45208" lon="3.74807">
        <ele>1416.5999755859</ele>
        <time>2019-05-26T07:50:05Z</time>
      </trkpt>
      <trkpt lat="44.45178" lon="3.74785">
        <ele>1416</ele>
        <time>2019-05-26T07:50:13Z</time>
      </trkpt>
      <trkpt lat="44.45163" lon="3.7477">
        <ele>1415.8000488281</ele>
        <time>2019-05-26T07:50:18Z</time>
      </trkpt>
      <trkpt lat="44.45146" lon="3.74763">
        <ele>1415.5999755859</ele>
        <time>2019-05-26T07:50:23Z</time>
      </trkpt>
      <trkpt lat="44.45127" lon="3.74758">
        <ele>1415.4000244141</ele>
        <time>2019-05-26T07:50:29Z</time>
      </trkpt>
      <trkpt lat="44.45111" lon="3.74755">
        <ele>1415.5999755859</ele>
        <time>2019-05-26T07:50:35Z</time>
      </trkpt>
      <trkpt lat="44.45097" lon="3.74749">
        <ele>1415.8000488281</ele>
        <time>2019-05-26T07:50:42Z</time>
      </trkpt>
      <trkpt lat="44.45076" lon="3.74746">
        <ele>1416.1999511719</ele>
        <time>2019-05-26T07:50:52Z</time>
      </trkpt>
      <trkpt lat="44.45063" lon="3.74742">
        <ele>1416.4000244141</ele>
        <time>2019-05-26T07:50:59Z</time>
      </trkpt>
      <trkpt lat="44.45042" lon="3.74736">
        <ele>1417</ele>
        <time>2019-05-26T07:51:10Z</time>
      </trkpt>
      <trkpt lat="44.45026" lon="3.74732">
        <ele>1417.5999755859</ele>
        <time>2019-05-26T07:51:19Z</time>
      </trkpt>
      <trkpt lat="44.45015" lon="3.74726">
        <ele>1418.1999511719</ele>
        <time>2019-05-26T07:51:26Z</time>
      </trkpt>
      <trkpt lat="44.44999" lon="3.74718">
        <ele>1419</ele>
        <time>2019-05-26T07:51:36Z</time>
      </trkpt>
      <trkpt lat="44.44987" lon="3.74714">
        <ele>1420</ele>
        <time>2019-05-26T07:51:45Z</time>
      </trkpt>
      <trkpt lat="44.44973" lon="3.7471">
        <ele>1420.8000488281</ele>
        <time>2019-05-26T07:51:54Z</time>
      </trkpt>
      <trkpt lat="44.44961" lon="3.74706">
        <ele>1421.5999755859</ele>
        <time>2019-05-26T07:52:02Z</time>
      </trkpt>
      <trkpt lat="44.44943" lon="3.74699">
        <ele>1423</ele>
        <time>2019-05-26T07:52:13Z</time>
      </trkpt>
      <trkpt lat="44.44932" lon="3.74694">
        <ele>1423.5999755859</ele>
        <time>2019-05-26T07:52:20Z</time>
      </trkpt>
      <trkpt lat="44.44919" lon="3.74688">
        <ele>1424.5999755859</ele>
        <time>2019-05-26T07:52:29Z</time>
      </trkpt>
      <trkpt lat="44.44904" lon="3.74681">
        <ele>1426</ele>
        <time>2019-05-26T07:52:39Z</time>
      </trkpt>
      <trkpt lat="44.44889" lon="3.74678">
        <ele>1427.1999511719</ele>
        <time>2019-05-26T07:52:48Z</time>
      </trkpt>
      <trkpt lat="44.44877" lon="3.74676">
        <ele>1428.4000244141</ele>
        <time>2019-05-26T07:52:56Z</time>
      </trkpt>
      <trkpt lat="44.44863" lon="3.74673">
        <ele>1429.4000244141</ele>
        <time>2019-05-26T07:53:05Z</time>
      </trkpt>
      <trkpt lat="44.44853" lon="3.74674">
        <ele>1430.1999511719</ele>
        <time>2019-05-26T07:53:12Z</time>
      </trkpt>
      <trkpt lat="44.44839" lon="3.74674">
        <ele>1431.1999511719</ele>
        <time>2019-05-26T07:53:20Z</time>
      </trkpt>
      <trkpt lat="44.44825" lon="3.74676">
        <ele>1432.1999511719</ele>
        <time>2019-05-26T07:53:28Z</time>
      </trkpt>
      <trkpt lat="44.4481" lon="3.74676">
        <ele>1433.1999511719</ele>
        <time>2019-05-26T07:53:36Z</time>
      </trkpt>
      <trkpt lat="44.44797" lon="3.74678">
        <ele>1434</ele>
        <time>2019-05-26T07:53:43Z</time>
      </trkpt>
      <trkpt lat="44.44783" lon="3.74679">
        <ele>1434.8000488281</ele>
        <time>2019-05-26T07:53:51Z</time>
      </trkpt>
      <trkpt lat="44.44768" lon="3.74681">
        <ele>1435.8000488281</ele>
        <time>2019-05-26T07:53:59Z</time>
      </trkpt>
      <trkpt lat="44.44751" lon="3.74683">
        <ele>1436.8000488281</ele>
        <time>2019-05-26T07:54:08Z</time>
      </trkpt>
      <trkpt lat="44.44736" lon="3.74687">
        <ele>1437.5999755859</ele>
        <time>2019-05-26T07:54:16Z</time>
      </trkpt>
      <trkpt lat="44.44722" lon="3.7469">
        <ele>1438.5999755859</ele>
        <time>2019-05-26T07:54:24Z</time>
      </trkpt>
      <trkpt lat="44.44707" lon="3.74695">
        <ele>1439.5999755859</ele>
        <time>2019-05-26T07:54:33Z</time>
      </trkpt>
      <trkpt lat="44.4469" lon="3.74701">
        <ele>1441.1999511719</ele>
        <time>2019-05-26T07:54:44Z</time>
      </trkpt>
      <trkpt lat="44.44674" lon="3.74707">
        <ele>1442.5999755859</ele>
        <time>2019-05-26T07:54:55Z</time>
      </trkpt>
      <trkpt lat="44.44664" lon="3.74711">
        <ele>1443.8000488281</ele>
        <time>2019-05-26T07:55:03Z</time>
      </trkpt>
      <trkpt lat="44.44654" lon="3.74713">
        <ele>1444.8000488281</ele>
        <time>2019-05-26T07:55:10Z</time>
      </trkpt>
      <trkpt lat="44.44643" lon="3.74716">
        <ele>1445.8000488281</ele>
        <time>2019-05-26T07:55:18Z</time>
      </trkpt>
      <trkpt lat="44.44635" lon="3.7472">
        <ele>1446.5999755859</ele>
        <time>2019-05-26T07:55:24Z</time>
      </trkpt>
      <trkpt lat="44.44622" lon="3.74725">
        <ele>1448</ele>
        <time>2019-05-26T07:55:34Z</time>
      </trkpt>
      <trkpt lat="44.44613" lon="3.74729">
        <ele>1449.1999511719</ele>
        <time>2019-05-26T07:55:41Z</time>
      </trkpt>
      <trkpt lat="44.44606" lon="3.74733">
        <ele>1450.4000244141</ele>
        <time>2019-05-26T07:55:48Z</time>
      </trkpt>
      <trkpt lat="44.44592" lon="3.74736">
        <ele>1452</ele>
        <time>2019-05-26T07:55:59Z</time>
      </trkpt>
      <trkpt lat="44.44584" lon="3.7474">
        <ele>1453.1999511719</ele>
        <time>2019-05-26T07:56:06Z</time>
      </trkpt>
      <trkpt lat="44.44574" lon="3.74744">
        <ele>1454.5999755859</ele>
        <time>2019-05-26T07:56:15Z</time>
      </trkpt>
      <trkpt lat="44.44561" lon="3.74749">
        <ele>1456.4000244141</ele>
        <time>2019-05-26T07:56:26Z</time>
      </trkpt>
      <trkpt lat="44.44552" lon="3.74753">
        <ele>1457.8000488281</ele>
        <time>2019-05-26T07:56:34Z</time>
      </trkpt>
      <trkpt lat="44.44547" lon="3.74753">
        <ele>1458.4000244141</ele>
        <time>2019-05-26T07:56:38Z</time>
      </trkpt>
      <trkpt lat="44.44526" lon="3.7475">
        <ele>1461.8000488281</ele>
        <time>2019-05-26T07:56:58Z</time>
      </trkpt>
      <trkpt lat="44.44523" lon="3.74748">
        <ele>1462.1999511719</ele>
        <time>2019-05-26T07:57:00Z</time>
      </trkpt>
      <trkpt lat="44.44517" lon="3.74737">
        <ele>1463.1999511719</ele>
        <time>2019-05-26T07:57:06Z</time>
      </trkpt>
      <trkpt lat="44.44503" lon="3.74718">
        <ele>1464.8000488281</ele>
        <time>2019-05-26T07:57:15Z</time>
      </trkpt>
      <trkpt lat="44.44491" lon="3.74711">
        <ele>1465.5999755859</ele>
        <time>2019-05-26T07:57:21Z</time>
      </trkpt>
      <trkpt lat="44.44479" lon="3.74704">
        <ele>1466.5999755859</ele>
        <time>2019-05-26T07:57:27Z</time>
      </trkpt>
      <trkpt lat="44.44466" lon="3.74698">
        <ele>1467.4000244141</ele>
        <time>2019-05-26T07:57:33Z</time>
      </trkpt>
      <trkpt lat="44.4445" lon="3.74691">
        <ele>1468.4000244141</ele>
        <time>2019-05-26T07:57:40Z</time>
      </trkpt>
      <trkpt lat="44.44428" lon="3.7468">
        <ele>1469.5999755859</ele>
        <time>2019-05-26T07:57:49Z</time>
      </trkpt>
      <trkpt lat="44.44416" lon="3.74673">
        <ele>1470.1999511719</ele>
        <time>2019-05-26T07:57:54Z</time>
      </trkpt>
      <trkpt lat="44.44393" lon="3.74661">
        <ele>1471.4000244141</ele>
        <time>2019-05-26T07:58:03Z</time>
      </trkpt>
      <trkpt lat="44.44377" lon="3.74653">
        <ele>1472.1999511719</ele>
        <time>2019-05-26T07:58:09Z</time>
      </trkpt>
      <trkpt lat="44.44363" lon="3.74635">
        <ele>1473.1999511719</ele>
        <time>2019-05-26T07:58:16Z</time>
      </trkpt>
      <trkpt lat="44.44352" lon="3.74613">
        <ele>1474.1999511719</ele>
        <time>2019-05-26T07:58:23Z</time>
      </trkpt>
      <trkpt lat="44.44345" lon="3.74596">
        <ele>1475</ele>
        <time>2019-05-26T07:58:29Z</time>
      </trkpt>
      <trkpt lat="44.44345" lon="3.74596">
        <ele>1475</ele>
        <time>2019-05-26T07:58:30Z</time>
      </trkpt>
      <trkpt lat="44.44345" lon="3.74589">
        <ele>1478</ele>
        <time>2019-05-26T07:59:01Z</time>
      </trkpt>
      <trkpt lat="44.44344" lon="3.74581">
        <ele>1478.4000244141</ele>
        <time>2019-05-26T07:59:03Z</time>
      </trkpt>
      <trkpt lat="44.44338" lon="3.74549">
        <ele>1479</ele>
        <time>2019-05-26T07:59:11Z</time>
      </trkpt>
      <trkpt lat="44.4434" lon="3.74533">
        <ele>1479.4000244141</ele>
        <time>2019-05-26T07:59:15Z</time>
      </trkpt>
      <trkpt lat="44.4434" lon="3.74504">
        <ele>1480</ele>
        <time>2019-05-26T07:59:22Z</time>
      </trkpt>
      <trkpt lat="44.44341" lon="3.74473">
        <ele>1480.5999755859</ele>
        <time>2019-05-26T07:59:29Z</time>
      </trkpt>
      <trkpt lat="44.44346" lon="3.74445">
        <ele>1481.4000244141</ele>
        <time>2019-05-26T07:59:35Z</time>
      </trkpt>
      <trkpt lat="44.44351" lon="3.74414">
        <ele>1482.1999511719</ele>
        <time>2019-05-26T07:59:42Z</time>
      </trkpt>
      <trkpt lat="44.44354" lon="3.74392">
        <ele>1482.8000488281</ele>
        <time>2019-05-26T07:59:47Z</time>
      </trkpt>
      <trkpt lat="44.44356" lon="3.74361">
        <ele>1483.4000244141</ele>
        <time>2019-05-26T07:59:54Z</time>
      </trkpt>
      <trkpt lat="44.44358" lon="3.74339">
        <ele>1484</ele>
        <time>2019-05-26T07:59:59Z</time>
      </trkpt>
      <trkpt lat="44.44358" lon="3.74307">
        <ele>1484.5999755859</ele>
        <time>2019-05-26T08:00:06Z</time>
      </trkpt>
      <trkpt lat="44.44359" lon="3.74286">
        <ele>1485</ele>
        <time>2019-05-26T08:00:11Z</time>
      </trkpt>
      <trkpt lat="44.4436" lon="3.7426">
        <ele>1485.4000244141</ele>
        <time>2019-05-26T08:00:17Z</time>
      </trkpt>
      <trkpt lat="44.44355" lon="3.74233">
        <ele>1485.8000488281</ele>
        <time>2019-05-26T08:00:23Z</time>
      </trkpt>
      <trkpt lat="44.44348" lon="3.74208">
        <ele>1486.1999511719</ele>
        <time>2019-05-26T08:00:29Z</time>
      </trkpt>
      <trkpt lat="44.44342" lon="3.74183">
        <ele>1486.8000488281</ele>
        <time>2019-05-26T08:00:35Z</time>
      </trkpt>
      <trkpt lat="44.44331" lon="3.74163">
        <ele>1487.5999755859</ele>
        <time>2019-05-26T08:00:41Z</time>
      </trkpt>
      <trkpt lat="44.44314" lon="3.74142">
        <ele>1488.8000488281</ele>
        <time>2019-05-26T08:00:48Z</time>
      </trkpt>
      <trkpt lat="44.44297" lon="3.74125">
        <ele>1489.5999755859</ele>
        <time>2019-05-26T08:00:55Z</time>
      </trkpt>
      <trkpt lat="44.4428" lon="3.74113">
        <ele>1490.4000244141</ele>
        <time>2019-05-26T08:01:01Z</time>
      </trkpt>
      <trkpt lat="44.44258" lon="3.74095">
        <ele>1491.4000244141</ele>
        <time>2019-05-26T08:01:09Z</time>
      </trkpt>
      <trkpt lat="44.44237" lon="3.74081">
        <ele>1492.5999755859</ele>
        <time>2019-05-26T08:01:16Z</time>
      </trkpt>
      <trkpt lat="44.44217" lon="3.74069">
        <ele>1493.5999755859</ele>
        <time>2019-05-26T08:01:23Z</time>
      </trkpt>
      <trkpt lat="44.44194" lon="3.74061">
        <ele>1494.8000488281</ele>
        <time>2019-05-26T08:01:31Z</time>
      </trkpt>
      <trkpt lat="44.44173" lon="3.74053">
        <ele>1495.8000488281</ele>
        <time>2019-05-26T08:01:38Z</time>
      </trkpt>
      <trkpt lat="44.44155" lon="3.74047">
        <ele>1496.8000488281</ele>
        <time>2019-05-26T08:01:44Z</time>
      </trkpt>
      <trkpt lat="44.44135" lon="3.74044">
        <ele>1497.8000488281</ele>
        <time>2019-05-26T08:01:50Z</time>
      </trkpt>
      <trkpt lat="44.44113" lon="3.74042">
        <ele>1498.5999755859</ele>
        <time>2019-05-26T08:01:57Z</time>
      </trkpt>
      <trkpt lat="44.44094" lon="3.74038">
        <ele>1499.4000244141</ele>
        <time>2019-05-26T08:02:03Z</time>
      </trkpt>
      <trkpt lat="44.44071" lon="3.74036">
        <ele>1500.5999755859</ele>
        <time>2019-05-26T08:02:10Z</time>
      </trkpt>
      <trkpt lat="44.44045" lon="3.74035">
        <ele>1501.8000488281</ele>
        <time>2019-05-26T08:02:18Z</time>
      </trkpt>
      <trkpt lat="44.44023" lon="3.74036">
        <ele>1502.8000488281</ele>
        <time>2019-05-26T08:02:25Z</time>
      </trkpt>
      <trkpt lat="44.43995" lon="3.74034">
        <ele>1504.1999511719</ele>
        <time>2019-05-26T08:02:34Z</time>
      </trkpt>
      <trkpt lat="44.43969" lon="3.74032">
        <ele>1505.4000244141</ele>
        <time>2019-05-26T08:02:42Z</time>
      </trkpt>
      <trkpt lat="44.43953" lon="3.7403">
        <ele>1506.1999511719</ele>
        <time>2019-05-26T08:02:47Z</time>
      </trkpt>
      <trkpt lat="44.43926" lon="3.74029">
        <ele>1507.1999511719</ele>
        <time>2019-05-26T08:02:55Z</time>
      </trkpt>
      <trkpt lat="44.43904" lon="3.74031">
        <ele>1508.1999511719</ele>
        <time>2019-05-26T08:03:02Z</time>
      </trkpt>
      <trkpt lat="44.43881" lon="3.74038">
        <ele>1509.1999511719</ele>
        <time>2019-05-26T08:03:09Z</time>
      </trkpt>
      <trkpt lat="44.4386" lon="3.74047">
        <ele>1510.1999511719</ele>
        <time>2019-05-26T08:03:16Z</time>
      </trkpt>
      <trkpt lat="44.43842" lon="3.74059">
        <ele>1511</ele>
        <time>2019-05-26T08:03:22Z</time>
      </trkpt>
      <trkpt lat="44.43817" lon="3.74069">
        <ele>1511.8000488281</ele>
        <time>2019-05-26T08:03:29Z</time>
      </trkpt>
      <trkpt lat="44.43797" lon="3.74077">
        <ele>1512.5999755859</ele>
        <time>2019-05-26T08:03:35Z</time>
      </trkpt>
      <trkpt lat="44.43778" lon="3.7408">
        <ele>1513.5999755859</ele>
        <time>2019-05-26T08:03:41Z</time>
      </trkpt>
      <trkpt lat="44.43757" lon="3.74088">
        <ele>1514.5999755859</ele>
        <time>2019-05-26T08:03:48Z</time>
      </trkpt>
      <trkpt lat="44.43742" lon="3.74096">
        <ele>1515.1999511719</ele>
        <time>2019-05-26T08:03:53Z</time>
      </trkpt>
      <trkpt lat="44.4372" lon="3.74115">
        <ele>1516.4000244141</ele>
        <time>2019-05-26T08:04:01Z</time>
      </trkpt>
      <trkpt lat="44.43696" lon="3.74136">
        <ele>1517.5999755859</ele>
        <time>2019-05-26T08:04:10Z</time>
      </trkpt>
      <trkpt lat="44.43677" lon="3.74155">
        <ele>1518.4000244141</ele>
        <time>2019-05-26T08:04:17Z</time>
      </trkpt>
      <trkpt lat="44.4366" lon="3.74174">
        <ele>1519.1999511719</ele>
        <time>2019-05-26T08:04:24Z</time>
      </trkpt>
      <trkpt lat="44.43639" lon="3.74195">
        <ele>1520.4000244141</ele>
        <time>2019-05-26T08:04:32Z</time>
      </trkpt>
      <trkpt lat="44.43622" lon="3.74208">
        <ele>1520.8000488281</ele>
        <time>2019-05-26T08:04:37Z</time>
      </trkpt>
      <trkpt lat="44.43607" lon="3.74205">
        <ele>1521</ele>
        <time>2019-05-26T08:04:41Z</time>
      </trkpt>
      <trkpt lat="44.43591" lon="3.7419">
        <ele>1521.5999755859</ele>
        <time>2019-05-26T08:04:46Z</time>
      </trkpt>
      <trkpt lat="44.43576" lon="3.74153">
        <ele>1522.1999511719</ele>
        <time>2019-05-26T08:04:54Z</time>
      </trkpt>
      <trkpt lat="44.43574" lon="3.74127">
        <ele>1522.8000488281</ele>
        <time>2019-05-26T08:04:59Z</time>
      </trkpt>
      <trkpt lat="44.43577" lon="3.74115">
        <ele>1523</ele>
        <time>2019-05-26T08:05:01Z</time>
      </trkpt>
      <trkpt lat="44.43583" lon="3.74095">
        <ele>1523.1999511719</ele>
        <time>2019-05-26T08:05:05Z</time>
      </trkpt>
      <trkpt lat="44.4359" lon="3.74074">
        <ele>1523.5999755859</ele>
        <time>2019-05-26T08:05:09Z</time>
      </trkpt>
      <trkpt lat="44.43594" lon="3.74057">
        <ele>1524</ele>
        <time>2019-05-26T08:05:12Z</time>
      </trkpt>
      <trkpt lat="44.43596" lon="3.74052">
        <ele>1524</ele>
        <time>2019-05-26T08:05:13Z</time>
      </trkpt>
      <trkpt lat="44.43608" lon="3.74026">
        <ele>1524.4000244141</ele>
        <time>2019-05-26T08:05:18Z</time>
      </trkpt>
      <trkpt lat="44.43612" lon="3.74015">
        <ele>1524.5999755859</ele>
        <time>2019-05-26T08:05:20Z</time>
      </trkpt>
      <trkpt lat="44.43616" lon="3.73998">
        <ele>1524.5999755859</ele>
        <time>2019-05-26T08:05:23Z</time>
      </trkpt>
      <trkpt lat="44.43617" lon="3.73979">
        <ele>1525</ele>
        <time>2019-05-26T08:05:26Z</time>
      </trkpt>
      <trkpt lat="44.43619" lon="3.73961">
        <ele>1525.1999511719</ele>
        <time>2019-05-26T08:05:29Z</time>
      </trkpt>
      <trkpt lat="44.4362" lon="3.73955">
        <ele>1525.4000244141</ele>
        <time>2019-05-26T08:05:30Z</time>
      </trkpt>
      <trkpt lat="44.43625" lon="3.73927">
        <ele>1525.8000488281</ele>
        <time>2019-05-26T08:05:35Z</time>
      </trkpt>
      <trkpt lat="44.4363" lon="3.73894">
        <ele>1526.4000244141</ele>
        <time>2019-05-26T08:05:41Z</time>
      </trkpt>
      <trkpt lat="44.4363" lon="3.73877">
        <ele>1526.5999755859</ele>
        <time>2019-05-26T08:05:44Z</time>
      </trkpt>
      <trkpt lat="44.43627" lon="3.73867">
        <ele>1526.8000488281</ele>
        <time>2019-05-26T08:05:46Z</time>
      </trkpt>
      <trkpt lat="44.43625" lon="3.73862">
        <ele>1526.8000488281</ele>
        <time>2019-05-26T08:05:47Z</time>
      </trkpt>
      <trkpt lat="44.43618" lon="3.73835">
        <ele>1527.1999511719</ele>
        <time>2019-05-26T08:05:52Z</time>
      </trkpt>
      <trkpt lat="44.4361" lon="3.73808">
        <ele>1527.4000244141</ele>
        <time>2019-05-26T08:05:57Z</time>
      </trkpt>
      <trkpt lat="44.43606" lon="3.73797">
        <ele>1527.5999755859</ele>
        <time>2019-05-26T08:05:59Z</time>
      </trkpt>
      <trkpt lat="44.43586" lon="3.7375">
        <ele>1528.1999511719</ele>
        <time>2019-05-26T08:06:08Z</time>
      </trkpt>
      <trkpt lat="44.43583" lon="3.73745">
        <ele>1528.4000244141</ele>
        <time>2019-05-26T08:06:09Z</time>
      </trkpt>
      <trkpt lat="44.43579" lon="3.73729">
        <ele>1528.5999755859</ele>
        <time>2019-05-26T08:06:12Z</time>
      </trkpt>
      <trkpt lat="44.43576" lon="3.73724">
        <ele>1528.5999755859</ele>
        <time>2019-05-26T08:06:13Z</time>
      </trkpt>
      <trkpt lat="44.43575" lon="3.73718">
        <ele>1528.5999755859</ele>
        <time>2019-05-26T08:06:14Z</time>
      </trkpt>
      <trkpt lat="44.43571" lon="3.73694">
        <ele>1528.8000488281</ele>
        <time>2019-05-26T08:06:18Z</time>
      </trkpt>
      <trkpt lat="44.43569" lon="3.73653">
        <ele>1529.1999511719</ele>
        <time>2019-05-26T08:06:25Z</time>
      </trkpt>
      <trkpt lat="44.43566" lon="3.73612">
        <ele>1529.5999755859</ele>
        <time>2019-05-26T08:06:32Z</time>
      </trkpt>
      <trkpt lat="44.43562" lon="3.73571">
        <ele>1530.1999511719</ele>
        <time>2019-05-26T08:06:39Z</time>
      </trkpt>
      <trkpt lat="44.43558" lon="3.73525">
        <ele>1530.5999755859</ele>
        <time>2019-05-26T08:06:47Z</time>
      </trkpt>
      <trkpt lat="44.43557" lon="3.7352">
        <ele>1530.5999755859</ele>
        <time>2019-05-26T08:06:48Z</time>
      </trkpt>
      <trkpt lat="44.43551" lon="3.73497">
        <ele>1530.8000488281</ele>
        <time>2019-05-26T08:06:52Z</time>
      </trkpt>
      <trkpt lat="44.43551" lon="3.7349">
        <ele>1530.8000488281</ele>
        <time>2019-05-26T08:06:53Z</time>
      </trkpt>
      <trkpt lat="44.43552" lon="3.73471">
        <ele>1531.1999511719</ele>
        <time>2019-05-26T08:06:56Z</time>
      </trkpt>
      <trkpt lat="44.43554" lon="3.73459">
        <ele>1531.1999511719</ele>
        <time>2019-05-26T08:06:58Z</time>
      </trkpt>
      <trkpt lat="44.43558" lon="3.73441">
        <ele>1531.4000244141</ele>
        <time>2019-05-26T08:07:01Z</time>
      </trkpt>
      <trkpt lat="44.4356" lon="3.73428">
        <ele>1531.5999755859</ele>
        <time>2019-05-26T08:07:03Z</time>
      </trkpt>
      <trkpt lat="44.43564" lon="3.73405">
        <ele>1532</ele>
        <time>2019-05-26T08:07:07Z</time>
      </trkpt>
      <trkpt lat="44.43565" lon="3.73393">
        <ele>1532</ele>
        <time>2019-05-26T08:07:09Z</time>
      </trkpt>
      <trkpt lat="44.43565" lon="3.73381">
        <ele>1532.1999511719</ele>
        <time>2019-05-26T08:07:11Z</time>
      </trkpt>
      <trkpt lat="44.43567" lon="3.73369">
        <ele>1532.1999511719</ele>
        <time>2019-05-26T08:07:13Z</time>
      </trkpt>
      <trkpt lat="44.4357" lon="3.73332">
        <ele>1532.5999755859</ele>
        <time>2019-05-26T08:07:19Z</time>
      </trkpt>
      <trkpt lat="44.43568" lon="3.73292">
        <ele>1533</ele>
        <time>2019-05-26T08:07:26Z</time>
      </trkpt>
      <trkpt lat="44.43566" lon="3.73254">
        <ele>1533.4000244141</ele>
        <time>2019-05-26T08:07:33Z</time>
      </trkpt>
      <trkpt lat="44.43568" lon="3.73218">
        <ele>1534</ele>
        <time>2019-05-26T08:07:40Z</time>
      </trkpt>
      <trkpt lat="44.43579" lon="3.73187">
        <ele>1534.5999755859</ele>
        <time>2019-05-26T08:07:47Z</time>
      </trkpt>
      <trkpt lat="44.43587" lon="3.73162">
        <ele>1535</ele>
        <time>2019-05-26T08:07:53Z</time>
      </trkpt>
      <trkpt lat="44.43596" lon="3.73141">
        <ele>1535.4000244141</ele>
        <time>2019-05-26T08:07:58Z</time>
      </trkpt>
      <trkpt lat="44.4361" lon="3.73111">
        <ele>1535.8000488281</ele>
        <time>2019-05-26T08:08:05Z</time>
      </trkpt>
      <trkpt lat="44.43624" lon="3.73082">
        <ele>1536.5999755859</ele>
        <time>2019-05-26T08:08:12Z</time>
      </trkpt>
      <trkpt lat="44.43637" lon="3.73054">
        <ele>1536.8000488281</ele>
        <time>2019-05-26T08:08:19Z</time>
      </trkpt>
      <trkpt lat="44.43648" lon="3.73028">
        <ele>1537.4000244141</ele>
        <time>2019-05-26T08:08:25Z</time>
      </trkpt>
      <trkpt lat="44.43655" lon="3.72999">
        <ele>1538</ele>
        <time>2019-05-26T08:08:31Z</time>
      </trkpt>
      <trkpt lat="44.43663" lon="3.72968">
        <ele>1538.5999755859</ele>
        <time>2019-05-26T08:08:37Z</time>
      </trkpt>
      <trkpt lat="44.43666" lon="3.72929">
        <ele>1539.1999511719</ele>
        <time>2019-05-26T08:08:44Z</time>
      </trkpt>
      <trkpt lat="44.43667" lon="3.72892">
        <ele>1539.5999755859</ele>
        <time>2019-05-26T08:08:51Z</time>
      </trkpt>
      <trkpt lat="44.43664" lon="3.72858">
        <ele>1540.1999511719</ele>
        <time>2019-05-26T08:08:57Z</time>
      </trkpt>
      <trkpt lat="44.4366" lon="3.72822">
        <ele>1540.5999755859</ele>
        <time>2019-05-26T08:09:04Z</time>
      </trkpt>
      <trkpt lat="44.4366" lon="3.728">
        <ele>1541</ele>
        <time>2019-05-26T08:09:08Z</time>
      </trkpt>
      <trkpt lat="44.4366" lon="3.72789">
        <ele>1541.1999511719</ele>
        <time>2019-05-26T08:09:10Z</time>
      </trkpt>
      <trkpt lat="44.43664" lon="3.72766">
        <ele>1541.4000244141</ele>
        <time>2019-05-26T08:09:14Z</time>
      </trkpt>
      <trkpt lat="44.43664" lon="3.72755">
        <ele>1541.5999755859</ele>
        <time>2019-05-26T08:09:16Z</time>
      </trkpt>
      <trkpt lat="44.43665" lon="3.72739">
        <ele>1541.8000488281</ele>
        <time>2019-05-26T08:09:19Z</time>
      </trkpt>
      <trkpt lat="44.43666" lon="3.72733">
        <ele>1542</ele>
        <time>2019-05-26T08:09:20Z</time>
      </trkpt>
      <trkpt lat="44.43666" lon="3.72727">
        <ele>1542</ele>
        <time>2019-05-26T08:09:21Z</time>
      </trkpt>
      <trkpt lat="44.43669" lon="3.72711">
        <ele>1542.1999511719</ele>
        <time>2019-05-26T08:09:24Z</time>
      </trkpt>
      <trkpt lat="44.4367" lon="3.72699">
        <ele>1542.4000244141</ele>
        <time>2019-05-26T08:09:26Z</time>
      </trkpt>
      <trkpt lat="44.43672" lon="3.72687">
        <ele>1542.5999755859</ele>
        <time>2019-05-26T08:09:28Z</time>
      </trkpt>
      <trkpt lat="44.43675" lon="3.72671">
        <ele>1543</ele>
        <time>2019-05-26T08:09:31Z</time>
      </trkpt>
      <trkpt lat="44.43679" lon="3.72661">
        <ele>1543</ele>
        <time>2019-05-26T08:09:33Z</time>
      </trkpt>
      <trkpt lat="44.43687" lon="3.7265">
        <ele>1543.4000244141</ele>
        <time>2019-05-26T08:09:36Z</time>
      </trkpt>
      <trkpt lat="44.43709" lon="3.72612">
        <ele>1544</ele>
        <time>2019-05-26T08:09:45Z</time>
      </trkpt>
      <trkpt lat="44.43731" lon="3.72574">
        <ele>1544.5999755859</ele>
        <time>2019-05-26T08:09:54Z</time>
      </trkpt>
      <trkpt lat="44.43742" lon="3.72547">
        <ele>1545.1999511719</ele>
        <time>2019-05-26T08:10:00Z</time>
      </trkpt>
      <trkpt lat="44.43744" lon="3.72532">
        <ele>1545.4000244141</ele>
        <time>2019-05-26T08:10:03Z</time>
      </trkpt>
      <trkpt lat="44.43742" lon="3.7252">
        <ele>1545.4000244141</ele>
        <time>2019-05-26T08:10:05Z</time>
      </trkpt>
      <trkpt lat="44.43738" lon="3.72509">
        <ele>1545.4000244141</ele>
        <time>2019-05-26T08:10:07Z</time>
      </trkpt>
      <trkpt lat="44.43731" lon="3.725">
        <ele>1545.5999755859</ele>
        <time>2019-05-26T08:10:09Z</time>
      </trkpt>
      <trkpt lat="44.43723" lon="3.72493">
        <ele>1545.5999755859</ele>
        <time>2019-05-26T08:10:11Z</time>
      </trkpt>
      <trkpt lat="44.43706" lon="3.7248">
        <ele>1545.8000488281</ele>
        <time>2019-05-26T08:10:15Z</time>
      </trkpt>
      <trkpt lat="44.43695" lon="3.7247">
        <ele>1545.8000488281</ele>
        <time>2019-05-26T08:10:18Z</time>
      </trkpt>
      <trkpt lat="44.43682" lon="3.72459">
        <ele>1546</ele>
        <time>2019-05-26T08:10:21Z</time>
      </trkpt>
      <trkpt lat="44.43651" lon="3.72432">
        <ele>1546</ele>
        <time>2019-05-26T08:10:28Z</time>
      </trkpt>
      <trkpt lat="44.43632" lon="3.72399">
        <ele>1546.1999511719</ele>
        <time>2019-05-26T08:10:34Z</time>
      </trkpt>
      <trkpt lat="44.43613" lon="3.72345">
        <ele>1546.4000244141</ele>
        <time>2019-05-26T08:10:42Z</time>
      </trkpt>
      <trkpt lat="44.43611" lon="3.72331">
        <ele>1546.4000244141</ele>
        <time>2019-05-26T08:10:44Z</time>
      </trkpt>
      <trkpt lat="44.43611" lon="3.72317">
        <ele>1546.1999511719</ele>
        <time>2019-05-26T08:10:46Z</time>
      </trkpt>
      <trkpt lat="44.43617" lon="3.72289">
        <ele>1546.4000244141</ele>
        <time>2019-05-26T08:10:50Z</time>
      </trkpt>
      <trkpt lat="44.4362" lon="3.72277">
        <ele>1546.4000244141</ele>
        <time>2019-05-26T08:10:52Z</time>
      </trkpt>
      <trkpt lat="44.43622" lon="3.7227">
        <ele>1546.4000244141</ele>
        <time>2019-05-26T08:10:53Z</time>
      </trkpt>
      <trkpt lat="44.43632" lon="3.72245">
        <ele>1546.1999511719</ele>
        <time>2019-05-26T08:10:57Z</time>
      </trkpt>
      <trkpt lat="44.43651" lon="3.72195">
        <ele>1546.4000244141</ele>
        <time>2019-05-26T08:11:05Z</time>
      </trkpt>
      <trkpt lat="44.43668" lon="3.72161">
        <ele>1546.4000244141</ele>
        <time>2019-05-26T08:11:11Z</time>
      </trkpt>
      <trkpt lat="44.43685" lon="3.72126">
        <ele>1546.1999511719</ele>
        <time>2019-05-26T08:11:17Z</time>
      </trkpt>
      <trkpt lat="44.43704" lon="3.72084">
        <ele>1546.1999511719</ele>
        <time>2019-05-26T08:11:24Z</time>
      </trkpt>
      <trkpt lat="44.43721" lon="3.72038">
        <ele>1546</ele>
        <time>2019-05-26T08:11:31Z</time>
      </trkpt>
      <trkpt lat="44.43724" lon="3.72032">
        <ele>1546</ele>
        <time>2019-05-26T08:11:32Z</time>
      </trkpt>
      <trkpt lat="44.43736" lon="3.7201">
        <ele>1546</ele>
        <time>2019-05-26T08:11:36Z</time>
      </trkpt>
      <trkpt lat="44.43754" lon="3.71976">
        <ele>1545.8000488281</ele>
        <time>2019-05-26T08:11:42Z</time>
      </trkpt>
      <trkpt lat="44.43774" lon="3.71943">
        <ele>1545.5999755859</ele>
        <time>2019-05-26T08:11:48Z</time>
      </trkpt>
      <trkpt lat="44.43802" lon="3.71898">
        <ele>1545.4000244141</ele>
        <time>2019-05-26T08:11:56Z</time>
      </trkpt>
      <trkpt lat="44.43806" lon="3.71893">
        <ele>1545.4000244141</ele>
        <time>2019-05-26T08:11:57Z</time>
      </trkpt>
      <trkpt lat="44.43829" lon="3.71861">
        <ele>1545.1999511719</ele>
        <time>2019-05-26T08:12:03Z</time>
      </trkpt>
      <trkpt lat="44.43852" lon="3.7182">
        <ele>1545.1999511719</ele>
        <time>2019-05-26T08:12:10Z</time>
      </trkpt>
      <trkpt lat="44.4387" lon="3.71783">
        <ele>1545</ele>
        <time>2019-05-26T08:12:16Z</time>
      </trkpt>
      <trkpt lat="44.43891" lon="3.71739">
        <ele>1544.8000488281</ele>
        <time>2019-05-26T08:12:23Z</time>
      </trkpt>
      <trkpt lat="44.43912" lon="3.71707">
        <ele>1544.5999755859</ele>
        <time>2019-05-26T08:12:29Z</time>
      </trkpt>
      <trkpt lat="44.43938" lon="3.71675">
        <ele>1544.4000244141</ele>
        <time>2019-05-26T08:12:36Z</time>
      </trkpt>
      <trkpt lat="44.43945" lon="3.71666">
        <ele>1544.4000244141</ele>
        <time>2019-05-26T08:12:38Z</time>
      </trkpt>
      <trkpt lat="44.43953" lon="3.71658">
        <ele>1544.1999511719</ele>
        <time>2019-05-26T08:12:40Z</time>
      </trkpt>
      <trkpt lat="44.43958" lon="3.71653">
        <ele>1544.1999511719</ele>
        <time>2019-05-26T08:12:41Z</time>
      </trkpt>
      <trkpt lat="44.4397" lon="3.71638">
        <ele>1544.1999511719</ele>
        <time>2019-05-26T08:12:44Z</time>
      </trkpt>
      <trkpt lat="44.4398" lon="3.7162">
        <ele>1544</ele>
        <time>2019-05-26T08:12:47Z</time>
      </trkpt>
      <trkpt lat="44.43986" lon="3.71607">
        <ele>1543.8000488281</ele>
        <time>2019-05-26T08:12:49Z</time>
      </trkpt>
      <trkpt lat="44.43991" lon="3.71594">
        <ele>1543.8000488281</ele>
        <time>2019-05-26T08:12:51Z</time>
      </trkpt>
      <trkpt lat="44.43996" lon="3.71549">
        <ele>1543.4000244141</ele>
        <time>2019-05-26T08:12:57Z</time>
      </trkpt>
      <trkpt lat="44.43999" lon="3.71488">
        <ele>1543.1999511719</ele>
        <time>2019-05-26T08:13:05Z</time>
      </trkpt>
      <trkpt lat="44.43998" lon="3.7148">
        <ele>1543.1999511719</ele>
        <time>2019-05-26T08:13:06Z</time>
      </trkpt>
      <trkpt lat="44.43997" lon="3.71473">
        <ele>1543.1999511719</ele>
        <time>2019-05-26T08:13:07Z</time>
      </trkpt>
      <trkpt lat="44.43995" lon="3.71442">
        <ele>1543</ele>
        <time>2019-05-26T08:13:11Z</time>
      </trkpt>
      <trkpt lat="44.43992" lon="3.7141">
        <ele>1542.8000488281</ele>
        <time>2019-05-26T08:13:15Z</time>
      </trkpt>
      <trkpt lat="44.43992" lon="3.71402">
        <ele>1542.8000488281</ele>
        <time>2019-05-26T08:13:16Z</time>
      </trkpt>
      <trkpt lat="44.43993" lon="3.71371">
        <ele>1542.5999755859</ele>
        <time>2019-05-26T08:13:20Z</time>
      </trkpt>
      <trkpt lat="44.43992" lon="3.71363">
        <ele>1542.4000244141</ele>
        <time>2019-05-26T08:13:21Z</time>
      </trkpt>
      <trkpt lat="44.43986" lon="3.7134">
        <ele>1542.4000244141</ele>
        <time>2019-05-26T08:13:24Z</time>
      </trkpt>
      <trkpt lat="44.43979" lon="3.71327">
        <ele>1542.1999511719</ele>
        <time>2019-05-26T08:13:26Z</time>
      </trkpt>
      <trkpt lat="44.43955" lon="3.71303">
        <ele>1542.1999511719</ele>
        <time>2019-05-26T08:13:31Z</time>
      </trkpt>
      <trkpt lat="44.4394" lon="3.71292">
        <ele>1542.1999511719</ele>
        <time>2019-05-26T08:13:34Z</time>
      </trkpt>
      <trkpt lat="44.43928" lon="3.71287">
        <ele>1542.1999511719</ele>
        <time>2019-05-26T08:13:36Z</time>
      </trkpt>
      <trkpt lat="44.43922" lon="3.71286">
        <ele>1542.1999511719</ele>
        <time>2019-05-26T08:13:37Z</time>
      </trkpt>
      <trkpt lat="44.43898" lon="3.71281">
        <ele>1542.1999511719</ele>
        <time>2019-05-26T08:13:41Z</time>
      </trkpt>
      <trkpt lat="44.43851" lon="3.71283">
        <ele>1542.1999511719</ele>
        <time>2019-05-26T08:13:48Z</time>
      </trkpt>
      <trkpt lat="44.43822" lon="3.71285">
        <ele>1542</ele>
        <time>2019-05-26T08:13:52Z</time>
      </trkpt>
      <trkpt lat="44.43809" lon="3.7129">
        <ele>1541.8000488281</ele>
        <time>2019-05-26T08:13:54Z</time>
      </trkpt>
      <trkpt lat="44.43769" lon="3.71301">
        <ele>1541.8000488281</ele>
        <time>2019-05-26T08:14:00Z</time>
      </trkpt>
      <trkpt lat="44.43721" lon="3.71311">
        <ele>1541.5999755859</ele>
        <time>2019-05-26T08:14:07Z</time>
      </trkpt>
      <trkpt lat="44.43693" lon="3.71308">
        <ele>1541.5999755859</ele>
        <time>2019-05-26T08:14:11Z</time>
      </trkpt>
      <trkpt lat="44.43686" lon="3.71305">
        <ele>1541.4000244141</ele>
        <time>2019-05-26T08:14:12Z</time>
      </trkpt>
      <trkpt lat="44.43679" lon="3.71301">
        <ele>1541.4000244141</ele>
        <time>2019-05-26T08:14:13Z</time>
      </trkpt>
      <trkpt lat="44.43654" lon="3.71286">
        <ele>1541.4000244141</ele>
        <time>2019-05-26T08:14:17Z</time>
      </trkpt>
      <trkpt lat="44.43642" lon="3.71276">
        <ele>1541.1999511719</ele>
        <time>2019-05-26T08:14:19Z</time>
      </trkpt>
      <trkpt lat="44.43633" lon="3.71261">
        <ele>1541.1999511719</ele>
        <time>2019-05-26T08:14:21Z</time>
      </trkpt>
      <trkpt lat="44.43629" lon="3.71253">
        <ele>1541.1999511719</ele>
        <time>2019-05-26T08:14:22Z</time>
      </trkpt>
      <trkpt lat="44.43622" lon="3.71237">
        <ele>1541</ele>
        <time>2019-05-26T08:14:24Z</time>
      </trkpt>
      <trkpt lat="44.43616" lon="3.71219">
        <ele>1541</ele>
        <time>2019-05-26T08:14:26Z</time>
      </trkpt>
      <trkpt lat="44.43603" lon="3.71175">
        <ele>1540.5999755859</ele>
        <time>2019-05-26T08:14:31Z</time>
      </trkpt>
      <trkpt lat="44.43603" lon="3.71166">
        <ele>1540.4000244141</ele>
        <time>2019-05-26T08:14:32Z</time>
      </trkpt>
      <trkpt lat="44.43604" lon="3.71149">
        <ele>1540.4000244141</ele>
        <time>2019-05-26T08:14:34Z</time>
      </trkpt>
      <trkpt lat="44.43609" lon="3.71132">
        <ele>1540.1999511719</ele>
        <time>2019-05-26T08:14:36Z</time>
      </trkpt>
      <trkpt lat="44.43626" lon="3.71072">
        <ele>1540</ele>
        <time>2019-05-26T08:14:43Z</time>
      </trkpt>
      <trkpt lat="44.43644" lon="3.71013">
        <ele>1539.8000488281</ele>
        <time>2019-05-26T08:14:50Z</time>
      </trkpt>
      <trkpt lat="44.43653" lon="3.7098">
        <ele>1539.4000244141</ele>
        <time>2019-05-26T08:14:54Z</time>
      </trkpt>
      <trkpt lat="44.43657" lon="3.70973">
        <ele>1539.4000244141</ele>
        <time>2019-05-26T08:14:55Z</time>
      </trkpt>
      <trkpt lat="44.4367" lon="3.70932">
        <ele>1539.1999511719</ele>
        <time>2019-05-26T08:15:00Z</time>
      </trkpt>
      <trkpt lat="44.43684" lon="3.70863">
        <ele>1538.8000488281</ele>
        <time>2019-05-26T08:15:08Z</time>
      </trkpt>
      <trkpt lat="44.43694" lon="3.70821">
        <ele>1538.5999755859</ele>
        <time>2019-05-26T08:15:13Z</time>
      </trkpt>
      <trkpt lat="44.43706" lon="3.70779">
        <ele>1538.4000244141</ele>
        <time>2019-05-26T08:15:18Z</time>
      </trkpt>
      <trkpt lat="44.43709" lon="3.70771">
        <ele>1538.1999511719</ele>
        <time>2019-05-26T08:15:19Z</time>
      </trkpt>
      <trkpt lat="44.43718" lon="3.70757">
        <ele>1538.1999511719</ele>
        <time>2019-05-26T08:15:21Z</time>
      </trkpt>
      <trkpt lat="44.43723" lon="3.70751">
        <ele>1538.1999511719</ele>
        <time>2019-05-26T08:15:22Z</time>
      </trkpt>
      <trkpt lat="44.43728" lon="3.70746">
        <ele>1538</ele>
        <time>2019-05-26T08:15:23Z</time>
      </trkpt>
      <trkpt lat="44.4375" lon="3.7073">
        <ele>1537.8000488281</ele>
        <time>2019-05-26T08:15:27Z</time>
      </trkpt>
      <trkpt lat="44.43762" lon="3.70722">
        <ele>1537.8000488281</ele>
        <time>2019-05-26T08:15:29Z</time>
      </trkpt>
      <trkpt lat="44.43774" lon="3.70715">
        <ele>1537.5999755859</ele>
        <time>2019-05-26T08:15:31Z</time>
      </trkpt>
      <trkpt lat="44.43808" lon="3.70687">
        <ele>1537.1999511719</ele>
        <time>2019-05-26T08:15:37Z</time>
      </trkpt>
      <trkpt lat="44.43839" lon="3.70657">
        <ele>1536.8000488281</ele>
        <time>2019-05-26T08:15:43Z</time>
      </trkpt>
      <trkpt lat="44.43853" lon="3.70638">
        <ele>1536.8000488281</ele>
        <time>2019-05-26T08:15:46Z</time>
      </trkpt>
      <trkpt lat="44.43861" lon="3.70626">
        <ele>1536.5999755859</ele>
        <time>2019-05-26T08:15:48Z</time>
      </trkpt>
      <trkpt lat="44.43882" lon="3.70583">
        <ele>1536.1999511719</ele>
        <time>2019-05-26T08:15:54Z</time>
      </trkpt>
      <trkpt lat="44.43892" lon="3.70553">
        <ele>1535.8000488281</ele>
        <time>2019-05-26T08:15:58Z</time>
      </trkpt>
      <trkpt lat="44.43894" lon="3.70545">
        <ele>1535.8000488281</ele>
        <time>2019-05-26T08:15:59Z</time>
      </trkpt>
      <trkpt lat="44.439" lon="3.70503">
        <ele>1535.4000244141</ele>
        <time>2019-05-26T08:16:04Z</time>
      </trkpt>
      <trkpt lat="44.43903" lon="3.70486">
        <ele>1535.1999511719</ele>
        <time>2019-05-26T08:16:06Z</time>
      </trkpt>
      <trkpt lat="44.43903" lon="3.70478">
        <ele>1535.1999511719</ele>
        <time>2019-05-26T08:16:07Z</time>
      </trkpt>
      <trkpt lat="44.43902" lon="3.70461">
        <ele>1535.1999511719</ele>
        <time>2019-05-26T08:16:09Z</time>
      </trkpt>
      <trkpt lat="44.439" lon="3.7041">
        <ele>1534.5999755859</ele>
        <time>2019-05-26T08:16:15Z</time>
      </trkpt>
      <trkpt lat="44.43898" lon="3.70392">
        <ele>1534.4000244141</ele>
        <time>2019-05-26T08:16:17Z</time>
      </trkpt>
      <trkpt lat="44.43894" lon="3.70373">
        <ele>1534</ele>
        <time>2019-05-26T08:16:19Z</time>
      </trkpt>
      <trkpt lat="44.43879" lon="3.70321">
        <ele>1533.4000244141</ele>
        <time>2019-05-26T08:16:25Z</time>
      </trkpt>
      <trkpt lat="44.43861" lon="3.70275">
        <ele>1533</ele>
        <time>2019-05-26T08:16:31Z</time>
      </trkpt>
      <trkpt lat="44.43858" lon="3.70268">
        <ele>1533</ele>
        <time>2019-05-26T08:16:32Z</time>
      </trkpt>
      <trkpt lat="44.43853" lon="3.70256">
        <ele>1532.8000488281</ele>
        <time>2019-05-26T08:16:34Z</time>
      </trkpt>
      <trkpt lat="44.43849" lon="3.70242">
        <ele>1532.5999755859</ele>
        <time>2019-05-26T08:16:36Z</time>
      </trkpt>
      <trkpt lat="44.43846" lon="3.70236">
        <ele>1532.5999755859</ele>
        <time>2019-05-26T08:16:37Z</time>
      </trkpt>
      <trkpt lat="44.43841" lon="3.70225">
        <ele>1532.4000244141</ele>
        <time>2019-05-26T08:16:39Z</time>
      </trkpt>
      <trkpt lat="44.43837" lon="3.70213">
        <ele>1532.1999511719</ele>
        <time>2019-05-26T08:16:41Z</time>
      </trkpt>
      <trkpt lat="44.43833" lon="3.70202">
        <ele>1532</ele>
        <time>2019-05-26T08:16:43Z</time>
      </trkpt>
      <trkpt lat="44.43832" lon="3.70191">
        <ele>1532</ele>
        <time>2019-05-26T08:16:45Z</time>
      </trkpt>
      <trkpt lat="44.43823" lon="3.7014">
        <ele>1531.5999755859</ele>
        <time>2019-05-26T08:16:53Z</time>
      </trkpt>
      <trkpt lat="44.43822" lon="3.70133">
        <ele>1531.4000244141</ele>
        <time>2019-05-26T08:16:54Z</time>
      </trkpt>
      <trkpt lat="44.43821" lon="3.7011">
        <ele>1531.1999511719</ele>
        <time>2019-05-26T08:16:57Z</time>
      </trkpt>
      <trkpt lat="44.43823" lon="3.70074">
        <ele>1531</ele>
        <time>2019-05-26T08:17:02Z</time>
      </trkpt>
      <trkpt lat="44.43818" lon="3.70024">
        <ele>1530.5999755859</ele>
        <time>2019-05-26T08:17:09Z</time>
      </trkpt>
      <trkpt lat="44.43813" lon="3.70003">
        <ele>1530.5999755859</ele>
        <time>2019-05-26T08:17:12Z</time>
      </trkpt>
      <trkpt lat="44.43812" lon="3.69988">
        <ele>1530.4000244141</ele>
        <time>2019-05-26T08:17:14Z</time>
      </trkpt>
      <trkpt lat="44.4381" lon="3.69972">
        <ele>1530.4000244141</ele>
        <time>2019-05-26T08:17:16Z</time>
      </trkpt>
      <trkpt lat="44.43809" lon="3.69958">
        <ele>1530.4000244141</ele>
        <time>2019-05-26T08:17:18Z</time>
      </trkpt>
      <trkpt lat="44.43809" lon="3.6995">
        <ele>1530.4000244141</ele>
        <time>2019-05-26T08:17:19Z</time>
      </trkpt>
      <trkpt lat="44.43812" lon="3.6992">
        <ele>1530.4000244141</ele>
        <time>2019-05-26T08:17:23Z</time>
      </trkpt>
      <trkpt lat="44.43815" lon="3.69906">
        <ele>1530.4000244141</ele>
        <time>2019-05-26T08:17:25Z</time>
      </trkpt>
      <trkpt lat="44.43818" lon="3.69877">
        <ele>1530.4000244141</ele>
        <time>2019-05-26T08:17:29Z</time>
      </trkpt>
      <trkpt lat="44.43817" lon="3.6987">
        <ele>1530.4000244141</ele>
        <time>2019-05-26T08:17:30Z</time>
      </trkpt>
      <trkpt lat="44.43817" lon="3.69863">
        <ele>1530.4000244141</ele>
        <time>2019-05-26T08:17:31Z</time>
      </trkpt>
      <trkpt lat="44.43818" lon="3.69834">
        <ele>1530.4000244141</ele>
        <time>2019-05-26T08:17:35Z</time>
      </trkpt>
      <trkpt lat="44.43823" lon="3.69793">
        <ele>1530.1999511719</ele>
        <time>2019-05-26T08:17:41Z</time>
      </trkpt>
      <trkpt lat="44.43826" lon="3.69757">
        <ele>1530.4000244141</ele>
        <time>2019-05-26T08:17:46Z</time>
      </trkpt>
      <trkpt lat="44.43827" lon="3.69751">
        <ele>1530.1999511719</ele>
        <time>2019-05-26T08:17:47Z</time>
      </trkpt>
      <trkpt lat="44.43835" lon="3.69704">
        <ele>1530.4000244141</ele>
        <time>2019-05-26T08:17:54Z</time>
      </trkpt>
      <trkpt lat="44.43846" lon="3.69665">
        <ele>1530.4000244141</ele>
        <time>2019-05-26T08:18:00Z</time>
      </trkpt>
      <trkpt lat="44.43848" lon="3.69659">
        <ele>1530.4000244141</ele>
        <time>2019-05-26T08:18:01Z</time>
      </trkpt>
      <trkpt lat="44.43864" lon="3.69626">
        <ele>1530.5999755859</ele>
        <time>2019-05-26T08:18:07Z</time>
      </trkpt>
      <trkpt lat="44.43871" lon="3.69609">
        <ele>1530.8000488281</ele>
        <time>2019-05-26T08:18:10Z</time>
      </trkpt>
      <trkpt lat="44.43875" lon="3.69591">
        <ele>1530.8000488281</ele>
        <time>2019-05-26T08:18:13Z</time>
      </trkpt>
      <trkpt lat="44.43882" lon="3.69554">
        <ele>1531</ele>
        <time>2019-05-26T08:18:19Z</time>
      </trkpt>
      <trkpt lat="44.43886" lon="3.69505">
        <ele>1531.4000244141</ele>
        <time>2019-05-26T08:18:27Z</time>
      </trkpt>
      <trkpt lat="44.43886" lon="3.695">
        <ele>1531.4000244141</ele>
        <time>2019-05-26T08:18:28Z</time>
      </trkpt>
      <trkpt lat="44.43886" lon="3.69488">
        <ele>1531.4000244141</ele>
        <time>2019-05-26T08:18:30Z</time>
      </trkpt>
      <trkpt lat="44.43882" lon="3.69459">
        <ele>1531.8000488281</ele>
        <time>2019-05-26T08:18:35Z</time>
      </trkpt>
      <trkpt lat="44.43881" lon="3.69453">
        <ele>1531.8000488281</ele>
        <time>2019-05-26T08:18:36Z</time>
      </trkpt>
      <trkpt lat="44.43872" lon="3.69424">
        <ele>1532</ele>
        <time>2019-05-26T08:18:41Z</time>
      </trkpt>
      <trkpt lat="44.43867" lon="3.69407">
        <ele>1532.1999511719</ele>
        <time>2019-05-26T08:18:44Z</time>
      </trkpt>
      <trkpt lat="44.43863" lon="3.69397">
        <ele>1532.4000244141</ele>
        <time>2019-05-26T08:18:46Z</time>
      </trkpt>
      <trkpt lat="44.43861" lon="3.69391">
        <ele>1532.5999755859</ele>
        <time>2019-05-26T08:18:47Z</time>
      </trkpt>
      <trkpt lat="44.43855" lon="3.69375">
        <ele>1532.5999755859</ele>
        <time>2019-05-26T08:18:50Z</time>
      </trkpt>
      <trkpt lat="44.43845" lon="3.69353">
        <ele>1532.8000488281</ele>
        <time>2019-05-26T08:18:54Z</time>
      </trkpt>
      <trkpt lat="44.4383" lon="3.69322">
        <ele>1533</ele>
        <time>2019-05-26T08:19:00Z</time>
      </trkpt>
      <trkpt lat="44.43828" lon="3.69317">
        <ele>1533</ele>
        <time>2019-05-26T08:19:01Z</time>
      </trkpt>
      <trkpt lat="44.43821" lon="3.693">
        <ele>1533.1999511719</ele>
        <time>2019-05-26T08:19:04Z</time>
      </trkpt>
      <trkpt lat="44.43817" lon="3.69282">
        <ele>1533.4000244141</ele>
        <time>2019-05-26T08:19:07Z</time>
      </trkpt>
      <trkpt lat="44.43812" lon="3.69252">
        <ele>1533.5999755859</ele>
        <time>2019-05-26T08:19:12Z</time>
      </trkpt>
      <trkpt lat="44.43808" lon="3.69234">
        <ele>1533.8000488281</ele>
        <time>2019-05-26T08:19:15Z</time>
      </trkpt>
      <trkpt lat="44.43805" lon="3.6921">
        <ele>1534.1999511719</ele>
        <time>2019-05-26T08:19:19Z</time>
      </trkpt>
      <trkpt lat="44.43804" lon="3.69198">
        <ele>1534.1999511719</ele>
        <time>2019-05-26T08:19:21Z</time>
      </trkpt>
      <trkpt lat="44.43795" lon="3.69163">
        <ele>1534.5999755859</ele>
        <time>2019-05-26T08:19:27Z</time>
      </trkpt>
      <trkpt lat="44.43789" lon="3.69138">
        <ele>1534.8000488281</ele>
        <time>2019-05-26T08:19:31Z</time>
      </trkpt>
      <trkpt lat="44.43785" lon="3.69126">
        <ele>1535</ele>
        <time>2019-05-26T08:19:33Z</time>
      </trkpt>
      <trkpt lat="44.43778" lon="3.69108">
        <ele>1535</ele>
        <time>2019-05-26T08:19:36Z</time>
      </trkpt>
      <trkpt lat="44.43769" lon="3.69083">
        <ele>1535.1999511719</ele>
        <time>2019-05-26T08:19:40Z</time>
      </trkpt>
      <trkpt lat="44.43746" lon="3.6903">
        <ele>1535.5999755859</ele>
        <time>2019-05-26T08:19:49Z</time>
      </trkpt>
      <trkpt lat="44.43743" lon="3.69024">
        <ele>1535.5999755859</ele>
        <time>2019-05-26T08:19:50Z</time>
      </trkpt>
      <trkpt lat="44.43736" lon="3.69005">
        <ele>1535.8000488281</ele>
        <time>2019-05-26T08:19:53Z</time>
      </trkpt>
      <trkpt lat="44.4373" lon="3.68993">
        <ele>1535.8000488281</ele>
        <time>2019-05-26T08:19:55Z</time>
      </trkpt>
      <trkpt lat="44.43715" lon="3.68964">
        <ele>1536</ele>
        <time>2019-05-26T08:20:00Z</time>
      </trkpt>
      <trkpt lat="44.43712" lon="3.68958">
        <ele>1536</ele>
        <time>2019-05-26T08:20:01Z</time>
      </trkpt>
      <trkpt lat="44.437" lon="3.68934">
        <ele>1536.1999511719</ele>
        <time>2019-05-26T08:20:05Z</time>
      </trkpt>
      <trkpt lat="44.43693" lon="3.68922">
        <ele>1536.1999511719</ele>
        <time>2019-05-26T08:20:07Z</time>
      </trkpt>
      <trkpt lat="44.43689" lon="3.68916">
        <ele>1536.1999511719</ele>
        <time>2019-05-26T08:20:08Z</time>
      </trkpt>
      <trkpt lat="44.43675" lon="3.68894">
        <ele>1536.4000244141</ele>
        <time>2019-05-26T08:20:12Z</time>
      </trkpt>
      <trkpt lat="44.43646" lon="3.68854">
        <ele>1536.5999755859</ele>
        <time>2019-05-26T08:20:20Z</time>
      </trkpt>
      <trkpt lat="44.43631" lon="3.68826">
        <ele>1536.8000488281</ele>
        <time>2019-05-26T08:20:25Z</time>
      </trkpt>
      <trkpt lat="44.43629" lon="3.68819">
        <ele>1536.8000488281</ele>
        <time>2019-05-26T08:20:26Z</time>
      </trkpt>
      <trkpt lat="44.43627" lon="3.68812">
        <ele>1536.8000488281</ele>
        <time>2019-05-26T08:20:27Z</time>
      </trkpt>
      <trkpt lat="44.43624" lon="3.68798">
        <ele>1536.8000488281</ele>
        <time>2019-05-26T08:20:29Z</time>
      </trkpt>
      <trkpt lat="44.43622" lon="3.68784">
        <ele>1537</ele>
        <time>2019-05-26T08:20:31Z</time>
      </trkpt>
      <trkpt lat="44.43614" lon="3.68732">
        <ele>1537.1999511719</ele>
        <time>2019-05-26T08:20:39Z</time>
      </trkpt>
      <trkpt lat="44.43614" lon="3.6872">
        <ele>1537.4000244141</ele>
        <time>2019-05-26T08:20:41Z</time>
      </trkpt>
      <trkpt lat="44.43615" lon="3.68702">
        <ele>1537.5999755859</ele>
        <time>2019-05-26T08:20:44Z</time>
      </trkpt>
      <trkpt lat="44.43615" lon="3.68697">
        <ele>1537.8000488281</ele>
        <time>2019-05-26T08:20:45Z</time>
      </trkpt>
      <trkpt lat="44.43621" lon="3.68664">
        <ele>1538.1999511719</ele>
        <time>2019-05-26T08:20:51Z</time>
      </trkpt>
      <trkpt lat="44.43622" lon="3.68643">
        <ele>1538.4000244141</ele>
        <time>2019-05-26T08:20:55Z</time>
      </trkpt>
      <trkpt lat="44.43624" lon="3.68601">
        <ele>1538.8000488281</ele>
        <time>2019-05-26T08:21:03Z</time>
      </trkpt>
      <trkpt lat="44.43626" lon="3.68569">
        <ele>1539.4000244141</ele>
        <time>2019-05-26T08:21:09Z</time>
      </trkpt>
      <trkpt lat="44.43628" lon="3.68528">
        <ele>1540.1999511719</ele>
        <time>2019-05-26T08:21:17Z</time>
      </trkpt>
      <trkpt lat="44.43632" lon="3.68488">
        <ele>1540.5999755859</ele>
        <time>2019-05-26T08:21:25Z</time>
      </trkpt>
      <trkpt lat="44.43637" lon="3.68449">
        <ele>1541.4000244141</ele>
        <time>2019-05-26T08:21:33Z</time>
      </trkpt>
      <trkpt lat="44.43638" lon="3.68418">
        <ele>1541.8000488281</ele>
        <time>2019-05-26T08:21:39Z</time>
      </trkpt>
      <trkpt lat="44.43633" lon="3.68381">
        <ele>1542.1999511719</ele>
        <time>2019-05-26T08:21:46Z</time>
      </trkpt>
      <trkpt lat="44.4363" lon="3.6837">
        <ele>1542.4000244141</ele>
        <time>2019-05-26T08:21:48Z</time>
      </trkpt>
      <trkpt lat="44.43626" lon="3.68355">
        <ele>1542.5999755859</ele>
        <time>2019-05-26T08:21:51Z</time>
      </trkpt>
      <trkpt lat="44.43618" lon="3.6832">
        <ele>1543.4000244141</ele>
        <time>2019-05-26T08:21:58Z</time>
      </trkpt>
      <trkpt lat="44.43612" lon="3.68289">
        <ele>1543.8000488281</ele>
        <time>2019-05-26T08:22:04Z</time>
      </trkpt>
      <trkpt lat="44.43605" lon="3.68263">
        <ele>1544.4000244141</ele>
        <time>2019-05-26T08:22:09Z</time>
      </trkpt>
      <trkpt lat="44.43588" lon="3.68234">
        <ele>1545.1999511719</ele>
        <time>2019-05-26T08:22:16Z</time>
      </trkpt>
      <trkpt lat="44.43579" lon="3.68221">
        <ele>1545.4000244141</ele>
        <time>2019-05-26T08:22:19Z</time>
      </trkpt>
      <trkpt lat="44.43569" lon="3.6821">
        <ele>1545.5999755859</ele>
        <time>2019-05-26T08:22:22Z</time>
      </trkpt>
      <trkpt lat="44.43555" lon="3.68192">
        <ele>1546</ele>
        <time>2019-05-26T08:22:26Z</time>
      </trkpt>
      <trkpt lat="44.43552" lon="3.68186">
        <ele>1546</ele>
        <time>2019-05-26T08:22:27Z</time>
      </trkpt>
      <trkpt lat="44.43542" lon="3.68172">
        <ele>1546.1999511719</ele>
        <time>2019-05-26T08:22:30Z</time>
      </trkpt>
      <trkpt lat="44.43535" lon="3.68162">
        <ele>1546.4000244141</ele>
        <time>2019-05-26T08:22:32Z</time>
      </trkpt>
      <trkpt lat="44.43532" lon="3.68157">
        <ele>1546.5999755859</ele>
        <time>2019-05-26T08:22:33Z</time>
      </trkpt>
      <trkpt lat="44.43519" lon="3.68137">
        <ele>1546.8000488281</ele>
        <time>2019-05-26T08:22:37Z</time>
      </trkpt>
      <trkpt lat="44.43513" lon="3.68126">
        <ele>1546.8000488281</ele>
        <time>2019-05-26T08:22:39Z</time>
      </trkpt>
      <trkpt lat="44.43508" lon="3.68106">
        <ele>1547</ele>
        <time>2019-05-26T08:22:42Z</time>
      </trkpt>
      <trkpt lat="44.43506" lon="3.68084">
        <ele>1547</ele>
        <time>2019-05-26T08:22:45Z</time>
      </trkpt>
      <trkpt lat="44.43508" lon="3.6807">
        <ele>1547.1999511719</ele>
        <time>2019-05-26T08:22:47Z</time>
      </trkpt>
      <trkpt lat="44.43518" lon="3.68046">
        <ele>1547.4000244141</ele>
        <time>2019-05-26T08:22:51Z</time>
      </trkpt>
      <trkpt lat="44.43521" lon="3.68042">
        <ele>1547.4000244141</ele>
        <time>2019-05-26T08:22:52Z</time>
      </trkpt>
      <trkpt lat="44.43533" lon="3.68023">
        <ele>1547.8000488281</ele>
        <time>2019-05-26T08:22:57Z</time>
      </trkpt>
      <trkpt lat="44.43545" lon="3.68006">
        <ele>1548.4000244141</ele>
        <time>2019-05-26T08:23:03Z</time>
      </trkpt>
      <trkpt lat="44.43557" lon="3.67985">
        <ele>1548.8000488281</ele>
        <time>2019-05-26T08:23:10Z</time>
      </trkpt>
      <trkpt lat="44.43566" lon="3.67968">
        <ele>1549.4000244141</ele>
        <time>2019-05-26T08:23:15Z</time>
      </trkpt>
      <trkpt lat="44.43576" lon="3.67941">
        <ele>1550</ele>
        <time>2019-05-26T08:23:22Z</time>
      </trkpt>
      <trkpt lat="44.43586" lon="3.67911">
        <ele>1550.5999755859</ele>
        <time>2019-05-26T08:23:30Z</time>
      </trkpt>
      <trkpt lat="44.436" lon="3.67879">
        <ele>1551.4000244141</ele>
        <time>2019-05-26T08:23:39Z</time>
      </trkpt>
      <trkpt lat="44.43609" lon="3.67847">
        <ele>1552.1999511719</ele>
        <time>2019-05-26T08:23:47Z</time>
      </trkpt>
      <trkpt lat="44.43616" lon="3.67811">
        <ele>1552.5999755859</ele>
        <time>2019-05-26T08:23:55Z</time>
      </trkpt>
      <trkpt lat="44.4362" lon="3.67775">
        <ele>1553.4000244141</ele>
        <time>2019-05-26T08:24:02Z</time>
      </trkpt>
      <trkpt lat="44.4362" lon="3.67759">
        <ele>1553.5999755859</ele>
        <time>2019-05-26T08:24:05Z</time>
      </trkpt>
      <trkpt lat="44.4362" lon="3.67747">
        <ele>1553.8000488281</ele>
        <time>2019-05-26T08:24:07Z</time>
      </trkpt>
      <trkpt lat="44.43619" lon="3.67736">
        <ele>1553.8000488281</ele>
        <time>2019-05-26T08:24:09Z</time>
      </trkpt>
      <trkpt lat="44.4362" lon="3.67724">
        <ele>1554</ele>
        <time>2019-05-26T08:24:11Z</time>
      </trkpt>
      <trkpt lat="44.4362" lon="3.67707">
        <ele>1554.1999511719</ele>
        <time>2019-05-26T08:24:14Z</time>
      </trkpt>
      <trkpt lat="44.43619" lon="3.67682">
        <ele>1554.4000244141</ele>
        <time>2019-05-26T08:24:18Z</time>
      </trkpt>
      <trkpt lat="44.43619" lon="3.67668">
        <ele>1554.4000244141</ele>
        <time>2019-05-26T08:24:20Z</time>
      </trkpt>
      <trkpt lat="44.4362" lon="3.6764">
        <ele>1554.8000488281</ele>
        <time>2019-05-26T08:24:25Z</time>
      </trkpt>
      <trkpt lat="44.4362" lon="3.67634">
        <ele>1554.8000488281</ele>
        <time>2019-05-26T08:24:26Z</time>
      </trkpt>
      <trkpt lat="44.43621" lon="3.67622">
        <ele>1555</ele>
        <time>2019-05-26T08:24:28Z</time>
      </trkpt>
      <trkpt lat="44.43621" lon="3.67616">
        <ele>1555.1999511719</ele>
        <time>2019-05-26T08:24:29Z</time>
      </trkpt>
      <trkpt lat="44.4362" lon="3.6761">
        <ele>1555.1999511719</ele>
        <time>2019-05-26T08:24:30Z</time>
      </trkpt>
      <trkpt lat="44.4362" lon="3.67598">
        <ele>1555.1999511719</ele>
        <time>2019-05-26T08:24:32Z</time>
      </trkpt>
      <trkpt lat="44.43619" lon="3.67586">
        <ele>1555.4000244141</ele>
        <time>2019-05-26T08:24:34Z</time>
      </trkpt>
      <trkpt lat="44.43618" lon="3.67539">
        <ele>1555.8000488281</ele>
        <time>2019-05-26T08:24:41Z</time>
      </trkpt>
      <trkpt lat="44.43618" lon="3.67504">
        <ele>1556</ele>
        <time>2019-05-26T08:24:46Z</time>
      </trkpt>
      <trkpt lat="44.43618" lon="3.67498">
        <ele>1556</ele>
        <time>2019-05-26T08:24:47Z</time>
      </trkpt>
      <trkpt lat="44.43618" lon="3.67491">
        <ele>1556</ele>
        <time>2019-05-26T08:24:48Z</time>
      </trkpt>
      <trkpt lat="44.43617" lon="3.67472">
        <ele>1556.1999511719</ele>
        <time>2019-05-26T08:24:51Z</time>
      </trkpt>
      <trkpt lat="44.43615" lon="3.67445">
        <ele>1556.4000244141</ele>
        <time>2019-05-26T08:24:55Z</time>
      </trkpt>
      <trkpt lat="44.43614" lon="3.67438">
        <ele>1556.4000244141</ele>
        <time>2019-05-26T08:24:56Z</time>
      </trkpt>
      <trkpt lat="44.43611" lon="3.67415">
        <ele>1556.4000244141</ele>
        <time>2019-05-26T08:24:59Z</time>
      </trkpt>
      <trkpt lat="44.43607" lon="3.67401">
        <ele>1556.5999755859</ele>
        <time>2019-05-26T08:25:01Z</time>
      </trkpt>
      <trkpt lat="44.43592" lon="3.67368">
        <ele>1556.5999755859</ele>
        <time>2019-05-26T08:25:06Z</time>
      </trkpt>
      <trkpt lat="44.43586" lon="3.67357">
        <ele>1556.5999755859</ele>
        <time>2019-05-26T08:25:08Z</time>
      </trkpt>
      <trkpt lat="44.43573" lon="3.67342">
        <ele>1556.8000488281</ele>
        <time>2019-05-26T08:25:11Z</time>
      </trkpt>
      <trkpt lat="44.43569" lon="3.67337">
        <ele>1556.8000488281</ele>
        <time>2019-05-26T08:25:12Z</time>
      </trkpt>
      <trkpt lat="44.43559" lon="3.67329">
        <ele>1556.8000488281</ele>
        <time>2019-05-26T08:25:14Z</time>
      </trkpt>
      <trkpt lat="44.4355" lon="3.67319">
        <ele>1556.8000488281</ele>
        <time>2019-05-26T08:25:16Z</time>
      </trkpt>
      <trkpt lat="44.43545" lon="3.67315">
        <ele>1557</ele>
        <time>2019-05-26T08:25:17Z</time>
      </trkpt>
      <trkpt lat="44.43536" lon="3.67305">
        <ele>1557</ele>
        <time>2019-05-26T08:25:19Z</time>
      </trkpt>
      <trkpt lat="44.43532" lon="3.673">
        <ele>1557</ele>
        <time>2019-05-26T08:25:20Z</time>
      </trkpt>
      <trkpt lat="44.43505" lon="3.6727">
        <ele>1557</ele>
        <time>2019-05-26T08:25:26Z</time>
      </trkpt>
      <trkpt lat="44.43471" lon="3.67233">
        <ele>1557</ele>
        <time>2019-05-26T08:25:34Z</time>
      </trkpt>
      <trkpt lat="44.43448" lon="3.67199">
        <ele>1557</ele>
        <time>2019-05-26T08:25:40Z</time>
      </trkpt>
      <trkpt lat="44.43445" lon="3.67192">
        <ele>1557</ele>
        <time>2019-05-26T08:25:41Z</time>
      </trkpt>
      <trkpt lat="44.43437" lon="3.67169">
        <ele>1557</ele>
        <time>2019-05-26T08:25:44Z</time>
      </trkpt>
      <trkpt lat="44.43429" lon="3.67121">
        <ele>1556.8000488281</ele>
        <time>2019-05-26T08:25:49Z</time>
      </trkpt>
      <trkpt lat="44.43423" lon="3.6707">
        <ele>1556.5999755859</ele>
        <time>2019-05-26T08:25:54Z</time>
      </trkpt>
      <trkpt lat="44.43414" lon="3.67006">
        <ele>1556</ele>
        <time>2019-05-26T08:26:00Z</time>
      </trkpt>
      <trkpt lat="44.43412" lon="3.66995">
        <ele>1556</ele>
        <time>2019-05-26T08:26:01Z</time>
      </trkpt>
      <trkpt lat="44.43409" lon="3.66973">
        <ele>1555.8000488281</ele>
        <time>2019-05-26T08:26:03Z</time>
      </trkpt>
      <trkpt lat="44.43405" lon="3.6694">
        <ele>1555.5999755859</ele>
        <time>2019-05-26T08:26:06Z</time>
      </trkpt>
      <trkpt lat="44.43407" lon="3.66877">
        <ele>1555.1999511719</ele>
        <time>2019-05-26T08:26:12Z</time>
      </trkpt>
      <trkpt lat="44.43416" lon="3.6684">
        <ele>1555.1999511719</ele>
        <time>2019-05-26T08:26:16Z</time>
      </trkpt>
      <trkpt lat="44.43424" lon="3.66826">
        <ele>1555.1999511719</ele>
        <time>2019-05-26T08:26:18Z</time>
      </trkpt>
      <trkpt lat="44.43435" lon="3.66816">
        <ele>1555</ele>
        <time>2019-05-26T08:26:20Z</time>
      </trkpt>
      <trkpt lat="44.43465" lon="3.66799">
        <ele>1554.4000244141</ele>
        <time>2019-05-26T08:26:25Z</time>
      </trkpt>
      <trkpt lat="44.43507" lon="3.66779">
        <ele>1553.1999511719</ele>
        <time>2019-05-26T08:26:32Z</time>
      </trkpt>
      <trkpt lat="44.43542" lon="3.66763">
        <ele>1552.4000244141</ele>
        <time>2019-05-26T08:26:38Z</time>
      </trkpt>
      <trkpt lat="44.43581" lon="3.66739">
        <ele>1551.5999755859</ele>
        <time>2019-05-26T08:26:45Z</time>
      </trkpt>
      <trkpt lat="44.43587" lon="3.66735">
        <ele>1551.4000244141</ele>
        <time>2019-05-26T08:26:46Z</time>
      </trkpt>
      <trkpt lat="44.43605" lon="3.66724">
        <ele>1551.1999511719</ele>
        <time>2019-05-26T08:26:49Z</time>
      </trkpt>
      <trkpt lat="44.43611" lon="3.66719">
        <ele>1551</ele>
        <time>2019-05-26T08:26:50Z</time>
      </trkpt>
      <trkpt lat="44.43626" lon="3.66705">
        <ele>1550.4000244141</ele>
        <time>2019-05-26T08:26:53Z</time>
      </trkpt>
      <trkpt lat="44.43657" lon="3.66674">
        <ele>1549.4000244141</ele>
        <time>2019-05-26T08:26:59Z</time>
      </trkpt>
      <trkpt lat="44.43686" lon="3.6664">
        <ele>1548.4000244141</ele>
        <time>2019-05-26T08:27:05Z</time>
      </trkpt>
      <trkpt lat="44.43708" lon="3.66609">
        <ele>1547.5999755859</ele>
        <time>2019-05-26T08:27:10Z</time>
      </trkpt>
      <trkpt lat="44.43718" lon="3.66585">
        <ele>1547.1999511719</ele>
        <time>2019-05-26T08:27:13Z</time>
      </trkpt>
      <trkpt lat="44.43728" lon="3.6656">
        <ele>1546.8000488281</ele>
        <time>2019-05-26T08:27:16Z</time>
      </trkpt>
      <trkpt lat="44.43739" lon="3.66524">
        <ele>1546.1999511719</ele>
        <time>2019-05-26T08:27:20Z</time>
      </trkpt>
      <trkpt lat="44.43745" lon="3.66497">
        <ele>1545.8000488281</ele>
        <time>2019-05-26T08:27:23Z</time>
      </trkpt>
      <trkpt lat="44.43755" lon="3.66442">
        <ele>1544.8000488281</ele>
        <time>2019-05-26T08:27:29Z</time>
      </trkpt>
      <trkpt lat="44.43762" lon="3.66387">
        <ele>1543.5999755859</ele>
        <time>2019-05-26T08:27:35Z</time>
      </trkpt>
      <trkpt lat="44.43767" lon="3.66318">
        <ele>1542.1999511719</ele>
        <time>2019-05-26T08:27:42Z</time>
      </trkpt>
      <trkpt lat="44.43769" lon="3.66257">
        <ele>1541.1999511719</ele>
        <time>2019-05-26T08:27:48Z</time>
      </trkpt>
      <trkpt lat="44.43767" lon="3.66237">
        <ele>1541</ele>
        <time>2019-05-26T08:27:50Z</time>
      </trkpt>
      <trkpt lat="44.43763" lon="3.66219">
        <ele>1540.5999755859</ele>
        <time>2019-05-26T08:27:52Z</time>
      </trkpt>
      <trkpt lat="44.4376" lon="3.66205">
        <ele>1540.4000244141</ele>
        <time>2019-05-26T08:27:54Z</time>
      </trkpt>
      <trkpt lat="44.43758" lon="3.66198">
        <ele>1540.1999511719</ele>
        <time>2019-05-26T08:27:55Z</time>
      </trkpt>
      <trkpt lat="44.43756" lon="3.66191">
        <ele>1540.1999511719</ele>
        <time>2019-05-26T08:27:56Z</time>
      </trkpt>
      <trkpt lat="44.4375" lon="3.66168">
        <ele>1539.5999755859</ele>
        <time>2019-05-26T08:27:59Z</time>
      </trkpt>
      <trkpt lat="44.43741" lon="3.66137">
        <ele>1539.1999511719</ele>
        <time>2019-05-26T08:28:03Z</time>
      </trkpt>
      <trkpt lat="44.43735" lon="3.66123">
        <ele>1539</ele>
        <time>2019-05-26T08:28:05Z</time>
      </trkpt>
      <trkpt lat="44.43733" lon="3.66108">
        <ele>1538.8000488281</ele>
        <time>2019-05-26T08:28:07Z</time>
      </trkpt>
      <trkpt lat="44.43733" lon="3.661">
        <ele>1538.5999755859</ele>
        <time>2019-05-26T08:28:08Z</time>
      </trkpt>
      <trkpt lat="44.43734" lon="3.66093">
        <ele>1538.4000244141</ele>
        <time>2019-05-26T08:28:09Z</time>
      </trkpt>
      <trkpt lat="44.43741" lon="3.66081">
        <ele>1538.1999511719</ele>
        <time>2019-05-26T08:28:11Z</time>
      </trkpt>
      <trkpt lat="44.4375" lon="3.66073">
        <ele>1538</ele>
        <time>2019-05-26T08:28:13Z</time>
      </trkpt>
      <trkpt lat="44.4376" lon="3.66067">
        <ele>1537.8000488281</ele>
        <time>2019-05-26T08:28:15Z</time>
      </trkpt>
      <trkpt lat="44.43776" lon="3.6606">
        <ele>1537.4000244141</ele>
        <time>2019-05-26T08:28:18Z</time>
      </trkpt>
      <trkpt lat="44.43793" lon="3.66056">
        <ele>1537</ele>
        <time>2019-05-26T08:28:21Z</time>
      </trkpt>
      <trkpt lat="44.43799" lon="3.66055">
        <ele>1537</ele>
        <time>2019-05-26T08:28:22Z</time>
      </trkpt>
      <trkpt lat="44.43811" lon="3.66053">
        <ele>1536.8000488281</ele>
        <time>2019-05-26T08:28:24Z</time>
      </trkpt>
      <trkpt lat="44.43817" lon="3.66053">
        <ele>1536.5999755859</ele>
        <time>2019-05-26T08:28:25Z</time>
      </trkpt>
      <trkpt lat="44.43828" lon="3.66054">
        <ele>1536.4000244141</ele>
        <time>2019-05-26T08:28:27Z</time>
      </trkpt>
      <trkpt lat="44.43846" lon="3.6606">
        <ele>1536</ele>
        <time>2019-05-26T08:28:30Z</time>
      </trkpt>
      <trkpt lat="44.43882" lon="3.66069">
        <ele>1535.1999511719</ele>
        <time>2019-05-26T08:28:36Z</time>
      </trkpt>
      <trkpt lat="44.43901" lon="3.66069">
        <ele>1534.8000488281</ele>
        <time>2019-05-26T08:28:39Z</time>
      </trkpt>
      <trkpt lat="44.43914" lon="3.66068">
        <ele>1534.5999755859</ele>
        <time>2019-05-26T08:28:41Z</time>
      </trkpt>
      <trkpt lat="44.43938" lon="3.66063">
        <ele>1534</ele>
        <time>2019-05-26T08:28:45Z</time>
      </trkpt>
      <trkpt lat="44.4395" lon="3.6606">
        <ele>1533.8000488281</ele>
        <time>2019-05-26T08:28:47Z</time>
      </trkpt>
      <trkpt lat="44.43987" lon="3.66058">
        <ele>1533</ele>
        <time>2019-05-26T08:28:53Z</time>
      </trkpt>
      <trkpt lat="44.44028" lon="3.66057">
        <ele>1532.1999511719</ele>
        <time>2019-05-26T08:28:59Z</time>
      </trkpt>
      <trkpt lat="44.44049" lon="3.66056">
        <ele>1531.8000488281</ele>
        <time>2019-05-26T08:29:02Z</time>
      </trkpt>
      <trkpt lat="44.44056" lon="3.66055">
        <ele>1531.5999755859</ele>
        <time>2019-05-26T08:29:03Z</time>
      </trkpt>
      <trkpt lat="44.44068" lon="3.6605">
        <ele>1531.5999755859</ele>
        <time>2019-05-26T08:29:05Z</time>
      </trkpt>
      <trkpt lat="44.44073" lon="3.66047">
        <ele>1531.5999755859</ele>
        <time>2019-05-26T08:29:06Z</time>
      </trkpt>
      <trkpt lat="44.44098" lon="3.66031">
        <ele>1531.1999511719</ele>
        <time>2019-05-26T08:29:10Z</time>
      </trkpt>
      <trkpt lat="44.44104" lon="3.66025">
        <ele>1531</ele>
        <time>2019-05-26T08:29:11Z</time>
      </trkpt>
      <trkpt lat="44.44114" lon="3.66011">
        <ele>1530.8000488281</ele>
        <time>2019-05-26T08:29:13Z</time>
      </trkpt>
      <trkpt lat="44.44117" lon="3.66003">
        <ele>1530.5999755859</ele>
        <time>2019-05-26T08:29:14Z</time>
      </trkpt>
      <trkpt lat="44.44119" lon="3.65994">
        <ele>1530.5999755859</ele>
        <time>2019-05-26T08:29:15Z</time>
      </trkpt>
      <trkpt lat="44.44121" lon="3.65975">
        <ele>1530.1999511719</ele>
        <time>2019-05-26T08:29:17Z</time>
      </trkpt>
      <trkpt lat="44.44124" lon="3.65925">
        <ele>1529.4000244141</ele>
        <time>2019-05-26T08:29:22Z</time>
      </trkpt>
      <trkpt lat="44.44128" lon="3.65904">
        <ele>1529.1999511719</ele>
        <time>2019-05-26T08:29:24Z</time>
      </trkpt>
      <trkpt lat="44.44134" lon="3.65882">
        <ele>1529</ele>
        <time>2019-05-26T08:29:26Z</time>
      </trkpt>
      <trkpt lat="44.44137" lon="3.65871">
        <ele>1528.8000488281</ele>
        <time>2019-05-26T08:29:27Z</time>
      </trkpt>
      <trkpt lat="44.44151" lon="3.6584">
        <ele>1528.5999755859</ele>
        <time>2019-05-26T08:29:30Z</time>
      </trkpt>
      <trkpt lat="44.44175" lon="3.65788">
        <ele>1528</ele>
        <time>2019-05-26T08:29:35Z</time>
      </trkpt>
      <trkpt lat="44.44182" lon="3.6578">
        <ele>1527.8000488281</ele>
        <time>2019-05-26T08:29:36Z</time>
      </trkpt>
      <trkpt lat="44.44189" lon="3.65772">
        <ele>1527.5999755859</ele>
        <time>2019-05-26T08:29:37Z</time>
      </trkpt>
      <trkpt lat="44.44194" lon="3.65762">
        <ele>1527.5999755859</ele>
        <time>2019-05-26T08:29:38Z</time>
      </trkpt>
      <trkpt lat="44.44211" lon="3.65723">
        <ele>1527</ele>
        <time>2019-05-26T08:29:42Z</time>
      </trkpt>
      <trkpt lat="44.44233" lon="3.65674">
        <ele>1526</ele>
        <time>2019-05-26T08:29:47Z</time>
      </trkpt>
      <trkpt lat="44.44244" lon="3.65658">
        <ele>1525.5999755859</ele>
        <time>2019-05-26T08:29:49Z</time>
      </trkpt>
      <trkpt lat="44.44264" lon="3.65638">
        <ele>1525</ele>
        <time>2019-05-26T08:29:52Z</time>
      </trkpt>
      <trkpt lat="44.4428" lon="3.65629">
        <ele>1524.5999755859</ele>
        <time>2019-05-26T08:29:54Z</time>
      </trkpt>
      <trkpt lat="44.44289" lon="3.65624">
        <ele>1524.4000244141</ele>
        <time>2019-05-26T08:29:55Z</time>
      </trkpt>
      <trkpt lat="44.44305" lon="3.65612">
        <ele>1524.1999511719</ele>
        <time>2019-05-26T08:29:57Z</time>
      </trkpt>
      <trkpt lat="44.44324" lon="3.65587">
        <ele>1523.5999755859</ele>
        <time>2019-05-26T08:30:00Z</time>
      </trkpt>
      <trkpt lat="44.44336" lon="3.65569">
        <ele>1523.1999511719</ele>
        <time>2019-05-26T08:30:02Z</time>
      </trkpt>
      <trkpt lat="44.44342" lon="3.6556">
        <ele>1523</ele>
        <time>2019-05-26T08:30:03Z</time>
      </trkpt>
      <trkpt lat="44.44364" lon="3.65512">
        <ele>1521.5999755859</ele>
        <time>2019-05-26T08:30:08Z</time>
      </trkpt>
      <trkpt lat="44.44373" lon="3.65493">
        <ele>1521.1999511719</ele>
        <time>2019-05-26T08:30:10Z</time>
      </trkpt>
      <trkpt lat="44.44384" lon="3.65463">
        <ele>1520.1999511719</ele>
        <time>2019-05-26T08:30:13Z</time>
      </trkpt>
      <trkpt lat="44.44394" lon="3.65445">
        <ele>1519.8000488281</ele>
        <time>2019-05-26T08:30:15Z</time>
      </trkpt>
      <trkpt lat="44.44405" lon="3.65427">
        <ele>1519.1999511719</ele>
        <time>2019-05-26T08:30:17Z</time>
      </trkpt>
      <trkpt lat="44.44416" lon="3.65409">
        <ele>1518.8000488281</ele>
        <time>2019-05-26T08:30:19Z</time>
      </trkpt>
      <trkpt lat="44.44431" lon="3.65382">
        <ele>1518.1999511719</ele>
        <time>2019-05-26T08:30:22Z</time>
      </trkpt>
      <trkpt lat="44.44451" lon="3.65346">
        <ele>1517.4000244141</ele>
        <time>2019-05-26T08:30:26Z</time>
      </trkpt>
      <trkpt lat="44.44456" lon="3.65337">
        <ele>1517</ele>
        <time>2019-05-26T08:30:27Z</time>
      </trkpt>
      <trkpt lat="44.44468" lon="3.6532">
        <ele>1516.4000244141</ele>
        <time>2019-05-26T08:30:29Z</time>
      </trkpt>
      <trkpt lat="44.44478" lon="3.65305">
        <ele>1516</ele>
        <time>2019-05-26T08:30:31Z</time>
      </trkpt>
      <trkpt lat="44.44487" lon="3.6529">
        <ele>1515.4000244141</ele>
        <time>2019-05-26T08:30:33Z</time>
      </trkpt>
      <trkpt lat="44.44495" lon="3.65275">
        <ele>1514.8000488281</ele>
        <time>2019-05-26T08:30:35Z</time>
      </trkpt>
      <trkpt lat="44.44505" lon="3.65248">
        <ele>1514</ele>
        <time>2019-05-26T08:30:38Z</time>
      </trkpt>
      <trkpt lat="44.44511" lon="3.65218">
        <ele>1513.1999511719</ele>
        <time>2019-05-26T08:30:41Z</time>
      </trkpt>
      <trkpt lat="44.44511" lon="3.65207">
        <ele>1512.8000488281</ele>
        <time>2019-05-26T08:30:42Z</time>
      </trkpt>
      <trkpt lat="44.44505" lon="3.65146">
        <ele>1511.5999755859</ele>
        <time>2019-05-26T08:30:48Z</time>
      </trkpt>
      <trkpt lat="44.44501" lon="3.65095">
        <ele>1510.5999755859</ele>
        <time>2019-05-26T08:30:53Z</time>
      </trkpt>
      <trkpt lat="44.44496" lon="3.65047">
        <ele>1509.8000488281</ele>
        <time>2019-05-26T08:30:58Z</time>
      </trkpt>
      <trkpt lat="44.44494" lon="3.65037">
        <ele>1509.4000244141</ele>
        <time>2019-05-26T08:30:59Z</time>
      </trkpt>
      <trkpt lat="44.44485" lon="3.64987">
        <ele>1508.4000244141</ele>
        <time>2019-05-26T08:31:04Z</time>
      </trkpt>
      <trkpt lat="44.44484" lon="3.64976">
        <ele>1508.1999511719</ele>
        <time>2019-05-26T08:31:05Z</time>
      </trkpt>
      <trkpt lat="44.44485" lon="3.64933">
        <ele>1507.4000244141</ele>
        <time>2019-05-26T08:31:09Z</time>
      </trkpt>
      <trkpt lat="44.44487" lon="3.64902">
        <ele>1507</ele>
        <time>2019-05-26T08:31:12Z</time>
      </trkpt>
      <trkpt lat="44.44485" lon="3.6487">
        <ele>1506.5999755859</ele>
        <time>2019-05-26T08:31:15Z</time>
      </trkpt>
      <trkpt lat="44.44484" lon="3.64849">
        <ele>1506.4000244141</ele>
        <time>2019-05-26T08:31:17Z</time>
      </trkpt>
      <trkpt lat="44.44487" lon="3.6483">
        <ele>1506.1999511719</ele>
        <time>2019-05-26T08:31:19Z</time>
      </trkpt>
      <trkpt lat="44.44493" lon="3.64814">
        <ele>1506</ele>
        <time>2019-05-26T08:31:21Z</time>
      </trkpt>
      <trkpt lat="44.445" lon="3.648">
        <ele>1505.8000488281</ele>
        <time>2019-05-26T08:31:23Z</time>
      </trkpt>
      <trkpt lat="44.44507" lon="3.6479">
        <ele>1505.4000244141</ele>
        <time>2019-05-26T08:31:25Z</time>
      </trkpt>
      <trkpt lat="44.44514" lon="3.64781">
        <ele>1505.4000244141</ele>
        <time>2019-05-26T08:31:27Z</time>
      </trkpt>
      <trkpt lat="44.44518" lon="3.64776">
        <ele>1505.1999511719</ele>
        <time>2019-05-26T08:31:28Z</time>
      </trkpt>
      <trkpt lat="44.44526" lon="3.64765">
        <ele>1505</ele>
        <time>2019-05-26T08:31:30Z</time>
      </trkpt>
      <trkpt lat="44.44531" lon="3.64758">
        <ele>1504.8000488281</ele>
        <time>2019-05-26T08:31:31Z</time>
      </trkpt>
      <trkpt lat="44.44542" lon="3.64738">
        <ele>1504.4000244141</ele>
        <time>2019-05-26T08:31:34Z</time>
      </trkpt>
      <trkpt lat="44.44559" lon="3.64698">
        <ele>1504</ele>
        <time>2019-05-26T08:31:39Z</time>
      </trkpt>
      <trkpt lat="44.44572" lon="3.64663">
        <ele>1503.8000488281</ele>
        <time>2019-05-26T08:31:43Z</time>
      </trkpt>
      <trkpt lat="44.44574" lon="3.64654">
        <ele>1503.5999755859</ele>
        <time>2019-05-26T08:31:44Z</time>
      </trkpt>
      <trkpt lat="44.44579" lon="3.64636">
        <ele>1503.4000244141</ele>
        <time>2019-05-26T08:31:46Z</time>
      </trkpt>
      <trkpt lat="44.44583" lon="3.64628">
        <ele>1503.1999511719</ele>
        <time>2019-05-26T08:31:47Z</time>
      </trkpt>
      <trkpt lat="44.44589" lon="3.64611">
        <ele>1502.8000488281</ele>
        <time>2019-05-26T08:31:49Z</time>
      </trkpt>
      <trkpt lat="44.44591" lon="3.64602">
        <ele>1502.8000488281</ele>
        <time>2019-05-26T08:31:50Z</time>
      </trkpt>
      <trkpt lat="44.44594" lon="3.64593">
        <ele>1502.4000244141</ele>
        <time>2019-05-26T08:31:51Z</time>
      </trkpt>
      <trkpt lat="44.44602" lon="3.64576">
        <ele>1502</ele>
        <time>2019-05-26T08:31:53Z</time>
      </trkpt>
      <trkpt lat="44.44606" lon="3.64569">
        <ele>1501.8000488281</ele>
        <time>2019-05-26T08:31:54Z</time>
      </trkpt>
      <trkpt lat="44.44628" lon="3.64541">
        <ele>1500.8000488281</ele>
        <time>2019-05-26T08:31:58Z</time>
      </trkpt>
      <trkpt lat="44.44634" lon="3.64535">
        <ele>1500.5999755859</ele>
        <time>2019-05-26T08:31:59Z</time>
      </trkpt>
      <trkpt lat="44.4465" lon="3.64516">
        <ele>1499.8000488281</ele>
        <time>2019-05-26T08:32:02Z</time>
      </trkpt>
      <trkpt lat="44.44658" lon="3.64501">
        <ele>1499.4000244141</ele>
        <time>2019-05-26T08:32:04Z</time>
      </trkpt>
      <trkpt lat="44.44674" lon="3.64453">
        <ele>1498.5999755859</ele>
        <time>2019-05-26T08:32:09Z</time>
      </trkpt>
      <trkpt lat="44.44685" lon="3.64406">
        <ele>1497.8000488281</ele>
        <time>2019-05-26T08:32:14Z</time>
      </trkpt>
      <trkpt lat="44.44686" lon="3.64396">
        <ele>1497.8000488281</ele>
        <time>2019-05-26T08:32:15Z</time>
      </trkpt>
      <trkpt lat="44.44687" lon="3.64387">
        <ele>1497.5999755859</ele>
        <time>2019-05-26T08:32:16Z</time>
      </trkpt>
      <trkpt lat="44.44686" lon="3.64359">
        <ele>1497</ele>
        <time>2019-05-26T08:32:19Z</time>
      </trkpt>
      <trkpt lat="44.44682" lon="3.64314">
        <ele>1496</ele>
        <time>2019-05-26T08:32:24Z</time>
      </trkpt>
      <trkpt lat="44.44681" lon="3.64283">
        <ele>1495.1999511719</ele>
        <time>2019-05-26T08:32:27Z</time>
      </trkpt>
      <trkpt lat="44.44682" lon="3.64273">
        <ele>1494.8000488281</ele>
        <time>2019-05-26T08:32:28Z</time>
      </trkpt>
      <trkpt lat="44.44684" lon="3.64262">
        <ele>1494.5999755859</ele>
        <time>2019-05-26T08:32:29Z</time>
      </trkpt>
      <trkpt lat="44.44692" lon="3.64241">
        <ele>1494</ele>
        <time>2019-05-26T08:32:31Z</time>
      </trkpt>
      <trkpt lat="44.44715" lon="3.64193">
        <ele>1492.8000488281</ele>
        <time>2019-05-26T08:32:36Z</time>
      </trkpt>
      <trkpt lat="44.44725" lon="3.64176">
        <ele>1492.4000244141</ele>
        <time>2019-05-26T08:32:38Z</time>
      </trkpt>
      <trkpt lat="44.44736" lon="3.64161">
        <ele>1492</ele>
        <time>2019-05-26T08:32:40Z</time>
      </trkpt>
      <trkpt lat="44.44755" lon="3.64133">
        <ele>1491</ele>
        <time>2019-05-26T08:32:44Z</time>
      </trkpt>
      <trkpt lat="44.44767" lon="3.64113">
        <ele>1490.4000244141</ele>
        <time>2019-05-26T08:32:47Z</time>
      </trkpt>
      <trkpt lat="44.44794" lon="3.64075">
        <ele>1489.1999511719</ele>
        <time>2019-05-26T08:32:52Z</time>
      </trkpt>
      <trkpt lat="44.44799" lon="3.64067">
        <ele>1489</ele>
        <time>2019-05-26T08:32:53Z</time>
      </trkpt>
      <trkpt lat="44.44813" lon="3.64043">
        <ele>1488.1999511719</ele>
        <time>2019-05-26T08:32:56Z</time>
      </trkpt>
      <trkpt lat="44.44819" lon="3.64037">
        <ele>1487.8000488281</ele>
        <time>2019-05-26T08:32:57Z</time>
      </trkpt>
      <trkpt lat="44.4483" lon="3.64026">
        <ele>1487.4000244141</ele>
        <time>2019-05-26T08:32:59Z</time>
      </trkpt>
      <trkpt lat="44.4485" lon="3.64014">
        <ele>1486.4000244141</ele>
        <time>2019-05-26T08:33:02Z</time>
      </trkpt>
      <trkpt lat="44.44881" lon="3.63993">
        <ele>1485</ele>
        <time>2019-05-26T08:33:07Z</time>
      </trkpt>
      <trkpt lat="44.44887" lon="3.6399">
        <ele>1484.5999755859</ele>
        <time>2019-05-26T08:33:08Z</time>
      </trkpt>
      <trkpt lat="44.44897" lon="3.6398">
        <ele>1484</ele>
        <time>2019-05-26T08:33:10Z</time>
      </trkpt>
      <trkpt lat="44.44908" lon="3.63968">
        <ele>1483.4000244141</ele>
        <time>2019-05-26T08:33:12Z</time>
      </trkpt>
      <trkpt lat="44.44912" lon="3.6396">
        <ele>1483.1999511719</ele>
        <time>2019-05-26T08:33:13Z</time>
      </trkpt>
      <trkpt lat="44.44917" lon="3.63952">
        <ele>1482.8000488281</ele>
        <time>2019-05-26T08:33:14Z</time>
      </trkpt>
      <trkpt lat="44.44926" lon="3.63937">
        <ele>1482.1999511719</ele>
        <time>2019-05-26T08:33:16Z</time>
      </trkpt>
      <trkpt lat="44.44935" lon="3.63921">
        <ele>1481.5999755859</ele>
        <time>2019-05-26T08:33:18Z</time>
      </trkpt>
      <trkpt lat="44.4494" lon="3.63912">
        <ele>1481.1999511719</ele>
        <time>2019-05-26T08:33:19Z</time>
      </trkpt>
      <trkpt lat="44.44968" lon="3.63869">
        <ele>1479.5999755859</ele>
        <time>2019-05-26T08:33:24Z</time>
      </trkpt>
      <trkpt lat="44.44984" lon="3.63828">
        <ele>1478.5999755859</ele>
        <time>2019-05-26T08:33:28Z</time>
      </trkpt>
      <trkpt lat="44.45009" lon="3.63773">
        <ele>1477</ele>
        <time>2019-05-26T08:33:34Z</time>
      </trkpt>
      <trkpt lat="44.45025" lon="3.63737">
        <ele>1476</ele>
        <time>2019-05-26T08:33:38Z</time>
      </trkpt>
      <trkpt lat="44.45053" lon="3.63689">
        <ele>1474.1999511719</ele>
        <time>2019-05-26T08:33:44Z</time>
      </trkpt>
      <trkpt lat="44.4507" lon="3.63669">
        <ele>1473.4000244141</ele>
        <time>2019-05-26T08:33:47Z</time>
      </trkpt>
      <trkpt lat="44.45083" lon="3.63658">
        <ele>1472.8000488281</ele>
        <time>2019-05-26T08:33:49Z</time>
      </trkpt>
      <trkpt lat="44.45115" lon="3.63635">
        <ele>1471.1999511719</ele>
        <time>2019-05-26T08:33:54Z</time>
      </trkpt>
      <trkpt lat="44.45141" lon="3.6362">
        <ele>1469.5999755859</ele>
        <time>2019-05-26T08:33:58Z</time>
      </trkpt>
      <trkpt lat="44.45155" lon="3.63613">
        <ele>1468.8000488281</ele>
        <time>2019-05-26T08:34:00Z</time>
      </trkpt>
      <trkpt lat="44.45197" lon="3.63588">
        <ele>1466.5999755859</ele>
        <time>2019-05-26T08:34:06Z</time>
      </trkpt>
      <trkpt lat="44.4523" lon="3.63565">
        <ele>1464.8000488281</ele>
        <time>2019-05-26T08:34:11Z</time>
      </trkpt>
      <trkpt lat="44.45235" lon="3.6356">
        <ele>1464.5999755859</ele>
        <time>2019-05-26T08:34:12Z</time>
      </trkpt>
      <trkpt lat="44.45249" lon="3.63545">
        <ele>1463.5999755859</ele>
        <time>2019-05-26T08:34:15Z</time>
      </trkpt>
      <trkpt lat="44.45274" lon="3.63521">
        <ele>1462.1999511719</ele>
        <time>2019-05-26T08:34:20Z</time>
      </trkpt>
      <trkpt lat="44.45306" lon="3.63487">
        <ele>1460.4000244141</ele>
        <time>2019-05-26T08:34:26Z</time>
      </trkpt>
      <trkpt lat="44.45336" lon="3.63447">
        <ele>1458.5999755859</ele>
        <time>2019-05-26T08:34:32Z</time>
      </trkpt>
      <trkpt lat="44.45341" lon="3.63441">
        <ele>1458.4000244141</ele>
        <time>2019-05-26T08:34:33Z</time>
      </trkpt>
      <trkpt lat="44.45364" lon="3.63411">
        <ele>1457</ele>
        <time>2019-05-26T08:34:38Z</time>
      </trkpt>
      <trkpt lat="44.45386" lon="3.6338">
        <ele>1455.5999755859</ele>
        <time>2019-05-26T08:34:44Z</time>
      </trkpt>
      <trkpt lat="44.45396" lon="3.63366">
        <ele>1454.8000488281</ele>
        <time>2019-05-26T08:34:47Z</time>
      </trkpt>
      <trkpt lat="44.45402" lon="3.63358">
        <ele>1454.4000244141</ele>
        <time>2019-05-26T08:34:49Z</time>
      </trkpt>
      <trkpt lat="44.45414" lon="3.63343">
        <ele>1453.5999755859</ele>
        <time>2019-05-26T08:34:53Z</time>
      </trkpt>
      <trkpt lat="44.45424" lon="3.63333">
        <ele>1453</ele>
        <time>2019-05-26T08:34:56Z</time>
      </trkpt>
      <trkpt lat="44.45443" lon="3.63307">
        <ele>1452.1999511719</ele>
        <time>2019-05-26T08:35:02Z</time>
      </trkpt>
      <trkpt lat="44.45466" lon="3.63274">
        <ele>1451</ele>
        <time>2019-05-26T08:35:09Z</time>
      </trkpt>
      <trkpt lat="44.45486" lon="3.6325">
        <ele>1450.1999511719</ele>
        <time>2019-05-26T08:35:15Z</time>
      </trkpt>
      <trkpt lat="44.45499" lon="3.63228">
        <ele>1449.4000244141</ele>
        <time>2019-05-26T08:35:20Z</time>
      </trkpt>
      <trkpt lat="44.45505" lon="3.63219">
        <ele>1449.1999511719</ele>
        <time>2019-05-26T08:35:22Z</time>
      </trkpt>
      <trkpt lat="44.45528" lon="3.6319">
        <ele>1448.5999755859</ele>
        <time>2019-05-26T08:35:29Z</time>
      </trkpt>
      <trkpt lat="44.45531" lon="3.63186">
        <ele>1448.5999755859</ele>
        <time>2019-05-26T08:35:30Z</time>
      </trkpt>
      <trkpt lat="44.45538" lon="3.63179">
        <ele>1448.4000244141</ele>
        <time>2019-05-26T08:35:32Z</time>
      </trkpt>
      <trkpt lat="44.45541" lon="3.63175">
        <ele>1448.1999511719</ele>
        <time>2019-05-26T08:35:33Z</time>
      </trkpt>
      <trkpt lat="44.45544" lon="3.63171">
        <ele>1448.1999511719</ele>
        <time>2019-05-26T08:35:34Z</time>
      </trkpt>
      <trkpt lat="44.4555" lon="3.6316">
        <ele>1448</ele>
        <time>2019-05-26T08:35:37Z</time>
      </trkpt>
      <trkpt lat="44.45554" lon="3.63157">
        <ele>1447.5999755859</ele>
        <time>2019-05-26T08:35:39Z</time>
      </trkpt>
      <trkpt lat="44.45556" lon="3.63154">
        <ele>1447.5999755859</ele>
        <time>2019-05-26T08:35:40Z</time>
      </trkpt>
      <trkpt lat="44.45573" lon="3.63131">
        <ele>1447.1999511719</ele>
        <time>2019-05-26T08:35:45Z</time>
      </trkpt>
      <trkpt lat="44.45592" lon="3.63107">
        <ele>1447</ele>
        <time>2019-05-26T08:35:50Z</time>
      </trkpt>
      <trkpt lat="44.45609" lon="3.63078">
        <ele>1446.5999755859</ele>
        <time>2019-05-26T08:35:55Z</time>
      </trkpt>
      <trkpt lat="44.45612" lon="3.63071">
        <ele>1446.5999755859</ele>
        <time>2019-05-26T08:35:56Z</time>
      </trkpt>
      <trkpt lat="44.4562" lon="3.63051">
        <ele>1446.1999511719</ele>
        <time>2019-05-26T08:35:59Z</time>
      </trkpt>
      <trkpt lat="44.45624" lon="3.63037">
        <ele>1446</ele>
        <time>2019-05-26T08:36:01Z</time>
      </trkpt>
      <trkpt lat="44.45629" lon="3.63015">
        <ele>1445.8000488281</ele>
        <time>2019-05-26T08:36:04Z</time>
      </trkpt>
      <trkpt lat="44.45638" lon="3.62977">
        <ele>1445.4000244141</ele>
        <time>2019-05-26T08:36:09Z</time>
      </trkpt>
      <trkpt lat="44.4565" lon="3.62934">
        <ele>1444.8000488281</ele>
        <time>2019-05-26T08:36:15Z</time>
      </trkpt>
      <trkpt lat="44.45659" lon="3.62904">
        <ele>1444.1999511719</ele>
        <time>2019-05-26T08:36:19Z</time>
      </trkpt>
      <trkpt lat="44.45667" lon="3.62874">
        <ele>1443.8000488281</ele>
        <time>2019-05-26T08:36:23Z</time>
      </trkpt>
      <trkpt lat="44.4567" lon="3.62859">
        <ele>1443.5999755859</ele>
        <time>2019-05-26T08:36:25Z</time>
      </trkpt>
      <trkpt lat="44.45676" lon="3.6283">
        <ele>1443.1999511719</ele>
        <time>2019-05-26T08:36:29Z</time>
      </trkpt>
      <trkpt lat="44.4568" lon="3.62816">
        <ele>1442.8000488281</ele>
        <time>2019-05-26T08:36:31Z</time>
      </trkpt>
      <trkpt lat="44.45684" lon="3.62802">
        <ele>1442.5999755859</ele>
        <time>2019-05-26T08:36:33Z</time>
      </trkpt>
      <trkpt lat="44.4569" lon="3.62781">
        <ele>1442.1999511719</ele>
        <time>2019-05-26T08:36:36Z</time>
      </trkpt>
      <trkpt lat="44.45704" lon="3.62761">
        <ele>1441.5999755859</ele>
        <time>2019-05-26T08:36:40Z</time>
      </trkpt>
      <trkpt lat="44.45707" lon="3.62757">
        <ele>1441.4000244141</ele>
        <time>2019-05-26T08:36:41Z</time>
      </trkpt>
      <trkpt lat="44.45712" lon="3.62754">
        <ele>1441.1999511719</ele>
        <time>2019-05-26T08:36:43Z</time>
      </trkpt>
      <trkpt lat="44.45714" lon="3.62756">
        <ele>1440.8000488281</ele>
        <time>2019-05-26T08:36:46Z</time>
      </trkpt>
      <trkpt lat="44.45716" lon="3.62757">
        <ele>1438.8000488281</ele>
        <time>2019-05-26T08:37:08Z</time>
      </trkpt>
      <trkpt lat="44.45722" lon="3.62759">
        <ele>1438.4000244141</ele>
        <time>2019-05-26T08:37:12Z</time>
      </trkpt>
      <trkpt lat="44.45723" lon="3.6276">
        <ele>1438.4000244141</ele>
        <time>2019-05-26T08:37:13Z</time>
      </trkpt>
      <trkpt lat="44.45725" lon="3.6276">
        <ele>1438.1999511719</ele>
        <time>2019-05-26T08:37:14Z</time>
      </trkpt>
      <trkpt lat="44.45726" lon="3.62761">
        <ele>1438.1999511719</ele>
        <time>2019-05-26T08:37:16Z</time>
      </trkpt>
      <trkpt lat="44.45728" lon="3.62765">
        <ele>1436</ele>
        <time>2019-05-26T08:38:00Z</time>
      </trkpt>
      <trkpt lat="44.45736" lon="3.62777">
        <ele>1436</ele>
        <time>2019-05-26T08:38:05Z</time>
      </trkpt>
      <trkpt lat="44.45752" lon="3.62807">
        <ele>1435.5999755859</ele>
        <time>2019-05-26T08:38:11Z</time>
      </trkpt>
      <trkpt lat="44.45755" lon="3.62813">
        <ele>1435.5999755859</ele>
        <time>2019-05-26T08:38:14Z</time>
      </trkpt>
      <trkpt lat="44.45757" lon="3.62816">
        <ele>1435.4000244141</ele>
        <time>2019-05-26T08:38:16Z</time>
      </trkpt>
      <trkpt lat="44.45761" lon="3.62823">
        <ele>1435.4000244141</ele>
        <time>2019-05-26T08:38:18Z</time>
      </trkpt>
      <trkpt lat="44.45771" lon="3.62839">
        <ele>1435.1999511719</ele>
        <time>2019-05-26T08:38:22Z</time>
      </trkpt>
      <trkpt lat="44.45784" lon="3.62858">
        <ele>1434.5999755859</ele>
        <time>2019-05-26T08:38:27Z</time>
      </trkpt>
      <trkpt lat="44.45789" lon="3.62865">
        <ele>1434.1999511719</ele>
        <time>2019-05-26T08:38:32Z</time>
      </trkpt>
      <trkpt lat="44.45796" lon="3.62874">
        <ele>1433.8000488281</ele>
        <time>2019-05-26T08:38:36Z</time>
      </trkpt>
      <trkpt lat="44.45801" lon="3.62881">
        <ele>1433.5999755859</ele>
        <time>2019-05-26T08:38:38Z</time>
      </trkpt>
      <trkpt lat="44.45804" lon="3.62892">
        <ele>1433.4000244141</ele>
        <time>2019-05-26T08:38:40Z</time>
      </trkpt>
      <trkpt lat="44.45812" lon="3.62907">
        <ele>1433.1999511719</ele>
        <time>2019-05-26T08:38:44Z</time>
      </trkpt>
      <trkpt lat="44.45817" lon="3.62915">
        <ele>1433.1999511719</ele>
        <time>2019-05-26T08:38:46Z</time>
      </trkpt>
      <trkpt lat="44.45823" lon="3.62925">
        <ele>1433</ele>
        <time>2019-05-26T08:38:48Z</time>
      </trkpt>
      <trkpt lat="44.45826" lon="3.6293">
        <ele>1433</ele>
        <time>2019-05-26T08:38:49Z</time>
      </trkpt>
      <trkpt lat="44.45838" lon="3.62941">
        <ele>1432.4000244141</ele>
        <time>2019-05-26T08:38:52Z</time>
      </trkpt>
      <trkpt lat="44.45847" lon="3.62948">
        <ele>1432</ele>
        <time>2019-05-26T08:38:54Z</time>
      </trkpt>
      <trkpt lat="44.45856" lon="3.62954">
        <ele>1431.8000488281</ele>
        <time>2019-05-26T08:38:56Z</time>
      </trkpt>
      <trkpt lat="44.45861" lon="3.62957">
        <ele>1431.5999755859</ele>
        <time>2019-05-26T08:38:57Z</time>
      </trkpt>
      <trkpt lat="44.45875" lon="3.62964">
        <ele>1431.1999511719</ele>
        <time>2019-05-26T08:39:00Z</time>
      </trkpt>
      <trkpt lat="44.45885" lon="3.62967">
        <ele>1430.8000488281</ele>
        <time>2019-05-26T08:39:02Z</time>
      </trkpt>
      <trkpt lat="44.45901" lon="3.62973">
        <ele>1430</ele>
        <time>2019-05-26T08:39:06Z</time>
      </trkpt>
      <trkpt lat="44.45906" lon="3.62975">
        <ele>1430</ele>
        <time>2019-05-26T08:39:07Z</time>
      </trkpt>
      <trkpt lat="44.45915" lon="3.62978">
        <ele>1429.5999755859</ele>
        <time>2019-05-26T08:39:09Z</time>
      </trkpt>
      <trkpt lat="44.45924" lon="3.62982">
        <ele>1429.1999511719</ele>
        <time>2019-05-26T08:39:11Z</time>
      </trkpt>
      <trkpt lat="44.45934" lon="3.62986">
        <ele>1429</ele>
        <time>2019-05-26T08:39:13Z</time>
      </trkpt>
      <trkpt lat="44.45943" lon="3.62988">
        <ele>1428.5999755859</ele>
        <time>2019-05-26T08:39:15Z</time>
      </trkpt>
      <trkpt lat="44.45947" lon="3.6299">
        <ele>1428.4000244141</ele>
        <time>2019-05-26T08:39:16Z</time>
      </trkpt>
      <trkpt lat="44.45958" lon="3.62992">
        <ele>1427.8000488281</ele>
        <time>2019-05-26T08:39:18Z</time>
      </trkpt>
      <trkpt lat="44.45982" lon="3.62993">
        <ele>1426.8000488281</ele>
        <time>2019-05-26T08:39:22Z</time>
      </trkpt>
      <trkpt lat="44.45988" lon="3.62993">
        <ele>1426.5999755859</ele>
        <time>2019-05-26T08:39:23Z</time>
      </trkpt>
      <trkpt lat="44.46012" lon="3.62992">
        <ele>1425.5999755859</ele>
        <time>2019-05-26T08:39:27Z</time>
      </trkpt>
      <trkpt lat="44.46023" lon="3.62993">
        <ele>1425.1999511719</ele>
        <time>2019-05-26T08:39:29Z</time>
      </trkpt>
      <trkpt lat="44.46033" lon="3.62993">
        <ele>1424.5999755859</ele>
        <time>2019-05-26T08:39:31Z</time>
      </trkpt>
      <trkpt lat="44.46058" lon="3.62995">
        <ele>1423.5999755859</ele>
        <time>2019-05-26T08:39:36Z</time>
      </trkpt>
      <trkpt lat="44.46067" lon="3.62996">
        <ele>1422.8000488281</ele>
        <time>2019-05-26T08:39:39Z</time>
      </trkpt>
      <trkpt lat="44.46077" lon="3.62995">
        <ele>1422</ele>
        <time>2019-05-26T08:39:43Z</time>
      </trkpt>
      <trkpt lat="44.46093" lon="3.62994">
        <ele>1421</ele>
        <time>2019-05-26T08:39:48Z</time>
      </trkpt>
      <trkpt lat="44.46108" lon="3.62993">
        <ele>1419.8000488281</ele>
        <time>2019-05-26T08:39:53Z</time>
      </trkpt>
      <trkpt lat="44.46119" lon="3.62994">
        <ele>1419.1999511719</ele>
        <time>2019-05-26T08:39:56Z</time>
      </trkpt>
      <trkpt lat="44.46123" lon="3.62993">
        <ele>1419</ele>
        <time>2019-05-26T08:39:57Z</time>
      </trkpt>
      <trkpt lat="44.46135" lon="3.62996">
        <ele>1418.4000244141</ele>
        <time>2019-05-26T08:40:00Z</time>
      </trkpt>
      <trkpt lat="44.46152" lon="3.62999">
        <ele>1417.8000488281</ele>
        <time>2019-05-26T08:40:04Z</time>
      </trkpt>
      <trkpt lat="44.46162" lon="3.62998">
        <ele>1417.4000244141</ele>
        <time>2019-05-26T08:40:06Z</time>
      </trkpt>
      <trkpt lat="44.46177" lon="3.62999">
        <ele>1416.8000488281</ele>
        <time>2019-05-26T08:40:09Z</time>
      </trkpt>
      <trkpt lat="44.46191" lon="3.62999">
        <ele>1416.1999511719</ele>
        <time>2019-05-26T08:40:12Z</time>
      </trkpt>
      <trkpt lat="44.46206" lon="3.62998">
        <ele>1415.5999755859</ele>
        <time>2019-05-26T08:40:15Z</time>
      </trkpt>
      <trkpt lat="44.46215" lon="3.62996">
        <ele>1415.1999511719</ele>
        <time>2019-05-26T08:40:17Z</time>
      </trkpt>
      <trkpt lat="44.46238" lon="3.62994">
        <ele>1414.4000244141</ele>
        <time>2019-05-26T08:40:21Z</time>
      </trkpt>
      <trkpt lat="44.46258" lon="3.62993">
        <ele>1413.8000488281</ele>
        <time>2019-05-26T08:40:25Z</time>
      </trkpt>
      <trkpt lat="44.46267" lon="3.62991">
        <ele>1413.4000244141</ele>
        <time>2019-05-26T08:40:27Z</time>
      </trkpt>
      <trkpt lat="44.46276" lon="3.62987">
        <ele>1412.8000488281</ele>
        <time>2019-05-26T08:40:29Z</time>
      </trkpt>
      <trkpt lat="44.46298" lon="3.62982">
        <ele>1411.8000488281</ele>
        <time>2019-05-26T08:40:34Z</time>
      </trkpt>
      <trkpt lat="44.46307" lon="3.62981">
        <ele>1411.1999511719</ele>
        <time>2019-05-26T08:40:36Z</time>
      </trkpt>
      <trkpt lat="44.46317" lon="3.62976">
        <ele>1411</ele>
        <time>2019-05-26T08:40:38Z</time>
      </trkpt>
      <trkpt lat="44.4634" lon="3.62968">
        <ele>1410</ele>
        <time>2019-05-26T08:40:44Z</time>
      </trkpt>
      <trkpt lat="44.46349" lon="3.62963">
        <ele>1409.4000244141</ele>
        <time>2019-05-26T08:40:46Z</time>
      </trkpt>
      <trkpt lat="44.4636" lon="3.6296">
        <ele>1409</ele>
        <time>2019-05-26T08:40:48Z</time>
      </trkpt>
      <trkpt lat="44.46366" lon="3.62959">
        <ele>1408.8000488281</ele>
        <time>2019-05-26T08:40:49Z</time>
      </trkpt>
      <trkpt lat="44.46374" lon="3.62958">
        <ele>1408.4000244141</ele>
        <time>2019-05-26T08:40:51Z</time>
      </trkpt>
      <trkpt lat="44.46378" lon="3.62958">
        <ele>1408.1999511719</ele>
        <time>2019-05-26T08:40:52Z</time>
      </trkpt>
      <trkpt lat="44.46386" lon="3.62957">
        <ele>1408</ele>
        <time>2019-05-26T08:40:54Z</time>
      </trkpt>
      <trkpt lat="44.46396" lon="3.62955">
        <ele>1407.5999755859</ele>
        <time>2019-05-26T08:40:56Z</time>
      </trkpt>
      <trkpt lat="44.46407" lon="3.62954">
        <ele>1407.4000244141</ele>
        <time>2019-05-26T08:40:58Z</time>
      </trkpt>
      <trkpt lat="44.46418" lon="3.62948">
        <ele>1407</ele>
        <time>2019-05-26T08:41:00Z</time>
      </trkpt>
      <trkpt lat="44.46441" lon="3.62946">
        <ele>1406.1999511719</ele>
        <time>2019-05-26T08:41:04Z</time>
      </trkpt>
      <trkpt lat="44.46446" lon="3.62946">
        <ele>1406</ele>
        <time>2019-05-26T08:41:05Z</time>
      </trkpt>
      <trkpt lat="44.46464" lon="3.62946">
        <ele>1405.4000244141</ele>
        <time>2019-05-26T08:41:09Z</time>
      </trkpt>
      <trkpt lat="44.46479" lon="3.62945">
        <ele>1405</ele>
        <time>2019-05-26T08:41:13Z</time>
      </trkpt>
      <trkpt lat="44.46494" lon="3.62944">
        <ele>1404.4000244141</ele>
        <time>2019-05-26T08:41:16Z</time>
      </trkpt>
      <trkpt lat="44.46499" lon="3.62944">
        <ele>1404.1999511719</ele>
        <time>2019-05-26T08:41:17Z</time>
      </trkpt>
      <trkpt lat="44.46513" lon="3.62945">
        <ele>1404</ele>
        <time>2019-05-26T08:41:20Z</time>
      </trkpt>
      <trkpt lat="44.46526" lon="3.62944">
        <ele>1403.8000488281</ele>
        <time>2019-05-26T08:41:23Z</time>
      </trkpt>
      <trkpt lat="44.46531" lon="3.62943">
        <ele>1403.1999511719</ele>
        <time>2019-05-26T08:41:26Z</time>
      </trkpt>
      <trkpt lat="44.46531" lon="3.62943">
        <ele>1403</ele>
        <time>2019-05-26T08:41:27Z</time>
      </trkpt>
      <trkpt lat="44.46548" lon="3.62939">
        <ele>1401</ele>
        <time>2019-05-26T08:41:36Z</time>
      </trkpt>
      <trkpt lat="44.4655" lon="3.62939">
        <ele>1400.8000488281</ele>
        <time>2019-05-26T08:41:37Z</time>
      </trkpt>
      <trkpt lat="44.46552" lon="3.62941">
        <ele>1400.5999755859</ele>
        <time>2019-05-26T08:41:38Z</time>
      </trkpt>
      <trkpt lat="44.46555" lon="3.62943">
        <ele>1400.1999511719</ele>
        <time>2019-05-26T08:41:40Z</time>
      </trkpt>
      <trkpt lat="44.46558" lon="3.62942">
        <ele>1400</ele>
        <time>2019-05-26T08:41:42Z</time>
      </trkpt>
      <trkpt lat="44.46571" lon="3.62941">
        <ele>1399.4000244141</ele>
        <time>2019-05-26T08:41:46Z</time>
      </trkpt>
      <trkpt lat="44.46588" lon="3.62944">
        <ele>1398.8000488281</ele>
        <time>2019-05-26T08:41:50Z</time>
      </trkpt>
      <trkpt lat="44.46591" lon="3.62945">
        <ele>1398.5999755859</ele>
        <time>2019-05-26T08:41:51Z</time>
      </trkpt>
      <trkpt lat="44.46615" lon="3.62951">
        <ele>1397.5999755859</ele>
        <time>2019-05-26T08:41:56Z</time>
      </trkpt>
      <trkpt lat="44.46661" lon="3.62959">
        <ele>1396.1999511719</ele>
        <time>2019-05-26T08:42:05Z</time>
      </trkpt>
      <trkpt lat="44.46693" lon="3.62966">
        <ele>1395.4000244141</ele>
        <time>2019-05-26T08:42:11Z</time>
      </trkpt>
      <trkpt lat="44.46698" lon="3.62969">
        <ele>1395.1999511719</ele>
        <time>2019-05-26T08:42:12Z</time>
      </trkpt>
      <trkpt lat="44.46707" lon="3.62974">
        <ele>1394.8000488281</ele>
        <time>2019-05-26T08:42:14Z</time>
      </trkpt>
      <trkpt lat="44.46714" lon="3.62976">
        <ele>1394.4000244141</ele>
        <time>2019-05-26T08:42:16Z</time>
      </trkpt>
      <trkpt lat="44.46722" lon="3.62977">
        <ele>1393.8000488281</ele>
        <time>2019-05-26T08:42:20Z</time>
      </trkpt>
      <trkpt lat="44.46734" lon="3.62982">
        <ele>1393.1999511719</ele>
        <time>2019-05-26T08:42:25Z</time>
      </trkpt>
      <trkpt lat="44.46757" lon="3.62995">
        <ele>1392.4000244141</ele>
        <time>2019-05-26T08:42:32Z</time>
      </trkpt>
      <trkpt lat="44.4679" lon="3.63014">
        <ele>1391.8000488281</ele>
        <time>2019-05-26T08:42:41Z</time>
      </trkpt>
      <trkpt lat="44.46798" lon="3.63016">
        <ele>1391.8000488281</ele>
        <time>2019-05-26T08:42:43Z</time>
      </trkpt>
      <trkpt lat="44.46812" lon="3.63019">
        <ele>1391.5999755859</ele>
        <time>2019-05-26T08:42:46Z</time>
      </trkpt>
      <trkpt lat="44.46842" lon="3.63026">
        <ele>1391.1999511719</ele>
        <time>2019-05-26T08:42:53Z</time>
      </trkpt>
      <trkpt lat="44.46872" lon="3.63033">
        <ele>1390.8000488281</ele>
        <time>2019-05-26T08:43:00Z</time>
      </trkpt>
      <trkpt lat="44.46892" lon="3.63038">
        <ele>1390.4000244141</ele>
        <time>2019-05-26T08:43:05Z</time>
      </trkpt>
      <trkpt lat="44.46902" lon="3.63041">
        <ele>1390.4000244141</ele>
        <time>2019-05-26T08:43:07Z</time>
      </trkpt>
      <trkpt lat="44.46916" lon="3.63044">
        <ele>1390.4000244141</ele>
        <time>2019-05-26T08:43:10Z</time>
      </trkpt>
      <trkpt lat="44.46931" lon="3.63048">
        <ele>1390.1999511719</ele>
        <time>2019-05-26T08:43:13Z</time>
      </trkpt>
      <trkpt lat="44.46939" lon="3.6305">
        <ele>1390.1999511719</ele>
        <time>2019-05-26T08:43:15Z</time>
      </trkpt>
      <trkpt lat="44.46948" lon="3.63053">
        <ele>1390.1999511719</ele>
        <time>2019-05-26T08:43:17Z</time>
      </trkpt>
      <trkpt lat="44.46961" lon="3.63056">
        <ele>1390.1999511719</ele>
        <time>2019-05-26T08:43:20Z</time>
      </trkpt>
      <trkpt lat="44.46989" lon="3.63066">
        <ele>1390</ele>
        <time>2019-05-26T08:43:25Z</time>
      </trkpt>
      <trkpt lat="44.46999" lon="3.63071">
        <ele>1389.5999755859</ele>
        <time>2019-05-26T08:43:27Z</time>
      </trkpt>
      <trkpt lat="44.47013" lon="3.63082">
        <ele>1389.4000244141</ele>
        <time>2019-05-26T08:43:30Z</time>
      </trkpt>
      <trkpt lat="44.47019" lon="3.63089">
        <ele>1389.1999511719</ele>
        <time>2019-05-26T08:43:32Z</time>
      </trkpt>
      <trkpt lat="44.47026" lon="3.63098">
        <ele>1389</ele>
        <time>2019-05-26T08:43:34Z</time>
      </trkpt>
      <trkpt lat="44.47029" lon="3.63103">
        <ele>1388.8000488281</ele>
        <time>2019-05-26T08:43:35Z</time>
      </trkpt>
      <trkpt lat="44.47037" lon="3.6312">
        <ele>1388.4000244141</ele>
        <time>2019-05-26T08:43:38Z</time>
      </trkpt>
      <trkpt lat="44.47048" lon="3.63145">
        <ele>1388</ele>
        <time>2019-05-26T08:43:42Z</time>
      </trkpt>
      <trkpt lat="44.47049" lon="3.63152">
        <ele>1388</ele>
        <time>2019-05-26T08:43:43Z</time>
      </trkpt>
      <trkpt lat="44.47055" lon="3.63166">
        <ele>1387.8000488281</ele>
        <time>2019-05-26T08:43:45Z</time>
      </trkpt>
      <trkpt lat="44.47068" lon="3.63192">
        <ele>1387.4000244141</ele>
        <time>2019-05-26T08:43:49Z</time>
      </trkpt>
      <trkpt lat="44.47074" lon="3.63209">
        <ele>1387.1999511719</ele>
        <time>2019-05-26T08:43:51Z</time>
      </trkpt>
      <trkpt lat="44.47082" lon="3.63234">
        <ele>1387.1999511719</ele>
        <time>2019-05-26T08:43:54Z</time>
      </trkpt>
      <trkpt lat="44.4709" lon="3.63256">
        <ele>1387</ele>
        <time>2019-05-26T08:43:57Z</time>
      </trkpt>
      <trkpt lat="44.47091" lon="3.63263">
        <ele>1387</ele>
        <time>2019-05-26T08:43:58Z</time>
      </trkpt>
      <trkpt lat="44.47095" lon="3.63283">
        <ele>1386.8000488281</ele>
        <time>2019-05-26T08:44:01Z</time>
      </trkpt>
      <trkpt lat="44.47102" lon="3.63298">
        <ele>1386.5999755859</ele>
        <time>2019-05-26T08:44:03Z</time>
      </trkpt>
      <trkpt lat="44.47123" lon="3.63333">
        <ele>1386</ele>
        <time>2019-05-26T08:44:07Z</time>
      </trkpt>
      <trkpt lat="44.47134" lon="3.63347">
        <ele>1385.5999755859</ele>
        <time>2019-05-26T08:44:09Z</time>
      </trkpt>
      <trkpt lat="44.47138" lon="3.63354">
        <ele>1385.4000244141</ele>
        <time>2019-05-26T08:44:10Z</time>
      </trkpt>
      <trkpt lat="44.47148" lon="3.63364">
        <ele>1384.8000488281</ele>
        <time>2019-05-26T08:44:12Z</time>
      </trkpt>
      <trkpt lat="44.47153" lon="3.63367">
        <ele>1384.4000244141</ele>
        <time>2019-05-26T08:44:13Z</time>
      </trkpt>
      <trkpt lat="44.47158" lon="3.6337">
        <ele>1384</ele>
        <time>2019-05-26T08:44:14Z</time>
      </trkpt>
      <trkpt lat="44.47176" lon="3.63375">
        <ele>1383.5999755859</ele>
        <time>2019-05-26T08:44:17Z</time>
      </trkpt>
      <trkpt lat="44.47195" lon="3.63376">
        <ele>1383.1999511719</ele>
        <time>2019-05-26T08:44:20Z</time>
      </trkpt>
      <trkpt lat="44.47201" lon="3.63373">
        <ele>1383</ele>
        <time>2019-05-26T08:44:21Z</time>
      </trkpt>
      <trkpt lat="44.47213" lon="3.63368">
        <ele>1382.8000488281</ele>
        <time>2019-05-26T08:44:23Z</time>
      </trkpt>
      <trkpt lat="44.47229" lon="3.63357">
        <ele>1382.1999511719</ele>
        <time>2019-05-26T08:44:26Z</time>
      </trkpt>
      <trkpt lat="44.47249" lon="3.63339">
        <ele>1381.5999755859</ele>
        <time>2019-05-26T08:44:30Z</time>
      </trkpt>
      <trkpt lat="44.47254" lon="3.63334">
        <ele>1381.4000244141</ele>
        <time>2019-05-26T08:44:31Z</time>
      </trkpt>
      <trkpt lat="44.47277" lon="3.6331">
        <ele>1380.5999755859</ele>
        <time>2019-05-26T08:44:36Z</time>
      </trkpt>
      <trkpt lat="44.47301" lon="3.63288">
        <ele>1379.8000488281</ele>
        <time>2019-05-26T08:44:41Z</time>
      </trkpt>
      <trkpt lat="44.47305" lon="3.63284">
        <ele>1379.5999755859</ele>
        <time>2019-05-26T08:44:42Z</time>
      </trkpt>
      <trkpt lat="44.47317" lon="3.63275">
        <ele>1379.1999511719</ele>
        <time>2019-05-26T08:44:45Z</time>
      </trkpt>
      <trkpt lat="44.47321" lon="3.63272">
        <ele>1379</ele>
        <time>2019-05-26T08:44:46Z</time>
      </trkpt>
      <trkpt lat="44.47324" lon="3.63269">
        <ele>1378.8000488281</ele>
        <time>2019-05-26T08:44:47Z</time>
      </trkpt>
      <trkpt lat="44.47332" lon="3.63262">
        <ele>1378.5999755859</ele>
        <time>2019-05-26T08:44:49Z</time>
      </trkpt>
      <trkpt lat="44.47336" lon="3.63257">
        <ele>1378.4000244141</ele>
        <time>2019-05-26T08:44:50Z</time>
      </trkpt>
      <trkpt lat="44.47344" lon="3.63249">
        <ele>1378.1999511719</ele>
        <time>2019-05-26T08:44:52Z</time>
      </trkpt>
      <trkpt lat="44.47353" lon="3.63241">
        <ele>1377.8000488281</ele>
        <time>2019-05-26T08:44:54Z</time>
      </trkpt>
      <trkpt lat="44.47364" lon="3.63233">
        <ele>1377.4000244141</ele>
        <time>2019-05-26T08:44:57Z</time>
      </trkpt>
      <trkpt lat="44.47383" lon="3.63219">
        <ele>1376.8000488281</ele>
        <time>2019-05-26T08:45:01Z</time>
      </trkpt>
      <trkpt lat="44.474" lon="3.63208">
        <ele>1376.4000244141</ele>
        <time>2019-05-26T08:45:04Z</time>
      </trkpt>
      <trkpt lat="44.47405" lon="3.63205">
        <ele>1376.1999511719</ele>
        <time>2019-05-26T08:45:05Z</time>
      </trkpt>
      <trkpt lat="44.47436" lon="3.6319">
        <ele>1375.8000488281</ele>
        <time>2019-05-26T08:45:10Z</time>
      </trkpt>
      <trkpt lat="44.47449" lon="3.63184">
        <ele>1375.8000488281</ele>
        <time>2019-05-26T08:45:12Z</time>
      </trkpt>
      <trkpt lat="44.47461" lon="3.63181">
        <ele>1375.5999755859</ele>
        <time>2019-05-26T08:45:14Z</time>
      </trkpt>
      <trkpt lat="44.47486" lon="3.63177">
        <ele>1375.1999511719</ele>
        <time>2019-05-26T08:45:18Z</time>
      </trkpt>
      <trkpt lat="44.47499" lon="3.63176">
        <ele>1375</ele>
        <time>2019-05-26T08:45:20Z</time>
      </trkpt>
      <trkpt lat="44.47512" lon="3.63173">
        <ele>1374.8000488281</ele>
        <time>2019-05-26T08:45:22Z</time>
      </trkpt>
      <trkpt lat="44.47553" lon="3.63169">
        <ele>1374</ele>
        <time>2019-05-26T08:45:28Z</time>
      </trkpt>
      <trkpt lat="44.47559" lon="3.63168">
        <ele>1373.8000488281</ele>
        <time>2019-05-26T08:45:29Z</time>
      </trkpt>
      <trkpt lat="44.47572" lon="3.63163">
        <ele>1373.5999755859</ele>
        <time>2019-05-26T08:45:31Z</time>
      </trkpt>
      <trkpt lat="44.47583" lon="3.63161">
        <ele>1373.4000244141</ele>
        <time>2019-05-26T08:45:33Z</time>
      </trkpt>
      <trkpt lat="44.47594" lon="3.63155">
        <ele>1373</ele>
        <time>2019-05-26T08:45:35Z</time>
      </trkpt>
      <trkpt lat="44.47603" lon="3.63146">
        <ele>1372.8000488281</ele>
        <time>2019-05-26T08:45:37Z</time>
      </trkpt>
      <trkpt lat="44.47612" lon="3.63135">
        <ele>1372.4000244141</ele>
        <time>2019-05-26T08:45:39Z</time>
      </trkpt>
      <trkpt lat="44.47621" lon="3.63114">
        <ele>1372</ele>
        <time>2019-05-26T08:45:42Z</time>
      </trkpt>
      <trkpt lat="44.47623" lon="3.63105">
        <ele>1371.8000488281</ele>
        <time>2019-05-26T08:45:43Z</time>
      </trkpt>
      <trkpt lat="44.47629" lon="3.63078">
        <ele>1371.4000244141</ele>
        <time>2019-05-26T08:45:46Z</time>
      </trkpt>
      <trkpt lat="44.47635" lon="3.63059">
        <ele>1371.1999511719</ele>
        <time>2019-05-26T08:45:48Z</time>
      </trkpt>
      <trkpt lat="44.47643" lon="3.63041">
        <ele>1370.8000488281</ele>
        <time>2019-05-26T08:45:50Z</time>
      </trkpt>
      <trkpt lat="44.47648" lon="3.63034">
        <ele>1370.5999755859</ele>
        <time>2019-05-26T08:45:51Z</time>
      </trkpt>
      <trkpt lat="44.47659" lon="3.63022">
        <ele>1370.1999511719</ele>
        <time>2019-05-26T08:45:54Z</time>
      </trkpt>
      <trkpt lat="44.47662" lon="3.63019">
        <ele>1370</ele>
        <time>2019-05-26T08:45:55Z</time>
      </trkpt>
      <trkpt lat="44.4767" lon="3.63009">
        <ele>1369.4000244141</ele>
        <time>2019-05-26T08:45:58Z</time>
      </trkpt>
      <trkpt lat="44.47675" lon="3.63005">
        <ele>1369.1999511719</ele>
        <time>2019-05-26T08:45:59Z</time>
      </trkpt>
      <trkpt lat="44.47685" lon="3.62996">
        <ele>1368.8000488281</ele>
        <time>2019-05-26T08:46:01Z</time>
      </trkpt>
      <trkpt lat="44.4769" lon="3.62992">
        <ele>1368.5999755859</ele>
        <time>2019-05-26T08:46:02Z</time>
      </trkpt>
      <trkpt lat="44.477" lon="3.62983">
        <ele>1368.1999511719</ele>
        <time>2019-05-26T08:46:04Z</time>
      </trkpt>
      <trkpt lat="44.47704" lon="3.62979">
        <ele>1368</ele>
        <time>2019-05-26T08:46:05Z</time>
      </trkpt>
      <trkpt lat="44.47715" lon="3.62968">
        <ele>1367.4000244141</ele>
        <time>2019-05-26T08:46:08Z</time>
      </trkpt>
      <trkpt lat="44.4772" lon="3.62964">
        <ele>1367.1999511719</ele>
        <time>2019-05-26T08:46:09Z</time>
      </trkpt>
      <trkpt lat="44.47729" lon="3.62956">
        <ele>1366.5999755859</ele>
        <time>2019-05-26T08:46:11Z</time>
      </trkpt>
      <trkpt lat="44.47738" lon="3.62947">
        <ele>1366.1999511719</ele>
        <time>2019-05-26T08:46:13Z</time>
      </trkpt>
      <trkpt lat="44.47749" lon="3.62943">
        <ele>1365.8000488281</ele>
        <time>2019-05-26T08:46:15Z</time>
      </trkpt>
      <trkpt lat="44.47762" lon="3.62931">
        <ele>1365</ele>
        <time>2019-05-26T08:46:18Z</time>
      </trkpt>
      <trkpt lat="44.47767" lon="3.62927">
        <ele>1364.8000488281</ele>
        <time>2019-05-26T08:46:19Z</time>
      </trkpt>
      <trkpt lat="44.47791" lon="3.62908">
        <ele>1363.4000244141</ele>
        <time>2019-05-26T08:46:24Z</time>
      </trkpt>
      <trkpt lat="44.47802" lon="3.62898">
        <ele>1362.4000244141</ele>
        <time>2019-05-26T08:46:27Z</time>
      </trkpt>
      <trkpt lat="44.47806" lon="3.62893">
        <ele>1362</ele>
        <time>2019-05-26T08:46:28Z</time>
      </trkpt>
      <trkpt lat="44.4781" lon="3.62888">
        <ele>1361.8000488281</ele>
        <time>2019-05-26T08:46:29Z</time>
      </trkpt>
      <trkpt lat="44.47819" lon="3.62878">
        <ele>1361.1999511719</ele>
        <time>2019-05-26T08:46:31Z</time>
      </trkpt>
      <trkpt lat="44.47826" lon="3.62868">
        <ele>1360.4000244141</ele>
        <time>2019-05-26T08:46:33Z</time>
      </trkpt>
      <trkpt lat="44.47834" lon="3.62856">
        <ele>1359.8000488281</ele>
        <time>2019-05-26T08:46:35Z</time>
      </trkpt>
      <trkpt lat="44.47845" lon="3.62836">
        <ele>1358.8000488281</ele>
        <time>2019-05-26T08:46:38Z</time>
      </trkpt>
      <trkpt lat="44.47848" lon="3.6283">
        <ele>1358.4000244141</ele>
        <time>2019-05-26T08:46:39Z</time>
      </trkpt>
      <trkpt lat="44.47852" lon="3.62824">
        <ele>1358.1999511719</ele>
        <time>2019-05-26T08:46:40Z</time>
      </trkpt>
      <trkpt lat="44.47859" lon="3.62815">
        <ele>1357.5999755859</ele>
        <time>2019-05-26T08:46:42Z</time>
      </trkpt>
      <trkpt lat="44.47861" lon="3.62811">
        <ele>1357.1999511719</ele>
        <time>2019-05-26T08:46:43Z</time>
      </trkpt>
      <trkpt lat="44.47868" lon="3.62802">
        <ele>1356.5999755859</ele>
        <time>2019-05-26T08:46:45Z</time>
      </trkpt>
      <trkpt lat="44.47877" lon="3.62792">
        <ele>1356</ele>
        <time>2019-05-26T08:46:47Z</time>
      </trkpt>
      <trkpt lat="44.47892" lon="3.62778">
        <ele>1355</ele>
        <time>2019-05-26T08:46:50Z</time>
      </trkpt>
      <trkpt lat="44.47897" lon="3.62775">
        <ele>1354.8000488281</ele>
        <time>2019-05-26T08:46:51Z</time>
      </trkpt>
      <trkpt lat="44.47903" lon="3.62772">
        <ele>1354.5999755859</ele>
        <time>2019-05-26T08:46:52Z</time>
      </trkpt>
      <trkpt lat="44.4791" lon="3.62769">
        <ele>1354.4000244141</ele>
        <time>2019-05-26T08:46:53Z</time>
      </trkpt>
      <trkpt lat="44.47923" lon="3.62764">
        <ele>1353.8000488281</ele>
        <time>2019-05-26T08:46:55Z</time>
      </trkpt>
      <trkpt lat="44.47934" lon="3.62761">
        <ele>1353.5999755859</ele>
        <time>2019-05-26T08:46:57Z</time>
      </trkpt>
      <trkpt lat="44.47946" lon="3.62757">
        <ele>1353</ele>
        <time>2019-05-26T08:46:59Z</time>
      </trkpt>
      <trkpt lat="44.47958" lon="3.62753">
        <ele>1352.5999755859</ele>
        <time>2019-05-26T08:47:01Z</time>
      </trkpt>
      <trkpt lat="44.47964" lon="3.62752">
        <ele>1352.4000244141</ele>
        <time>2019-05-26T08:47:02Z</time>
      </trkpt>
      <trkpt lat="44.47977" lon="3.62751">
        <ele>1352</ele>
        <time>2019-05-26T08:47:04Z</time>
      </trkpt>
      <trkpt lat="44.47995" lon="3.62753">
        <ele>1351.4000244141</ele>
        <time>2019-05-26T08:47:07Z</time>
      </trkpt>
      <trkpt lat="44.47999" lon="3.62752">
        <ele>1351.1999511719</ele>
        <time>2019-05-26T08:47:08Z</time>
      </trkpt>
      <trkpt lat="44.48015" lon="3.62749">
        <ele>1350.8000488281</ele>
        <time>2019-05-26T08:47:11Z</time>
      </trkpt>
      <trkpt lat="44.4802" lon="3.62748">
        <ele>1350.8000488281</ele>
        <time>2019-05-26T08:47:12Z</time>
      </trkpt>
      <trkpt lat="44.48025" lon="3.62748">
        <ele>1350.5999755859</ele>
        <time>2019-05-26T08:47:13Z</time>
      </trkpt>
      <trkpt lat="44.48037" lon="3.62749">
        <ele>1350.4000244141</ele>
        <time>2019-05-26T08:47:15Z</time>
      </trkpt>
      <trkpt lat="44.48043" lon="3.62749">
        <ele>1350.1999511719</ele>
        <time>2019-05-26T08:47:16Z</time>
      </trkpt>
      <trkpt lat="44.48055" lon="3.62749">
        <ele>1350</ele>
        <time>2019-05-26T08:47:18Z</time>
      </trkpt>
      <trkpt lat="44.48078" lon="3.62748">
        <ele>1349.5999755859</ele>
        <time>2019-05-26T08:47:22Z</time>
      </trkpt>
      <trkpt lat="44.4809" lon="3.6275">
        <ele>1349.4000244141</ele>
        <time>2019-05-26T08:47:24Z</time>
      </trkpt>
      <trkpt lat="44.48102" lon="3.62752">
        <ele>1349</ele>
        <time>2019-05-26T08:47:26Z</time>
      </trkpt>
      <trkpt lat="44.48136" lon="3.6275">
        <ele>1348.4000244141</ele>
        <time>2019-05-26T08:47:30Z</time>
      </trkpt>
      <trkpt lat="44.48161" lon="3.6275">
        <ele>1347.5999755859</ele>
        <time>2019-05-26T08:47:33Z</time>
      </trkpt>
      <trkpt lat="44.48169" lon="3.62751">
        <ele>1347.1999511719</ele>
        <time>2019-05-26T08:47:34Z</time>
      </trkpt>
      <trkpt lat="44.48175" lon="3.62752">
        <ele>1346.8000488281</ele>
        <time>2019-05-26T08:47:35Z</time>
      </trkpt>
      <trkpt lat="44.48188" lon="3.62753">
        <ele>1346.1999511719</ele>
        <time>2019-05-26T08:47:37Z</time>
      </trkpt>
      <trkpt lat="44.48193" lon="3.62756">
        <ele>1345.8000488281</ele>
        <time>2019-05-26T08:47:38Z</time>
      </trkpt>
      <trkpt lat="44.4821" lon="3.62764">
        <ele>1345</ele>
        <time>2019-05-26T08:47:41Z</time>
      </trkpt>
      <trkpt lat="44.48217" lon="3.62766">
        <ele>1344.8000488281</ele>
        <time>2019-05-26T08:47:42Z</time>
      </trkpt>
      <trkpt lat="44.48223" lon="3.6277">
        <ele>1344.4000244141</ele>
        <time>2019-05-26T08:47:43Z</time>
      </trkpt>
      <trkpt lat="44.48233" lon="3.6278">
        <ele>1343.8000488281</ele>
        <time>2019-05-26T08:47:45Z</time>
      </trkpt>
      <trkpt lat="44.48249" lon="3.62797">
        <ele>1342.8000488281</ele>
        <time>2019-05-26T08:47:48Z</time>
      </trkpt>
      <trkpt lat="44.48272" lon="3.6282">
        <ele>1341.5999755859</ele>
        <time>2019-05-26T08:47:52Z</time>
      </trkpt>
      <trkpt lat="44.48277" lon="3.62825">
        <ele>1341.1999511719</ele>
        <time>2019-05-26T08:47:53Z</time>
      </trkpt>
      <trkpt lat="44.48291" lon="3.62839">
        <ele>1340.5999755859</ele>
        <time>2019-05-26T08:47:56Z</time>
      </trkpt>
      <trkpt lat="44.48296" lon="3.62843">
        <ele>1340.4000244141</ele>
        <time>2019-05-26T08:47:57Z</time>
      </trkpt>
      <trkpt lat="44.48305" lon="3.62851">
        <ele>1339.8000488281</ele>
        <time>2019-05-26T08:47:59Z</time>
      </trkpt>
      <trkpt lat="44.4831" lon="3.62854">
        <ele>1339.5999755859</ele>
        <time>2019-05-26T08:48:00Z</time>
      </trkpt>
      <trkpt lat="44.4832" lon="3.62861">
        <ele>1339.1999511719</ele>
        <time>2019-05-26T08:48:02Z</time>
      </trkpt>
      <trkpt lat="44.48329" lon="3.62869">
        <ele>1338.5999755859</ele>
        <time>2019-05-26T08:48:04Z</time>
      </trkpt>
      <trkpt lat="44.48333" lon="3.62874">
        <ele>1338.4000244141</ele>
        <time>2019-05-26T08:48:05Z</time>
      </trkpt>
      <trkpt lat="44.48359" lon="3.629">
        <ele>1337.1999511719</ele>
        <time>2019-05-26T08:48:10Z</time>
      </trkpt>
      <trkpt lat="44.48364" lon="3.62906">
        <ele>1337</ele>
        <time>2019-05-26T08:48:11Z</time>
      </trkpt>
      <trkpt lat="44.48374" lon="3.62917">
        <ele>1336.5999755859</ele>
        <time>2019-05-26T08:48:13Z</time>
      </trkpt>
      <trkpt lat="44.48391" lon="3.62934">
        <ele>1335.8000488281</ele>
        <time>2019-05-26T08:48:16Z</time>
      </trkpt>
      <trkpt lat="44.48397" lon="3.62937">
        <ele>1335.5999755859</ele>
        <time>2019-05-26T08:48:17Z</time>
      </trkpt>
      <trkpt lat="44.48407" lon="3.62945">
        <ele>1335.1999511719</ele>
        <time>2019-05-26T08:48:19Z</time>
      </trkpt>
      <trkpt lat="44.48418" lon="3.62953">
        <ele>1334.8000488281</ele>
        <time>2019-05-26T08:48:21Z</time>
      </trkpt>
      <trkpt lat="44.48458" lon="3.62975">
        <ele>1333.5999755859</ele>
        <time>2019-05-26T08:48:27Z</time>
      </trkpt>
      <trkpt lat="44.48489" lon="3.62992">
        <ele>1333</ele>
        <time>2019-05-26T08:48:31Z</time>
      </trkpt>
      <trkpt lat="44.48497" lon="3.62997">
        <ele>1332.8000488281</ele>
        <time>2019-05-26T08:48:32Z</time>
      </trkpt>
      <trkpt lat="44.48518" lon="3.63005">
        <ele>1332.1999511719</ele>
        <time>2019-05-26T08:48:35Z</time>
      </trkpt>
      <trkpt lat="44.48533" lon="3.63005">
        <ele>1331.8000488281</ele>
        <time>2019-05-26T08:48:37Z</time>
      </trkpt>
      <trkpt lat="44.48586" lon="3.63">
        <ele>1330.4000244141</ele>
        <time>2019-05-26T08:48:43Z</time>
      </trkpt>
      <trkpt lat="44.48614" lon="3.63002">
        <ele>1329.5999755859</ele>
        <time>2019-05-26T08:48:46Z</time>
      </trkpt>
      <trkpt lat="44.48622" lon="3.63003">
        <ele>1329.1999511719</ele>
        <time>2019-05-26T08:48:47Z</time>
      </trkpt>
      <trkpt lat="44.48651" lon="3.63007">
        <ele>1328</ele>
        <time>2019-05-26T08:48:51Z</time>
      </trkpt>
      <trkpt lat="44.48657" lon="3.63009">
        <ele>1327.5999755859</ele>
        <time>2019-05-26T08:48:52Z</time>
      </trkpt>
      <trkpt lat="44.48666" lon="3.63016">
        <ele>1326.8000488281</ele>
        <time>2019-05-26T08:48:54Z</time>
      </trkpt>
      <trkpt lat="44.48679" lon="3.63019">
        <ele>1325.8000488281</ele>
        <time>2019-05-26T08:48:56Z</time>
      </trkpt>
      <trkpt lat="44.48687" lon="3.63017">
        <ele>1325.4000244141</ele>
        <time>2019-05-26T08:48:57Z</time>
      </trkpt>
      <trkpt lat="44.48694" lon="3.63016">
        <ele>1325</ele>
        <time>2019-05-26T08:48:58Z</time>
      </trkpt>
      <trkpt lat="44.48705" lon="3.63018">
        <ele>1324.1999511719</ele>
        <time>2019-05-26T08:49:00Z</time>
      </trkpt>
      <trkpt lat="44.48714" lon="3.6302">
        <ele>1323.4000244141</ele>
        <time>2019-05-26T08:49:02Z</time>
      </trkpt>
      <trkpt lat="44.48723" lon="3.63015">
        <ele>1322.5999755859</ele>
        <time>2019-05-26T08:49:04Z</time>
      </trkpt>
      <trkpt lat="44.48727" lon="3.63014">
        <ele>1322.1999511719</ele>
        <time>2019-05-26T08:49:05Z</time>
      </trkpt>
      <trkpt lat="44.48739" lon="3.63014">
        <ele>1321.4000244141</ele>
        <time>2019-05-26T08:49:07Z</time>
      </trkpt>
      <trkpt lat="44.48754" lon="3.63021">
        <ele>1320</ele>
        <time>2019-05-26T08:49:10Z</time>
      </trkpt>
      <trkpt lat="44.48761" lon="3.63024">
        <ele>1319.5999755859</ele>
        <time>2019-05-26T08:49:11Z</time>
      </trkpt>
      <trkpt lat="44.48781" lon="3.6303">
        <ele>1318.1999511719</ele>
        <time>2019-05-26T08:49:14Z</time>
      </trkpt>
      <trkpt lat="44.48788" lon="3.63031">
        <ele>1317.8000488281</ele>
        <time>2019-05-26T08:49:15Z</time>
      </trkpt>
      <trkpt lat="44.48801" lon="3.63034">
        <ele>1317.1999511719</ele>
        <time>2019-05-26T08:49:17Z</time>
      </trkpt>
      <trkpt lat="44.48807" lon="3.63036">
        <ele>1316.8000488281</ele>
        <time>2019-05-26T08:49:18Z</time>
      </trkpt>
      <trkpt lat="44.48813" lon="3.63038">
        <ele>1316.5999755859</ele>
        <time>2019-05-26T08:49:19Z</time>
      </trkpt>
      <trkpt lat="44.48828" lon="3.63038">
        <ele>1315.4000244141</ele>
        <time>2019-05-26T08:49:22Z</time>
      </trkpt>
      <trkpt lat="44.48839" lon="3.63035">
        <ele>1314.8000488281</ele>
        <time>2019-05-26T08:49:24Z</time>
      </trkpt>
      <trkpt lat="44.48847" lon="3.63033">
        <ele>1314.1999511719</ele>
        <time>2019-05-26T08:49:25Z</time>
      </trkpt>
      <trkpt lat="44.48862" lon="3.63029">
        <ele>1313.4000244141</ele>
        <time>2019-05-26T08:49:27Z</time>
      </trkpt>
      <trkpt lat="44.48876" lon="3.63027">
        <ele>1312.8000488281</ele>
        <time>2019-05-26T08:49:29Z</time>
      </trkpt>
      <trkpt lat="44.48882" lon="3.63026">
        <ele>1312.4000244141</ele>
        <time>2019-05-26T08:49:30Z</time>
      </trkpt>
      <trkpt lat="44.48894" lon="3.63022">
        <ele>1311.8000488281</ele>
        <time>2019-05-26T08:49:32Z</time>
      </trkpt>
      <trkpt lat="44.48899" lon="3.63019">
        <ele>1311.5999755859</ele>
        <time>2019-05-26T08:49:33Z</time>
      </trkpt>
      <trkpt lat="44.48919" lon="3.63008">
        <ele>1309.5999755859</ele>
        <time>2019-05-26T08:49:37Z</time>
      </trkpt>
      <trkpt lat="44.48936" lon="3.62998">
        <ele>1307.8000488281</ele>
        <time>2019-05-26T08:49:40Z</time>
      </trkpt>
      <trkpt lat="44.48937" lon="3.62995">
        <ele>1307.1999511719</ele>
        <time>2019-05-26T08:49:41Z</time>
      </trkpt>
      <trkpt lat="44.48939" lon="3.62993">
        <ele>1306.8000488281</ele>
        <time>2019-05-26T08:49:42Z</time>
      </trkpt>
      <trkpt lat="44.4895" lon="3.62984">
        <ele>1305.4000244141</ele>
        <time>2019-05-26T08:49:44Z</time>
      </trkpt>
      <trkpt lat="44.48967" lon="3.62976">
        <ele>1303.4000244141</ele>
        <time>2019-05-26T08:49:48Z</time>
      </trkpt>
      <trkpt lat="44.48979" lon="3.62978">
        <ele>1301.5999755859</ele>
        <time>2019-05-26T08:49:51Z</time>
      </trkpt>
      <trkpt lat="44.48984" lon="3.62979">
        <ele>1300.8000488281</ele>
        <time>2019-05-26T08:49:52Z</time>
      </trkpt>
      <trkpt lat="44.48988" lon="3.62981">
        <ele>1300.1999511719</ele>
        <time>2019-05-26T08:49:53Z</time>
      </trkpt>
      <trkpt lat="44.49" lon="3.62989">
        <ele>1298.4000244141</ele>
        <time>2019-05-26T08:49:56Z</time>
      </trkpt>
      <trkpt lat="44.49008" lon="3.62987">
        <ele>1297.1999511719</ele>
        <time>2019-05-26T08:49:58Z</time>
      </trkpt>
      <trkpt lat="44.49012" lon="3.62985">
        <ele>1296.4000244141</ele>
        <time>2019-05-26T08:49:59Z</time>
      </trkpt>
      <trkpt lat="44.49017" lon="3.62982">
        <ele>1295.8000488281</ele>
        <time>2019-05-26T08:50:00Z</time>
      </trkpt>
      <trkpt lat="44.4903" lon="3.6298">
        <ele>1294.4000244141</ele>
        <time>2019-05-26T08:50:02Z</time>
      </trkpt>
      <trkpt lat="44.49049" lon="3.62976">
        <ele>1293.1999511719</ele>
        <time>2019-05-26T08:50:04Z</time>
      </trkpt>
      <trkpt lat="44.49057" lon="3.62972">
        <ele>1292.4000244141</ele>
        <time>2019-05-26T08:50:05Z</time>
      </trkpt>
      <trkpt lat="44.49067" lon="3.6297">
        <ele>1291.5999755859</ele>
        <time>2019-05-26T08:50:06Z</time>
      </trkpt>
      <trkpt lat="44.49086" lon="3.62968">
        <ele>1290</ele>
        <time>2019-05-26T08:50:08Z</time>
      </trkpt>
      <trkpt lat="44.49138" lon="3.62958">
        <ele>1286</ele>
        <time>2019-05-26T08:50:13Z</time>
      </trkpt>
      <trkpt lat="44.49148" lon="3.62956">
        <ele>1285.1999511719</ele>
        <time>2019-05-26T08:50:14Z</time>
      </trkpt>
      <trkpt lat="44.49171" lon="3.62953">
        <ele>1283.4000244141</ele>
        <time>2019-05-26T08:50:16Z</time>
      </trkpt>
      <trkpt lat="44.49202" lon="3.62951">
        <ele>1280.5999755859</ele>
        <time>2019-05-26T08:50:19Z</time>
      </trkpt>
      <trkpt lat="44.49211" lon="3.6295">
        <ele>1279.5999755859</ele>
        <time>2019-05-26T08:50:20Z</time>
      </trkpt>
      <trkpt lat="44.49221" lon="3.62946">
        <ele>1278.5999755859</ele>
        <time>2019-05-26T08:50:21Z</time>
      </trkpt>
      <trkpt lat="44.49233" lon="3.6294">
        <ele>1276.8000488281</ele>
        <time>2019-05-26T08:50:23Z</time>
      </trkpt>
      <trkpt lat="44.49249" lon="3.62935">
        <ele>1274</ele>
        <time>2019-05-26T08:50:26Z</time>
      </trkpt>
      <trkpt lat="44.49262" lon="3.62933">
        <ele>1272.1999511719</ele>
        <time>2019-05-26T08:50:28Z</time>
      </trkpt>
      <trkpt lat="44.49268" lon="3.62932">
        <ele>1271.4000244141</ele>
        <time>2019-05-26T08:50:29Z</time>
      </trkpt>
      <trkpt lat="44.49289" lon="3.62928">
        <ele>1269</ele>
        <time>2019-05-26T08:50:32Z</time>
      </trkpt>
      <trkpt lat="44.49309" lon="3.62932">
        <ele>1266.5999755859</ele>
        <time>2019-05-26T08:50:35Z</time>
      </trkpt>
      <trkpt lat="44.49326" lon="3.62935">
        <ele>1263.5999755859</ele>
        <time>2019-05-26T08:50:39Z</time>
      </trkpt>
      <trkpt lat="44.49335" lon="3.62937">
        <ele>1262</ele>
        <time>2019-05-26T08:50:41Z</time>
      </trkpt>
      <trkpt lat="44.49343" lon="3.62938">
        <ele>1260.5999755859</ele>
        <time>2019-05-26T08:50:43Z</time>
      </trkpt>
      <trkpt lat="44.49351" lon="3.62938">
        <ele>1258.5999755859</ele>
        <time>2019-05-26T08:50:46Z</time>
      </trkpt>
      <trkpt lat="44.49352" lon="3.62937">
        <ele>1257.4000244141</ele>
        <time>2019-05-26T08:50:48Z</time>
      </trkpt>
      <trkpt lat="44.49364" lon="3.62932">
        <ele>1256.4000244141</ele>
        <time>2019-05-26T08:50:50Z</time>
      </trkpt>
      <trkpt lat="44.4937" lon="3.6293">
        <ele>1255.8000488281</ele>
        <time>2019-05-26T08:50:51Z</time>
      </trkpt>
      <trkpt lat="44.49376" lon="3.62927">
        <ele>1255.1999511719</ele>
        <time>2019-05-26T08:50:52Z</time>
      </trkpt>
      <trkpt lat="44.49401" lon="3.6292">
        <ele>1252.8000488281</ele>
        <time>2019-05-26T08:50:56Z</time>
      </trkpt>
      <trkpt lat="44.49424" lon="3.62912">
        <ele>1250.1999511719</ele>
        <time>2019-05-26T08:51:00Z</time>
      </trkpt>
      <trkpt lat="44.49445" lon="3.62904">
        <ele>1248.5999755859</ele>
        <time>2019-05-26T08:51:03Z</time>
      </trkpt>
      <trkpt lat="44.49453" lon="3.62902">
        <ele>1248</ele>
        <time>2019-05-26T08:51:04Z</time>
      </trkpt>
      <trkpt lat="44.49461" lon="3.62902">
        <ele>1247.5999755859</ele>
        <time>2019-05-26T08:51:05Z</time>
      </trkpt>
      <trkpt lat="44.49477" lon="3.62905">
        <ele>1246.5999755859</ele>
        <time>2019-05-26T08:51:07Z</time>
      </trkpt>
      <trkpt lat="44.49485" lon="3.62906">
        <ele>1246</ele>
        <time>2019-05-26T08:51:08Z</time>
      </trkpt>
      <trkpt lat="44.49502" lon="3.62905">
        <ele>1244.8000488281</ele>
        <time>2019-05-26T08:51:10Z</time>
      </trkpt>
      <trkpt lat="44.49511" lon="3.62904">
        <ele>1244</ele>
        <time>2019-05-26T08:51:11Z</time>
      </trkpt>
      <trkpt lat="44.49544" lon="3.62905">
        <ele>1240.8000488281</ele>
        <time>2019-05-26T08:51:15Z</time>
      </trkpt>
      <trkpt lat="44.49549" lon="3.62907">
        <ele>1240</ele>
        <time>2019-05-26T08:51:16Z</time>
      </trkpt>
      <trkpt lat="44.49564" lon="3.62913">
        <ele>1237.4000244141</ele>
        <time>2019-05-26T08:51:19Z</time>
      </trkpt>
      <trkpt lat="44.49566" lon="3.62918">
        <ele>1236.5999755859</ele>
        <time>2019-05-26T08:51:20Z</time>
      </trkpt>
      <trkpt lat="44.49571" lon="3.62929">
        <ele>1234.8000488281</ele>
        <time>2019-05-26T08:51:22Z</time>
      </trkpt>
      <trkpt lat="44.49577" lon="3.6294">
        <ele>1233</ele>
        <time>2019-05-26T08:51:24Z</time>
      </trkpt>
      <trkpt lat="44.49584" lon="3.62947">
        <ele>1231.5999755859</ele>
        <time>2019-05-26T08:51:26Z</time>
      </trkpt>
      <trkpt lat="44.4959" lon="3.62952">
        <ele>1228.8000488281</ele>
        <time>2019-05-26T08:51:30Z</time>
      </trkpt>
      <trkpt lat="44.49591" lon="3.62952">
        <ele>1227.8000488281</ele>
        <time>2019-05-26T08:51:32Z</time>
      </trkpt>
      <trkpt lat="44.49603" lon="3.62956">
        <ele>1183.4000244141</ele>
        <time>2019-05-26T08:59:11Z</time>
      </trkpt>
      <trkpt lat="44.49603" lon="3.62956">
        <ele>1183.4000244141</ele>
        <time>2019-05-26T08:59:12Z</time>
      </trkpt>
      <trkpt lat="44.49598" lon="3.62949">
        <ele>1183.4000244141</ele>
        <time>2019-05-26T08:59:24Z</time>
      </trkpt>
      <trkpt lat="44.49598" lon="3.62945">
        <ele>1183.4000244141</ele>
        <time>2019-05-26T08:59:26Z</time>
      </trkpt>
      <trkpt lat="44.49599" lon="3.62944">
        <ele>1183.4000244141</ele>
        <time>2019-05-26T08:59:27Z</time>
      </trkpt>
      <trkpt lat="44.496" lon="3.62943">
        <ele>1183.4000244141</ele>
        <time>2019-05-26T08:59:28Z</time>
      </trkpt>
      <trkpt lat="44.49603" lon="3.62942">
        <ele>1183.4000244141</ele>
        <time>2019-05-26T08:59:30Z</time>
      </trkpt>
      <trkpt lat="44.49612" lon="3.62936">
        <ele>1183.5999755859</ele>
        <time>2019-05-26T08:59:36Z</time>
      </trkpt>
      <trkpt lat="44.49617" lon="3.62931">
        <ele>1183.8000488281</ele>
        <time>2019-05-26T08:59:39Z</time>
      </trkpt>
      <trkpt lat="44.49617" lon="3.62928">
        <ele>1184</ele>
        <time>2019-05-26T08:59:40Z</time>
      </trkpt>
      <trkpt lat="44.49622" lon="3.62914">
        <ele>1184.1999511719</ele>
        <time>2019-05-26T08:59:45Z</time>
      </trkpt>
      <trkpt lat="44.49631" lon="3.62893">
        <ele>1184.5999755859</ele>
        <time>2019-05-26T08:59:51Z</time>
      </trkpt>
      <trkpt lat="44.49638" lon="3.62878">
        <ele>1184.5999755859</ele>
        <time>2019-05-26T08:59:56Z</time>
      </trkpt>
      <trkpt lat="44.49643" lon="3.62866">
        <ele>1184.8000488281</ele>
        <time>2019-05-26T08:59:59Z</time>
      </trkpt>
      <trkpt lat="44.49652" lon="3.62847">
        <ele>1185.1999511719</ele>
        <time>2019-05-26T09:00:04Z</time>
      </trkpt>
      <trkpt lat="44.49662" lon="3.62826">
        <ele>1185.5999755859</ele>
        <time>2019-05-26T09:00:10Z</time>
      </trkpt>
      <trkpt lat="44.49668" lon="3.62814">
        <ele>1186</ele>
        <time>2019-05-26T09:00:13Z</time>
      </trkpt>
      <trkpt lat="44.4967" lon="3.62807">
        <ele>1186.1999511719</ele>
        <time>2019-05-26T09:00:15Z</time>
      </trkpt>
      <trkpt lat="44.49676" lon="3.62795">
        <ele>1186.5999755859</ele>
        <time>2019-05-26T09:00:19Z</time>
      </trkpt>
      <trkpt lat="44.49685" lon="3.62782">
        <ele>1187</ele>
        <time>2019-05-26T09:00:25Z</time>
      </trkpt>
      <trkpt lat="44.49695" lon="3.62769">
        <ele>1187.5999755859</ele>
        <time>2019-05-26T09:00:31Z</time>
      </trkpt>
      <trkpt lat="44.49704" lon="3.62756">
        <ele>1188.1999511719</ele>
        <time>2019-05-26T09:00:37Z</time>
      </trkpt>
      <trkpt lat="44.49712" lon="3.62746">
        <ele>1188.5999755859</ele>
        <time>2019-05-26T09:00:42Z</time>
      </trkpt>
      <trkpt lat="44.49725" lon="3.62728">
        <ele>1189.5999755859</ele>
        <time>2019-05-26T09:00:50Z</time>
      </trkpt>
      <trkpt lat="44.49734" lon="3.62719">
        <ele>1190.4000244141</ele>
        <time>2019-05-26T09:00:56Z</time>
      </trkpt>
      <trkpt lat="44.49745" lon="3.62709">
        <ele>1191.5999755859</ele>
        <time>2019-05-26T09:01:02Z</time>
      </trkpt>
      <trkpt lat="44.49753" lon="3.62701">
        <ele>1192.8000488281</ele>
        <time>2019-05-26T09:01:08Z</time>
      </trkpt>
      <trkpt lat="44.49757" lon="3.62697">
        <ele>1193.5999755859</ele>
        <time>2019-05-26T09:01:11Z</time>
      </trkpt>
      <trkpt lat="44.49761" lon="3.62693">
        <ele>1194.1999511719</ele>
        <time>2019-05-26T09:01:14Z</time>
      </trkpt>
      <trkpt lat="44.49772" lon="3.62685">
        <ele>1195.1999511719</ele>
        <time>2019-05-26T09:01:20Z</time>
      </trkpt>
      <trkpt lat="44.49789" lon="3.62682">
        <ele>1196.4000244141</ele>
        <time>2019-05-26T09:01:27Z</time>
      </trkpt>
      <trkpt lat="44.49804" lon="3.62688">
        <ele>1197.1999511719</ele>
        <time>2019-05-26T09:01:33Z</time>
      </trkpt>
      <trkpt lat="44.49819" lon="3.62702">
        <ele>1198</ele>
        <time>2019-05-26T09:01:40Z</time>
      </trkpt>
      <trkpt lat="44.49834" lon="3.62726">
        <ele>1199</ele>
        <time>2019-05-26T09:01:48Z</time>
      </trkpt>
      <trkpt lat="44.49845" lon="3.62743">
        <ele>1199.4000244141</ele>
        <time>2019-05-26T09:01:53Z</time>
      </trkpt>
      <trkpt lat="44.49855" lon="3.6276">
        <ele>1199.8000488281</ele>
        <time>2019-05-26T09:01:57Z</time>
      </trkpt>
      <trkpt lat="44.49858" lon="3.62765">
        <ele>1199.8000488281</ele>
        <time>2019-05-26T09:01:58Z</time>
      </trkpt>
      <trkpt lat="44.49864" lon="3.62775">
        <ele>1200</ele>
        <time>2019-05-26T09:02:00Z</time>
      </trkpt>
      <trkpt lat="44.49876" lon="3.62795">
        <ele>1200.1999511719</ele>
        <time>2019-05-26T09:02:04Z</time>
      </trkpt>
      <trkpt lat="44.49882" lon="3.62806">
        <ele>1200.4000244141</ele>
        <time>2019-05-26T09:02:06Z</time>
      </trkpt>
      <trkpt lat="44.49895" lon="3.6283">
        <ele>1200.5999755859</ele>
        <time>2019-05-26T09:02:10Z</time>
      </trkpt>
      <trkpt lat="44.49916" lon="3.62864">
        <ele>1200.8000488281</ele>
        <time>2019-05-26T09:02:16Z</time>
      </trkpt>
      <trkpt lat="44.49921" lon="3.62869">
        <ele>1200.8000488281</ele>
        <time>2019-05-26T09:02:17Z</time>
      </trkpt>
      <trkpt lat="44.49931" lon="3.62872">
        <ele>1200.8000488281</ele>
        <time>2019-05-26T09:02:19Z</time>
      </trkpt>
      <trkpt lat="44.49942" lon="3.62869">
        <ele>1200.8000488281</ele>
        <time>2019-05-26T09:02:21Z</time>
      </trkpt>
      <trkpt lat="44.49947" lon="3.62867">
        <ele>1200.8000488281</ele>
        <time>2019-05-26T09:02:22Z</time>
      </trkpt>
      <trkpt lat="44.49965" lon="3.6286">
        <ele>1201</ele>
        <time>2019-05-26T09:02:25Z</time>
      </trkpt>
      <trkpt lat="44.4997" lon="3.62856">
        <ele>1201</ele>
        <time>2019-05-26T09:02:26Z</time>
      </trkpt>
      <trkpt lat="44.49993" lon="3.62829">
        <ele>1200.8000488281</ele>
        <time>2019-05-26T09:02:31Z</time>
      </trkpt>
      <trkpt lat="44.49997" lon="3.62822">
        <ele>1200.8000488281</ele>
        <time>2019-05-26T09:02:32Z</time>
      </trkpt>
      <trkpt lat="44.50015" lon="3.62788">
        <ele>1200.4000244141</ele>
        <time>2019-05-26T09:02:36Z</time>
      </trkpt>
      <trkpt lat="44.50046" lon="3.62733">
        <ele>1199.5999755859</ele>
        <time>2019-05-26T09:02:42Z</time>
      </trkpt>
      <trkpt lat="44.50051" lon="3.62723">
        <ele>1199.4000244141</ele>
        <time>2019-05-26T09:02:43Z</time>
      </trkpt>
      <trkpt lat="44.50058" lon="3.62701">
        <ele>1199</ele>
        <time>2019-05-26T09:02:45Z</time>
      </trkpt>
      <trkpt lat="44.50061" lon="3.62665">
        <ele>1198.4000244141</ele>
        <time>2019-05-26T09:02:48Z</time>
      </trkpt>
      <trkpt lat="44.50057" lon="3.6262">
        <ele>1197.8000488281</ele>
        <time>2019-05-26T09:02:52Z</time>
      </trkpt>
      <trkpt lat="44.50061" lon="3.62561">
        <ele>1197</ele>
        <time>2019-05-26T09:02:57Z</time>
      </trkpt>
      <trkpt lat="44.50071" lon="3.62499">
        <ele>1196</ele>
        <time>2019-05-26T09:03:02Z</time>
      </trkpt>
      <trkpt lat="44.50074" lon="3.62486">
        <ele>1195.8000488281</ele>
        <time>2019-05-26T09:03:03Z</time>
      </trkpt>
      <trkpt lat="44.50085" lon="3.6245">
        <ele>1195</ele>
        <time>2019-05-26T09:03:06Z</time>
      </trkpt>
      <trkpt lat="44.501" lon="3.62413">
        <ele>1194.4000244141</ele>
        <time>2019-05-26T09:03:10Z</time>
      </trkpt>
      <trkpt lat="44.5012" lon="3.62363">
        <ele>1193.1999511719</ele>
        <time>2019-05-26T09:03:15Z</time>
      </trkpt>
      <trkpt lat="44.50147" lon="3.62299">
        <ele>1191.8000488281</ele>
        <time>2019-05-26T09:03:21Z</time>
      </trkpt>
      <trkpt lat="44.50152" lon="3.62289">
        <ele>1191.4000244141</ele>
        <time>2019-05-26T09:03:22Z</time>
      </trkpt>
      <trkpt lat="44.50176" lon="3.62248">
        <ele>1190.1999511719</ele>
        <time>2019-05-26T09:03:26Z</time>
      </trkpt>
      <trkpt lat="44.50215" lon="3.62181">
        <ele>1188</ele>
        <time>2019-05-26T09:03:32Z</time>
      </trkpt>
      <trkpt lat="44.50255" lon="3.62112">
        <ele>1185</ele>
        <time>2019-05-26T09:03:38Z</time>
      </trkpt>
      <trkpt lat="44.50261" lon="3.621">
        <ele>1184.5999755859</ele>
        <time>2019-05-26T09:03:39Z</time>
      </trkpt>
      <trkpt lat="44.50283" lon="3.62049">
        <ele>1182.8000488281</ele>
        <time>2019-05-26T09:03:43Z</time>
      </trkpt>
      <trkpt lat="44.50299" lon="3.61997">
        <ele>1181</ele>
        <time>2019-05-26T09:03:47Z</time>
      </trkpt>
      <trkpt lat="44.50312" lon="3.61947">
        <ele>1179.1999511719</ele>
        <time>2019-05-26T09:03:51Z</time>
      </trkpt>
      <trkpt lat="44.50314" lon="3.61935">
        <ele>1178.8000488281</ele>
        <time>2019-05-26T09:03:52Z</time>
      </trkpt>
      <trkpt lat="44.50315" lon="3.61924">
        <ele>1178.4000244141</ele>
        <time>2019-05-26T09:03:53Z</time>
      </trkpt>
      <trkpt lat="44.50313" lon="3.61902">
        <ele>1177.8000488281</ele>
        <time>2019-05-26T09:03:55Z</time>
      </trkpt>
      <trkpt lat="44.50302" lon="3.61848">
        <ele>1176.4000244141</ele>
        <time>2019-05-26T09:04:01Z</time>
      </trkpt>
      <trkpt lat="44.50296" lon="3.61813">
        <ele>1175.5999755859</ele>
        <time>2019-05-26T09:04:06Z</time>
      </trkpt>
      <trkpt lat="44.50295" lon="3.61789">
        <ele>1174.5999755859</ele>
        <time>2019-05-26T09:04:11Z</time>
      </trkpt>
      <trkpt lat="44.50292" lon="3.61771">
        <ele>1174</ele>
        <time>2019-05-26T09:04:15Z</time>
      </trkpt>
      <trkpt lat="44.50289" lon="3.61747">
        <ele>1173.1999511719</ele>
        <time>2019-05-26T09:04:22Z</time>
      </trkpt>
      <trkpt lat="44.50289" lon="3.61743">
        <ele>1173</ele>
        <time>2019-05-26T09:04:23Z</time>
      </trkpt>
      <trkpt lat="44.5029" lon="3.61732">
        <ele>1172.8000488281</ele>
        <time>2019-05-26T09:04:26Z</time>
      </trkpt>
      <trkpt lat="44.5029" lon="3.61709">
        <ele>1172.1999511719</ele>
        <time>2019-05-26T09:04:32Z</time>
      </trkpt>
      <trkpt lat="44.5029" lon="3.61694">
        <ele>1171.4000244141</ele>
        <time>2019-05-26T09:04:36Z</time>
      </trkpt>
      <trkpt lat="44.5029" lon="3.61691">
        <ele>1171.4000244141</ele>
        <time>2019-05-26T09:04:37Z</time>
      </trkpt>
      <trkpt lat="44.50294" lon="3.61674">
        <ele>1170.8000488281</ele>
        <time>2019-05-26T09:04:41Z</time>
      </trkpt>
      <trkpt lat="44.50296" lon="3.61666">
        <ele>1170.5999755859</ele>
        <time>2019-05-26T09:04:43Z</time>
      </trkpt>
      <trkpt lat="44.50297" lon="3.61657">
        <ele>1170.4000244141</ele>
        <time>2019-05-26T09:04:45Z</time>
      </trkpt>
      <trkpt lat="44.50297" lon="3.61646">
        <ele>1170</ele>
        <time>2019-05-26T09:04:48Z</time>
      </trkpt>
      <trkpt lat="44.50298" lon="3.61637">
        <ele>1169.5999755859</ele>
        <time>2019-05-26T09:04:50Z</time>
      </trkpt>
      <trkpt lat="44.50302" lon="3.61615">
        <ele>1169</ele>
        <time>2019-05-26T09:04:55Z</time>
      </trkpt>
      <trkpt lat="44.50309" lon="3.61591">
        <ele>1168.4000244141</ele>
        <time>2019-05-26T09:05:00Z</time>
      </trkpt>
      <trkpt lat="44.50314" lon="3.61567">
        <ele>1167.8000488281</ele>
        <time>2019-05-26T09:05:05Z</time>
      </trkpt>
      <trkpt lat="44.50317" lon="3.61546">
        <ele>1167.5999755859</ele>
        <time>2019-05-26T09:05:09Z</time>
      </trkpt>
      <trkpt lat="44.50324" lon="3.61524">
        <ele>1167.4000244141</ele>
        <time>2019-05-26T09:05:13Z</time>
      </trkpt>
      <trkpt lat="44.50327" lon="3.61518">
        <ele>1167.1999511719</ele>
        <time>2019-05-26T09:05:14Z</time>
      </trkpt>
      <trkpt lat="44.5033" lon="3.61506">
        <ele>1167</ele>
        <time>2019-05-26T09:05:16Z</time>
      </trkpt>
      <trkpt lat="44.50332" lon="3.61499">
        <ele>1167</ele>
        <time>2019-05-26T09:05:17Z</time>
      </trkpt>
      <trkpt lat="44.50336" lon="3.61476">
        <ele>1166.5999755859</ele>
        <time>2019-05-26T09:05:20Z</time>
      </trkpt>
      <trkpt lat="44.5034" lon="3.61459">
        <ele>1166.4000244141</ele>
        <time>2019-05-26T09:05:22Z</time>
      </trkpt>
      <trkpt lat="44.50349" lon="3.6142">
        <ele>1166</ele>
        <time>2019-05-26T09:05:26Z</time>
      </trkpt>
      <trkpt lat="44.50351" lon="3.6141">
        <ele>1165.8000488281</ele>
        <time>2019-05-26T09:05:27Z</time>
      </trkpt>
      <trkpt lat="44.50362" lon="3.61372">
        <ele>1166</ele>
        <time>2019-05-26T09:05:31Z</time>
      </trkpt>
      <trkpt lat="44.50366" lon="3.61354">
        <ele>1165.8000488281</ele>
        <time>2019-05-26T09:05:33Z</time>
      </trkpt>
      <trkpt lat="44.5038" lon="3.61306">
        <ele>1165.8000488281</ele>
        <time>2019-05-26T09:05:39Z</time>
      </trkpt>
      <trkpt lat="44.50399" lon="3.61234">
        <ele>1165.5999755859</ele>
        <time>2019-05-26T09:05:47Z</time>
      </trkpt>
      <trkpt lat="44.50421" lon="3.61182">
        <ele>1165.4000244141</ele>
        <time>2019-05-26T09:05:53Z</time>
      </trkpt>
      <trkpt lat="44.50447" lon="3.61137">
        <ele>1165.1999511719</ele>
        <time>2019-05-26T09:05:59Z</time>
      </trkpt>
      <trkpt lat="44.50474" lon="3.61094">
        <ele>1165</ele>
        <time>2019-05-26T09:06:05Z</time>
      </trkpt>
      <trkpt lat="44.50479" lon="3.61087">
        <ele>1164.8000488281</ele>
        <time>2019-05-26T09:06:06Z</time>
      </trkpt>
      <trkpt lat="44.50504" lon="3.61064">
        <ele>1164.5999755859</ele>
        <time>2019-05-26T09:06:10Z</time>
      </trkpt>
      <trkpt lat="44.50533" lon="3.61037">
        <ele>1164.4000244141</ele>
        <time>2019-05-26T09:06:15Z</time>
      </trkpt>
      <trkpt lat="44.50545" lon="3.61025">
        <ele>1164.4000244141</ele>
        <time>2019-05-26T09:06:17Z</time>
      </trkpt>
      <trkpt lat="44.5058" lon="3.60991">
        <ele>1164.1999511719</ele>
        <time>2019-05-26T09:06:23Z</time>
      </trkpt>
      <trkpt lat="44.50612" lon="3.60958">
        <ele>1163.5999755859</ele>
        <time>2019-05-26T09:06:28Z</time>
      </trkpt>
      <trkpt lat="44.50657" lon="3.60916">
        <ele>1162.4000244141</ele>
        <time>2019-05-26T09:06:35Z</time>
      </trkpt>
      <trkpt lat="44.50676" lon="3.60901">
        <ele>1162.1999511719</ele>
        <time>2019-05-26T09:06:38Z</time>
      </trkpt>
      <trkpt lat="44.50696" lon="3.60871">
        <ele>1162</ele>
        <time>2019-05-26T09:06:42Z</time>
      </trkpt>
      <trkpt lat="44.50699" lon="3.60862">
        <ele>1162</ele>
        <time>2019-05-26T09:06:43Z</time>
      </trkpt>
      <trkpt lat="44.5072" lon="3.60804">
        <ele>1161.8000488281</ele>
        <time>2019-05-26T09:06:49Z</time>
      </trkpt>
      <trkpt lat="44.50747" lon="3.60734">
        <ele>1161.1999511719</ele>
        <time>2019-05-26T09:06:56Z</time>
      </trkpt>
      <trkpt lat="44.50771" lon="3.60665">
        <ele>1160.4000244141</ele>
        <time>2019-05-26T09:07:03Z</time>
      </trkpt>
      <trkpt lat="44.50796" lon="3.60597">
        <ele>1159.5999755859</ele>
        <time>2019-05-26T09:07:10Z</time>
      </trkpt>
      <trkpt lat="44.50809" lon="3.60555">
        <ele>1159</ele>
        <time>2019-05-26T09:07:14Z</time>
      </trkpt>
      <trkpt lat="44.50814" lon="3.60533">
        <ele>1158.8000488281</ele>
        <time>2019-05-26T09:07:16Z</time>
      </trkpt>
      <trkpt lat="44.50821" lon="3.60498">
        <ele>1158.1999511719</ele>
        <time>2019-05-26T09:07:19Z</time>
      </trkpt>
      <trkpt lat="44.50824" lon="3.60473">
        <ele>1157.8000488281</ele>
        <time>2019-05-26T09:07:21Z</time>
      </trkpt>
      <trkpt lat="44.5083" lon="3.60448">
        <ele>1157.4000244141</ele>
        <time>2019-05-26T09:07:23Z</time>
      </trkpt>
      <trkpt lat="44.50832" lon="3.60435">
        <ele>1157.1999511719</ele>
        <time>2019-05-26T09:07:24Z</time>
      </trkpt>
      <trkpt lat="44.50838" lon="3.60396">
        <ele>1156.8000488281</ele>
        <time>2019-05-26T09:07:27Z</time>
      </trkpt>
      <trkpt lat="44.50847" lon="3.60345">
        <ele>1156</ele>
        <time>2019-05-26T09:07:31Z</time>
      </trkpt>
      <trkpt lat="44.50856" lon="3.60295">
        <ele>1155.4000244141</ele>
        <time>2019-05-26T09:07:35Z</time>
      </trkpt>
      <trkpt lat="44.50873" lon="3.60224">
        <ele>1154</ele>
        <time>2019-05-26T09:07:41Z</time>
      </trkpt>
      <trkpt lat="44.50891" lon="3.60153">
        <ele>1152.1999511719</ele>
        <time>2019-05-26T09:07:47Z</time>
      </trkpt>
      <trkpt lat="44.50907" lon="3.60098">
        <ele>1150.8000488281</ele>
        <time>2019-05-26T09:07:52Z</time>
      </trkpt>
      <trkpt lat="44.50923" lon="3.60044">
        <ele>1149.1999511719</ele>
        <time>2019-05-26T09:07:57Z</time>
      </trkpt>
      <trkpt lat="44.50943" lon="3.59965">
        <ele>1146.8000488281</ele>
        <time>2019-05-26T09:08:04Z</time>
      </trkpt>
      <trkpt lat="44.50963" lon="3.59891">
        <ele>1144.5999755859</ele>
        <time>2019-05-26T09:08:10Z</time>
      </trkpt>
      <trkpt lat="44.50967" lon="3.59879">
        <ele>1144.1999511719</ele>
        <time>2019-05-26T09:08:11Z</time>
      </trkpt>
      <trkpt lat="44.50985" lon="3.59806">
        <ele>1142</ele>
        <time>2019-05-26T09:08:17Z</time>
      </trkpt>
      <trkpt lat="44.51005" lon="3.59727">
        <ele>1140.1999511719</ele>
        <time>2019-05-26T09:08:24Z</time>
      </trkpt>
      <trkpt lat="44.51008" lon="3.59716">
        <ele>1140</ele>
        <time>2019-05-26T09:08:25Z</time>
      </trkpt>
      <trkpt lat="44.51024" lon="3.59654">
        <ele>1138.5999755859</ele>
        <time>2019-05-26T09:08:31Z</time>
      </trkpt>
      <trkpt lat="44.51031" lon="3.59624">
        <ele>1137.8000488281</ele>
        <time>2019-05-26T09:08:34Z</time>
      </trkpt>
      <trkpt lat="44.51037" lon="3.59605">
        <ele>1137.1999511719</ele>
        <time>2019-05-26T09:08:36Z</time>
      </trkpt>
      <trkpt lat="44.51052" lon="3.59557">
        <ele>1136.1999511719</ele>
        <time>2019-05-26T09:08:41Z</time>
      </trkpt>
      <trkpt lat="44.51054" lon="3.59547">
        <ele>1136</ele>
        <time>2019-05-26T09:08:42Z</time>
      </trkpt>
      <trkpt lat="44.51057" lon="3.59538">
        <ele>1135.5999755859</ele>
        <time>2019-05-26T09:08:43Z</time>
      </trkpt>
      <trkpt lat="44.51069" lon="3.59499">
        <ele>1134.8000488281</ele>
        <time>2019-05-26T09:08:47Z</time>
      </trkpt>
      <trkpt lat="44.51084" lon="3.59452">
        <ele>1133.4000244141</ele>
        <time>2019-05-26T09:08:52Z</time>
      </trkpt>
      <trkpt lat="44.51088" lon="3.59442">
        <ele>1133</ele>
        <time>2019-05-26T09:08:53Z</time>
      </trkpt>
      <trkpt lat="44.51108" lon="3.59387">
        <ele>1131</ele>
        <time>2019-05-26T09:08:58Z</time>
      </trkpt>
      <trkpt lat="44.51126" lon="3.59341">
        <ele>1129.1999511719</ele>
        <time>2019-05-26T09:09:02Z</time>
      </trkpt>
      <trkpt lat="44.51132" lon="3.59331">
        <ele>1128.8000488281</ele>
        <time>2019-05-26T09:09:03Z</time>
      </trkpt>
      <trkpt lat="44.51146" lon="3.59312">
        <ele>1128.1999511719</ele>
        <time>2019-05-26T09:09:05Z</time>
      </trkpt>
      <trkpt lat="44.51162" lon="3.59295">
        <ele>1127.5999755859</ele>
        <time>2019-05-26T09:09:07Z</time>
      </trkpt>
      <trkpt lat="44.51176" lon="3.59281">
        <ele>1127</ele>
        <time>2019-05-26T09:09:09Z</time>
      </trkpt>
      <trkpt lat="44.51187" lon="3.59265">
        <ele>1126.4000244141</ele>
        <time>2019-05-26T09:09:11Z</time>
      </trkpt>
      <trkpt lat="44.51217" lon="3.59216">
        <ele>1125</ele>
        <time>2019-05-26T09:09:17Z</time>
      </trkpt>
      <trkpt lat="44.5124" lon="3.5918">
        <ele>1123.8000488281</ele>
        <time>2019-05-26T09:09:22Z</time>
      </trkpt>
      <trkpt lat="44.51254" lon="3.59149">
        <ele>1122.8000488281</ele>
        <time>2019-05-26T09:09:26Z</time>
      </trkpt>
      <trkpt lat="44.51268" lon="3.59112">
        <ele>1121.5999755859</ele>
        <time>2019-05-26T09:09:31Z</time>
      </trkpt>
      <trkpt lat="44.51275" lon="3.59091">
        <ele>1120.8000488281</ele>
        <time>2019-05-26T09:09:35Z</time>
      </trkpt>
      <trkpt lat="44.5128" lon="3.59063">
        <ele>1120</ele>
        <time>2019-05-26T09:09:41Z</time>
      </trkpt>
      <trkpt lat="44.51287" lon="3.59037">
        <ele>1119.4000244141</ele>
        <time>2019-05-26T09:09:47Z</time>
      </trkpt>
      <trkpt lat="44.51292" lon="3.59012">
        <ele>1119</ele>
        <time>2019-05-26T09:09:53Z</time>
      </trkpt>
      <trkpt lat="44.51296" lon="3.5899">
        <ele>1118.4000244141</ele>
        <time>2019-05-26T09:09:58Z</time>
      </trkpt>
      <trkpt lat="44.51297" lon="3.58957">
        <ele>1117.8000488281</ele>
        <time>2019-05-26T09:10:05Z</time>
      </trkpt>
      <trkpt lat="44.51295" lon="3.58935">
        <ele>1117.5999755859</ele>
        <time>2019-05-26T09:10:10Z</time>
      </trkpt>
      <trkpt lat="44.51289" lon="3.58909">
        <ele>1117.1999511719</ele>
        <time>2019-05-26T09:10:16Z</time>
      </trkpt>
      <trkpt lat="44.51281" lon="3.58883">
        <ele>1117.1999511719</ele>
        <time>2019-05-26T09:10:23Z</time>
      </trkpt>
      <trkpt lat="44.51273" lon="3.58858">
        <ele>1117.4000244141</ele>
        <time>2019-05-26T09:10:30Z</time>
      </trkpt>
      <trkpt lat="44.51266" lon="3.58836">
        <ele>1117.4000244141</ele>
        <time>2019-05-26T09:10:36Z</time>
      </trkpt>
      <trkpt lat="44.5126" lon="3.58807">
        <ele>1117.5999755859</ele>
        <time>2019-05-26T09:10:43Z</time>
      </trkpt>
      <trkpt lat="44.51255" lon="3.58782">
        <ele>1118</ele>
        <time>2019-05-26T09:10:49Z</time>
      </trkpt>
      <trkpt lat="44.51252" lon="3.58755">
        <ele>1118.1999511719</ele>
        <time>2019-05-26T09:10:55Z</time>
      </trkpt>
      <trkpt lat="44.51252" lon="3.5875">
        <ele>1118.4000244141</ele>
        <time>2019-05-26T09:10:56Z</time>
      </trkpt>
      <trkpt lat="44.5125" lon="3.58741">
        <ele>1118.4000244141</ele>
        <time>2019-05-26T09:10:58Z</time>
      </trkpt>
      <trkpt lat="44.51249" lon="3.58737">
        <ele>1118.5999755859</ele>
        <time>2019-05-26T09:10:59Z</time>
      </trkpt>
      <trkpt lat="44.51247" lon="3.58724">
        <ele>1118.8000488281</ele>
        <time>2019-05-26T09:11:02Z</time>
      </trkpt>
      <trkpt lat="44.51248" lon="3.58714">
        <ele>1119</ele>
        <time>2019-05-26T09:11:04Z</time>
      </trkpt>
      <trkpt lat="44.51247" lon="3.58702">
        <ele>1119.1999511719</ele>
        <time>2019-05-26T09:11:06Z</time>
      </trkpt>
      <trkpt lat="44.51247" lon="3.58695">
        <ele>1119.1999511719</ele>
        <time>2019-05-26T09:11:07Z</time>
      </trkpt>
      <trkpt lat="44.51246" lon="3.58683">
        <ele>1119.4000244141</ele>
        <time>2019-05-26T09:11:09Z</time>
      </trkpt>
      <trkpt lat="44.51249" lon="3.58663">
        <ele>1119.5999755859</ele>
        <time>2019-05-26T09:11:12Z</time>
      </trkpt>
      <trkpt lat="44.51252" lon="3.58649">
        <ele>1119.8000488281</ele>
        <time>2019-05-26T09:11:14Z</time>
      </trkpt>
      <trkpt lat="44.51256" lon="3.58636">
        <ele>1119.8000488281</ele>
        <time>2019-05-26T09:11:16Z</time>
      </trkpt>
      <trkpt lat="44.5126" lon="3.58625">
        <ele>1120</ele>
        <time>2019-05-26T09:11:18Z</time>
      </trkpt>
      <trkpt lat="44.51262" lon="3.58619">
        <ele>1120</ele>
        <time>2019-05-26T09:11:19Z</time>
      </trkpt>
      <trkpt lat="44.51264" lon="3.58614">
        <ele>1120</ele>
        <time>2019-05-26T09:11:20Z</time>
      </trkpt>
      <trkpt lat="44.51272" lon="3.58597">
        <ele>1120.1999511719</ele>
        <time>2019-05-26T09:11:23Z</time>
      </trkpt>
      <trkpt lat="44.51275" lon="3.58592">
        <ele>1120.1999511719</ele>
        <time>2019-05-26T09:11:24Z</time>
      </trkpt>
      <trkpt lat="44.5129" lon="3.58563">
        <ele>1120.4000244141</ele>
        <time>2019-05-26T09:11:30Z</time>
      </trkpt>
      <trkpt lat="44.51297" lon="3.58547">
        <ele>1120.5999755859</ele>
        <time>2019-05-26T09:11:33Z</time>
      </trkpt>
      <trkpt lat="44.51309" lon="3.58526">
        <ele>1120.8000488281</ele>
        <time>2019-05-26T09:11:37Z</time>
      </trkpt>
      <trkpt lat="44.51321" lon="3.58506">
        <ele>1121</ele>
        <time>2019-05-26T09:11:41Z</time>
      </trkpt>
      <trkpt lat="44.51325" lon="3.58502">
        <ele>1121</ele>
        <time>2019-05-26T09:11:42Z</time>
      </trkpt>
      <trkpt lat="44.51328" lon="3.58497">
        <ele>1121</ele>
        <time>2019-05-26T09:11:43Z</time>
      </trkpt>
      <trkpt lat="44.51332" lon="3.58488">
        <ele>1121</ele>
        <time>2019-05-26T09:11:45Z</time>
      </trkpt>
      <trkpt lat="44.51334" lon="3.58483">
        <ele>1121</ele>
        <time>2019-05-26T09:11:46Z</time>
      </trkpt>
      <trkpt lat="44.5134" lon="3.58473">
        <ele>1121</ele>
        <time>2019-05-26T09:11:48Z</time>
      </trkpt>
      <trkpt lat="44.51346" lon="3.58463">
        <ele>1121</ele>
        <time>2019-05-26T09:11:50Z</time>
      </trkpt>
      <trkpt lat="44.51355" lon="3.5845">
        <ele>1121</ele>
        <time>2019-05-26T09:11:53Z</time>
      </trkpt>
      <trkpt lat="44.51359" lon="3.58446">
        <ele>1121</ele>
        <time>2019-05-26T09:11:54Z</time>
      </trkpt>
      <trkpt lat="44.51377" lon="3.58424">
        <ele>1121</ele>
        <time>2019-05-26T09:11:59Z</time>
      </trkpt>
      <trkpt lat="44.51389" lon="3.58408">
        <ele>1121.4000244141</ele>
        <time>2019-05-26T09:12:03Z</time>
      </trkpt>
      <trkpt lat="44.51392" lon="3.58403">
        <ele>1121.4000244141</ele>
        <time>2019-05-26T09:12:04Z</time>
      </trkpt>
      <trkpt lat="44.514" lon="3.58397">
        <ele>1121.5999755859</ele>
        <time>2019-05-26T09:12:06Z</time>
      </trkpt>
      <trkpt lat="44.51411" lon="3.58386">
        <ele>1121.8000488281</ele>
        <time>2019-05-26T09:12:09Z</time>
      </trkpt>
      <trkpt lat="44.51414" lon="3.58381">
        <ele>1122</ele>
        <time>2019-05-26T09:12:10Z</time>
      </trkpt>
      <trkpt lat="44.51418" lon="3.58376">
        <ele>1122</ele>
        <time>2019-05-26T09:12:11Z</time>
      </trkpt>
      <trkpt lat="44.51432" lon="3.58358">
        <ele>1122.4000244141</ele>
        <time>2019-05-26T09:12:14Z</time>
      </trkpt>
      <trkpt lat="44.51436" lon="3.58352">
        <ele>1122.4000244141</ele>
        <time>2019-05-26T09:12:15Z</time>
      </trkpt>
      <trkpt lat="44.51446" lon="3.58342">
        <ele>1122.5999755859</ele>
        <time>2019-05-26T09:12:17Z</time>
      </trkpt>
      <trkpt lat="44.51451" lon="3.58336">
        <ele>1122.5999755859</ele>
        <time>2019-05-26T09:12:18Z</time>
      </trkpt>
      <trkpt lat="44.51462" lon="3.58323">
        <ele>1122.8000488281</ele>
        <time>2019-05-26T09:12:20Z</time>
      </trkpt>
      <trkpt lat="44.51472" lon="3.5831">
        <ele>1122.8000488281</ele>
        <time>2019-05-26T09:12:22Z</time>
      </trkpt>
      <trkpt lat="44.51503" lon="3.58269">
        <ele>1123.1999511719</ele>
        <time>2019-05-26T09:12:28Z</time>
      </trkpt>
      <trkpt lat="44.5153" lon="3.58232">
        <ele>1123.1999511719</ele>
        <time>2019-05-26T09:12:33Z</time>
      </trkpt>
      <trkpt lat="44.51534" lon="3.58224">
        <ele>1123.1999511719</ele>
        <time>2019-05-26T09:12:34Z</time>
      </trkpt>
      <trkpt lat="44.51537" lon="3.58214">
        <ele>1123.4000244141</ele>
        <time>2019-05-26T09:12:35Z</time>
      </trkpt>
      <trkpt lat="44.51538" lon="3.58196">
        <ele>1123.4000244141</ele>
        <time>2019-05-26T09:12:37Z</time>
      </trkpt>
      <trkpt lat="44.51537" lon="3.5818">
        <ele>1123.4000244141</ele>
        <time>2019-05-26T09:12:39Z</time>
      </trkpt>
      <trkpt lat="44.51537" lon="3.58165">
        <ele>1123.5999755859</ele>
        <time>2019-05-26T09:12:41Z</time>
      </trkpt>
      <trkpt lat="44.51539" lon="3.58151">
        <ele>1123.5999755859</ele>
        <time>2019-05-26T09:12:43Z</time>
      </trkpt>
      <trkpt lat="44.51539" lon="3.58136">
        <ele>1123.5999755859</ele>
        <time>2019-05-26T09:12:45Z</time>
      </trkpt>
      <trkpt lat="44.51541" lon="3.58115">
        <ele>1123.8000488281</ele>
        <time>2019-05-26T09:12:48Z</time>
      </trkpt>
      <trkpt lat="44.51542" lon="3.58107">
        <ele>1123.8000488281</ele>
        <time>2019-05-26T09:12:49Z</time>
      </trkpt>
      <trkpt lat="44.51542" lon="3.581">
        <ele>1123.8000488281</ele>
        <time>2019-05-26T09:12:50Z</time>
      </trkpt>
      <trkpt lat="44.51545" lon="3.58086">
        <ele>1123.8000488281</ele>
        <time>2019-05-26T09:12:52Z</time>
      </trkpt>
      <trkpt lat="44.51547" lon="3.58072">
        <ele>1123.8000488281</ele>
        <time>2019-05-26T09:12:54Z</time>
      </trkpt>
      <trkpt lat="44.5155" lon="3.58053">
        <ele>1124</ele>
        <time>2019-05-26T09:12:57Z</time>
      </trkpt>
      <trkpt lat="44.51557" lon="3.58017">
        <ele>1123.8000488281</ele>
        <time>2019-05-26T09:13:02Z</time>
      </trkpt>
      <trkpt lat="44.51558" lon="3.58011">
        <ele>1123.8000488281</ele>
        <time>2019-05-26T09:13:03Z</time>
      </trkpt>
      <trkpt lat="44.5156" lon="3.57996">
        <ele>1123.8000488281</ele>
        <time>2019-05-26T09:13:05Z</time>
      </trkpt>
      <trkpt lat="44.51561" lon="3.57989">
        <ele>1123.8000488281</ele>
        <time>2019-05-26T09:13:06Z</time>
      </trkpt>
      <trkpt lat="44.51563" lon="3.57982">
        <ele>1123.8000488281</ele>
        <time>2019-05-26T09:13:07Z</time>
      </trkpt>
      <trkpt lat="44.51569" lon="3.57959">
        <ele>1123.5999755859</ele>
        <time>2019-05-26T09:13:10Z</time>
      </trkpt>
      <trkpt lat="44.5157" lon="3.57952">
        <ele>1123.5999755859</ele>
        <time>2019-05-26T09:13:11Z</time>
      </trkpt>
      <trkpt lat="44.51573" lon="3.57938">
        <ele>1123.4000244141</ele>
        <time>2019-05-26T09:13:13Z</time>
      </trkpt>
      <trkpt lat="44.51574" lon="3.57931">
        <ele>1123.4000244141</ele>
        <time>2019-05-26T09:13:14Z</time>
      </trkpt>
      <trkpt lat="44.51576" lon="3.57923">
        <ele>1123.4000244141</ele>
        <time>2019-05-26T09:13:15Z</time>
      </trkpt>
      <trkpt lat="44.51585" lon="3.57886">
        <ele>1123.1999511719</ele>
        <time>2019-05-26T09:13:20Z</time>
      </trkpt>
      <trkpt lat="44.51599" lon="3.57848">
        <ele>1123</ele>
        <time>2019-05-26T09:13:25Z</time>
      </trkpt>
      <trkpt lat="44.51605" lon="3.57831">
        <ele>1123</ele>
        <time>2019-05-26T09:13:27Z</time>
      </trkpt>
      <trkpt lat="44.51613" lon="3.57815">
        <ele>1123</ele>
        <time>2019-05-26T09:13:29Z</time>
      </trkpt>
      <trkpt lat="44.51616" lon="3.57807">
        <ele>1122.8000488281</ele>
        <time>2019-05-26T09:13:30Z</time>
      </trkpt>
      <trkpt lat="44.51621" lon="3.5779">
        <ele>1122.8000488281</ele>
        <time>2019-05-26T09:13:32Z</time>
      </trkpt>
      <trkpt lat="44.51628" lon="3.57766">
        <ele>1122.4000244141</ele>
        <time>2019-05-26T09:13:35Z</time>
      </trkpt>
      <trkpt lat="44.5163" lon="3.57758">
        <ele>1122.4000244141</ele>
        <time>2019-05-26T09:13:36Z</time>
      </trkpt>
      <trkpt lat="44.51634" lon="3.57742">
        <ele>1122</ele>
        <time>2019-05-26T09:13:38Z</time>
      </trkpt>
      <trkpt lat="44.51641" lon="3.57717">
        <ele>1121.8000488281</ele>
        <time>2019-05-26T09:13:41Z</time>
      </trkpt>
      <trkpt lat="44.51653" lon="3.57684">
        <ele>1121.5999755859</ele>
        <time>2019-05-26T09:13:45Z</time>
      </trkpt>
      <trkpt lat="44.51657" lon="3.57676">
        <ele>1121.5999755859</ele>
        <time>2019-05-26T09:13:46Z</time>
      </trkpt>
      <trkpt lat="44.5166" lon="3.57669">
        <ele>1121.4000244141</ele>
        <time>2019-05-26T09:13:47Z</time>
      </trkpt>
      <trkpt lat="44.51673" lon="3.57647">
        <ele>1121.1999511719</ele>
        <time>2019-05-26T09:13:50Z</time>
      </trkpt>
      <trkpt lat="44.5168" lon="3.57632">
        <ele>1121.1999511719</ele>
        <time>2019-05-26T09:13:52Z</time>
      </trkpt>
      <trkpt lat="44.51688" lon="3.57616">
        <ele>1121.1999511719</ele>
        <time>2019-05-26T09:13:54Z</time>
      </trkpt>
      <trkpt lat="44.51696" lon="3.57603">
        <ele>1121</ele>
        <time>2019-05-26T09:13:56Z</time>
      </trkpt>
      <trkpt lat="44.51701" lon="3.57596">
        <ele>1121</ele>
        <time>2019-05-26T09:13:57Z</time>
      </trkpt>
      <trkpt lat="44.51711" lon="3.57581">
        <ele>1121</ele>
        <time>2019-05-26T09:13:59Z</time>
      </trkpt>
      <trkpt lat="44.51719" lon="3.57566">
        <ele>1121</ele>
        <time>2019-05-26T09:14:01Z</time>
      </trkpt>
      <trkpt lat="44.51729" lon="3.5754">
        <ele>1121</ele>
        <time>2019-05-26T09:14:04Z</time>
      </trkpt>
      <trkpt lat="44.51736" lon="3.57526">
        <ele>1121</ele>
        <time>2019-05-26T09:14:06Z</time>
      </trkpt>
      <trkpt lat="44.51745" lon="3.57505">
        <ele>1121</ele>
        <time>2019-05-26T09:14:09Z</time>
      </trkpt>
      <trkpt lat="44.51748" lon="3.57499">
        <ele>1121</ele>
        <time>2019-05-26T09:14:10Z</time>
      </trkpt>
      <trkpt lat="44.51767" lon="3.57465">
        <ele>1120.8000488281</ele>
        <time>2019-05-26T09:14:15Z</time>
      </trkpt>
      <trkpt lat="44.51786" lon="3.57437">
        <ele>1120.4000244141</ele>
        <time>2019-05-26T09:14:19Z</time>
      </trkpt>
      <trkpt lat="44.51806" lon="3.57411">
        <ele>1120.1999511719</ele>
        <time>2019-05-26T09:14:23Z</time>
      </trkpt>
      <trkpt lat="44.5181" lon="3.57404">
        <ele>1120.1999511719</ele>
        <time>2019-05-26T09:14:24Z</time>
      </trkpt>
      <trkpt lat="44.51814" lon="3.57397">
        <ele>1120.1999511719</ele>
        <time>2019-05-26T09:14:25Z</time>
      </trkpt>
      <trkpt lat="44.51826" lon="3.57376">
        <ele>1120</ele>
        <time>2019-05-26T09:14:28Z</time>
      </trkpt>
      <trkpt lat="44.51843" lon="3.57349">
        <ele>1119.8000488281</ele>
        <time>2019-05-26T09:14:32Z</time>
      </trkpt>
      <trkpt lat="44.51847" lon="3.57341">
        <ele>1119.5999755859</ele>
        <time>2019-05-26T09:14:33Z</time>
      </trkpt>
      <trkpt lat="44.51855" lon="3.57327">
        <ele>1119.5999755859</ele>
        <time>2019-05-26T09:14:35Z</time>
      </trkpt>
      <trkpt lat="44.51862" lon="3.57312">
        <ele>1119.5999755859</ele>
        <time>2019-05-26T09:14:37Z</time>
      </trkpt>
      <trkpt lat="44.51866" lon="3.57298">
        <ele>1119.4000244141</ele>
        <time>2019-05-26T09:14:39Z</time>
      </trkpt>
      <trkpt lat="44.51868" lon="3.57291">
        <ele>1119.4000244141</ele>
        <time>2019-05-26T09:14:40Z</time>
      </trkpt>
      <trkpt lat="44.51871" lon="3.57285">
        <ele>1119.1999511719</ele>
        <time>2019-05-26T09:14:41Z</time>
      </trkpt>
      <trkpt lat="44.51875" lon="3.57278">
        <ele>1119.1999511719</ele>
        <time>2019-05-26T09:14:43Z</time>
      </trkpt>
      <trkpt lat="44.51877" lon="3.57274">
        <ele>1119.1999511719</ele>
        <time>2019-05-26T09:14:44Z</time>
      </trkpt>
      <trkpt lat="44.51876" lon="3.57266">
        <ele>1119.1999511719</ele>
        <time>2019-05-26T09:14:46Z</time>
      </trkpt>
      <trkpt lat="44.51878" lon="3.57241">
        <ele>1118.8000488281</ele>
        <time>2019-05-26T09:14:51Z</time>
      </trkpt>
      <trkpt lat="44.51879" lon="3.57238">
        <ele>1118.8000488281</ele>
        <time>2019-05-26T09:14:52Z</time>
      </trkpt>
      <trkpt lat="44.51881" lon="3.57234">
        <ele>1119</ele>
        <time>2019-05-26T09:14:55Z</time>
      </trkpt>
      <trkpt lat="44.51881" lon="3.57214">
        <ele>1118</ele>
        <time>2019-05-26T09:29:14Z</time>
      </trkpt>
      <trkpt lat="44.51882" lon="3.57209">
        <ele>1118</ele>
        <time>2019-05-26T09:29:16Z</time>
      </trkpt>
      <trkpt lat="44.51887" lon="3.57193">
        <ele>1118</ele>
        <time>2019-05-26T09:29:20Z</time>
      </trkpt>
      <trkpt lat="44.51894" lon="3.5717">
        <ele>1118</ele>
        <time>2019-05-26T09:29:25Z</time>
      </trkpt>
      <trkpt lat="44.51903" lon="3.57134">
        <ele>1118.1999511719</ele>
        <time>2019-05-26T09:29:32Z</time>
      </trkpt>
      <trkpt lat="44.5191" lon="3.5711">
        <ele>1118.1999511719</ele>
        <time>2019-05-26T09:29:37Z</time>
      </trkpt>
      <trkpt lat="44.51915" lon="3.57088">
        <ele>1118.4000244141</ele>
        <time>2019-05-26T09:29:41Z</time>
      </trkpt>
      <trkpt lat="44.51915" lon="3.57082">
        <ele>1118.4000244141</ele>
        <time>2019-05-26T09:29:42Z</time>
      </trkpt>
      <trkpt lat="44.51917" lon="3.57066">
        <ele>1118.8000488281</ele>
        <time>2019-05-26T09:29:45Z</time>
      </trkpt>
      <trkpt lat="44.51918" lon="3.57049">
        <ele>1119</ele>
        <time>2019-05-26T09:29:48Z</time>
      </trkpt>
      <trkpt lat="44.51919" lon="3.57044">
        <ele>1119</ele>
        <time>2019-05-26T09:29:49Z</time>
      </trkpt>
      <trkpt lat="44.51923" lon="3.57013">
        <ele>1119.5999755859</ele>
        <time>2019-05-26T09:29:55Z</time>
      </trkpt>
      <trkpt lat="44.51924" lon="3.56991">
        <ele>1119.8000488281</ele>
        <time>2019-05-26T09:29:59Z</time>
      </trkpt>
      <trkpt lat="44.51925" lon="3.56954">
        <ele>1120.1999511719</ele>
        <time>2019-05-26T09:30:06Z</time>
      </trkpt>
      <trkpt lat="44.51926" lon="3.5692">
        <ele>1120.5999755859</ele>
        <time>2019-05-26T09:30:12Z</time>
      </trkpt>
      <trkpt lat="44.51927" lon="3.56909">
        <ele>1120.8000488281</ele>
        <time>2019-05-26T09:30:14Z</time>
      </trkpt>
      <trkpt lat="44.51928" lon="3.56891">
        <ele>1121</ele>
        <time>2019-05-26T09:30:17Z</time>
      </trkpt>
      <trkpt lat="44.51929" lon="3.56874">
        <ele>1121.1999511719</ele>
        <time>2019-05-26T09:30:20Z</time>
      </trkpt>
      <trkpt lat="44.51929" lon="3.56868">
        <ele>1121.4000244141</ele>
        <time>2019-05-26T09:30:21Z</time>
      </trkpt>
      <trkpt lat="44.5193" lon="3.56856">
        <ele>1121.5999755859</ele>
        <time>2019-05-26T09:30:23Z</time>
      </trkpt>
      <trkpt lat="44.51932" lon="3.56845">
        <ele>1121.8000488281</ele>
        <time>2019-05-26T09:30:25Z</time>
      </trkpt>
      <trkpt lat="44.51932" lon="3.5684">
        <ele>1121.8000488281</ele>
        <time>2019-05-26T09:30:26Z</time>
      </trkpt>
      <trkpt lat="44.51932" lon="3.56812">
        <ele>1122.1999511719</ele>
        <time>2019-05-26T09:30:31Z</time>
      </trkpt>
      <trkpt lat="44.51932" lon="3.56793">
        <ele>1122.5999755859</ele>
        <time>2019-05-26T09:30:34Z</time>
      </trkpt>
      <trkpt lat="44.51933" lon="3.56781">
        <ele>1122.8000488281</ele>
        <time>2019-05-26T09:30:36Z</time>
      </trkpt>
      <trkpt lat="44.51933" lon="3.56774">
        <ele>1123</ele>
        <time>2019-05-26T09:30:37Z</time>
      </trkpt>
      <trkpt lat="44.51934" lon="3.56753">
        <ele>1123.4000244141</ele>
        <time>2019-05-26T09:30:40Z</time>
      </trkpt>
      <trkpt lat="44.51934" lon="3.56746">
        <ele>1123.5999755859</ele>
        <time>2019-05-26T09:30:41Z</time>
      </trkpt>
      <trkpt lat="44.51937" lon="3.56705">
        <ele>1124.1999511719</ele>
        <time>2019-05-26T09:30:47Z</time>
      </trkpt>
      <trkpt lat="44.51938" lon="3.56669">
        <ele>1124.5999755859</ele>
        <time>2019-05-26T09:30:52Z</time>
      </trkpt>
      <trkpt lat="44.51939" lon="3.56663">
        <ele>1124.5999755859</ele>
        <time>2019-05-26T09:30:53Z</time>
      </trkpt>
      <trkpt lat="44.51939" lon="3.56655">
        <ele>1124.8000488281</ele>
        <time>2019-05-26T09:30:54Z</time>
      </trkpt>
      <trkpt lat="44.51936" lon="3.56629">
        <ele>1125.1999511719</ele>
        <time>2019-05-26T09:30:57Z</time>
      </trkpt>
      <trkpt lat="44.51936" lon="3.56592">
        <ele>1125.5999755859</ele>
        <time>2019-05-26T09:31:01Z</time>
      </trkpt>
      <trkpt lat="44.51937" lon="3.56583">
        <ele>1125.8000488281</ele>
        <time>2019-05-26T09:31:02Z</time>
      </trkpt>
      <trkpt lat="44.51937" lon="3.56575">
        <ele>1126</ele>
        <time>2019-05-26T09:31:03Z</time>
      </trkpt>
      <trkpt lat="44.51935" lon="3.56561">
        <ele>1126.1999511719</ele>
        <time>2019-05-26T09:31:05Z</time>
      </trkpt>
      <trkpt lat="44.51925" lon="3.56521">
        <ele>1126.8000488281</ele>
        <time>2019-05-26T09:31:10Z</time>
      </trkpt>
      <trkpt lat="44.51918" lon="3.56487">
        <ele>1127.1999511719</ele>
        <time>2019-05-26T09:31:14Z</time>
      </trkpt>
      <trkpt lat="44.51915" lon="3.5648">
        <ele>1127.4000244141</ele>
        <time>2019-05-26T09:31:15Z</time>
      </trkpt>
      <trkpt lat="44.51909" lon="3.5646">
        <ele>1127.8000488281</ele>
        <time>2019-05-26T09:31:18Z</time>
      </trkpt>
      <trkpt lat="44.51904" lon="3.5645">
        <ele>1128</ele>
        <time>2019-05-26T09:31:20Z</time>
      </trkpt>
      <trkpt lat="44.51899" lon="3.56442">
        <ele>1128.1999511719</ele>
        <time>2019-05-26T09:31:22Z</time>
      </trkpt>
      <trkpt lat="44.51896" lon="3.56437">
        <ele>1128.4000244141</ele>
        <time>2019-05-26T09:31:23Z</time>
      </trkpt>
      <trkpt lat="44.51877" lon="3.564">
        <ele>1129</ele>
        <time>2019-05-26T09:31:30Z</time>
      </trkpt>
      <trkpt lat="44.5187" lon="3.56391">
        <ele>1129.1999511719</ele>
        <time>2019-05-26T09:31:32Z</time>
      </trkpt>
      <trkpt lat="44.51863" lon="3.56382">
        <ele>1129.4000244141</ele>
        <time>2019-05-26T09:31:34Z</time>
      </trkpt>
      <trkpt lat="44.51857" lon="3.56372">
        <ele>1129.5999755859</ele>
        <time>2019-05-26T09:31:36Z</time>
      </trkpt>
      <trkpt lat="44.51849" lon="3.5636">
        <ele>1129.5999755859</ele>
        <time>2019-05-26T09:31:39Z</time>
      </trkpt>
      <trkpt lat="44.51836" lon="3.56341">
        <ele>1130</ele>
        <time>2019-05-26T09:31:44Z</time>
      </trkpt>
      <trkpt lat="44.51819" lon="3.56318">
        <ele>1130.5999755859</ele>
        <time>2019-05-26T09:31:50Z</time>
      </trkpt>
      <trkpt lat="44.51807" lon="3.56297">
        <ele>1131.1999511719</ele>
        <time>2019-05-26T09:31:55Z</time>
      </trkpt>
      <trkpt lat="44.51793" lon="3.56271">
        <ele>1132.1999511719</ele>
        <time>2019-05-26T09:32:01Z</time>
      </trkpt>
      <trkpt lat="44.51781" lon="3.56248">
        <ele>1132.5999755859</ele>
        <time>2019-05-26T09:32:06Z</time>
      </trkpt>
      <trkpt lat="44.5177" lon="3.56228">
        <ele>1133.1999511719</ele>
        <time>2019-05-26T09:32:10Z</time>
      </trkpt>
      <trkpt lat="44.51766" lon="3.56224">
        <ele>1133.4000244141</ele>
        <time>2019-05-26T09:32:11Z</time>
      </trkpt>
      <trkpt lat="44.51763" lon="3.5622">
        <ele>1133.4000244141</ele>
        <time>2019-05-26T09:32:12Z</time>
      </trkpt>
      <trkpt lat="44.51752" lon="3.56206">
        <ele>1133.8000488281</ele>
        <time>2019-05-26T09:32:15Z</time>
      </trkpt>
      <trkpt lat="44.51738" lon="3.56188">
        <ele>1134.1999511719</ele>
        <time>2019-05-26T09:32:19Z</time>
      </trkpt>
      <trkpt lat="44.5172" lon="3.56164">
        <ele>1134.8000488281</ele>
        <time>2019-05-26T09:32:24Z</time>
      </trkpt>
      <trkpt lat="44.51698" lon="3.56135">
        <ele>1135.1999511719</ele>
        <time>2019-05-26T09:32:29Z</time>
      </trkpt>
      <trkpt lat="44.51668" lon="3.56094">
        <ele>1135.4000244141</ele>
        <time>2019-05-26T09:32:34Z</time>
      </trkpt>
      <trkpt lat="44.51634" lon="3.56055">
        <ele>1135.4000244141</ele>
        <time>2019-05-26T09:32:40Z</time>
      </trkpt>
      <trkpt lat="44.5161" lon="3.56028">
        <ele>1135.4000244141</ele>
        <time>2019-05-26T09:32:44Z</time>
      </trkpt>
      <trkpt lat="44.51604" lon="3.56019">
        <ele>1135.4000244141</ele>
        <time>2019-05-26T09:32:45Z</time>
      </trkpt>
      <trkpt lat="44.51594" lon="3.56001">
        <ele>1135.4000244141</ele>
        <time>2019-05-26T09:32:47Z</time>
      </trkpt>
      <trkpt lat="44.51585" lon="3.55985">
        <ele>1135.1999511719</ele>
        <time>2019-05-26T09:32:49Z</time>
      </trkpt>
      <trkpt lat="44.51576" lon="3.55968">
        <ele>1135</ele>
        <time>2019-05-26T09:32:51Z</time>
      </trkpt>
      <trkpt lat="44.51568" lon="3.55947">
        <ele>1134.5999755859</ele>
        <time>2019-05-26T09:32:53Z</time>
      </trkpt>
      <trkpt lat="44.51565" lon="3.55937">
        <ele>1134.1999511719</ele>
        <time>2019-05-26T09:32:54Z</time>
      </trkpt>
      <trkpt lat="44.51563" lon="3.55925">
        <ele>1134</ele>
        <time>2019-05-26T09:32:55Z</time>
      </trkpt>
      <trkpt lat="44.51559" lon="3.55892">
        <ele>1133.5999755859</ele>
        <time>2019-05-26T09:32:58Z</time>
      </trkpt>
      <trkpt lat="44.5156" lon="3.5586">
        <ele>1133</ele>
        <time>2019-05-26T09:33:01Z</time>
      </trkpt>
      <trkpt lat="44.51562" lon="3.55849">
        <ele>1133</ele>
        <time>2019-05-26T09:33:02Z</time>
      </trkpt>
      <trkpt lat="44.51572" lon="3.55772">
        <ele>1132.1999511719</ele>
        <time>2019-05-26T09:33:08Z</time>
      </trkpt>
      <trkpt lat="44.51574" lon="3.55761">
        <ele>1132</ele>
        <time>2019-05-26T09:33:09Z</time>
      </trkpt>
      <trkpt lat="44.51582" lon="3.5574">
        <ele>1131.5999755859</ele>
        <time>2019-05-26T09:33:11Z</time>
      </trkpt>
      <trkpt lat="44.51604" lon="3.5569">
        <ele>1130.1999511719</ele>
        <time>2019-05-26T09:33:16Z</time>
      </trkpt>
      <trkpt lat="44.51608" lon="3.55681">
        <ele>1129.8000488281</ele>
        <time>2019-05-26T09:33:17Z</time>
      </trkpt>
      <trkpt lat="44.51616" lon="3.55665">
        <ele>1129</ele>
        <time>2019-05-26T09:33:19Z</time>
      </trkpt>
      <trkpt lat="44.51621" lon="3.55656">
        <ele>1128.8000488281</ele>
        <time>2019-05-26T09:33:20Z</time>
      </trkpt>
      <trkpt lat="44.51631" lon="3.55639">
        <ele>1128.4000244141</ele>
        <time>2019-05-26T09:33:22Z</time>
      </trkpt>
      <trkpt lat="44.51645" lon="3.5561">
        <ele>1128</ele>
        <time>2019-05-26T09:33:25Z</time>
      </trkpt>
      <trkpt lat="44.51654" lon="3.55594">
        <ele>1127.5999755859</ele>
        <time>2019-05-26T09:33:27Z</time>
      </trkpt>
      <trkpt lat="44.51664" lon="3.55578">
        <ele>1127.1999511719</ele>
        <time>2019-05-26T09:33:29Z</time>
      </trkpt>
      <trkpt lat="44.51672" lon="3.55561">
        <ele>1126.8000488281</ele>
        <time>2019-05-26T09:33:31Z</time>
      </trkpt>
      <trkpt lat="44.51672" lon="3.55552">
        <ele>1126.5999755859</ele>
        <time>2019-05-26T09:33:32Z</time>
      </trkpt>
      <trkpt lat="44.5167" lon="3.55543">
        <ele>1126.4000244141</ele>
        <time>2019-05-26T09:33:33Z</time>
      </trkpt>
      <trkpt lat="44.51662" lon="3.55531">
        <ele>1125.8000488281</ele>
        <time>2019-05-26T09:33:35Z</time>
      </trkpt>
      <trkpt lat="44.51653" lon="3.55518">
        <ele>1125.1999511719</ele>
        <time>2019-05-26T09:33:37Z</time>
      </trkpt>
      <trkpt lat="44.51642" lon="3.5551">
        <ele>1124.1999511719</ele>
        <time>2019-05-26T09:33:39Z</time>
      </trkpt>
      <trkpt lat="44.51634" lon="3.55498">
        <ele>1123.4000244141</ele>
        <time>2019-05-26T09:33:41Z</time>
      </trkpt>
      <trkpt lat="44.51631" lon="3.55491">
        <ele>1123</ele>
        <time>2019-05-26T09:33:42Z</time>
      </trkpt>
      <trkpt lat="44.51628" lon="3.55486">
        <ele>1122.5999755859</ele>
        <time>2019-05-26T09:33:43Z</time>
      </trkpt>
      <trkpt lat="44.51621" lon="3.55479">
        <ele>1121.8000488281</ele>
        <time>2019-05-26T09:33:45Z</time>
      </trkpt>
      <trkpt lat="44.51618" lon="3.55476">
        <ele>1121.5999755859</ele>
        <time>2019-05-26T09:33:46Z</time>
      </trkpt>
      <trkpt lat="44.51608" lon="3.55457">
        <ele>1120.1999511719</ele>
        <time>2019-05-26T09:33:51Z</time>
      </trkpt>
      <trkpt lat="44.51597" lon="3.55433">
        <ele>1118.5999755859</ele>
        <time>2019-05-26T09:33:57Z</time>
      </trkpt>
      <trkpt lat="44.51584" lon="3.55404">
        <ele>1117.1999511719</ele>
        <time>2019-05-26T09:34:03Z</time>
      </trkpt>
      <trkpt lat="44.5157" lon="3.55381">
        <ele>1115.8000488281</ele>
        <time>2019-05-26T09:34:08Z</time>
      </trkpt>
      <trkpt lat="44.51566" lon="3.55376">
        <ele>1115.5999755859</ele>
        <time>2019-05-26T09:34:09Z</time>
      </trkpt>
      <trkpt lat="44.51552" lon="3.55364">
        <ele>1114.8000488281</ele>
        <time>2019-05-26T09:34:12Z</time>
      </trkpt>
      <trkpt lat="44.51546" lon="3.55355">
        <ele>1113.8000488281</ele>
        <time>2019-05-26T09:34:14Z</time>
      </trkpt>
      <trkpt lat="44.51538" lon="3.55347">
        <ele>1112.8000488281</ele>
        <time>2019-05-26T09:34:16Z</time>
      </trkpt>
      <trkpt lat="44.51534" lon="3.55344">
        <ele>1112.5999755859</ele>
        <time>2019-05-26T09:34:17Z</time>
      </trkpt>
      <trkpt lat="44.51508" lon="3.55329">
        <ele>1111</ele>
        <time>2019-05-26T09:34:24Z</time>
      </trkpt>
      <trkpt lat="44.51489" lon="3.55311">
        <ele>1110</ele>
        <time>2019-05-26T09:34:30Z</time>
      </trkpt>
      <trkpt lat="44.5147" lon="3.55292">
        <ele>1109.1999511719</ele>
        <time>2019-05-26T09:34:36Z</time>
      </trkpt>
      <trkpt lat="44.51451" lon="3.55274">
        <ele>1108.1999511719</ele>
        <time>2019-05-26T09:34:42Z</time>
      </trkpt>
      <trkpt lat="44.51433" lon="3.55257">
        <ele>1107.4000244141</ele>
        <time>2019-05-26T09:34:48Z</time>
      </trkpt>
      <trkpt lat="44.51418" lon="3.55247">
        <ele>1107</ele>
        <time>2019-05-26T09:34:53Z</time>
      </trkpt>
      <trkpt lat="44.51413" lon="3.55241">
        <ele>1106.8000488281</ele>
        <time>2019-05-26T09:34:55Z</time>
      </trkpt>
      <trkpt lat="44.5141" lon="3.55239">
        <ele>1106.8000488281</ele>
        <time>2019-05-26T09:34:56Z</time>
      </trkpt>
      <trkpt lat="44.51399" lon="3.55225">
        <ele>1106.5999755859</ele>
        <time>2019-05-26T09:35:00Z</time>
      </trkpt>
      <trkpt lat="44.51393" lon="3.5522">
        <ele>1106.4000244141</ele>
        <time>2019-05-26T09:35:02Z</time>
      </trkpt>
      <trkpt lat="44.51389" lon="3.55219">
        <ele>1106.4000244141</ele>
        <time>2019-05-26T09:35:03Z</time>
      </trkpt>
      <trkpt lat="44.51385" lon="3.55217">
        <ele>1106.4000244141</ele>
        <time>2019-05-26T09:35:04Z</time>
      </trkpt>
      <trkpt lat="44.51374" lon="3.55208">
        <ele>1106.1999511719</ele>
        <time>2019-05-26T09:35:07Z</time>
      </trkpt>
      <trkpt lat="44.51358" lon="3.55193">
        <ele>1106</ele>
        <time>2019-05-26T09:35:12Z</time>
      </trkpt>
      <trkpt lat="44.51344" lon="3.55176">
        <ele>1106</ele>
        <time>2019-05-26T09:35:17Z</time>
      </trkpt>
      <trkpt lat="44.51332" lon="3.55155">
        <ele>1105.5999755859</ele>
        <time>2019-05-26T09:35:22Z</time>
      </trkpt>
      <trkpt lat="44.51321" lon="3.55128">
        <ele>1105.4000244141</ele>
        <time>2019-05-26T09:35:27Z</time>
      </trkpt>
      <trkpt lat="44.51318" lon="3.55121">
        <ele>1105.4000244141</ele>
        <time>2019-05-26T09:35:28Z</time>
      </trkpt>
      <trkpt lat="44.51312" lon="3.55105">
        <ele>1105.1999511719</ele>
        <time>2019-05-26T09:35:31Z</time>
      </trkpt>
      <trkpt lat="44.51309" lon="3.55099">
        <ele>1105.1999511719</ele>
        <time>2019-05-26T09:35:32Z</time>
      </trkpt>
      <trkpt lat="44.51302" lon="3.55086">
        <ele>1105.1999511719</ele>
        <time>2019-05-26T09:35:35Z</time>
      </trkpt>
      <trkpt lat="44.51298" lon="3.55076">
        <ele>1105.1999511719</ele>
        <time>2019-05-26T09:35:37Z</time>
      </trkpt>
      <trkpt lat="44.51293" lon="3.55065">
        <ele>1105.1999511719</ele>
        <time>2019-05-26T09:35:39Z</time>
      </trkpt>
      <trkpt lat="44.51289" lon="3.55054">
        <ele>1105.1999511719</ele>
        <time>2019-05-26T09:35:41Z</time>
      </trkpt>
      <trkpt lat="44.51286" lon="3.55042">
        <ele>1105.1999511719</ele>
        <time>2019-05-26T09:35:43Z</time>
      </trkpt>
      <trkpt lat="44.51278" lon="3.55024">
        <ele>1105.1999511719</ele>
        <time>2019-05-26T09:35:46Z</time>
      </trkpt>
      <trkpt lat="44.51274" lon="3.55018">
        <ele>1105.1999511719</ele>
        <time>2019-05-26T09:35:47Z</time>
      </trkpt>
      <trkpt lat="44.51265" lon="3.55002">
        <ele>1105</ele>
        <time>2019-05-26T09:35:49Z</time>
      </trkpt>
      <trkpt lat="44.51261" lon="3.54993">
        <ele>1104.8000488281</ele>
        <time>2019-05-26T09:35:50Z</time>
      </trkpt>
      <trkpt lat="44.51257" lon="3.54984">
        <ele>1104.8000488281</ele>
        <time>2019-05-26T09:35:51Z</time>
      </trkpt>
      <trkpt lat="44.51243" lon="3.54959">
        <ele>1104.8000488281</ele>
        <time>2019-05-26T09:35:54Z</time>
      </trkpt>
      <trkpt lat="44.51233" lon="3.54932">
        <ele>1105</ele>
        <time>2019-05-26T09:35:57Z</time>
      </trkpt>
      <trkpt lat="44.51221" lon="3.5489">
        <ele>1105.1999511719</ele>
        <time>2019-05-26T09:36:01Z</time>
      </trkpt>
      <trkpt lat="44.51218" lon="3.54878">
        <ele>1105.4000244141</ele>
        <time>2019-05-26T09:36:02Z</time>
      </trkpt>
      <trkpt lat="44.51211" lon="3.54804">
        <ele>1105.4000244141</ele>
        <time>2019-05-26T09:36:08Z</time>
      </trkpt>
      <trkpt lat="44.51212" lon="3.54783">
        <ele>1105.1999511719</ele>
        <time>2019-05-26T09:36:10Z</time>
      </trkpt>
      <trkpt lat="44.51213" lon="3.54774">
        <ele>1105.1999511719</ele>
        <time>2019-05-26T09:36:11Z</time>
      </trkpt>
      <trkpt lat="44.51214" lon="3.54756">
        <ele>1105</ele>
        <time>2019-05-26T09:36:13Z</time>
      </trkpt>
      <trkpt lat="44.51213" lon="3.54726">
        <ele>1104.5999755859</ele>
        <time>2019-05-26T09:36:16Z</time>
      </trkpt>
      <trkpt lat="44.51213" lon="3.54705">
        <ele>1104.5999755859</ele>
        <time>2019-05-26T09:36:18Z</time>
      </trkpt>
      <trkpt lat="44.51215" lon="3.54683">
        <ele>1104.8000488281</ele>
        <time>2019-05-26T09:36:20Z</time>
      </trkpt>
      <trkpt lat="44.51216" lon="3.54671">
        <ele>1104.8000488281</ele>
        <time>2019-05-26T09:36:21Z</time>
      </trkpt>
      <trkpt lat="44.5122" lon="3.54648">
        <ele>1104.8000488281</ele>
        <time>2019-05-26T09:36:23Z</time>
      </trkpt>
      <trkpt lat="44.51223" lon="3.54625">
        <ele>1105</ele>
        <time>2019-05-26T09:36:25Z</time>
      </trkpt>
      <trkpt lat="44.51229" lon="3.54602">
        <ele>1105</ele>
        <time>2019-05-26T09:36:27Z</time>
      </trkpt>
      <trkpt lat="44.51234" lon="3.54578">
        <ele>1105</ele>
        <time>2019-05-26T09:36:29Z</time>
      </trkpt>
      <trkpt lat="44.51239" lon="3.54554">
        <ele>1105</ele>
        <time>2019-05-26T09:36:31Z</time>
      </trkpt>
      <trkpt lat="44.51257" lon="3.54494">
        <ele>1105</ele>
        <time>2019-05-26T09:36:36Z</time>
      </trkpt>
      <trkpt lat="44.51264" lon="3.54461">
        <ele>1104.8000488281</ele>
        <time>2019-05-26T09:36:39Z</time>
      </trkpt>
      <trkpt lat="44.51268" lon="3.54449">
        <ele>1104.5999755859</ele>
        <time>2019-05-26T09:36:40Z</time>
      </trkpt>
      <trkpt lat="44.51279" lon="3.54417">
        <ele>1103.4000244141</ele>
        <time>2019-05-26T09:36:43Z</time>
      </trkpt>
      <trkpt lat="44.51283" lon="3.54407">
        <ele>1103.1999511719</ele>
        <time>2019-05-26T09:36:44Z</time>
      </trkpt>
      <trkpt lat="44.51294" lon="3.54377">
        <ele>1102.4000244141</ele>
        <time>2019-05-26T09:36:47Z</time>
      </trkpt>
      <trkpt lat="44.51299" lon="3.54367">
        <ele>1102.1999511719</ele>
        <time>2019-05-26T09:36:48Z</time>
      </trkpt>
      <trkpt lat="44.51313" lon="3.54336">
        <ele>1101.4000244141</ele>
        <time>2019-05-26T09:36:51Z</time>
      </trkpt>
      <trkpt lat="44.51322" lon="3.54316">
        <ele>1100.5999755859</ele>
        <time>2019-05-26T09:36:53Z</time>
      </trkpt>
      <trkpt lat="44.51325" lon="3.54306">
        <ele>1100.1999511719</ele>
        <time>2019-05-26T09:36:54Z</time>
      </trkpt>
      <trkpt lat="44.51336" lon="3.54275">
        <ele>1099.5999755859</ele>
        <time>2019-05-26T09:36:57Z</time>
      </trkpt>
      <trkpt lat="44.51349" lon="3.54233">
        <ele>1098.1999511719</ele>
        <time>2019-05-26T09:37:01Z</time>
      </trkpt>
      <trkpt lat="44.5136" lon="3.54182">
        <ele>1095.8000488281</ele>
        <time>2019-05-26T09:37:06Z</time>
      </trkpt>
      <trkpt lat="44.51363" lon="3.54164">
        <ele>1095</ele>
        <time>2019-05-26T09:37:08Z</time>
      </trkpt>
      <trkpt lat="44.51363" lon="3.54146">
        <ele>1094.1999511719</ele>
        <time>2019-05-26T09:37:10Z</time>
      </trkpt>
      <trkpt lat="44.5136" lon="3.54118">
        <ele>1092.4000244141</ele>
        <time>2019-05-26T09:37:13Z</time>
      </trkpt>
      <trkpt lat="44.51359" lon="3.54109">
        <ele>1091.8000488281</ele>
        <time>2019-05-26T09:37:14Z</time>
      </trkpt>
      <trkpt lat="44.51355" lon="3.54093">
        <ele>1090.5999755859</ele>
        <time>2019-05-26T09:37:16Z</time>
      </trkpt>
      <trkpt lat="44.51351" lon="3.54078">
        <ele>1089.8000488281</ele>
        <time>2019-05-26T09:37:18Z</time>
      </trkpt>
      <trkpt lat="44.51349" lon="3.54066">
        <ele>1089</ele>
        <time>2019-05-26T09:37:20Z</time>
      </trkpt>
      <trkpt lat="44.5135" lon="3.54054">
        <ele>1088.1999511719</ele>
        <time>2019-05-26T09:37:22Z</time>
      </trkpt>
      <trkpt lat="44.5135" lon="3.54033">
        <ele>1086.8000488281</ele>
        <time>2019-05-26T09:37:25Z</time>
      </trkpt>
      <trkpt lat="44.5135" lon="3.54025">
        <ele>1086.4000244141</ele>
        <time>2019-05-26T09:37:26Z</time>
      </trkpt>
      <trkpt lat="44.5135" lon="3.54018">
        <ele>1085.8000488281</ele>
        <time>2019-05-26T09:37:27Z</time>
      </trkpt>
      <trkpt lat="44.51349" lon="3.54003">
        <ele>1085</ele>
        <time>2019-05-26T09:37:29Z</time>
      </trkpt>
      <trkpt lat="44.51346" lon="3.53991">
        <ele>1084.1999511719</ele>
        <time>2019-05-26T09:37:31Z</time>
      </trkpt>
      <trkpt lat="44.51344" lon="3.5398">
        <ele>1083.5999755859</ele>
        <time>2019-05-26T09:37:33Z</time>
      </trkpt>
      <trkpt lat="44.51344" lon="3.53967">
        <ele>1082.8000488281</ele>
        <time>2019-05-26T09:37:35Z</time>
      </trkpt>
      <trkpt lat="44.51343" lon="3.53944">
        <ele>1081.5999755859</ele>
        <time>2019-05-26T09:37:39Z</time>
      </trkpt>
      <trkpt lat="44.51341" lon="3.53928">
        <ele>1080.8000488281</ele>
        <time>2019-05-26T09:37:42Z</time>
      </trkpt>
      <trkpt lat="44.51337" lon="3.5391">
        <ele>1079.4000244141</ele>
        <time>2019-05-26T09:37:46Z</time>
      </trkpt>
      <trkpt lat="44.51335" lon="3.53884">
        <ele>1078.4000244141</ele>
        <time>2019-05-26T09:37:50Z</time>
      </trkpt>
      <trkpt lat="44.51332" lon="3.5386">
        <ele>1077</ele>
        <time>2019-05-26T09:37:54Z</time>
      </trkpt>
      <trkpt lat="44.51329" lon="3.53849">
        <ele>1076.4000244141</ele>
        <time>2019-05-26T09:37:56Z</time>
      </trkpt>
      <trkpt lat="44.51329" lon="3.53844">
        <ele>1076</ele>
        <time>2019-05-26T09:37:57Z</time>
      </trkpt>
      <trkpt lat="44.51326" lon="3.53827">
        <ele>1075.1999511719</ele>
        <time>2019-05-26T09:38:00Z</time>
      </trkpt>
      <trkpt lat="44.51326" lon="3.53821">
        <ele>1075</ele>
        <time>2019-05-26T09:38:01Z</time>
      </trkpt>
      <trkpt lat="44.51326" lon="3.53814">
        <ele>1074.8000488281</ele>
        <time>2019-05-26T09:38:02Z</time>
      </trkpt>
      <trkpt lat="44.51325" lon="3.53802">
        <ele>1074.1999511719</ele>
        <time>2019-05-26T09:38:04Z</time>
      </trkpt>
      <trkpt lat="44.51324" lon="3.53796">
        <ele>1074</ele>
        <time>2019-05-26T09:38:05Z</time>
      </trkpt>
      <trkpt lat="44.51319" lon="3.53759">
        <ele>1072.5999755859</ele>
        <time>2019-05-26T09:38:12Z</time>
      </trkpt>
      <trkpt lat="44.51315" lon="3.53722">
        <ele>1071.1999511719</ele>
        <time>2019-05-26T09:38:19Z</time>
      </trkpt>
      <trkpt lat="44.51313" lon="3.53697">
        <ele>1070.4000244141</ele>
        <time>2019-05-26T09:38:24Z</time>
      </trkpt>
      <trkpt lat="44.51309" lon="3.53669">
        <ele>1069.8000488281</ele>
        <time>2019-05-26T09:38:29Z</time>
      </trkpt>
      <trkpt lat="44.51308" lon="3.53664">
        <ele>1069.4000244141</ele>
        <time>2019-05-26T09:38:30Z</time>
      </trkpt>
      <trkpt lat="44.51308" lon="3.53652">
        <ele>1069.1999511719</ele>
        <time>2019-05-26T09:38:32Z</time>
      </trkpt>
      <trkpt lat="44.51309" lon="3.53646">
        <ele>1069.1999511719</ele>
        <time>2019-05-26T09:38:33Z</time>
      </trkpt>
      <trkpt lat="44.51309" lon="3.53636">
        <ele>1068.8000488281</ele>
        <time>2019-05-26T09:38:35Z</time>
      </trkpt>
      <trkpt lat="44.51307" lon="3.53631">
        <ele>1068.5999755859</ele>
        <time>2019-05-26T09:38:36Z</time>
      </trkpt>
      <trkpt lat="44.51306" lon="3.53614">
        <ele>1068.4000244141</ele>
        <time>2019-05-26T09:38:39Z</time>
      </trkpt>
      <trkpt lat="44.51304" lon="3.53601">
        <ele>1068</ele>
        <time>2019-05-26T09:38:41Z</time>
      </trkpt>
      <trkpt lat="44.51306" lon="3.53588">
        <ele>1067.8000488281</ele>
        <time>2019-05-26T09:38:43Z</time>
      </trkpt>
      <trkpt lat="44.51307" lon="3.53576">
        <ele>1067.5999755859</ele>
        <time>2019-05-26T09:38:45Z</time>
      </trkpt>
      <trkpt lat="44.51312" lon="3.53563">
        <ele>1067.4000244141</ele>
        <time>2019-05-26T09:38:47Z</time>
      </trkpt>
      <trkpt lat="44.51318" lon="3.53546">
        <ele>1066.8000488281</ele>
        <time>2019-05-26T09:38:50Z</time>
      </trkpt>
      <trkpt lat="44.5132" lon="3.53532">
        <ele>1066.5999755859</ele>
        <time>2019-05-26T09:38:52Z</time>
      </trkpt>
      <trkpt lat="44.51323" lon="3.53519">
        <ele>1066.4000244141</ele>
        <time>2019-05-26T09:38:54Z</time>
      </trkpt>
      <trkpt lat="44.51326" lon="3.53514">
        <ele>1066.1999511719</ele>
        <time>2019-05-26T09:38:55Z</time>
      </trkpt>
      <trkpt lat="44.51327" lon="3.53507">
        <ele>1066</ele>
        <time>2019-05-26T09:38:56Z</time>
      </trkpt>
      <trkpt lat="44.51332" lon="3.53496">
        <ele>1066</ele>
        <time>2019-05-26T09:38:58Z</time>
      </trkpt>
      <trkpt lat="44.51334" lon="3.53489">
        <ele>1066</ele>
        <time>2019-05-26T09:38:59Z</time>
      </trkpt>
      <trkpt lat="44.51336" lon="3.53483">
        <ele>1066</ele>
        <time>2019-05-26T09:39:00Z</time>
      </trkpt>
      <trkpt lat="44.51343" lon="3.53464">
        <ele>1065.8000488281</ele>
        <time>2019-05-26T09:39:03Z</time>
      </trkpt>
      <trkpt lat="44.51345" lon="3.53458">
        <ele>1065.8000488281</ele>
        <time>2019-05-26T09:39:04Z</time>
      </trkpt>
      <trkpt lat="44.51355" lon="3.5344">
        <ele>1065.5999755859</ele>
        <time>2019-05-26T09:39:07Z</time>
      </trkpt>
      <trkpt lat="44.5136" lon="3.53429">
        <ele>1065.4000244141</ele>
        <time>2019-05-26T09:39:09Z</time>
      </trkpt>
      <trkpt lat="44.51365" lon="3.53417">
        <ele>1065.1999511719</ele>
        <time>2019-05-26T09:39:11Z</time>
      </trkpt>
      <trkpt lat="44.51369" lon="3.53405">
        <ele>1065</ele>
        <time>2019-05-26T09:39:13Z</time>
      </trkpt>
      <trkpt lat="44.51372" lon="3.53401">
        <ele>1065</ele>
        <time>2019-05-26T09:39:14Z</time>
      </trkpt>
      <trkpt lat="44.51374" lon="3.53397">
        <ele>1065</ele>
        <time>2019-05-26T09:39:15Z</time>
      </trkpt>
      <trkpt lat="44.51382" lon="3.53393">
        <ele>1064.8000488281</ele>
        <time>2019-05-26T09:39:17Z</time>
      </trkpt>
      <trkpt lat="44.51392" lon="3.53377">
        <ele>1064.5999755859</ele>
        <time>2019-05-26T09:39:20Z</time>
      </trkpt>
      <trkpt lat="44.51401" lon="3.5336">
        <ele>1064.4000244141</ele>
        <time>2019-05-26T09:39:23Z</time>
      </trkpt>
      <trkpt lat="44.51404" lon="3.53354">
        <ele>1064.4000244141</ele>
        <time>2019-05-26T09:39:24Z</time>
      </trkpt>
      <trkpt lat="44.51418" lon="3.53333">
        <ele>1064.4000244141</ele>
        <time>2019-05-26T09:39:28Z</time>
      </trkpt>
      <trkpt lat="44.51421" lon="3.53329">
        <ele>1064.1999511719</ele>
        <time>2019-05-26T09:39:29Z</time>
      </trkpt>
      <trkpt lat="44.51424" lon="3.53323">
        <ele>1064.1999511719</ele>
        <time>2019-05-26T09:39:30Z</time>
      </trkpt>
      <trkpt lat="44.51429" lon="3.53313">
        <ele>1064</ele>
        <time>2019-05-26T09:39:32Z</time>
      </trkpt>
      <trkpt lat="44.51437" lon="3.53297">
        <ele>1063.5999755859</ele>
        <time>2019-05-26T09:39:35Z</time>
      </trkpt>
      <trkpt lat="44.51438" lon="3.53292">
        <ele>1063.4000244141</ele>
        <time>2019-05-26T09:39:36Z</time>
      </trkpt>
      <trkpt lat="44.51439" lon="3.53286">
        <ele>1063.1999511719</ele>
        <time>2019-05-26T09:39:37Z</time>
      </trkpt>
      <trkpt lat="44.51439" lon="3.53269">
        <ele>1063</ele>
        <time>2019-05-26T09:39:39Z</time>
      </trkpt>
      <trkpt lat="44.51436" lon="3.53253">
        <ele>1062.5999755859</ele>
        <time>2019-05-26T09:39:41Z</time>
      </trkpt>
      <trkpt lat="44.5143" lon="3.5324">
        <ele>1062.4000244141</ele>
        <time>2019-05-26T09:39:43Z</time>
      </trkpt>
      <trkpt lat="44.51426" lon="3.53235">
        <ele>1062.4000244141</ele>
        <time>2019-05-26T09:39:44Z</time>
      </trkpt>
      <trkpt lat="44.51418" lon="3.53226">
        <ele>1062.1999511719</ele>
        <time>2019-05-26T09:39:46Z</time>
      </trkpt>
      <trkpt lat="44.51414" lon="3.53222">
        <ele>1062</ele>
        <time>2019-05-26T09:39:47Z</time>
      </trkpt>
      <trkpt lat="44.51409" lon="3.53218">
        <ele>1061.8000488281</ele>
        <time>2019-05-26T09:39:48Z</time>
      </trkpt>
      <trkpt lat="44.51402" lon="3.53206">
        <ele>1061.8000488281</ele>
        <time>2019-05-26T09:39:50Z</time>
      </trkpt>
      <trkpt lat="44.51393" lon="3.53198">
        <ele>1061.5999755859</ele>
        <time>2019-05-26T09:39:52Z</time>
      </trkpt>
      <trkpt lat="44.51389" lon="3.53195">
        <ele>1061.5999755859</ele>
        <time>2019-05-26T09:39:53Z</time>
      </trkpt>
      <trkpt lat="44.51385" lon="3.53191">
        <ele>1061.4000244141</ele>
        <time>2019-05-26T09:39:54Z</time>
      </trkpt>
      <trkpt lat="44.51378" lon="3.53183">
        <ele>1061.1999511719</ele>
        <time>2019-05-26T09:39:56Z</time>
      </trkpt>
      <trkpt lat="44.51374" lon="3.53181">
        <ele>1061</ele>
        <time>2019-05-26T09:39:57Z</time>
      </trkpt>
      <trkpt lat="44.51364" lon="3.53173">
        <ele>1060.8000488281</ele>
        <time>2019-05-26T09:40:00Z</time>
      </trkpt>
      <trkpt lat="44.51358" lon="3.53166">
        <ele>1060.5999755859</ele>
        <time>2019-05-26T09:40:02Z</time>
      </trkpt>
      <trkpt lat="44.51352" lon="3.53155">
        <ele>1060.5999755859</ele>
        <time>2019-05-26T09:40:04Z</time>
      </trkpt>
      <trkpt lat="44.51348" lon="3.5315">
        <ele>1060.8000488281</ele>
        <time>2019-05-26T09:40:05Z</time>
      </trkpt>
      <trkpt lat="44.51341" lon="3.53142">
        <ele>1060.8000488281</ele>
        <time>2019-05-26T09:40:07Z</time>
      </trkpt>
      <trkpt lat="44.51332" lon="3.53128">
        <ele>1060.5999755859</ele>
        <time>2019-05-26T09:40:11Z</time>
      </trkpt>
      <trkpt lat="44.51329" lon="3.53113">
        <ele>1060.5999755859</ele>
        <time>2019-05-26T09:40:14Z</time>
      </trkpt>
      <trkpt lat="44.51329" lon="3.53107">
        <ele>1060.5999755859</ele>
        <time>2019-05-26T09:40:15Z</time>
      </trkpt>
      <trkpt lat="44.51329" lon="3.53102">
        <ele>1060.8000488281</ele>
        <time>2019-05-26T09:40:16Z</time>
      </trkpt>
      <trkpt lat="44.51326" lon="3.53094">
        <ele>1060.8000488281</ele>
        <time>2019-05-26T09:40:18Z</time>
      </trkpt>
      <trkpt lat="44.51322" lon="3.53082">
        <ele>1060.8000488281</ele>
        <time>2019-05-26T09:40:20Z</time>
      </trkpt>
      <trkpt lat="44.5132" lon="3.53063">
        <ele>1060.8000488281</ele>
        <time>2019-05-26T09:40:23Z</time>
      </trkpt>
      <trkpt lat="44.5132" lon="3.53041">
        <ele>1060.8000488281</ele>
        <time>2019-05-26T09:40:27Z</time>
      </trkpt>
      <trkpt lat="44.51322" lon="3.53019">
        <ele>1060.5999755859</ele>
        <time>2019-05-26T09:40:31Z</time>
      </trkpt>
      <trkpt lat="44.51323" lon="3.53013">
        <ele>1060.5999755859</ele>
        <time>2019-05-26T09:40:32Z</time>
      </trkpt>
      <trkpt lat="44.51326" lon="3.53002">
        <ele>1060.5999755859</ele>
        <time>2019-05-26T09:40:34Z</time>
      </trkpt>
      <trkpt lat="44.51328" lon="3.52989">
        <ele>1060.4000244141</ele>
        <time>2019-05-26T09:40:36Z</time>
      </trkpt>
      <trkpt lat="44.5133" lon="3.52977">
        <ele>1060.4000244141</ele>
        <time>2019-05-26T09:40:38Z</time>
      </trkpt>
      <trkpt lat="44.51331" lon="3.52971">
        <ele>1060.5999755859</ele>
        <time>2019-05-26T09:40:39Z</time>
      </trkpt>
      <trkpt lat="44.51333" lon="3.52948">
        <ele>1060.5999755859</ele>
        <time>2019-05-26T09:40:42Z</time>
      </trkpt>
      <trkpt lat="44.51334" lon="3.52932">
        <ele>1060.4000244141</ele>
        <time>2019-05-26T09:40:44Z</time>
      </trkpt>
      <trkpt lat="44.51332" lon="3.52916">
        <ele>1060.4000244141</ele>
        <time>2019-05-26T09:40:46Z</time>
      </trkpt>
      <trkpt lat="44.51331" lon="3.52898">
        <ele>1060.4000244141</ele>
        <time>2019-05-26T09:40:48Z</time>
      </trkpt>
      <trkpt lat="44.51328" lon="3.52869">
        <ele>1060</ele>
        <time>2019-05-26T09:40:51Z</time>
      </trkpt>
      <trkpt lat="44.51324" lon="3.52834">
        <ele>1059.5999755859</ele>
        <time>2019-05-26T09:40:54Z</time>
      </trkpt>
      <trkpt lat="44.51325" lon="3.52822">
        <ele>1059.4000244141</ele>
        <time>2019-05-26T09:40:55Z</time>
      </trkpt>
      <trkpt lat="44.51328" lon="3.52799">
        <ele>1059</ele>
        <time>2019-05-26T09:40:57Z</time>
      </trkpt>
      <trkpt lat="44.51331" lon="3.52778">
        <ele>1058.8000488281</ele>
        <time>2019-05-26T09:40:59Z</time>
      </trkpt>
      <trkpt lat="44.51333" lon="3.5276">
        <ele>1058.5999755859</ele>
        <time>2019-05-26T09:41:01Z</time>
      </trkpt>
      <trkpt lat="44.51331" lon="3.52743">
        <ele>1058.4000244141</ele>
        <time>2019-05-26T09:41:03Z</time>
      </trkpt>
      <trkpt lat="44.5132" lon="3.52699">
        <ele>1057.8000488281</ele>
        <time>2019-05-26T09:41:09Z</time>
      </trkpt>
      <trkpt lat="44.51309" lon="3.52669">
        <ele>1057.5999755859</ele>
        <time>2019-05-26T09:41:15Z</time>
      </trkpt>
      <trkpt lat="44.513" lon="3.52646">
        <ele>1058</ele>
        <time>2019-05-26T09:41:21Z</time>
      </trkpt>
      <trkpt lat="44.51286" lon="3.52616">
        <ele>1059</ele>
        <time>2019-05-26T09:41:29Z</time>
      </trkpt>
      <trkpt lat="44.51274" lon="3.52583">
        <ele>1059.4000244141</ele>
        <time>2019-05-26T09:41:37Z</time>
      </trkpt>
      <trkpt lat="44.51268" lon="3.52551">
        <ele>1059.8000488281</ele>
        <time>2019-05-26T09:41:43Z</time>
      </trkpt>
      <trkpt lat="44.51266" lon="3.52544">
        <ele>1059.8000488281</ele>
        <time>2019-05-26T09:41:44Z</time>
      </trkpt>
      <trkpt lat="44.51264" lon="3.52538">
        <ele>1059.8000488281</ele>
        <time>2019-05-26T09:41:45Z</time>
      </trkpt>
      <trkpt lat="44.51251" lon="3.52514">
        <ele>1060</ele>
        <time>2019-05-26T09:41:49Z</time>
      </trkpt>
      <trkpt lat="44.51227" lon="3.52477">
        <ele>1060</ele>
        <time>2019-05-26T09:41:55Z</time>
      </trkpt>
      <trkpt lat="44.51217" lon="3.52466">
        <ele>1060</ele>
        <time>2019-05-26T09:41:57Z</time>
      </trkpt>
      <trkpt lat="44.51205" lon="3.52454">
        <ele>1060</ele>
        <time>2019-05-26T09:41:59Z</time>
      </trkpt>
      <trkpt lat="44.51188" lon="3.52417">
        <ele>1060</ele>
        <time>2019-05-26T09:42:03Z</time>
      </trkpt>
      <trkpt lat="44.51175" lon="3.52387">
        <ele>1059.8000488281</ele>
        <time>2019-05-26T09:42:06Z</time>
      </trkpt>
      <trkpt lat="44.51162" lon="3.52356">
        <ele>1059.1999511719</ele>
        <time>2019-05-26T09:42:09Z</time>
      </trkpt>
      <trkpt lat="44.51155" lon="3.52336">
        <ele>1058.8000488281</ele>
        <time>2019-05-26T09:42:11Z</time>
      </trkpt>
      <trkpt lat="44.51152" lon="3.52316">
        <ele>1058.4000244141</ele>
        <time>2019-05-26T09:42:13Z</time>
      </trkpt>
      <trkpt lat="44.51145" lon="3.52289">
        <ele>1057.8000488281</ele>
        <time>2019-05-26T09:42:16Z</time>
      </trkpt>
      <trkpt lat="44.51143" lon="3.52281">
        <ele>1057.8000488281</ele>
        <time>2019-05-26T09:42:17Z</time>
      </trkpt>
      <trkpt lat="44.5113" lon="3.52227">
        <ele>1056.5999755859</ele>
        <time>2019-05-26T09:42:23Z</time>
      </trkpt>
      <trkpt lat="44.51119" lon="3.52174">
        <ele>1055.4000244141</ele>
        <time>2019-05-26T09:42:29Z</time>
      </trkpt>
      <trkpt lat="44.51108" lon="3.52123">
        <ele>1054.4000244141</ele>
        <time>2019-05-26T09:42:34Z</time>
      </trkpt>
      <trkpt lat="44.51098" lon="3.52073">
        <ele>1053.4000244141</ele>
        <time>2019-05-26T09:42:39Z</time>
      </trkpt>
      <trkpt lat="44.51094" lon="3.52045">
        <ele>1052.5999755859</ele>
        <time>2019-05-26T09:42:43Z</time>
      </trkpt>
      <trkpt lat="44.51096" lon="3.52031">
        <ele>1052.1999511719</ele>
        <time>2019-05-26T09:42:45Z</time>
      </trkpt>
      <trkpt lat="44.51101" lon="3.52014">
        <ele>1051.8000488281</ele>
        <time>2019-05-26T09:42:47Z</time>
      </trkpt>
      <trkpt lat="44.51107" lon="3.51995">
        <ele>1051.1999511719</ele>
        <time>2019-05-26T09:42:49Z</time>
      </trkpt>
      <trkpt lat="44.51113" lon="3.51974">
        <ele>1050.5999755859</ele>
        <time>2019-05-26T09:42:51Z</time>
      </trkpt>
      <trkpt lat="44.51124" lon="3.51932">
        <ele>1049.8000488281</ele>
        <time>2019-05-26T09:42:55Z</time>
      </trkpt>
      <trkpt lat="44.51127" lon="3.5191">
        <ele>1049.4000244141</ele>
        <time>2019-05-26T09:42:57Z</time>
      </trkpt>
      <trkpt lat="44.51129" lon="3.51886">
        <ele>1048.8000488281</ele>
        <time>2019-05-26T09:43:00Z</time>
      </trkpt>
      <trkpt lat="44.51124" lon="3.51848">
        <ele>1047.8000488281</ele>
        <time>2019-05-26T09:43:05Z</time>
      </trkpt>
      <trkpt lat="44.51121" lon="3.51833">
        <ele>1047.1999511719</ele>
        <time>2019-05-26T09:43:07Z</time>
      </trkpt>
      <trkpt lat="44.51116" lon="3.51818">
        <ele>1046.8000488281</ele>
        <time>2019-05-26T09:43:09Z</time>
      </trkpt>
      <trkpt lat="44.51114" lon="3.51811">
        <ele>1046.8000488281</ele>
        <time>2019-05-26T09:43:10Z</time>
      </trkpt>
      <trkpt lat="44.51109" lon="3.51796">
        <ele>1046.4000244141</ele>
        <time>2019-05-26T09:43:12Z</time>
      </trkpt>
      <trkpt lat="44.51104" lon="3.51781">
        <ele>1046</ele>
        <time>2019-05-26T09:43:14Z</time>
      </trkpt>
      <trkpt lat="44.51092" lon="3.51752">
        <ele>1045.8000488281</ele>
        <time>2019-05-26T09:43:18Z</time>
      </trkpt>
      <trkpt lat="44.51081" lon="3.51723">
        <ele>1045.5999755859</ele>
        <time>2019-05-26T09:43:22Z</time>
      </trkpt>
      <trkpt lat="44.51079" lon="3.51717">
        <ele>1045.4000244141</ele>
        <time>2019-05-26T09:43:23Z</time>
      </trkpt>
      <trkpt lat="44.51077" lon="3.5171">
        <ele>1045.4000244141</ele>
        <time>2019-05-26T09:43:24Z</time>
      </trkpt>
      <trkpt lat="44.51073" lon="3.51696">
        <ele>1045.1999511719</ele>
        <time>2019-05-26T09:43:26Z</time>
      </trkpt>
      <trkpt lat="44.51072" lon="3.51689">
        <ele>1045</ele>
        <time>2019-05-26T09:43:27Z</time>
      </trkpt>
      <trkpt lat="44.5107" lon="3.51683">
        <ele>1044.8000488281</ele>
        <time>2019-05-26T09:43:28Z</time>
      </trkpt>
      <trkpt lat="44.51065" lon="3.5167">
        <ele>1044.5999755859</ele>
        <time>2019-05-26T09:43:30Z</time>
      </trkpt>
      <trkpt lat="44.51059" lon="3.51657">
        <ele>1044.4000244141</ele>
        <time>2019-05-26T09:43:32Z</time>
      </trkpt>
      <trkpt lat="44.51047" lon="3.51632">
        <ele>1044.1999511719</ele>
        <time>2019-05-26T09:43:36Z</time>
      </trkpt>
      <trkpt lat="44.51045" lon="3.51626">
        <ele>1044</ele>
        <time>2019-05-26T09:43:37Z</time>
      </trkpt>
      <trkpt lat="44.51042" lon="3.5162">
        <ele>1043.8000488281</ele>
        <time>2019-05-26T09:43:38Z</time>
      </trkpt>
      <trkpt lat="44.51029" lon="3.51598">
        <ele>1043.4000244141</ele>
        <time>2019-05-26T09:43:42Z</time>
      </trkpt>
      <trkpt lat="44.51016" lon="3.5158">
        <ele>1043.1999511719</ele>
        <time>2019-05-26T09:43:46Z</time>
      </trkpt>
      <trkpt lat="44.51005" lon="3.51565">
        <ele>1043</ele>
        <time>2019-05-26T09:43:50Z</time>
      </trkpt>
      <trkpt lat="44.5099" lon="3.51546">
        <ele>1043</ele>
        <time>2019-05-26T09:43:55Z</time>
      </trkpt>
      <trkpt lat="44.50986" lon="3.51542">
        <ele>1043</ele>
        <time>2019-05-26T09:43:56Z</time>
      </trkpt>
      <trkpt lat="44.5098" lon="3.51529">
        <ele>1043</ele>
        <time>2019-05-26T09:43:59Z</time>
      </trkpt>
      <trkpt lat="44.50965" lon="3.51504">
        <ele>1043.5999755859</ele>
        <time>2019-05-26T09:44:05Z</time>
      </trkpt>
      <trkpt lat="44.50953" lon="3.51484">
        <ele>1043.8000488281</ele>
        <time>2019-05-26T09:44:10Z</time>
      </trkpt>
      <trkpt lat="44.50946" lon="3.51468">
        <ele>1044.1999511719</ele>
        <time>2019-05-26T09:44:14Z</time>
      </trkpt>
      <trkpt lat="44.50937" lon="3.51447">
        <ele>1044.4000244141</ele>
        <time>2019-05-26T09:44:19Z</time>
      </trkpt>
      <trkpt lat="44.50932" lon="3.51428">
        <ele>1044.8000488281</ele>
        <time>2019-05-26T09:44:24Z</time>
      </trkpt>
      <trkpt lat="44.50924" lon="3.51409">
        <ele>1045.4000244141</ele>
        <time>2019-05-26T09:44:30Z</time>
      </trkpt>
      <trkpt lat="44.50922" lon="3.51403">
        <ele>1045.4000244141</ele>
        <time>2019-05-26T09:44:32Z</time>
      </trkpt>
      <trkpt lat="44.50921" lon="3.51398">
        <ele>1045.5999755859</ele>
        <time>2019-05-26T09:44:34Z</time>
      </trkpt>
      <trkpt lat="44.5092" lon="3.51397">
        <ele>1045.5999755859</ele>
        <time>2019-05-26T09:44:35Z</time>
      </trkpt>
      <trkpt lat="44.50863" lon="3.51396">
        <ele>1051.1999511719</ele>
        <time>2019-05-26T09:45:34Z</time>
      </trkpt>
      <trkpt lat="44.50863" lon="3.51392">
        <ele>1051.1999511719</ele>
        <time>2019-05-26T09:45:35Z</time>
      </trkpt>
      <trkpt lat="44.50863" lon="3.5139">
        <ele>1051.1999511719</ele>
        <time>2019-05-26T09:45:36Z</time>
      </trkpt>
      <trkpt lat="44.50863" lon="3.51386">
        <ele>1051.1999511719</ele>
        <time>2019-05-26T09:45:38Z</time>
      </trkpt>
      <trkpt lat="44.50862" lon="3.51377">
        <ele>1051.1999511719</ele>
        <time>2019-05-26T09:45:40Z</time>
      </trkpt>
      <trkpt lat="44.50862" lon="3.51372">
        <ele>1051.1999511719</ele>
        <time>2019-05-26T09:45:41Z</time>
      </trkpt>
      <trkpt lat="44.50863" lon="3.51364">
        <ele>1051</ele>
        <time>2019-05-26T09:45:43Z</time>
      </trkpt>
      <trkpt lat="44.50864" lon="3.51355">
        <ele>1051</ele>
        <time>2019-05-26T09:45:45Z</time>
      </trkpt>
      <trkpt lat="44.50867" lon="3.51345">
        <ele>1051</ele>
        <time>2019-05-26T09:45:47Z</time>
      </trkpt>
      <trkpt lat="44.50868" lon="3.51339">
        <ele>1051</ele>
        <time>2019-05-26T09:45:48Z</time>
      </trkpt>
      <trkpt lat="44.50871" lon="3.5132">
        <ele>1051.1999511719</ele>
        <time>2019-05-26T09:45:51Z</time>
      </trkpt>
      <trkpt lat="44.50872" lon="3.51311">
        <ele>1051.1999511719</ele>
        <time>2019-05-26T09:45:53Z</time>
      </trkpt>
      <trkpt lat="44.50873" lon="3.51307">
        <ele>1051.1999511719</ele>
        <time>2019-05-26T09:45:54Z</time>
      </trkpt>
      <trkpt lat="44.50877" lon="3.5129">
        <ele>1051.4000244141</ele>
        <time>2019-05-26T09:45:57Z</time>
      </trkpt>
      <trkpt lat="44.50879" lon="3.51283">
        <ele>1051.4000244141</ele>
        <time>2019-05-26T09:45:58Z</time>
      </trkpt>
      <trkpt lat="44.5088" lon="3.51276">
        <ele>1051.1999511719</ele>
        <time>2019-05-26T09:45:59Z</time>
      </trkpt>
      <trkpt lat="44.50883" lon="3.51261">
        <ele>1051.1999511719</ele>
        <time>2019-05-26T09:46:01Z</time>
      </trkpt>
      <trkpt lat="44.50883" lon="3.51239">
        <ele>1051.1999511719</ele>
        <time>2019-05-26T09:46:05Z</time>
      </trkpt>
      <trkpt lat="44.50881" lon="3.51231">
        <ele>1050.8000488281</ele>
        <time>2019-05-26T09:46:07Z</time>
      </trkpt>
      <trkpt lat="44.50877" lon="3.51221">
        <ele>1050.5999755859</ele>
        <time>2019-05-26T09:46:10Z</time>
      </trkpt>
      <trkpt lat="44.50875" lon="3.5121">
        <ele>1050.1999511719</ele>
        <time>2019-05-26T09:46:13Z</time>
      </trkpt>
      <trkpt lat="44.50877" lon="3.51195">
        <ele>1050.1999511719</ele>
        <time>2019-05-26T09:46:16Z</time>
      </trkpt>
      <trkpt lat="44.50875" lon="3.51176">
        <ele>1049.8000488281</ele>
        <time>2019-05-26T09:46:19Z</time>
      </trkpt>
      <trkpt lat="44.50873" lon="3.51168">
        <ele>1049.8000488281</ele>
        <time>2019-05-26T09:46:20Z</time>
      </trkpt>
      <trkpt lat="44.50872" lon="3.51151">
        <ele>1049.4000244141</ele>
        <time>2019-05-26T09:46:23Z</time>
      </trkpt>
      <trkpt lat="44.50872" lon="3.51133">
        <ele>1049.5999755859</ele>
        <time>2019-05-26T09:46:24Z</time>
      </trkpt>
      <trkpt lat="44.50876" lon="3.51109">
        <ele>1049.4000244141</ele>
        <time>2019-05-26T09:46:26Z</time>
      </trkpt>
      <trkpt lat="44.50878" lon="3.51083">
        <ele>1049.4000244141</ele>
        <time>2019-05-26T09:46:28Z</time>
      </trkpt>
      <trkpt lat="44.50879" lon="3.51075">
        <ele>1049.1999511719</ele>
        <time>2019-05-26T09:46:29Z</time>
      </trkpt>
      <trkpt lat="44.50882" lon="3.51067">
        <ele>1049</ele>
        <time>2019-05-26T09:46:30Z</time>
      </trkpt>
      <trkpt lat="44.50887" lon="3.51049">
        <ele>1048.8000488281</ele>
        <time>2019-05-26T09:46:32Z</time>
      </trkpt>
      <trkpt lat="44.50886" lon="3.5103">
        <ele>1048.8000488281</ele>
        <time>2019-05-26T09:46:34Z</time>
      </trkpt>
      <trkpt lat="44.50886" lon="3.51021">
        <ele>1048.5999755859</ele>
        <time>2019-05-26T09:46:35Z</time>
      </trkpt>
      <trkpt lat="44.50884" lon="3.51012">
        <ele>1048.5999755859</ele>
        <time>2019-05-26T09:46:36Z</time>
      </trkpt>
      <trkpt lat="44.50879" lon="3.51002">
        <ele>1048.5999755859</ele>
        <time>2019-05-26T09:46:38Z</time>
      </trkpt>
      <trkpt lat="44.50863" lon="3.50984">
        <ele>1048.4000244141</ele>
        <time>2019-05-26T09:46:44Z</time>
      </trkpt>
      <trkpt lat="44.50854" lon="3.50969">
        <ele>1048.1999511719</ele>
        <time>2019-05-26T09:46:48Z</time>
      </trkpt>
      <trkpt lat="44.50849" lon="3.50947">
        <ele>1048.4000244141</ele>
        <time>2019-05-26T09:46:52Z</time>
      </trkpt>
      <trkpt lat="44.50847" lon="3.50935">
        <ele>1048.5999755859</ele>
        <time>2019-05-26T09:46:54Z</time>
      </trkpt>
      <trkpt lat="44.50843" lon="3.50924">
        <ele>1048.5999755859</ele>
        <time>2019-05-26T09:46:56Z</time>
      </trkpt>
      <trkpt lat="44.50837" lon="3.50913">
        <ele>1048.8000488281</ele>
        <time>2019-05-26T09:46:58Z</time>
      </trkpt>
      <trkpt lat="44.50827" lon="3.50902">
        <ele>1048.8000488281</ele>
        <time>2019-05-26T09:47:01Z</time>
      </trkpt>
      <trkpt lat="44.5082" lon="3.50893">
        <ele>1049</ele>
        <time>2019-05-26T09:47:03Z</time>
      </trkpt>
      <trkpt lat="44.50817" lon="3.50889">
        <ele>1049</ele>
        <time>2019-05-26T09:47:04Z</time>
      </trkpt>
      <trkpt lat="44.50809" lon="3.5088">
        <ele>1049</ele>
        <time>2019-05-26T09:47:06Z</time>
      </trkpt>
      <trkpt lat="44.50805" lon="3.50875">
        <ele>1049</ele>
        <time>2019-05-26T09:47:07Z</time>
      </trkpt>
      <trkpt lat="44.50797" lon="3.50866">
        <ele>1049</ele>
        <time>2019-05-26T09:47:09Z</time>
      </trkpt>
      <trkpt lat="44.50788" lon="3.50858">
        <ele>1049</ele>
        <time>2019-05-26T09:47:11Z</time>
      </trkpt>
      <trkpt lat="44.50778" lon="3.50846">
        <ele>1048.8000488281</ele>
        <time>2019-05-26T09:47:14Z</time>
      </trkpt>
      <trkpt lat="44.50774" lon="3.50842">
        <ele>1048.8000488281</ele>
        <time>2019-05-26T09:47:15Z</time>
      </trkpt>
      <trkpt lat="44.5077" lon="3.50838">
        <ele>1048.8000488281</ele>
        <time>2019-05-26T09:47:16Z</time>
      </trkpt>
      <trkpt lat="44.50758" lon="3.50827">
        <ele>1048.8000488281</ele>
        <time>2019-05-26T09:47:19Z</time>
      </trkpt>
      <trkpt lat="44.50749" lon="3.50822">
        <ele>1048.8000488281</ele>
        <time>2019-05-26T09:47:21Z</time>
      </trkpt>
      <trkpt lat="44.50739" lon="3.50815">
        <ele>1049</ele>
        <time>2019-05-26T09:47:23Z</time>
      </trkpt>
      <trkpt lat="44.50727" lon="3.50804">
        <ele>1049</ele>
        <time>2019-05-26T09:47:25Z</time>
      </trkpt>
      <trkpt lat="44.50712" lon="3.50793">
        <ele>1049</ele>
        <time>2019-05-26T09:47:27Z</time>
      </trkpt>
      <trkpt lat="44.50677" lon="3.50775">
        <ele>1048.1999511719</ele>
        <time>2019-05-26T09:47:31Z</time>
      </trkpt>
      <trkpt lat="44.50632" lon="3.50761">
        <ele>1047.4000244141</ele>
        <time>2019-05-26T09:47:35Z</time>
      </trkpt>
      <trkpt lat="44.50582" lon="3.50743">
        <ele>1046.1999511719</ele>
        <time>2019-05-26T09:47:39Z</time>
      </trkpt>
      <trkpt lat="44.5057" lon="3.50741">
        <ele>1046</ele>
        <time>2019-05-26T09:47:40Z</time>
      </trkpt>
      <trkpt lat="44.50534" lon="3.50733">
        <ele>1045</ele>
        <time>2019-05-26T09:47:43Z</time>
      </trkpt>
      <trkpt lat="44.50524" lon="3.50728">
        <ele>1044.8000488281</ele>
        <time>2019-05-26T09:47:44Z</time>
      </trkpt>
      <trkpt lat="44.50517" lon="3.50722">
        <ele>1044.4000244141</ele>
        <time>2019-05-26T09:47:45Z</time>
      </trkpt>
      <trkpt lat="44.50512" lon="3.50716">
        <ele>1044.1999511719</ele>
        <time>2019-05-26T09:47:46Z</time>
      </trkpt>
      <trkpt lat="44.5051" lon="3.5071">
        <ele>1044.1999511719</ele>
        <time>2019-05-26T09:47:47Z</time>
      </trkpt>
      <trkpt lat="44.5051" lon="3.50704">
        <ele>1044</ele>
        <time>2019-05-26T09:47:48Z</time>
      </trkpt>
      <trkpt lat="44.50519" lon="3.50689">
        <ele>1043.4000244141</ele>
        <time>2019-05-26T09:47:51Z</time>
      </trkpt>
      <trkpt lat="44.5052" lon="3.50685">
        <ele>1043.1999511719</ele>
        <time>2019-05-26T09:47:52Z</time>
      </trkpt>
      <trkpt lat="44.50525" lon="3.50675">
        <ele>1042.5999755859</ele>
        <time>2019-05-26T09:47:54Z</time>
      </trkpt>
      <trkpt lat="44.5053" lon="3.5065">
        <ele>1041.4000244141</ele>
        <time>2019-05-26T09:47:58Z</time>
      </trkpt>
      <trkpt lat="44.50536" lon="3.50623">
        <ele>1040.1999511719</ele>
        <time>2019-05-26T09:48:03Z</time>
      </trkpt>
      <trkpt lat="44.50538" lon="3.50605">
        <ele>1039.4000244141</ele>
        <time>2019-05-26T09:48:06Z</time>
      </trkpt>
      <trkpt lat="44.5054" lon="3.50591">
        <ele>1039</ele>
        <time>2019-05-26T09:48:08Z</time>
      </trkpt>
      <trkpt lat="44.5054" lon="3.50578">
        <ele>1038.8000488281</ele>
        <time>2019-05-26T09:48:10Z</time>
      </trkpt>
      <trkpt lat="44.50537" lon="3.50563">
        <ele>1038.4000244141</ele>
        <time>2019-05-26T09:48:12Z</time>
      </trkpt>
      <trkpt lat="44.50533" lon="3.50545">
        <ele>1038</ele>
        <time>2019-05-26T09:48:14Z</time>
      </trkpt>
      <trkpt lat="44.50537" lon="3.50508">
        <ele>1037.1999511719</ele>
        <time>2019-05-26T09:48:18Z</time>
      </trkpt>
      <trkpt lat="44.5054" lon="3.50488">
        <ele>1036.8000488281</ele>
        <time>2019-05-26T09:48:20Z</time>
      </trkpt>
      <trkpt lat="44.50541" lon="3.50467">
        <ele>1036.5999755859</ele>
        <time>2019-05-26T09:48:22Z</time>
      </trkpt>
      <trkpt lat="44.50543" lon="3.50447">
        <ele>1036.4000244141</ele>
        <time>2019-05-26T09:48:24Z</time>
      </trkpt>
      <trkpt lat="44.50542" lon="3.50438">
        <ele>1036.1999511719</ele>
        <time>2019-05-26T09:48:25Z</time>
      </trkpt>
      <trkpt lat="44.50541" lon="3.50432">
        <ele>1036</ele>
        <time>2019-05-26T09:48:26Z</time>
      </trkpt>
      <trkpt lat="44.50535" lon="3.50423">
        <ele>1035.5999755859</ele>
        <time>2019-05-26T09:48:28Z</time>
      </trkpt>
      <trkpt lat="44.50522" lon="3.50412">
        <ele>1034.5999755859</ele>
        <time>2019-05-26T09:48:32Z</time>
      </trkpt>
      <trkpt lat="44.50516" lon="3.50388">
        <ele>1033.5999755859</ele>
        <time>2019-05-26T09:48:37Z</time>
      </trkpt>
      <trkpt lat="44.50508" lon="3.50375">
        <ele>1033</ele>
        <time>2019-05-26T09:48:40Z</time>
      </trkpt>
      <trkpt lat="44.50513" lon="3.50364">
        <ele>1032.5999755859</ele>
        <time>2019-05-26T09:48:43Z</time>
      </trkpt>
      <trkpt lat="44.50527" lon="3.50344">
        <ele>1032</ele>
        <time>2019-05-26T09:48:48Z</time>
      </trkpt>
      <trkpt lat="44.50534" lon="3.50332">
        <ele>1031.5999755859</ele>
        <time>2019-05-26T09:48:51Z</time>
      </trkpt>
      <trkpt lat="44.50537" lon="3.50327">
        <ele>1031.5999755859</ele>
        <time>2019-05-26T09:48:52Z</time>
      </trkpt>
      <trkpt lat="44.50542" lon="3.50317">
        <ele>1031.4000244141</ele>
        <time>2019-05-26T09:48:54Z</time>
      </trkpt>
      <trkpt lat="44.50549" lon="3.50304">
        <ele>1031.1999511719</ele>
        <time>2019-05-26T09:48:56Z</time>
      </trkpt>
      <trkpt lat="44.50556" lon="3.50292">
        <ele>1031</ele>
        <time>2019-05-26T09:48:58Z</time>
      </trkpt>
      <trkpt lat="44.50567" lon="3.50273">
        <ele>1030.5999755859</ele>
        <time>2019-05-26T09:49:01Z</time>
      </trkpt>
      <trkpt lat="44.50572" lon="3.50262">
        <ele>1030.4000244141</ele>
        <time>2019-05-26T09:49:03Z</time>
      </trkpt>
      <trkpt lat="44.50578" lon="3.50251">
        <ele>1030.1999511719</ele>
        <time>2019-05-26T09:49:05Z</time>
      </trkpt>
      <trkpt lat="44.50583" lon="3.50238">
        <ele>1030</ele>
        <time>2019-05-26T09:49:07Z</time>
      </trkpt>
      <trkpt lat="44.50594" lon="3.50221">
        <ele>1029.8000488281</ele>
        <time>2019-05-26T09:49:11Z</time>
      </trkpt>
      <trkpt lat="44.50608" lon="3.50203">
        <ele>1029.5999755859</ele>
        <time>2019-05-26T09:49:15Z</time>
      </trkpt>
      <trkpt lat="44.50611" lon="3.50198">
        <ele>1029.5999755859</ele>
        <time>2019-05-26T09:49:16Z</time>
      </trkpt>
      <trkpt lat="44.50615" lon="3.50193">
        <ele>1029.5999755859</ele>
        <time>2019-05-26T09:49:17Z</time>
      </trkpt>
      <trkpt lat="44.50625" lon="3.50184">
        <ele>1029.4000244141</ele>
        <time>2019-05-26T09:49:19Z</time>
      </trkpt>
      <trkpt lat="44.50634" lon="3.50177">
        <ele>1029.1999511719</ele>
        <time>2019-05-26T09:49:21Z</time>
      </trkpt>
      <trkpt lat="44.5064" lon="3.5017">
        <ele>1029</ele>
        <time>2019-05-26T09:49:23Z</time>
      </trkpt>
      <trkpt lat="44.50655" lon="3.50143">
        <ele>1028.5999755859</ele>
        <time>2019-05-26T09:49:28Z</time>
      </trkpt>
      <trkpt lat="44.50664" lon="3.50121">
        <ele>1028</ele>
        <time>2019-05-26T09:49:32Z</time>
      </trkpt>
      <trkpt lat="44.50665" lon="3.50116">
        <ele>1027.8000488281</ele>
        <time>2019-05-26T09:49:33Z</time>
      </trkpt>
      <trkpt lat="44.50669" lon="3.5011">
        <ele>1027.4000244141</ele>
        <time>2019-05-26T09:49:35Z</time>
      </trkpt>
      <trkpt lat="44.5067" lon="3.50108">
        <ele>1027</ele>
        <time>2019-05-26T09:49:36Z</time>
      </trkpt>
      <trkpt lat="44.50671" lon="3.50091">
        <ele>1025.4000244141</ele>
        <time>2019-05-26T09:49:46Z</time>
      </trkpt>
      <trkpt lat="44.50671" lon="3.50088">
        <ele>1025</ele>
        <time>2019-05-26T09:49:48Z</time>
      </trkpt>
      <trkpt lat="44.50675" lon="3.50079">
        <ele>1024.4000244141</ele>
        <time>2019-05-26T09:49:54Z</time>
      </trkpt>
      <trkpt lat="44.50679" lon="3.50075">
        <ele>1024.4000244141</ele>
        <time>2019-05-26T09:49:56Z</time>
      </trkpt>
      <trkpt lat="44.50682" lon="3.50071">
        <ele>1024.4000244141</ele>
        <time>2019-05-26T09:49:58Z</time>
      </trkpt>
      <trkpt lat="44.50685" lon="3.50069">
        <ele>1024.1999511719</ele>
        <time>2019-05-26T09:50:00Z</time>
      </trkpt>
      <trkpt lat="44.50691" lon="3.50069">
        <ele>1023.799987793</ele>
        <time>2019-05-26T09:50:03Z</time>
      </trkpt>
      <trkpt lat="44.50699" lon="3.50066">
        <ele>1023.5999755859</ele>
        <time>2019-05-26T09:50:06Z</time>
      </trkpt>
      <trkpt lat="44.50701" lon="3.50066">
        <ele>1023.4000244141</ele>
        <time>2019-05-26T09:50:07Z</time>
      </trkpt>
      <trkpt lat="44.50705" lon="3.50064">
        <ele>1022.799987793</ele>
        <time>2019-05-26T09:50:09Z</time>
      </trkpt>
      <trkpt lat="44.50711" lon="3.5006">
        <ele>1022.5999755859</ele>
        <time>2019-05-26T09:50:11Z</time>
      </trkpt>
      <trkpt lat="44.50714" lon="3.50058">
        <ele>1022.5999755859</ele>
        <time>2019-05-26T09:50:13Z</time>
      </trkpt>
      <trkpt lat="44.50736" lon="3.50048">
        <ele>1020.799987793</ele>
        <time>2019-05-26T09:50:23Z</time>
      </trkpt>
      <trkpt lat="44.50744" lon="3.50045">
        <ele>1020.799987793</ele>
        <time>2019-05-26T09:50:25Z</time>
      </trkpt>
      <trkpt lat="44.50745" lon="3.50045">
        <ele>1020.799987793</ele>
        <time>2019-05-26T09:50:26Z</time>
      </trkpt>
      <trkpt lat="44.50747" lon="3.50045">
        <ele>1020.799987793</ele>
        <time>2019-05-26T09:50:27Z</time>
      </trkpt>
      <trkpt lat="44.50749" lon="3.5005">
        <ele>1021</ele>
        <time>2019-05-26T09:50:29Z</time>
      </trkpt>
      <trkpt lat="44.5075" lon="3.50053">
        <ele>1021</ele>
        <time>2019-05-26T09:50:30Z</time>
      </trkpt>
      <trkpt lat="44.50753" lon="3.50061">
        <ele>1020.5999755859</ele>
        <time>2019-05-26T09:50:34Z</time>
      </trkpt>
      <trkpt lat="44.50825" lon="3.49953">
        <ele>1023</ele>
        <time>2019-05-26T09:52:24Z</time>
      </trkpt>
      <trkpt lat="44.50836" lon="3.49944">
        <ele>1023.4000244141</ele>
        <time>2019-05-26T09:52:30Z</time>
      </trkpt>
      <trkpt lat="44.50847" lon="3.49929">
        <ele>1023.799987793</ele>
        <time>2019-05-26T09:52:35Z</time>
      </trkpt>
      <trkpt lat="44.50852" lon="3.49911">
        <ele>1023.799987793</ele>
        <time>2019-05-26T09:52:40Z</time>
      </trkpt>
      <trkpt lat="44.50853" lon="3.49904">
        <ele>1024</ele>
        <time>2019-05-26T09:52:43Z</time>
      </trkpt>
      <trkpt lat="44.50853" lon="3.499">
        <ele>1024.1999511719</ele>
        <time>2019-05-26T09:52:45Z</time>
      </trkpt>
      <trkpt lat="44.50853" lon="3.49895">
        <ele>1024.4000244141</ele>
        <time>2019-05-26T09:52:47Z</time>
      </trkpt>
      <trkpt lat="44.50852" lon="3.49892">
        <ele>1024.4000244141</ele>
        <time>2019-05-26T09:52:49Z</time>
      </trkpt>
      <trkpt lat="44.50844" lon="3.49869">
        <ele>1025.4000244141</ele>
        <time>2019-05-26T09:53:00Z</time>
      </trkpt>
      <trkpt lat="44.50844" lon="3.49866">
        <ele>1025.4000244141</ele>
        <time>2019-05-26T09:53:01Z</time>
      </trkpt>
      <trkpt lat="44.50844" lon="3.49865">
        <ele>1025.4000244141</ele>
        <time>2019-05-26T09:53:02Z</time>
      </trkpt>
      <trkpt lat="44.50843" lon="3.49861">
        <ele>1025.5999755859</ele>
        <time>2019-05-26T09:53:04Z</time>
      </trkpt>
      <trkpt lat="44.50841" lon="3.49857">
        <ele>1025.8000488281</ele>
        <time>2019-05-26T09:53:06Z</time>
      </trkpt>
      <trkpt lat="44.50835" lon="3.49843">
        <ele>1026.8000488281</ele>
        <time>2019-05-26T09:53:11Z</time>
      </trkpt>
      <trkpt lat="44.50833" lon="3.49831">
        <ele>1027.4000244141</ele>
        <time>2019-05-26T09:53:15Z</time>
      </trkpt>
      <trkpt lat="44.50833" lon="3.49813">
        <ele>1028.1999511719</ele>
        <time>2019-05-26T09:53:21Z</time>
      </trkpt>
      <trkpt lat="44.50837" lon="3.49796">
        <ele>1028.8000488281</ele>
        <time>2019-05-26T09:53:26Z</time>
      </trkpt>
      <trkpt lat="44.5084" lon="3.49783">
        <ele>1029.1999511719</ele>
        <time>2019-05-26T09:53:30Z</time>
      </trkpt>
      <trkpt lat="44.50841" lon="3.49781">
        <ele>1029.1999511719</ele>
        <time>2019-05-26T09:53:31Z</time>
      </trkpt>
      <trkpt lat="44.50866" lon="3.49704">
        <ele>1034.8000488281</ele>
        <time>2019-05-26T09:54:13Z</time>
      </trkpt>
      <trkpt lat="44.50867" lon="3.49701">
        <ele>1035.1999511719</ele>
        <time>2019-05-26T09:54:15Z</time>
      </trkpt>
      <trkpt lat="44.50947" lon="3.4957">
        <ele>1056.8000488281</ele>
        <time>2019-05-26T09:55:48Z</time>
      </trkpt>
      <trkpt lat="44.50949" lon="3.49567">
        <ele>1057</ele>
        <time>2019-05-26T09:55:50Z</time>
      </trkpt>
      <trkpt lat="44.50953" lon="3.49562">
        <ele>1057</ele>
        <time>2019-05-26T09:55:53Z</time>
      </trkpt>
      <trkpt lat="44.50954" lon="3.49561">
        <ele>1057.1999511719</ele>
        <time>2019-05-26T09:55:54Z</time>
      </trkpt>
      <trkpt lat="44.50956" lon="3.49557">
        <ele>1057.5999755859</ele>
        <time>2019-05-26T09:55:56Z</time>
      </trkpt>
      <trkpt lat="44.50958" lon="3.49554">
        <ele>1057.8000488281</ele>
        <time>2019-05-26T09:55:58Z</time>
      </trkpt>
      <trkpt lat="44.50996" lon="3.49499">
        <ele>1063.4000244141</ele>
        <time>2019-05-26T09:56:38Z</time>
      </trkpt>
      <trkpt lat="44.51001" lon="3.49492">
        <ele>1064</ele>
        <time>2019-05-26T09:56:43Z</time>
      </trkpt>
      <trkpt lat="44.51007" lon="3.49484">
        <ele>1064.4000244141</ele>
        <time>2019-05-26T09:56:49Z</time>
      </trkpt>
      <trkpt lat="44.51013" lon="3.49473">
        <ele>1064.1999511719</ele>
        <time>2019-05-26T09:56:55Z</time>
      </trkpt>
      <trkpt lat="44.51016" lon="3.49463">
        <ele>1064.1999511719</ele>
        <time>2019-05-26T09:57:01Z</time>
      </trkpt>
      <trkpt lat="44.5102" lon="3.4945">
        <ele>1064.1999511719</ele>
        <time>2019-05-26T09:57:05Z</time>
      </trkpt>
      <trkpt lat="44.51021" lon="3.49447">
        <ele>1064.1999511719</ele>
        <time>2019-05-26T09:57:06Z</time>
      </trkpt>
      <trkpt lat="44.51025" lon="3.49432">
        <ele>1063.5999755859</ele>
        <time>2019-05-26T09:57:11Z</time>
      </trkpt>
      <trkpt lat="44.51036" lon="3.4942">
        <ele>1063.8000488281</ele>
        <time>2019-05-26T09:57:18Z</time>
      </trkpt>
      <trkpt lat="44.51043" lon="3.49413">
        <ele>1064.4000244141</ele>
        <time>2019-05-26T09:57:23Z</time>
      </trkpt>
      <trkpt lat="44.51051" lon="3.49402">
        <ele>1064.8000488281</ele>
        <time>2019-05-26T09:57:31Z</time>
      </trkpt>
      <trkpt lat="44.51052" lon="3.49401">
        <ele>1064.8000488281</ele>
        <time>2019-05-26T09:57:32Z</time>
      </trkpt>
      <trkpt lat="44.51052" lon="3.494">
        <ele>1068.4000244141</ele>
        <time>2019-05-26T10:05:04Z</time>
      </trkpt>
      <trkpt lat="44.5105" lon="3.494">
        <ele>1068.4000244141</ele>
        <time>2019-05-26T10:05:05Z</time>
      </trkpt>
      <trkpt lat="44.51039" lon="3.49399">
        <ele>1068</ele>
        <time>2019-05-26T10:05:10Z</time>
      </trkpt>
      <trkpt lat="44.51027" lon="3.49384">
        <ele>1067.8000488281</ele>
        <time>2019-05-26T10:05:15Z</time>
      </trkpt>
      <trkpt lat="44.51016" lon="3.49367">
        <ele>1067.5999755859</ele>
        <time>2019-05-26T10:05:18Z</time>
      </trkpt>
      <trkpt lat="44.51011" lon="3.4936">
        <ele>1067.4000244141</ele>
        <time>2019-05-26T10:05:19Z</time>
      </trkpt>
      <trkpt lat="44.51007" lon="3.49351">
        <ele>1067.4000244141</ele>
        <time>2019-05-26T10:05:20Z</time>
      </trkpt>
      <trkpt lat="44.51001" lon="3.49339">
        <ele>1067</ele>
        <time>2019-05-26T10:05:22Z</time>
      </trkpt>
      <trkpt lat="44.50995" lon="3.49323">
        <ele>1066</ele>
        <time>2019-05-26T10:05:26Z</time>
      </trkpt>
      <trkpt lat="44.50991" lon="3.49307">
        <ele>1064.8000488281</ele>
        <time>2019-05-26T10:05:30Z</time>
      </trkpt>
      <trkpt lat="44.50986" lon="3.49286">
        <ele>1064</ele>
        <time>2019-05-26T10:05:34Z</time>
      </trkpt>
      <trkpt lat="44.50986" lon="3.49282">
        <ele>1063.8000488281</ele>
        <time>2019-05-26T10:05:35Z</time>
      </trkpt>
      <trkpt lat="44.50985" lon="3.49267">
        <ele>1063</ele>
        <time>2019-05-26T10:05:38Z</time>
      </trkpt>
      <trkpt lat="44.5098" lon="3.49248">
        <ele>1062.1999511719</ele>
        <time>2019-05-26T10:05:41Z</time>
      </trkpt>
      <trkpt lat="44.50978" lon="3.49241">
        <ele>1061.8000488281</ele>
        <time>2019-05-26T10:05:42Z</time>
      </trkpt>
      <trkpt lat="44.50978" lon="3.49232">
        <ele>1061.5999755859</ele>
        <time>2019-05-26T10:05:43Z</time>
      </trkpt>
      <trkpt lat="44.5098" lon="3.49214">
        <ele>1061</ele>
        <time>2019-05-26T10:05:45Z</time>
      </trkpt>
      <trkpt lat="44.50982" lon="3.49186">
        <ele>1060.4000244141</ele>
        <time>2019-05-26T10:05:48Z</time>
      </trkpt>
      <trkpt lat="44.50983" lon="3.49178">
        <ele>1060.4000244141</ele>
        <time>2019-05-26T10:05:49Z</time>
      </trkpt>
      <trkpt lat="44.50983" lon="3.49154">
        <ele>1060</ele>
        <time>2019-05-26T10:05:52Z</time>
      </trkpt>
      <trkpt lat="44.50986" lon="3.49139">
        <ele>1059.5999755859</ele>
        <time>2019-05-26T10:05:54Z</time>
      </trkpt>
      <trkpt lat="44.5099" lon="3.49112">
        <ele>1059</ele>
        <time>2019-05-26T10:05:57Z</time>
      </trkpt>
      <trkpt lat="44.50994" lon="3.49095">
        <ele>1058.5999755859</ele>
        <time>2019-05-26T10:05:59Z</time>
      </trkpt>
      <trkpt lat="44.50998" lon="3.49077">
        <ele>1058.1999511719</ele>
        <time>2019-05-26T10:06:01Z</time>
      </trkpt>
      <trkpt lat="44.50998" lon="3.49067">
        <ele>1057.8000488281</ele>
        <time>2019-05-26T10:06:02Z</time>
      </trkpt>
      <trkpt lat="44.50995" lon="3.49058">
        <ele>1057.5999755859</ele>
        <time>2019-05-26T10:06:03Z</time>
      </trkpt>
      <trkpt lat="44.50989" lon="3.49041">
        <ele>1057.1999511719</ele>
        <time>2019-05-26T10:06:05Z</time>
      </trkpt>
      <trkpt lat="44.50988" lon="3.49032">
        <ele>1057</ele>
        <time>2019-05-26T10:06:06Z</time>
      </trkpt>
      <trkpt lat="44.50981" lon="3.49007">
        <ele>1056.1999511719</ele>
        <time>2019-05-26T10:06:09Z</time>
      </trkpt>
      <trkpt lat="44.50978" lon="3.49">
        <ele>1056</ele>
        <time>2019-05-26T10:06:10Z</time>
      </trkpt>
      <trkpt lat="44.50977" lon="3.48992">
        <ele>1055.8000488281</ele>
        <time>2019-05-26T10:06:11Z</time>
      </trkpt>
      <trkpt lat="44.5098" lon="3.48973">
        <ele>1055.1999511719</ele>
        <time>2019-05-26T10:06:13Z</time>
      </trkpt>
      <trkpt lat="44.5099" lon="3.48931">
        <ele>1054</ele>
        <time>2019-05-26T10:06:17Z</time>
      </trkpt>
      <trkpt lat="44.51006" lon="3.48905">
        <ele>1053</ele>
        <time>2019-05-26T10:06:20Z</time>
      </trkpt>
      <trkpt lat="44.51014" lon="3.4888">
        <ele>1051.8000488281</ele>
        <time>2019-05-26T10:06:23Z</time>
      </trkpt>
      <trkpt lat="44.51012" lon="3.48866">
        <ele>1051</ele>
        <time>2019-05-26T10:06:25Z</time>
      </trkpt>
      <trkpt lat="44.51009" lon="3.48859">
        <ele>1050.4000244141</ele>
        <time>2019-05-26T10:06:26Z</time>
      </trkpt>
      <trkpt lat="44.50994" lon="3.4882">
        <ele>1048.1999511719</ele>
        <time>2019-05-26T10:06:31Z</time>
      </trkpt>
      <trkpt lat="44.50992" lon="3.48792">
        <ele>1046.5999755859</ele>
        <time>2019-05-26T10:06:34Z</time>
      </trkpt>
      <trkpt lat="44.50985" lon="3.48766">
        <ele>1045.1999511719</ele>
        <time>2019-05-26T10:06:37Z</time>
      </trkpt>
      <trkpt lat="44.50977" lon="3.48746">
        <ele>1044.4000244141</ele>
        <time>2019-05-26T10:06:39Z</time>
      </trkpt>
      <trkpt lat="44.50974" lon="3.48727">
        <ele>1043.4000244141</ele>
        <time>2019-05-26T10:06:41Z</time>
      </trkpt>
      <trkpt lat="44.50977" lon="3.48715">
        <ele>1042.5999755859</ele>
        <time>2019-05-26T10:06:43Z</time>
      </trkpt>
      <trkpt lat="44.50985" lon="3.48708">
        <ele>1041.8000488281</ele>
        <time>2019-05-26T10:06:45Z</time>
      </trkpt>
      <trkpt lat="44.50993" lon="3.48696">
        <ele>1041</ele>
        <time>2019-05-26T10:06:47Z</time>
      </trkpt>
      <trkpt lat="44.50997" lon="3.48688">
        <ele>1040.5999755859</ele>
        <time>2019-05-26T10:06:48Z</time>
      </trkpt>
      <trkpt lat="44.51003" lon="3.48674">
        <ele>1040.1999511719</ele>
        <time>2019-05-26T10:06:50Z</time>
      </trkpt>
      <trkpt lat="44.51011" lon="3.48654">
        <ele>1039.1999511719</ele>
        <time>2019-05-26T10:06:54Z</time>
      </trkpt>
      <trkpt lat="44.51011" lon="3.48651">
        <ele>1039</ele>
        <time>2019-05-26T10:06:55Z</time>
      </trkpt>
      <trkpt lat="44.51009" lon="3.48644">
        <ele>1038.4000244141</ele>
        <time>2019-05-26T10:06:57Z</time>
      </trkpt>
      <trkpt lat="44.5101" lon="3.48622">
        <ele>1037.5999755859</ele>
        <time>2019-05-26T10:07:01Z</time>
      </trkpt>
      <trkpt lat="44.51012" lon="3.48602">
        <ele>1037</ele>
        <time>2019-05-26T10:07:04Z</time>
      </trkpt>
      <trkpt lat="44.51013" lon="3.48586">
        <ele>1036.8000488281</ele>
        <time>2019-05-26T10:07:06Z</time>
      </trkpt>
      <trkpt lat="44.51017" lon="3.48546">
        <ele>1036</ele>
        <time>2019-05-26T10:07:10Z</time>
      </trkpt>
      <trkpt lat="44.51021" lon="3.48517">
        <ele>1035.4000244141</ele>
        <time>2019-05-26T10:07:14Z</time>
      </trkpt>
      <trkpt lat="44.51023" lon="3.48499">
        <ele>1034.5999755859</ele>
        <time>2019-05-26T10:07:18Z</time>
      </trkpt>
      <trkpt lat="44.51022" lon="3.48483">
        <ele>1033.1999511719</ele>
        <time>2019-05-26T10:07:23Z</time>
      </trkpt>
      <trkpt lat="44.51022" lon="3.48467">
        <ele>1031.4000244141</ele>
        <time>2019-05-26T10:07:28Z</time>
      </trkpt>
      <trkpt lat="44.51022" lon="3.48458">
        <ele>1030.4000244141</ele>
        <time>2019-05-26T10:07:31Z</time>
      </trkpt>
      <trkpt lat="44.51023" lon="3.48452">
        <ele>1029.5999755859</ele>
        <time>2019-05-26T10:07:33Z</time>
      </trkpt>
      <trkpt lat="44.51022" lon="3.48451">
        <ele>1029.1999511719</ele>
        <time>2019-05-26T10:07:34Z</time>
      </trkpt>
      <trkpt lat="44.51023" lon="3.48415">
        <ele>1023.200012207</ele>
        <time>2019-05-26T10:07:49Z</time>
      </trkpt>
      <trkpt lat="44.51025" lon="3.48409">
        <ele>1022.5999755859</ele>
        <time>2019-05-26T10:07:51Z</time>
      </trkpt>
      <trkpt lat="44.51027" lon="3.48405">
        <ele>1022</ele>
        <time>2019-05-26T10:07:53Z</time>
      </trkpt>
      <trkpt lat="44.51028" lon="3.48398">
        <ele>1021.200012207</ele>
        <time>2019-05-26T10:07:56Z</time>
      </trkpt>
      <trkpt lat="44.5096" lon="3.48168">
        <ele>1040.1999511719</ele>
        <time>2019-05-26T10:10:40Z</time>
      </trkpt>
      <trkpt lat="44.50958" lon="3.48166">
        <ele>1040.5999755859</ele>
        <time>2019-05-26T10:10:42Z</time>
      </trkpt>
      <trkpt lat="44.50955" lon="3.48162">
        <ele>1041.1999511719</ele>
        <time>2019-05-26T10:10:45Z</time>
      </trkpt>
      <trkpt lat="44.5095" lon="3.48154">
        <ele>1042.1999511719</ele>
        <time>2019-05-26T10:10:51Z</time>
      </trkpt>
      <trkpt lat="44.50945" lon="3.48147">
        <ele>1043.1999511719</ele>
        <time>2019-05-26T10:10:56Z</time>
      </trkpt>
      <trkpt lat="44.50938" lon="3.4814">
        <ele>1044.5999755859</ele>
        <time>2019-05-26T10:11:02Z</time>
      </trkpt>
      <trkpt lat="44.50935" lon="3.48137">
        <ele>1045.1999511719</ele>
        <time>2019-05-26T10:11:05Z</time>
      </trkpt>
      <trkpt lat="44.50932" lon="3.48133">
        <ele>1045.5999755859</ele>
        <time>2019-05-26T10:11:07Z</time>
      </trkpt>
      <trkpt lat="44.50924" lon="3.4812">
        <ele>1047</ele>
        <time>2019-05-26T10:11:14Z</time>
      </trkpt>
      <trkpt lat="44.50921" lon="3.48114">
        <ele>1047.8000488281</ele>
        <time>2019-05-26T10:11:17Z</time>
      </trkpt>
      <trkpt lat="44.50916" lon="3.48109">
        <ele>1048.1999511719</ele>
        <time>2019-05-26T10:11:20Z</time>
      </trkpt>
      <trkpt lat="44.50903" lon="3.48092">
        <ele>1049.4000244141</ele>
        <time>2019-05-26T10:11:27Z</time>
      </trkpt>
      <trkpt lat="44.50889" lon="3.48077">
        <ele>1050.1999511719</ele>
        <time>2019-05-26T10:11:32Z</time>
      </trkpt>
      <trkpt lat="44.50865" lon="3.48053">
        <ele>1050.8000488281</ele>
        <time>2019-05-26T10:11:39Z</time>
      </trkpt>
      <trkpt lat="44.50858" lon="3.48044">
        <ele>1051</ele>
        <time>2019-05-26T10:11:41Z</time>
      </trkpt>
      <trkpt lat="44.50848" lon="3.48037">
        <ele>1051.1999511719</ele>
        <time>2019-05-26T10:11:43Z</time>
      </trkpt>
      <trkpt lat="44.50835" lon="3.4803">
        <ele>1051.1999511719</ele>
        <time>2019-05-26T10:11:45Z</time>
      </trkpt>
      <trkpt lat="44.50821" lon="3.48025">
        <ele>1051.4000244141</ele>
        <time>2019-05-26T10:11:47Z</time>
      </trkpt>
      <trkpt lat="44.50792" lon="3.48015">
        <ele>1051.8000488281</ele>
        <time>2019-05-26T10:11:51Z</time>
      </trkpt>
      <trkpt lat="44.50785" lon="3.4801">
        <ele>1051.8000488281</ele>
        <time>2019-05-26T10:11:52Z</time>
      </trkpt>
      <trkpt lat="44.50773" lon="3.47996">
        <ele>1051.8000488281</ele>
        <time>2019-05-26T10:11:54Z</time>
      </trkpt>
      <trkpt lat="44.50767" lon="3.47978">
        <ele>1052</ele>
        <time>2019-05-26T10:11:56Z</time>
      </trkpt>
      <trkpt lat="44.50766" lon="3.47971">
        <ele>1052</ele>
        <time>2019-05-26T10:11:57Z</time>
      </trkpt>
      <trkpt lat="44.50767" lon="3.47965">
        <ele>1052</ele>
        <time>2019-05-26T10:11:58Z</time>
      </trkpt>
      <trkpt lat="44.5077" lon="3.4796">
        <ele>1051.8000488281</ele>
        <time>2019-05-26T10:12:00Z</time>
      </trkpt>
      <trkpt lat="44.50772" lon="3.47959">
        <ele>1051.8000488281</ele>
        <time>2019-05-26T10:12:02Z</time>
      </trkpt>
      <trkpt lat="44.50776" lon="3.47956">
        <ele>1051.8000488281</ele>
        <time>2019-05-26T10:12:04Z</time>
      </trkpt>
      <trkpt lat="44.50782" lon="3.47947">
        <ele>1051.5999755859</ele>
        <time>2019-05-26T10:12:06Z</time>
      </trkpt>
      <trkpt lat="44.50784" lon="3.4794">
        <ele>1051.5999755859</ele>
        <time>2019-05-26T10:12:07Z</time>
      </trkpt>
      <trkpt lat="44.50788" lon="3.47931">
        <ele>1051.1999511719</ele>
        <time>2019-05-26T10:12:08Z</time>
      </trkpt>
      <trkpt lat="44.50799" lon="3.47904">
        <ele>1050.4000244141</ele>
        <time>2019-05-26T10:12:11Z</time>
      </trkpt>
      <trkpt lat="44.50808" lon="3.47889">
        <ele>1050</ele>
        <time>2019-05-26T10:12:13Z</time>
      </trkpt>
      <trkpt lat="44.50811" lon="3.47885">
        <ele>1049.8000488281</ele>
        <time>2019-05-26T10:12:14Z</time>
      </trkpt>
      <trkpt lat="44.50814" lon="3.47883">
        <ele>1049.5999755859</ele>
        <time>2019-05-26T10:12:15Z</time>
      </trkpt>
      <trkpt lat="44.5082" lon="3.47886">
        <ele>1049</ele>
        <time>2019-05-26T10:12:17Z</time>
      </trkpt>
      <trkpt lat="44.50822" lon="3.47886">
        <ele>1048.8000488281</ele>
        <time>2019-05-26T10:12:18Z</time>
      </trkpt>
      <trkpt lat="44.50824" lon="3.4788">
        <ele>1048.1999511719</ele>
        <time>2019-05-26T10:12:20Z</time>
      </trkpt>
      <trkpt lat="44.50825" lon="3.47866">
        <ele>1047.1999511719</ele>
        <time>2019-05-26T10:12:23Z</time>
      </trkpt>
      <trkpt lat="44.50825" lon="3.47861">
        <ele>1046.8000488281</ele>
        <time>2019-05-26T10:12:24Z</time>
      </trkpt>
      <trkpt lat="44.50827" lon="3.47857">
        <ele>1046.1999511719</ele>
        <time>2019-05-26T10:12:26Z</time>
      </trkpt>
      <trkpt lat="44.50828" lon="3.47858">
        <ele>1045.5999755859</ele>
        <time>2019-05-26T10:12:28Z</time>
      </trkpt>
      <trkpt lat="44.50829" lon="3.47861">
        <ele>1045.4000244141</ele>
        <time>2019-05-26T10:12:29Z</time>
      </trkpt>
      <trkpt lat="44.50832" lon="3.4787">
        <ele>1044.8000488281</ele>
        <time>2019-05-26T10:12:31Z</time>
      </trkpt>
      <trkpt lat="44.50835" lon="3.47874">
        <ele>1044.5999755859</ele>
        <time>2019-05-26T10:12:32Z</time>
      </trkpt>
      <trkpt lat="44.50836" lon="3.47879">
        <ele>1044.1999511719</ele>
        <time>2019-05-26T10:12:33Z</time>
      </trkpt>
      <trkpt lat="44.50836" lon="3.47891">
        <ele>1043.5999755859</ele>
        <time>2019-05-26T10:12:35Z</time>
      </trkpt>
      <trkpt lat="44.50836" lon="3.47905">
        <ele>1042.8000488281</ele>
        <time>2019-05-26T10:12:37Z</time>
      </trkpt>
      <trkpt lat="44.50838" lon="3.47916">
        <ele>1042</ele>
        <time>2019-05-26T10:12:39Z</time>
      </trkpt>
      <trkpt lat="44.50843" lon="3.47927">
        <ele>1041</ele>
        <time>2019-05-26T10:12:41Z</time>
      </trkpt>
      <trkpt lat="44.50847" lon="3.47941">
        <ele>1040</ele>
        <time>2019-05-26T10:12:43Z</time>
      </trkpt>
      <trkpt lat="44.50855" lon="3.47952">
        <ele>1039</ele>
        <time>2019-05-26T10:12:45Z</time>
      </trkpt>
      <trkpt lat="44.5086" lon="3.47957">
        <ele>1038.5999755859</ele>
        <time>2019-05-26T10:12:46Z</time>
      </trkpt>
      <trkpt lat="44.50864" lon="3.47961">
        <ele>1038.1999511719</ele>
        <time>2019-05-26T10:12:47Z</time>
      </trkpt>
      <trkpt lat="44.50871" lon="3.4797">
        <ele>1037.1999511719</ele>
        <time>2019-05-26T10:12:49Z</time>
      </trkpt>
      <trkpt lat="44.5088" lon="3.47981">
        <ele>1036.1999511719</ele>
        <time>2019-05-26T10:12:51Z</time>
      </trkpt>
      <trkpt lat="44.5089" lon="3.4799">
        <ele>1035.4000244141</ele>
        <time>2019-05-26T10:12:53Z</time>
      </trkpt>
      <trkpt lat="44.50906" lon="3.48003">
        <ele>1034.1999511719</ele>
        <time>2019-05-26T10:12:56Z</time>
      </trkpt>
      <trkpt lat="44.50913" lon="3.48005">
        <ele>1033.8000488281</ele>
        <time>2019-05-26T10:12:57Z</time>
      </trkpt>
      <trkpt lat="44.5094" lon="3.48006">
        <ele>1031.5999755859</ele>
        <time>2019-05-26T10:13:02Z</time>
      </trkpt>
      <trkpt lat="44.50945" lon="3.48008">
        <ele>1031</ele>
        <time>2019-05-26T10:13:03Z</time>
      </trkpt>
      <trkpt lat="44.50956" lon="3.48016">
        <ele>1029.8000488281</ele>
        <time>2019-05-26T10:13:05Z</time>
      </trkpt>
      <trkpt lat="44.50975" lon="3.48032">
        <ele>1027.5999755859</ele>
        <time>2019-05-26T10:13:09Z</time>
      </trkpt>
      <trkpt lat="44.50984" lon="3.48047">
        <ele>1026</ele>
        <time>2019-05-26T10:13:12Z</time>
      </trkpt>
      <trkpt lat="44.50989" lon="3.48067">
        <ele>1023.799987793</ele>
        <time>2019-05-26T10:13:16Z</time>
      </trkpt>
      <trkpt lat="44.50992" lon="3.48072">
        <ele>1023.200012207</ele>
        <time>2019-05-26T10:13:17Z</time>
      </trkpt>
      <trkpt lat="44.51" lon="3.48084">
        <ele>1022.200012207</ele>
        <time>2019-05-26T10:13:19Z</time>
      </trkpt>
      <trkpt lat="44.51011" lon="3.48094">
        <ele>1021.200012207</ele>
        <time>2019-05-26T10:13:21Z</time>
      </trkpt>
      <trkpt lat="44.51014" lon="3.481">
        <ele>1020.5999755859</ele>
        <time>2019-05-26T10:13:22Z</time>
      </trkpt>
      <trkpt lat="44.51022" lon="3.48115">
        <ele>1019</ele>
        <time>2019-05-26T10:13:25Z</time>
      </trkpt>
      <trkpt lat="44.51029" lon="3.48116">
        <ele>1017.4000244141</ele>
        <time>2019-05-26T10:13:28Z</time>
      </trkpt>
      <trkpt lat="44.51031" lon="3.48101">
        <ele>1015</ele>
        <time>2019-05-26T10:13:32Z</time>
      </trkpt>
      <trkpt lat="44.51029" lon="3.4809">
        <ele>1013.5999755859</ele>
        <time>2019-05-26T10:13:34Z</time>
      </trkpt>
      <trkpt lat="44.51026" lon="3.48085">
        <ele>1012.799987793</ele>
        <time>2019-05-26T10:13:35Z</time>
      </trkpt>
      <trkpt lat="44.51023" lon="3.48079">
        <ele>1012.200012207</ele>
        <time>2019-05-26T10:13:36Z</time>
      </trkpt>
      <trkpt lat="44.51015" lon="3.48058">
        <ele>1010.200012207</ele>
        <time>2019-05-26T10:13:39Z</time>
      </trkpt>
      <trkpt lat="44.51011" lon="3.48051">
        <ele>1009.5999755859</ele>
        <time>2019-05-26T10:13:40Z</time>
      </trkpt>
      <trkpt lat="44.51008" lon="3.48042">
        <ele>1009</ele>
        <time>2019-05-26T10:13:41Z</time>
      </trkpt>
      <trkpt lat="44.51006" lon="3.48027">
        <ele>1007.5999755859</ele>
        <time>2019-05-26T10:13:43Z</time>
      </trkpt>
      <trkpt lat="44.50996" lon="3.48005">
        <ele>1005.4000244141</ele>
        <time>2019-05-26T10:13:46Z</time>
      </trkpt>
      <trkpt lat="44.50991" lon="3.47996">
        <ele>1004.799987793</ele>
        <time>2019-05-26T10:13:47Z</time>
      </trkpt>
      <trkpt lat="44.50977" lon="3.4797">
        <ele>1002.799987793</ele>
        <time>2019-05-26T10:13:50Z</time>
      </trkpt>
      <trkpt lat="44.50973" lon="3.47964">
        <ele>1002.200012207</ele>
        <time>2019-05-26T10:13:51Z</time>
      </trkpt>
      <trkpt lat="44.50969" lon="3.47961">
        <ele>1001.4000244141</ele>
        <time>2019-05-26T10:13:52Z</time>
      </trkpt>
      <trkpt lat="44.50959" lon="3.47957">
        <ele>1000.200012207</ele>
        <time>2019-05-26T10:13:54Z</time>
      </trkpt>
      <trkpt lat="44.50949" lon="3.47956">
        <ele>998.59997558594</ele>
        <time>2019-05-26T10:13:56Z</time>
      </trkpt>
      <trkpt lat="44.5094" lon="3.47952">
        <ele>997.20001220703</ele>
        <time>2019-05-26T10:13:58Z</time>
      </trkpt>
      <trkpt lat="44.50933" lon="3.47943">
        <ele>995.59997558594</ele>
        <time>2019-05-26T10:14:00Z</time>
      </trkpt>
      <trkpt lat="44.5093" lon="3.47937">
        <ele>994.79998779297</ele>
        <time>2019-05-26T10:14:01Z</time>
      </trkpt>
      <trkpt lat="44.50928" lon="3.47931">
        <ele>994.20001220703</ele>
        <time>2019-05-26T10:14:02Z</time>
      </trkpt>
      <trkpt lat="44.50924" lon="3.47918">
        <ele>992.59997558594</ele>
        <time>2019-05-26T10:14:04Z</time>
      </trkpt>
      <trkpt lat="44.50916" lon="3.4789">
        <ele>989.40002441406</ele>
        <time>2019-05-26T10:14:08Z</time>
      </trkpt>
      <trkpt lat="44.5092" lon="3.47872">
        <ele>987.40002441406</ele>
        <time>2019-05-26T10:14:11Z</time>
      </trkpt>
      <trkpt lat="44.50924" lon="3.47862">
        <ele>986</ele>
        <time>2019-05-26T10:14:13Z</time>
      </trkpt>
      <trkpt lat="44.50923" lon="3.47858">
        <ele>985.20001220703</ele>
        <time>2019-05-26T10:14:14Z</time>
      </trkpt>
      <trkpt lat="44.50922" lon="3.47854">
        <ele>984.59997558594</ele>
        <time>2019-05-26T10:14:15Z</time>
      </trkpt>
      <trkpt lat="44.50915" lon="3.47849">
        <ele>983</ele>
        <time>2019-05-26T10:14:17Z</time>
      </trkpt>
      <trkpt lat="44.50898" lon="3.47826">
        <ele>980.79998779297</ele>
        <time>2019-05-26T10:14:22Z</time>
      </trkpt>
      <trkpt lat="44.509" lon="3.47805">
        <ele>980.40002441406</ele>
        <time>2019-05-26T10:14:25Z</time>
      </trkpt>
      <trkpt lat="44.50908" lon="3.47785">
        <ele>978.20001220703</ele>
        <time>2019-05-26T10:14:29Z</time>
      </trkpt>
      <trkpt lat="44.50908" lon="3.47777">
        <ele>977.20001220703</ele>
        <time>2019-05-26T10:14:31Z</time>
      </trkpt>
      <trkpt lat="44.50907" lon="3.47769">
        <ele>977.20001220703</ele>
        <time>2019-05-26T10:14:32Z</time>
      </trkpt>
      <trkpt lat="44.50908" lon="3.47747">
        <ele>976</ele>
        <time>2019-05-26T10:14:35Z</time>
      </trkpt>
      <trkpt lat="44.5091" lon="3.47739">
        <ele>975.79998779297</ele>
        <time>2019-05-26T10:14:36Z</time>
      </trkpt>
      <trkpt lat="44.50912" lon="3.47732">
        <ele>975.40002441406</ele>
        <time>2019-05-26T10:14:37Z</time>
      </trkpt>
      <trkpt lat="44.50916" lon="3.47715">
        <ele>974.20001220703</ele>
        <time>2019-05-26T10:14:40Z</time>
      </trkpt>
      <trkpt lat="44.50917" lon="3.47715">
        <ele>973.59997558594</ele>
        <time>2019-05-26T10:14:42Z</time>
      </trkpt>
      <trkpt lat="44.50916" lon="3.47718">
        <ele>973.20001220703</ele>
        <time>2019-05-26T10:14:43Z</time>
      </trkpt>
      <trkpt lat="44.50914" lon="3.47734">
        <ele>972.40002441406</ele>
        <time>2019-05-26T10:14:46Z</time>
      </trkpt>
      <trkpt lat="44.50913" lon="3.47758">
        <ele>971.40002441406</ele>
        <time>2019-05-26T10:14:49Z</time>
      </trkpt>
      <trkpt lat="44.5091" lon="3.47785">
        <ele>970.20001220703</ele>
        <time>2019-05-26T10:14:52Z</time>
      </trkpt>
      <trkpt lat="44.50912" lon="3.47802">
        <ele>969.40002441406</ele>
        <time>2019-05-26T10:14:54Z</time>
      </trkpt>
      <trkpt lat="44.50928" lon="3.47813">
        <ele>968.59997558594</ele>
        <time>2019-05-26T10:14:56Z</time>
      </trkpt>
      <trkpt lat="44.5094" lon="3.47822">
        <ele>968</ele>
        <time>2019-05-26T10:14:58Z</time>
      </trkpt>
      <trkpt lat="44.50944" lon="3.47828">
        <ele>967.59997558594</ele>
        <time>2019-05-26T10:14:59Z</time>
      </trkpt>
      <trkpt lat="44.50945" lon="3.47835">
        <ele>967.40002441406</ele>
        <time>2019-05-26T10:15:00Z</time>
      </trkpt>
      <trkpt lat="44.50943" lon="3.47849">
        <ele>966.59997558594</ele>
        <time>2019-05-26T10:15:02Z</time>
      </trkpt>
      <trkpt lat="44.50941" lon="3.47865">
        <ele>965.79998779297</ele>
        <time>2019-05-26T10:15:04Z</time>
      </trkpt>
      <trkpt lat="44.5094" lon="3.47873">
        <ele>965.40002441406</ele>
        <time>2019-05-26T10:15:05Z</time>
      </trkpt>
      <trkpt lat="44.50939" lon="3.4788">
        <ele>965</ele>
        <time>2019-05-26T10:15:06Z</time>
      </trkpt>
      <trkpt lat="44.50943" lon="3.47886">
        <ele>964.79998779297</ele>
        <time>2019-05-26T10:15:07Z</time>
      </trkpt>
      <trkpt lat="44.5096" lon="3.47892">
        <ele>964</ele>
        <time>2019-05-26T10:15:09Z</time>
      </trkpt>
      <trkpt lat="44.5097" lon="3.47893">
        <ele>963.59997558594</ele>
        <time>2019-05-26T10:15:10Z</time>
      </trkpt>
      <trkpt lat="44.5098" lon="3.47893">
        <ele>963.20001220703</ele>
        <time>2019-05-26T10:15:11Z</time>
      </trkpt>
      <trkpt lat="44.50995" lon="3.47894">
        <ele>962.40002441406</ele>
        <time>2019-05-26T10:15:13Z</time>
      </trkpt>
      <trkpt lat="44.51011" lon="3.479">
        <ele>961.79998779297</ele>
        <time>2019-05-26T10:15:15Z</time>
      </trkpt>
      <trkpt lat="44.51027" lon="3.47912">
        <ele>961.20001220703</ele>
        <time>2019-05-26T10:15:17Z</time>
      </trkpt>
      <trkpt lat="44.51055" lon="3.47944">
        <ele>960</ele>
        <time>2019-05-26T10:15:21Z</time>
      </trkpt>
      <trkpt lat="44.51061" lon="3.47954">
        <ele>959.59997558594</ele>
        <time>2019-05-26T10:15:22Z</time>
      </trkpt>
      <trkpt lat="44.5108" lon="3.47985">
        <ele>958.40002441406</ele>
        <time>2019-05-26T10:15:25Z</time>
      </trkpt>
      <trkpt lat="44.51095" lon="3.48001">
        <ele>957.40002441406</ele>
        <time>2019-05-26T10:15:27Z</time>
      </trkpt>
      <trkpt lat="44.51112" lon="3.4802">
        <ele>956</ele>
        <time>2019-05-26T10:15:30Z</time>
      </trkpt>
      <trkpt lat="44.51119" lon="3.48037">
        <ele>955</ele>
        <time>2019-05-26T10:15:32Z</time>
      </trkpt>
      <trkpt lat="44.5112" lon="3.48046">
        <ele>954.59997558594</ele>
        <time>2019-05-26T10:15:33Z</time>
      </trkpt>
      <trkpt lat="44.51121" lon="3.48055">
        <ele>954.20001220703</ele>
        <time>2019-05-26T10:15:34Z</time>
      </trkpt>
      <trkpt lat="44.5112" lon="3.48082">
        <ele>952.79998779297</ele>
        <time>2019-05-26T10:15:37Z</time>
      </trkpt>
      <trkpt lat="44.5112" lon="3.48099">
        <ele>952</ele>
        <time>2019-05-26T10:15:39Z</time>
      </trkpt>
      <trkpt lat="44.51123" lon="3.48106">
        <ele>951.59997558594</ele>
        <time>2019-05-26T10:15:40Z</time>
      </trkpt>
      <trkpt lat="44.51127" lon="3.48112">
        <ele>951.20001220703</ele>
        <time>2019-05-26T10:15:41Z</time>
      </trkpt>
      <trkpt lat="44.51141" lon="3.4812">
        <ele>950.20001220703</ele>
        <time>2019-05-26T10:15:43Z</time>
      </trkpt>
      <trkpt lat="44.51148" lon="3.48123">
        <ele>949.79998779297</ele>
        <time>2019-05-26T10:15:44Z</time>
      </trkpt>
      <trkpt lat="44.51157" lon="3.48135">
        <ele>949.20001220703</ele>
        <time>2019-05-26T10:15:46Z</time>
      </trkpt>
      <trkpt lat="44.51165" lon="3.4816">
        <ele>948</ele>
        <time>2019-05-26T10:15:49Z</time>
      </trkpt>
      <trkpt lat="44.51168" lon="3.48167">
        <ele>947.59997558594</ele>
        <time>2019-05-26T10:15:50Z</time>
      </trkpt>
      <trkpt lat="44.51173" lon="3.48175">
        <ele>947.20001220703</ele>
        <time>2019-05-26T10:15:51Z</time>
      </trkpt>
      <trkpt lat="44.5118" lon="3.48191">
        <ele>946.40002441406</ele>
        <time>2019-05-26T10:15:53Z</time>
      </trkpt>
      <trkpt lat="44.51182" lon="3.482">
        <ele>946</ele>
        <time>2019-05-26T10:15:54Z</time>
      </trkpt>
      <trkpt lat="44.51183" lon="3.4821">
        <ele>945.79998779297</ele>
        <time>2019-05-26T10:15:55Z</time>
      </trkpt>
      <trkpt lat="44.51183" lon="3.48227">
        <ele>945</ele>
        <time>2019-05-26T10:15:57Z</time>
      </trkpt>
      <trkpt lat="44.51176" lon="3.48247">
        <ele>944</ele>
        <time>2019-05-26T10:16:00Z</time>
      </trkpt>
      <trkpt lat="44.5117" lon="3.48267">
        <ele>942.79998779297</ele>
        <time>2019-05-26T10:16:03Z</time>
      </trkpt>
      <trkpt lat="44.5117" lon="3.48274">
        <ele>942.40002441406</ele>
        <time>2019-05-26T10:16:04Z</time>
      </trkpt>
      <trkpt lat="44.5117" lon="3.48281">
        <ele>942.20001220703</ele>
        <time>2019-05-26T10:16:05Z</time>
      </trkpt>
      <trkpt lat="44.51171" lon="3.48292">
        <ele>941.40002441406</ele>
        <time>2019-05-26T10:16:07Z</time>
      </trkpt>
      <trkpt lat="44.51174" lon="3.483">
        <ele>940.79998779297</ele>
        <time>2019-05-26T10:16:09Z</time>
      </trkpt>
      <trkpt lat="44.51173" lon="3.48309">
        <ele>940.20001220703</ele>
        <time>2019-05-26T10:16:11Z</time>
      </trkpt>
      <trkpt lat="44.51169" lon="3.48337">
        <ele>938.59997558594</ele>
        <time>2019-05-26T10:16:17Z</time>
      </trkpt>
      <trkpt lat="44.51165" lon="3.48349">
        <ele>937.59997558594</ele>
        <time>2019-05-26T10:16:20Z</time>
      </trkpt>
      <trkpt lat="44.51162" lon="3.48366">
        <ele>936.20001220703</ele>
        <time>2019-05-26T10:16:24Z</time>
      </trkpt>
      <trkpt lat="44.5116" lon="3.48375">
        <ele>935.40002441406</ele>
        <time>2019-05-26T10:16:26Z</time>
      </trkpt>
      <trkpt lat="44.51156" lon="3.48384">
        <ele>934.59997558594</ele>
        <time>2019-05-26T10:16:28Z</time>
      </trkpt>
      <trkpt lat="44.51153" lon="3.48389">
        <ele>933.79998779297</ele>
        <time>2019-05-26T10:16:30Z</time>
      </trkpt>
      <trkpt lat="44.51153" lon="3.48391">
        <ele>933.20001220703</ele>
        <time>2019-05-26T10:16:31Z</time>
      </trkpt>
      <trkpt lat="44.51151" lon="3.48397">
        <ele>932</ele>
        <time>2019-05-26T10:16:34Z</time>
      </trkpt>
      <trkpt lat="44.51148" lon="3.48411">
        <ele>931</ele>
        <time>2019-05-26T10:16:37Z</time>
      </trkpt>
      <trkpt lat="44.51146" lon="3.48437">
        <ele>929.40002441406</ele>
        <time>2019-05-26T10:16:42Z</time>
      </trkpt>
      <trkpt lat="44.51144" lon="3.48456">
        <ele>927.79998779297</ele>
        <time>2019-05-26T10:16:46Z</time>
      </trkpt>
      <trkpt lat="44.51139" lon="3.48471">
        <ele>926.40002441406</ele>
        <time>2019-05-26T10:16:50Z</time>
      </trkpt>
      <trkpt lat="44.51137" lon="3.48477">
        <ele>925.79998779297</ele>
        <time>2019-05-26T10:16:52Z</time>
      </trkpt>
      <trkpt lat="44.51134" lon="3.48486">
        <ele>924.59997558594</ele>
        <time>2019-05-26T10:16:55Z</time>
      </trkpt>
      <trkpt lat="44.51133" lon="3.485">
        <ele>923.20001220703</ele>
        <time>2019-05-26T10:16:59Z</time>
      </trkpt>
      <trkpt lat="44.51133" lon="3.4852">
        <ele>921.40002441406</ele>
        <time>2019-05-26T10:17:04Z</time>
      </trkpt>
      <trkpt lat="44.51135" lon="3.48527">
        <ele>920.59997558594</ele>
        <time>2019-05-26T10:17:06Z</time>
      </trkpt>
      <trkpt lat="44.51134" lon="3.48532">
        <ele>920.40002441406</ele>
        <time>2019-05-26T10:17:08Z</time>
      </trkpt>
      <trkpt lat="44.51133" lon="3.48543">
        <ele>920.40002441406</ele>
        <time>2019-05-26T10:17:11Z</time>
      </trkpt>
      <trkpt lat="44.51132" lon="3.48555">
        <ele>920.20001220703</ele>
        <time>2019-05-26T10:17:14Z</time>
      </trkpt>
      <trkpt lat="44.51132" lon="3.4856">
        <ele>920.20001220703</ele>
        <time>2019-05-26T10:17:15Z</time>
      </trkpt>
      <trkpt lat="44.51131" lon="3.48563">
        <ele>920.20001220703</ele>
        <time>2019-05-26T10:17:16Z</time>
      </trkpt>
      <trkpt lat="44.5113" lon="3.4857">
        <ele>920</ele>
        <time>2019-05-26T10:17:18Z</time>
      </trkpt>
      <trkpt lat="44.51127" lon="3.4858">
        <ele>920</ele>
        <time>2019-05-26T10:17:21Z</time>
      </trkpt>
      <trkpt lat="44.51126" lon="3.48584">
        <ele>920</ele>
        <time>2019-05-26T10:17:22Z</time>
      </trkpt>
      <trkpt lat="44.51122" lon="3.48592">
        <ele>920</ele>
        <time>2019-05-26T10:17:25Z</time>
      </trkpt>
      <trkpt lat="44.5112" lon="3.48594">
        <ele>920.20001220703</ele>
        <time>2019-05-26T10:17:26Z</time>
      </trkpt>
      <trkpt lat="44.51118" lon="3.48599">
        <ele>920.40002441406</ele>
        <time>2019-05-26T10:17:28Z</time>
      </trkpt>
      <trkpt lat="44.51117" lon="3.48609">
        <ele>920.40002441406</ele>
        <time>2019-05-26T10:17:31Z</time>
      </trkpt>
      <trkpt lat="44.51117" lon="3.48616">
        <ele>920.59997558594</ele>
        <time>2019-05-26T10:17:33Z</time>
      </trkpt>
      <trkpt lat="44.51115" lon="3.48627">
        <ele>921</ele>
        <time>2019-05-26T10:17:35Z</time>
      </trkpt>
      <trkpt lat="44.51115" lon="3.48649">
        <ele>921.40002441406</ele>
        <time>2019-05-26T10:17:39Z</time>
      </trkpt>
      <trkpt lat="44.51118" lon="3.48669">
        <ele>921.59997558594</ele>
        <time>2019-05-26T10:17:43Z</time>
      </trkpt>
      <trkpt lat="44.51116" lon="3.48691">
        <ele>922</ele>
        <time>2019-05-26T10:17:47Z</time>
      </trkpt>
      <trkpt lat="44.51113" lon="3.48703">
        <ele>922.40002441406</ele>
        <time>2019-05-26T10:17:50Z</time>
      </trkpt>
      <trkpt lat="44.51111" lon="3.48714">
        <ele>922.79998779297</ele>
        <time>2019-05-26T10:17:52Z</time>
      </trkpt>
      <trkpt lat="44.51111" lon="3.48726">
        <ele>923.20001220703</ele>
        <time>2019-05-26T10:17:55Z</time>
      </trkpt>
      <trkpt lat="44.51112" lon="3.4873">
        <ele>923.20001220703</ele>
        <time>2019-05-26T10:17:56Z</time>
      </trkpt>
      <trkpt lat="44.51112" lon="3.48736">
        <ele>923.20001220703</ele>
        <time>2019-05-26T10:17:57Z</time>
      </trkpt>
      <trkpt lat="44.51111" lon="3.48746">
        <ele>923.40002441406</ele>
        <time>2019-05-26T10:17:59Z</time>
      </trkpt>
      <trkpt lat="44.51111" lon="3.48763">
        <ele>923.79998779297</ele>
        <time>2019-05-26T10:18:03Z</time>
      </trkpt>
      <trkpt lat="44.5111" lon="3.48779">
        <ele>924.20001220703</ele>
        <time>2019-05-26T10:18:07Z</time>
      </trkpt>
      <trkpt lat="44.51113" lon="3.48804">
        <ele>924.79998779297</ele>
        <time>2019-05-26T10:18:12Z</time>
      </trkpt>
      <trkpt lat="44.51113" lon="3.48822">
        <ele>925.40002441406</ele>
        <time>2019-05-26T10:18:16Z</time>
      </trkpt>
      <trkpt lat="44.51112" lon="3.48842">
        <ele>926</ele>
        <time>2019-05-26T10:18:20Z</time>
      </trkpt>
      <trkpt lat="44.51114" lon="3.48854">
        <ele>926.20001220703</ele>
        <time>2019-05-26T10:18:23Z</time>
      </trkpt>
      <trkpt lat="44.51113" lon="3.48877">
        <ele>926.79998779297</ele>
        <time>2019-05-26T10:18:27Z</time>
      </trkpt>
      <trkpt lat="44.51113" lon="3.48888">
        <ele>927.20001220703</ele>
        <time>2019-05-26T10:18:30Z</time>
      </trkpt>
      <trkpt lat="44.51111" lon="3.48892">
        <ele>927.20001220703</ele>
        <time>2019-05-26T10:18:31Z</time>
      </trkpt>
      <trkpt lat="44.51113" lon="3.48897">
        <ele>927.40002441406</ele>
        <time>2019-05-26T10:18:32Z</time>
      </trkpt>
      <trkpt lat="44.51114" lon="3.48906">
        <ele>927.79998779297</ele>
        <time>2019-05-26T10:18:34Z</time>
      </trkpt>
      <trkpt lat="44.51114" lon="3.4892">
        <ele>928.20001220703</ele>
        <time>2019-05-26T10:18:37Z</time>
      </trkpt>
      <trkpt lat="44.51115" lon="3.48923">
        <ele>928.40002441406</ele>
        <time>2019-05-26T10:18:38Z</time>
      </trkpt>
      <trkpt lat="44.51114" lon="3.48943">
        <ele>928.59997558594</ele>
        <time>2019-05-26T10:18:42Z</time>
      </trkpt>
      <trkpt lat="44.51115" lon="3.48948">
        <ele>928.79998779297</ele>
        <time>2019-05-26T10:18:43Z</time>
      </trkpt>
      <trkpt lat="44.51115" lon="3.48958">
        <ele>929</ele>
        <time>2019-05-26T10:18:45Z</time>
      </trkpt>
      <trkpt lat="44.51116" lon="3.48978">
        <ele>929.40002441406</ele>
        <time>2019-05-26T10:18:49Z</time>
      </trkpt>
      <trkpt lat="44.51118" lon="3.48996">
        <ele>929.59997558594</ele>
        <time>2019-05-26T10:18:52Z</time>
      </trkpt>
      <trkpt lat="44.51121" lon="3.49001">
        <ele>929.79998779297</ele>
        <time>2019-05-26T10:18:53Z</time>
      </trkpt>
      <trkpt lat="44.51128" lon="3.49011">
        <ele>929.79998779297</ele>
        <time>2019-05-26T10:18:55Z</time>
      </trkpt>
      <trkpt lat="44.51133" lon="3.49021">
        <ele>930</ele>
        <time>2019-05-26T10:18:57Z</time>
      </trkpt>
      <trkpt lat="44.51133" lon="3.49033">
        <ele>930</ele>
        <time>2019-05-26T10:18:59Z</time>
      </trkpt>
      <trkpt lat="44.51133" lon="3.4904">
        <ele>930</ele>
        <time>2019-05-26T10:19:00Z</time>
      </trkpt>
      <trkpt lat="44.51134" lon="3.49071">
        <ele>929.79998779297</ele>
        <time>2019-05-26T10:19:04Z</time>
      </trkpt>
      <trkpt lat="44.51134" lon="3.49077">
        <ele>929.79998779297</ele>
        <time>2019-05-26T10:19:05Z</time>
      </trkpt>
      <trkpt lat="44.51138" lon="3.4908">
        <ele>929.59997558594</ele>
        <time>2019-05-26T10:19:06Z</time>
      </trkpt>
      <trkpt lat="44.51144" lon="3.49086">
        <ele>929.40002441406</ele>
        <time>2019-05-26T10:19:08Z</time>
      </trkpt>
      <trkpt lat="44.51146" lon="3.49092">
        <ele>929.20001220703</ele>
        <time>2019-05-26T10:19:09Z</time>
      </trkpt>
      <trkpt lat="44.51149" lon="3.49104">
        <ele>928.79998779297</ele>
        <time>2019-05-26T10:19:11Z</time>
      </trkpt>
      <trkpt lat="44.5115" lon="3.49108">
        <ele>928.40002441406</ele>
        <time>2019-05-26T10:19:12Z</time>
      </trkpt>
      <trkpt lat="44.51151" lon="3.49117">
        <ele>927.59997558594</ele>
        <time>2019-05-26T10:19:14Z</time>
      </trkpt>
      <trkpt lat="44.51159" lon="3.49134">
        <ele>926.20001220703</ele>
        <time>2019-05-26T10:19:18Z</time>
      </trkpt>
      <trkpt lat="44.51162" lon="3.4914">
        <ele>925.40002441406</ele>
        <time>2019-05-26T10:19:20Z</time>
      </trkpt>
      <trkpt lat="44.51165" lon="3.49142">
        <ele>925</ele>
        <time>2019-05-26T10:19:21Z</time>
      </trkpt>
      <trkpt lat="44.51179" lon="3.49145">
        <ele>923.79998779297</ele>
        <time>2019-05-26T10:19:24Z</time>
      </trkpt>
      <trkpt lat="44.51189" lon="3.49153">
        <ele>923</ele>
        <time>2019-05-26T10:19:26Z</time>
      </trkpt>
      <trkpt lat="44.51193" lon="3.49159">
        <ele>922.40002441406</ele>
        <time>2019-05-26T10:19:27Z</time>
      </trkpt>
      <trkpt lat="44.51199" lon="3.49176">
        <ele>921</ele>
        <time>2019-05-26T10:19:30Z</time>
      </trkpt>
      <trkpt lat="44.51203" lon="3.49192">
        <ele>918.59997558594</ele>
        <time>2019-05-26T10:19:34Z</time>
      </trkpt>
      <trkpt lat="44.51208" lon="3.49198">
        <ele>917</ele>
        <time>2019-05-26T10:19:37Z</time>
      </trkpt>
      <trkpt lat="44.51211" lon="3.492">
        <ele>916.40002441406</ele>
        <time>2019-05-26T10:19:38Z</time>
      </trkpt>
      <trkpt lat="44.51227" lon="3.4921">
        <ele>914.20001220703</ele>
        <time>2019-05-26T10:19:42Z</time>
      </trkpt>
      <trkpt lat="44.51243" lon="3.49233">
        <ele>911.59997558594</ele>
        <time>2019-05-26T10:19:47Z</time>
      </trkpt>
      <trkpt lat="44.51254" lon="3.49249">
        <ele>909.20001220703</ele>
        <time>2019-05-26T10:19:51Z</time>
      </trkpt>
      <trkpt lat="44.51261" lon="3.49257">
        <ele>908.20001220703</ele>
        <time>2019-05-26T10:19:53Z</time>
      </trkpt>
      <trkpt lat="44.51269" lon="3.49264">
        <ele>906.79998779297</ele>
        <time>2019-05-26T10:19:55Z</time>
      </trkpt>
      <trkpt lat="44.51274" lon="3.49267">
        <ele>906.20001220703</ele>
        <time>2019-05-26T10:19:56Z</time>
      </trkpt>
      <trkpt lat="44.51278" lon="3.49273">
        <ele>905.79998779297</ele>
        <time>2019-05-26T10:19:57Z</time>
      </trkpt>
      <trkpt lat="44.51284" lon="3.49287">
        <ele>904.59997558594</ele>
        <time>2019-05-26T10:19:59Z</time>
      </trkpt>
      <trkpt lat="44.51285" lon="3.49293">
        <ele>904.20001220703</ele>
        <time>2019-05-26T10:20:00Z</time>
      </trkpt>
      <trkpt lat="44.51286" lon="3.49301">
        <ele>903.59997558594</ele>
        <time>2019-05-26T10:20:01Z</time>
      </trkpt>
      <trkpt lat="44.51288" lon="3.49321">
        <ele>902.40002441406</ele>
        <time>2019-05-26T10:20:03Z</time>
      </trkpt>
      <trkpt lat="44.51289" lon="3.4933">
        <ele>901.79998779297</ele>
        <time>2019-05-26T10:20:04Z</time>
      </trkpt>
      <trkpt lat="44.51292" lon="3.49336">
        <ele>901.20001220703</ele>
        <time>2019-05-26T10:20:05Z</time>
      </trkpt>
      <trkpt lat="44.51298" lon="3.49341">
        <ele>900.40002441406</ele>
        <time>2019-05-26T10:20:06Z</time>
      </trkpt>
      <trkpt lat="44.51306" lon="3.49352">
        <ele>899.20001220703</ele>
        <time>2019-05-26T10:20:08Z</time>
      </trkpt>
      <trkpt lat="44.51315" lon="3.49374">
        <ele>897.20001220703</ele>
        <time>2019-05-26T10:20:11Z</time>
      </trkpt>
      <trkpt lat="44.51326" lon="3.4939">
        <ele>895</ele>
        <time>2019-05-26T10:20:14Z</time>
      </trkpt>
      <trkpt lat="44.51329" lon="3.49394">
        <ele>894.20001220703</ele>
        <time>2019-05-26T10:20:15Z</time>
      </trkpt>
      <trkpt lat="44.51335" lon="3.49405">
        <ele>891.79998779297</ele>
        <time>2019-05-26T10:20:18Z</time>
      </trkpt>
      <trkpt lat="44.51336" lon="3.49407">
        <ele>891.20001220703</ele>
        <time>2019-05-26T10:20:19Z</time>
      </trkpt>
      <trkpt lat="44.51341" lon="3.49415">
        <ele>889</ele>
        <time>2019-05-26T10:20:22Z</time>
      </trkpt>
      <trkpt lat="44.51344" lon="3.49423">
        <ele>887.40002441406</ele>
        <time>2019-05-26T10:20:24Z</time>
      </trkpt>
      <trkpt lat="44.51348" lon="3.49433">
        <ele>886.20001220703</ele>
        <time>2019-05-26T10:20:26Z</time>
      </trkpt>
      <trkpt lat="44.51356" lon="3.49457">
        <ele>884.40002441406</ele>
        <time>2019-05-26T10:20:29Z</time>
      </trkpt>
      <trkpt lat="44.5136" lon="3.49467">
        <ele>883.59997558594</ele>
        <time>2019-05-26T10:20:30Z</time>
      </trkpt>
      <trkpt lat="44.51362" lon="3.49477">
        <ele>882.79998779297</ele>
        <time>2019-05-26T10:20:31Z</time>
      </trkpt>
      <trkpt lat="44.51364" lon="3.49496">
        <ele>881.20001220703</ele>
        <time>2019-05-26T10:20:33Z</time>
      </trkpt>
      <trkpt lat="44.51365" lon="3.49503">
        <ele>880.59997558594</ele>
        <time>2019-05-26T10:20:34Z</time>
      </trkpt>
      <trkpt lat="44.51365" lon="3.49516">
        <ele>879</ele>
        <time>2019-05-26T10:20:36Z</time>
      </trkpt>
      <trkpt lat="44.51364" lon="3.49522">
        <ele>878.20001220703</ele>
        <time>2019-05-26T10:20:37Z</time>
      </trkpt>
      <trkpt lat="44.51361" lon="3.49539">
        <ele>875.59997558594</ele>
        <time>2019-05-26T10:20:40Z</time>
      </trkpt>
      <trkpt lat="44.51361" lon="3.49545">
        <ele>874.79998779297</ele>
        <time>2019-05-26T10:20:41Z</time>
      </trkpt>
      <trkpt lat="44.51359" lon="3.49559">
        <ele>873</ele>
        <time>2019-05-26T10:20:43Z</time>
      </trkpt>
      <trkpt lat="44.51358" lon="3.49567">
        <ele>872.20001220703</ele>
        <time>2019-05-26T10:20:44Z</time>
      </trkpt>
      <trkpt lat="44.51355" lon="3.4958">
        <ele>870.40002441406</ele>
        <time>2019-05-26T10:20:46Z</time>
      </trkpt>
      <trkpt lat="44.51353" lon="3.4959">
        <ele>868.79998779297</ele>
        <time>2019-05-26T10:20:48Z</time>
      </trkpt>
      <trkpt lat="44.51353" lon="3.49601">
        <ele>865.20001220703</ele>
        <time>2019-05-26T10:20:52Z</time>
      </trkpt>
      <trkpt lat="44.51353" lon="3.49602">
        <ele>864.20001220703</ele>
        <time>2019-05-26T10:20:53Z</time>
      </trkpt>
      <trkpt lat="44.51349" lon="3.49608">
        <ele>860.79998779297</ele>
        <time>2019-05-26T10:20:57Z</time>
      </trkpt>
      <trkpt lat="44.51347" lon="3.49614">
        <ele>859</ele>
        <time>2019-05-26T10:20:59Z</time>
      </trkpt>
      <trkpt lat="44.51342" lon="3.49624">
        <ele>857.20001220703</ele>
        <time>2019-05-26T10:21:01Z</time>
      </trkpt>
      <trkpt lat="44.5134" lon="3.4963">
        <ele>856.20001220703</ele>
        <time>2019-05-26T10:21:02Z</time>
      </trkpt>
      <trkpt lat="44.51337" lon="3.49636">
        <ele>855.40002441406</ele>
        <time>2019-05-26T10:21:03Z</time>
      </trkpt>
      <trkpt lat="44.51326" lon="3.49652">
        <ele>852.79998779297</ele>
        <time>2019-05-26T10:21:06Z</time>
      </trkpt>
      <trkpt lat="44.51322" lon="3.49664">
        <ele>850.20001220703</ele>
        <time>2019-05-26T10:21:09Z</time>
      </trkpt>
      <trkpt lat="44.51326" lon="3.49671">
        <ele>847.79998779297</ele>
        <time>2019-05-26T10:21:12Z</time>
      </trkpt>
      <trkpt lat="44.51329" lon="3.49673">
        <ele>847</ele>
        <time>2019-05-26T10:21:13Z</time>
      </trkpt>
      <trkpt lat="44.51348" lon="3.49679">
        <ele>841.20001220703</ele>
        <time>2019-05-26T10:21:20Z</time>
      </trkpt>
      <trkpt lat="44.51356" lon="3.49675">
        <ele>838.40002441406</ele>
        <time>2019-05-26T10:21:23Z</time>
      </trkpt>
      <trkpt lat="44.5136" lon="3.49669">
        <ele>836.79998779297</ele>
        <time>2019-05-26T10:21:25Z</time>
      </trkpt>
      <trkpt lat="44.51367" lon="3.49667">
        <ele>835.20001220703</ele>
        <time>2019-05-26T10:21:27Z</time>
      </trkpt>
      <trkpt lat="44.51371" lon="3.49669">
        <ele>834.40002441406</ele>
        <time>2019-05-26T10:21:28Z</time>
      </trkpt>
      <trkpt lat="44.51379" lon="3.49676">
        <ele>832.79998779297</ele>
        <time>2019-05-26T10:21:30Z</time>
      </trkpt>
      <trkpt lat="44.51395" lon="3.49684">
        <ele>830</ele>
        <time>2019-05-26T10:21:33Z</time>
      </trkpt>
      <trkpt lat="44.51411" lon="3.4969">
        <ele>827</ele>
        <time>2019-05-26T10:21:36Z</time>
      </trkpt>
      <trkpt lat="44.5142" lon="3.49697">
        <ele>825</ele>
        <time>2019-05-26T10:21:38Z</time>
      </trkpt>
      <trkpt lat="44.51435" lon="3.49717">
        <ele>820</ele>
        <time>2019-05-26T10:21:43Z</time>
      </trkpt>
      <trkpt lat="44.51438" lon="3.49727">
        <ele>818.20001220703</ele>
        <time>2019-05-26T10:21:45Z</time>
      </trkpt>
      <trkpt lat="44.5144" lon="3.49734">
        <ele>817.40002441406</ele>
        <time>2019-05-26T10:21:46Z</time>
      </trkpt>
      <trkpt lat="44.51443" lon="3.49738">
        <ele>816.40002441406</ele>
        <time>2019-05-26T10:21:47Z</time>
      </trkpt>
      <trkpt lat="44.51451" lon="3.49745">
        <ele>814.59997558594</ele>
        <time>2019-05-26T10:21:49Z</time>
      </trkpt>
      <trkpt lat="44.51456" lon="3.49748">
        <ele>813.59997558594</ele>
        <time>2019-05-26T10:21:50Z</time>
      </trkpt>
      <trkpt lat="44.51468" lon="3.49757">
        <ele>810.79998779297</ele>
        <time>2019-05-26T10:21:53Z</time>
      </trkpt>
      <trkpt lat="44.51472" lon="3.4976">
        <ele>809.79998779297</ele>
        <time>2019-05-26T10:21:54Z</time>
      </trkpt>
      <trkpt lat="44.51479" lon="3.49769">
        <ele>808</ele>
        <time>2019-05-26T10:21:56Z</time>
      </trkpt>
      <trkpt lat="44.51485" lon="3.49779">
        <ele>806.20001220703</ele>
        <time>2019-05-26T10:21:58Z</time>
      </trkpt>
      <trkpt lat="44.5149" lon="3.49789">
        <ele>804.40002441406</ele>
        <time>2019-05-26T10:22:00Z</time>
      </trkpt>
      <trkpt lat="44.51497" lon="3.49794">
        <ele>802.59997558594</ele>
        <time>2019-05-26T10:22:02Z</time>
      </trkpt>
      <trkpt lat="44.51505" lon="3.4979">
        <ele>801</ele>
        <time>2019-05-26T10:22:04Z</time>
      </trkpt>
      <trkpt lat="44.51508" lon="3.49787">
        <ele>800.20001220703</ele>
        <time>2019-05-26T10:22:05Z</time>
      </trkpt>
      <trkpt lat="44.51512" lon="3.49783">
        <ele>799.40002441406</ele>
        <time>2019-05-26T10:22:06Z</time>
      </trkpt>
      <trkpt lat="44.51521" lon="3.49766">
        <ele>796.59997558594</ele>
        <time>2019-05-26T10:22:10Z</time>
      </trkpt>
      <trkpt lat="44.5153" lon="3.49746">
        <ele>793.59997558594</ele>
        <time>2019-05-26T10:22:14Z</time>
      </trkpt>
      <trkpt lat="44.51531" lon="3.4974">
        <ele>793</ele>
        <time>2019-05-26T10:22:15Z</time>
      </trkpt>
      <trkpt lat="44.5154" lon="3.49731">
        <ele>790.40002441406</ele>
        <time>2019-05-26T10:22:19Z</time>
      </trkpt>
      <trkpt lat="44.51544" lon="3.4974">
        <ele>788.40002441406</ele>
        <time>2019-05-26T10:22:22Z</time>
      </trkpt>
      <trkpt lat="44.51544" lon="3.49742">
        <ele>787.79998779297</ele>
        <time>2019-05-26T10:22:23Z</time>
      </trkpt>
      <trkpt lat="44.51543" lon="3.49743">
        <ele>787.20001220703</ele>
        <time>2019-05-26T10:22:24Z</time>
      </trkpt>
      <trkpt lat="44.51542" lon="3.49747">
        <ele>785.40002441406</ele>
        <time>2019-05-26T10:22:27Z</time>
      </trkpt>
      <trkpt lat="44.51536" lon="3.49757">
        <ele>783.79998779297</ele>
        <time>2019-05-26T10:22:30Z</time>
      </trkpt>
      <trkpt lat="44.51531" lon="3.49768">
        <ele>782.59997558594</ele>
        <time>2019-05-26T10:22:32Z</time>
      </trkpt>
      <trkpt lat="44.51525" lon="3.49781">
        <ele>781.40002441406</ele>
        <time>2019-05-26T10:22:34Z</time>
      </trkpt>
      <trkpt lat="44.51518" lon="3.498">
        <ele>779.79998779297</ele>
        <time>2019-05-26T10:22:37Z</time>
      </trkpt>
      <trkpt lat="44.51517" lon="3.49814">
        <ele>778.59997558594</ele>
        <time>2019-05-26T10:22:39Z</time>
      </trkpt>
      <trkpt lat="44.51518" lon="3.49829">
        <ele>777</ele>
        <time>2019-05-26T10:22:42Z</time>
      </trkpt>
      <trkpt lat="44.51519" lon="3.4983">
        <ele>776.59997558594</ele>
        <time>2019-05-26T10:22:43Z</time>
      </trkpt>
      <trkpt lat="44.5152" lon="3.49831">
        <ele>776.20001220703</ele>
        <time>2019-05-26T10:22:44Z</time>
      </trkpt>
      <trkpt lat="44.51521" lon="3.49839">
        <ele>772</ele>
        <time>2019-05-26T10:22:53Z</time>
      </trkpt>
      <trkpt lat="44.51522" lon="3.49841">
        <ele>771.59997558594</ele>
        <time>2019-05-26T10:22:54Z</time>
      </trkpt>
      <trkpt lat="44.51524" lon="3.49856">
        <ele>770</ele>
        <time>2019-05-26T10:22:58Z</time>
      </trkpt>
      <trkpt lat="44.51525" lon="3.49857">
        <ele>769.40002441406</ele>
        <time>2019-05-26T10:23:00Z</time>
      </trkpt>
      <trkpt lat="44.5153" lon="3.4986">
        <ele>763.79998779297</ele>
        <time>2019-05-26T10:23:17Z</time>
      </trkpt>
      <trkpt lat="44.51532" lon="3.49861">
        <ele>763.59997558594</ele>
        <time>2019-05-26T10:23:18Z</time>
      </trkpt>
      <trkpt lat="44.51542" lon="3.49864">
        <ele>762.59997558594</ele>
        <time>2019-05-26T10:23:21Z</time>
      </trkpt>
      <trkpt lat="44.51545" lon="3.49862">
        <ele>762.40002441406</ele>
        <time>2019-05-26T10:23:22Z</time>
      </trkpt>
      <trkpt lat="44.51549" lon="3.49855">
        <ele>761.79998779297</ele>
        <time>2019-05-26T10:23:24Z</time>
      </trkpt>
      <trkpt lat="44.51552" lon="3.49853">
        <ele>761.40002441406</ele>
        <time>2019-05-26T10:23:25Z</time>
      </trkpt>
      <trkpt lat="44.51557" lon="3.49852">
        <ele>761.20001220703</ele>
        <time>2019-05-26T10:23:26Z</time>
      </trkpt>
      <trkpt lat="44.51569" lon="3.49848">
        <ele>760.40002441406</ele>
        <time>2019-05-26T10:23:29Z</time>
      </trkpt>
      <trkpt lat="44.51571" lon="3.4984">
        <ele>760</ele>
        <time>2019-05-26T10:23:31Z</time>
      </trkpt>
      <trkpt lat="44.51571" lon="3.49836">
        <ele>759.79998779297</ele>
        <time>2019-05-26T10:23:32Z</time>
      </trkpt>
      <trkpt lat="44.5157" lon="3.49816">
        <ele>758.59997558594</ele>
        <time>2019-05-26T10:23:36Z</time>
      </trkpt>
      <trkpt lat="44.51566" lon="3.49793">
        <ele>757.79998779297</ele>
        <time>2019-05-26T10:23:41Z</time>
      </trkpt>
      <trkpt lat="44.51559" lon="3.49776">
        <ele>757.59997558594</ele>
        <time>2019-05-26T10:23:47Z</time>
      </trkpt>
      <trkpt lat="44.51556" lon="3.49767">
        <ele>757.40002441406</ele>
        <time>2019-05-26T10:23:51Z</time>
      </trkpt>
      <trkpt lat="44.51555" lon="3.49766">
        <ele>757.40002441406</ele>
        <time>2019-05-26T10:23:52Z</time>
      </trkpt>
      <trkpt lat="44.51554" lon="3.49762">
        <ele>757.20001220703</ele>
        <time>2019-05-26T10:23:54Z</time>
      </trkpt>
      <trkpt lat="44.51553" lon="3.49755">
        <ele>757</ele>
        <time>2019-05-26T10:23:57Z</time>
      </trkpt>
      <trkpt lat="44.51553" lon="3.49753">
        <ele>756.79998779297</ele>
        <time>2019-05-26T10:23:58Z</time>
      </trkpt>
      <trkpt lat="44.51552" lon="3.4975">
        <ele>756.59997558594</ele>
        <time>2019-05-26T10:24:00Z</time>
      </trkpt>
      <trkpt lat="44.51551" lon="3.49747">
        <ele>756.40002441406</ele>
        <time>2019-05-26T10:24:02Z</time>
      </trkpt>
      <trkpt lat="44.51549" lon="3.49742">
        <ele>756.40002441406</ele>
        <time>2019-05-26T10:24:05Z</time>
      </trkpt>
      <trkpt lat="44.51545" lon="3.49743">
        <ele>756.40002441406</ele>
        <time>2019-05-26T10:24:08Z</time>
      </trkpt>
      <trkpt lat="44.51542" lon="3.49743">
        <ele>756.20001220703</ele>
        <time>2019-05-26T10:24:11Z</time>
      </trkpt>
    </trkseg>
  </trk>
</gpx>